Live Flight Tracker OMA7478

Live Map

Flight Info OMA7478

Flight: OMA7478 PIC: Omar Alkharusi
Departure: KSEA Arrival: PHNL
Registration: A4OBAA
Current Alt: 42 FT GS: 0 KT
Last Info: 2021-04-14 12:40:37
Distance: 0 NM Status: Arrived

ACARS Info OMA7478

Pilot Flight Time ALT GS Latitude Longitude
OMA0485 OMA7478 2021-04-14 12:40:37 42 0 21.331388640947 -157.92190052877
OMA0485 OMA7478 2021-04-14 12:40:22 42 0 21.331388639757 -157.92190052877
OMA0485 OMA7478 2021-04-14 12:40:07 42 0 21.331388639836 -157.92190052877
OMA0485 OMA7478 2021-04-14 12:39:52 42 0 21.331388639849 -157.92190052877
OMA0485 OMA7478 2021-04-14 12:39:37 42 0 21.331388639915 -157.92190052877
OMA0485 OMA7478 2021-04-14 12:39:22 42 0 21.331388639991 -157.92190052877
OMA0485 OMA7478 2021-04-14 12:39:07 42 0 21.331388639945 -157.92190052877
OMA0485 OMA7478 2021-04-14 12:38:52 42 0 21.331388640079 -157.92190052877
OMA0485 OMA7478 2021-04-14 12:38:37 42 0 21.331388640212 -157.92190052877
OMA0485 OMA7478 2021-04-14 12:38:22 42 0 21.331388640024 -157.92190052877
OMA0485 OMA7478 2021-04-14 12:38:07 42 0 21.331388640279 -157.92190052877
OMA0485 OMA7478 2021-04-14 12:37:52 42 0 21.33138864013 -157.92190052877
OMA0485 OMA7478 2021-04-14 12:37:37 42 0 21.331388640464 -157.92190052877
OMA0485 OMA7478 2021-04-14 12:37:22 42 0 21.331388780143 -157.92190050209
OMA0485 OMA7478 2021-04-14 12:37:07 41 0 21.331099016674 -157.92194944066
OMA0485 OMA7478 2021-04-14 12:36:52 40 0 21.33107506895 -157.92195333601
OMA0485 OMA7478 2021-04-14 12:36:37 41 0 21.331114495136 -157.92194694604
OMA0485 OMA7478 2021-04-14 12:36:22 40 3 21.330940470778 -157.92197459364
OMA0485 OMA7478 2021-04-14 12:36:07 38 5 21.330586830215 -157.92203090268
OMA0485 OMA7478 2021-04-14 12:35:52 36 7 21.330084474912 -157.9221121379
OMA0485 OMA7478 2021-04-14 12:35:37 35 7 21.329505183466 -157.92221291654
OMA0485 OMA7478 2021-04-14 12:35:22 34 7 21.328881608546 -157.92232527449
OMA0485 OMA7478 2021-04-14 12:35:07 34 7 21.328299594588 -157.92241135889
OMA0485 OMA7478 2021-04-14 12:34:52 33 7 21.327736531094 -157.92247031596
OMA0485 OMA7478 2021-04-14 12:34:37 32 9 21.327145472045 -157.92238477184
OMA0485 OMA7478 2021-04-14 12:34:22 30 13 21.32690813816 -157.92159728571
OMA0485 OMA7478 2021-04-14 12:34:07 28 13 21.326910605188 -157.92053801275
OMA0485 OMA7478 2021-04-14 12:33:52 26 15 21.32690704262 -157.9193386342
OMA0485 OMA7478 2021-04-14 12:33:37 24 19 21.326882159873 -157.91793829868
OMA0485 OMA7478 2021-04-14 12:33:22 25 19 21.326889008105 -157.91634525044
OMA0485 OMA7478 2021-04-14 12:33:07 27 15 21.326893350149 -157.91491632017
OMA0485 OMA7478 2021-04-14 12:32:52 27 13 21.326899520573 -157.91374768414
OMA0485 OMA7478 2021-04-14 12:32:37 25 11 21.326308895905 -157.91324814652
OMA0485 OMA7478 2021-04-14 12:32:22 21 11 21.325401023042 -157.91334959884
OMA0485 OMA7478 2021-04-14 12:32:07 20 7 21.324642102193 -157.91351201593
OMA0485 OMA7478 2021-04-14 12:31:52 20 1 21.324264829505 -157.91367275216
OMA0485 OMA7478 2021-04-14 12:31:37 20 0 21.324215469587 -157.9136960375
OMA0485 OMA7478 2021-04-14 12:31:22 20 3 21.324175463432 -157.91371542083
OMA0485 OMA7478 2021-04-14 12:31:07 18 17 21.323312984342 -157.91428047225
OMA0485 OMA7478 2021-04-14 12:30:52 17 0 21.322764963428 -157.91471817131
OMA0485 OMA7478 2021-04-14 12:30:37 15 42 21.32188910518 -157.91594024823
OMA0485 OMA7478 2021-04-14 12:30:22 17 91 21.31914538899 -157.91977058364
OMA0485 OMA7478 2021-04-14 12:30:07 66 130 21.314159607929 -157.92678664867
OMA0485 OMA7478 2021-04-14 12:29:52 234 130 21.308640241644 -157.93460633481
OMA0485 OMA7478 2021-04-14 12:29:37 410 130 21.303141905364 -157.94239934053
OMA0485 OMA7478 2021-04-14 12:29:22 587 130 21.297629392269 -157.95019882626
OMA0485 OMA7478 2021-04-14 12:29:07 768 130 21.292075679984 -157.95805014872
OMA0485 OMA7478 2021-04-14 12:28:52 941 132 21.286564424068 -157.96585178889
OMA0485 OMA7478 2021-04-14 12:28:37 1120 132 21.280973949492 -157.97376372928
OMA0485 OMA7478 2021-04-14 12:28:22 1299 132 21.275414375939 -157.9816308649
OMA0485 OMA7478 2021-04-14 12:28:07 1479 132 21.269802787844 -157.98956987092
OMA0485 OMA7478 2021-04-14 12:27:52 1655 132 21.264207870428 -157.99748275429
OMA0485 OMA7478 2021-04-14 12:27:37 1809 134 21.258581197258 -158.00544221544
OMA0485 OMA7478 2021-04-14 12:27:22 1986 134 21.252874071369 -158.01350636641
OMA0485 OMA7478 2021-04-14 12:27:07 1974 132 21.247236856974 -158.02147008601
OMA0485 OMA7478 2021-04-14 12:26:52 1984 136 21.241609739298 -158.02942265068
OMA0485 OMA7478 2021-04-14 12:26:37 1994 138 21.23587548616 -158.03752809753
OMA0485 OMA7478 2021-04-14 12:26:22 2002 139 21.229960553328 -158.04588220596
OMA0485 OMA7478 2021-04-14 12:26:07 1967 138 21.224100929536 -158.05415989831
OMA0485 OMA7478 2021-04-14 12:25:52 1997 141 21.21822485316 -158.0624698573
OMA0485 OMA7478 2021-04-14 12:25:37 1994 147 21.212119614945 -158.07111287473
OMA0485 OMA7478 2021-04-14 12:25:22 1991 147 21.205897584737 -158.07993424413
OMA0485 OMA7478 2021-04-14 12:25:07 1982 147 21.19971147941 -158.08873618352
OMA0485 OMA7478 2021-04-14 12:24:52 1996 149 21.193459673218 -158.09768470517
OMA0485 OMA7478 2021-04-14 12:24:37 1992 147 21.187314709309 -158.1065683
OMA0485 OMA7478 2021-04-14 12:24:22 1961 151 21.181195319936 -158.11556897521
OMA0485 OMA7478 2021-04-14 12:24:07 2031 165 21.174871634043 -158.12515921448
OMA0485 OMA7478 2021-04-14 12:23:52 1967 178 21.168138025377 -158.13588137083
OMA0485 OMA7478 2021-04-14 12:23:37 1969 198 21.16118016069 -158.14774003332
OMA0485 OMA7478 2021-04-14 12:23:22 2038 219 21.153004145594 -158.16073273398
OMA0485 OMA7478 2021-04-14 12:23:07 1974 231 21.140594414083 -158.17085908974
OMA0485 OMA7478 2021-04-14 12:22:52 1984 233 21.124562844379 -158.17124003287
OMA0485 OMA7478 2021-04-14 12:22:37 1997 235 21.109272804491 -158.16545865126
OMA0485 OMA7478 2021-04-14 12:22:22 1983 237 21.095128212278 -158.15650349953
OMA0485 OMA7478 2021-04-14 12:22:07 1987 239 21.084308143155 -158.14320991035
OMA0485 OMA7478 2021-04-14 12:21:52 2004 241 21.07749524987 -158.12680191499
OMA0485 OMA7478 2021-04-14 12:21:37 1987 242 21.075502633139 -158.1091197892
OMA0485 OMA7478 2021-04-14 12:21:22 2328 254 21.079619449061 -158.09101554571
OMA0485 OMA7478 2021-04-14 12:21:07 2858 258 21.088628544435 -158.07476856006
OMA0485 OMA7478 2021-04-14 12:20:52 3383 260 21.101133715455 -158.06099889202
OMA0485 OMA7478 2021-04-14 12:20:37 3908 262 21.113873988971 -158.04712559721
OMA0485 OMA7478 2021-04-14 12:20:22 4433 264 21.1266871403 -158.03317152741
OMA0485 OMA7478 2021-04-14 12:20:07 4959 268 21.139678650958 -158.01902133646
OMA0485 OMA7478 2021-04-14 12:19:52 5483 270 21.152722164233 -158.00481272163
OMA0485 OMA7478 2021-04-14 12:19:37 6007 272 21.165980457261 -157.99036842775
OMA0485 OMA7478 2021-04-14 12:19:22 6559 276 21.179298721229 -157.97585524126
OMA0485 OMA7478 2021-04-14 12:19:07 7221 272 21.192570892588 -157.96138703631
OMA0485 OMA7478 2021-04-14 12:18:52 7597 274 21.205879889436 -157.94686228552
OMA0485 OMA7478 2021-04-14 12:18:37 7877 276 21.219119953256 -157.93222419962
OMA0485 OMA7478 2021-04-14 12:18:22 8161 276 21.232299582183 -157.91716750116
OMA0485 OMA7478 2021-04-14 12:18:07 8447 277 21.245446971519 -157.90215251088
OMA0485 OMA7478 2021-04-14 12:17:52 8736 279 21.258733979264 -157.88695161806
OMA0485 OMA7478 2021-04-14 12:17:37 9020 279 21.271786470561 -157.87153569434
OMA0485 OMA7478 2021-04-14 12:17:22 9310 281 21.283454478563 -157.85469827752
OMA0485 OMA7478 2021-04-14 12:17:07 9602 281 21.29203199051 -157.8359402702
OMA0485 OMA7478 2021-04-14 12:16:52 9895 281 21.299533075687 -157.8164302884
OMA0485 OMA7478 2021-04-14 12:16:37 10112 287 21.307080715505 -157.79682033505
OMA0485 OMA7478 2021-04-14 12:16:22 10406 295 21.3148232965 -157.77672854653
OMA0485 OMA7478 2021-04-14 12:16:07 10720 297 21.322671583658 -157.75633462887
OMA0485 OMA7478 2021-04-14 12:15:52 11064 299 21.3306568781 -157.73545308639
OMA0485 OMA7478 2021-04-14 12:15:37 11403 301 21.338470902983 -157.71498530396
OMA0485 OMA7478 2021-04-14 12:15:22 11745 303 21.346395347995 -157.69421000294
OMA0485 OMA7478 2021-04-14 12:15:07 12092 305 21.354401975913 -157.67319102958
OMA0485 OMA7478 2021-04-14 12:14:52 12440 305 21.362443844078 -157.65204535088
OMA0485 OMA7478 2021-04-14 12:14:37 12784 307 21.370471451991 -157.63090622782
OMA0485 OMA7478 2021-04-14 12:14:22 13130 309 21.378591255734 -157.6095227198
OMA0485 OMA7478 2021-04-14 12:14:07 13476 311 21.386808120109 -157.5882494553
OMA0485 OMA7478 2021-04-14 12:13:52 13820 314 21.395760638959 -157.56707293402
OMA0485 OMA7478 2021-04-14 12:13:37 14129 318 21.406993597479 -157.54676245939
OMA0485 OMA7478 2021-04-14 12:13:22 14263 332 21.422222152793 -157.52879388587
OMA0485 OMA7478 2021-04-14 12:13:07 14701 334 21.440852561431 -157.51569753175
OMA0485 OMA7478 2021-04-14 12:12:52 14972 338 21.462834131066 -157.50758508128
OMA0485 OMA7478 2021-04-14 12:12:37 14980 336 21.485944266996 -157.5048497506
OMA0485 OMA7478 2021-04-14 12:12:22 15194 342 21.509338903783 -157.50306968591
OMA0485 OMA7478 2021-04-14 12:12:07 15533 347 21.533378807209 -157.50123930193
OMA0485 OMA7478 2021-04-14 12:11:52 15936 351 21.557560430978 -157.49939643152
OMA0485 OMA7478 2021-04-14 12:11:37 16350 357 21.58225094126 -157.49751177956
OMA0485 OMA7478 2021-04-14 12:11:22 16824 359 21.607027237462 -157.49562179151
OMA0485 OMA7478 2021-04-14 12:11:07 17451 357 21.631897919015 -157.49372459974
OMA0485 OMA7478 2021-04-14 12:10:52 17897 357 21.656602825344 -157.49184624436
OMA0485 OMA7478 2021-04-14 12:10:37 18255 344 21.681010600073 -157.4900053483
OMA0485 OMA7478 2021-04-14 12:10:22 18540 346 21.704756449226 -157.48820377918
OMA0485 OMA7478 2021-04-14 12:10:07 18818 353 21.72905125545 -157.48635973483
OMA0485 OMA7478 2021-04-14 12:09:52 19076 359 21.753655645089 -157.48448282019
OMA0485 OMA7478 2021-04-14 12:09:37 19296 365 21.779053290593 -157.48254416704
OMA0485 OMA7478 2021-04-14 12:09:22 19522 353 21.803917029419 -157.48065898147
OMA0485 OMA7478 2021-04-14 12:09:07 19801 353 21.828378937647 -157.47879119154
OMA0485 OMA7478 2021-04-14 12:08:52 20078 361 21.853059205635 -157.47690301776
OMA0485 OMA7478 2021-04-14 12:08:37 20343 369 21.878401568233 -157.47496020246
OMA0485 OMA7478 2021-04-14 12:08:22 20566 375 21.904139075401 -157.47299348151
OMA0485 OMA7478 2021-04-14 12:08:07 20792 363 21.929832851918 -157.47104250201
OMA0485 OMA7478 2021-04-14 12:07:52 21070 361 21.954719737269 -157.46914429639
OMA0485 OMA7478 2021-04-14 12:07:37 21354 369 21.980116859262 -157.46720457602
OMA0485 OMA7478 2021-04-14 12:07:22 21638 375 22.005832403424 -157.4652399895
OMA0485 OMA7478 2021-04-14 12:07:07 21924 382 22.032220106789 -157.46322337615
OMA0485 OMA7478 2021-04-14 12:06:52 22209 392 22.058964547391 -157.46117666728
OMA0485 OMA7478 2021-04-14 12:06:37 22497 400 22.086543786465 -157.45906421783
OMA0485 OMA7478 2021-04-14 12:06:22 23066 423 22.143572672757 -157.45468718715
OMA0485 OMA7478 2021-04-14 12:05:52 23341 437 22.173275302176 -157.45240371617
OMA0485 OMA7478 2021-04-14 12:05:37 23593 441 22.203969435307 -157.45004607361
OMA0485 OMA7478 2021-04-14 12:05:22 23842 443 22.234485256328 -157.44770139773
OMA0485 OMA7478 2021-04-14 12:05:07 24093 445 22.265356518984 -157.44532828052
OMA0485 OMA7478 2021-04-14 12:04:52 24342 447 22.296080989904 -157.44296487499
OMA0485 OMA7478 2021-04-14 12:04:37 24593 449 22.327204779831 -157.44056942626
OMA0485 OMA7478 2021-04-14 12:04:22 24842 450 22.35825379756 -157.43817939366
OMA0485 OMA7478 2021-04-14 12:04:07 25093 452 22.389633901095 -157.43576260059
OMA0485 OMA7478 2021-04-14 12:03:52 25342 454 22.420950427562 -157.43335002303
OMA0485 OMA7478 2021-04-14 12:03:37 25593 456 22.452605726735 -157.4309091909
OMA0485 OMA7478 2021-04-14 12:03:22 25842 458 22.484182627815 -157.42847246755
OMA0485 OMA7478 2021-04-14 12:03:07 26093 460 22.516101227899 -157.42600845013
OMA0485 OMA7478 2021-04-14 12:02:52 26342 462 22.547951068247 -157.42354880829
OMA0485 OMA7478 2021-04-14 12:02:37 26593 464 22.58012715802 -157.42106328645
OMA0485 OMA7478 2021-04-14 12:02:22 26842 466 22.612237162572 -157.41858173998
OMA0485 OMA7478 2021-04-14 12:02:07 27093 468 22.644693492331 -157.41607207235
OMA0485 OMA7478 2021-04-14 12:01:52 27342 470 22.677062858199 -157.41356742064
OMA0485 OMA7478 2021-04-14 12:01:37 27593 472 22.709810321305 -157.41103278012
OMA0485 OMA7478 2021-04-14 12:01:22 27843 474 22.742473437905 -157.40850464964
OMA0485 OMA7478 2021-04-14 12:01:07 28094 476 22.775466502198 -157.40594941183
OMA0485 OMA7478 2021-04-14 12:00:52 28344 478 22.808358782376 -157.40340073742
OMA0485 OMA7478 2021-04-14 12:00:37 28595 480 22.841591874603 -157.40082268785
OMA0485 OMA7478 2021-04-14 12:00:22 28846 482 22.874796763032 -157.39824658596
OMA0485 OMA7478 2021-04-14 12:00:08 29101 485 22.908633818186 -157.39562123199
OMA0485 OMA7478 2021-04-14 11:59:52 29350 487 22.942169782098 -157.39301834295
OMA0485 OMA7478 2021-04-14 11:59:37 29601 487 22.975967751015 -157.3903925621
OMA0485 OMA7478 2021-04-14 11:59:22 29850 487 23.009562818406 -157.38778310967
OMA0485 OMA7478 2021-04-14 11:59:07 30101 487 23.043393624171 -157.38515319336
OMA0485 OMA7478 2021-04-14 11:58:52 30350 485 23.076934391903 -157.38254328736
OMA0485 OMA7478 2021-04-14 11:58:37 30601 485 23.110684738965 -157.37991427818
OMA0485 OMA7478 2021-04-14 11:58:22 30850 485 23.14421128274 -157.3773012239
OMA0485 OMA7478 2021-04-14 11:58:07 31101 485 23.177906423681 -157.37467504284
OMA0485 OMA7478 2021-04-14 11:57:52 31350 485 23.211391793625 -157.37206337594
OMA0485 OMA7478 2021-04-14 11:57:37 31601 485 23.245085815824 -157.3694360743
OMA0485 OMA7478 2021-04-14 11:57:22 31850 484 23.278537616971 -157.36682582146
OMA0485 OMA7478 2021-04-14 11:57:07 32101 484 23.312158174575 -157.36419964041
OMA0485 OMA7478 2021-04-14 11:56:53 32350 484 23.345512222732 -157.36159264258
OMA0485 OMA7478 2021-04-14 11:56:37 32601 484 23.379129715423 -157.35896395356
OMA0485 OMA7478 2021-04-14 11:56:22 32850 484 23.412464535976 -157.35635572844
OMA0485 OMA7478 2021-04-14 11:56:07 33101 484 23.446021235588 -157.35372989423
OMA0485 OMA7478 2021-04-14 11:55:52 33350 484 23.479335612736 -157.35112158906
OMA0485 OMA7478 2021-04-14 11:55:37 33599 482 23.512631308036 -157.34851381749
OMA0485 OMA7478 2021-04-14 11:55:22 33850 482 23.546140643423 -157.34588899714
OMA0485 OMA7478 2021-04-14 11:55:07 34087 482 23.577839633453 -157.34340075389
OMA0485 OMA7478 2021-04-14 11:54:52 34338 482 23.611252497082 -157.34077812133
OMA0485 OMA7478 2021-04-14 11:54:37 34586 480 23.644463431024 -157.33817093674
OMA0485 OMA7478 2021-04-14 11:54:22 34834 480 23.67781509448 -157.33554766385
OMA0485 OMA7478 2021-04-14 11:54:07 35081 478 23.710846796269 -157.33294933716
OMA0485 OMA7478 2021-04-14 11:53:52 35331 478 23.744015740101 -157.33033967129
OMA0485 OMA7478 2021-04-14 11:53:37 35580 480 23.776990266531 -157.32774491978
OMA0485 OMA7478 2021-04-14 11:53:22 35835 482 23.810404994367 -157.32511217533
OMA0485 OMA7478 2021-04-14 11:53:07 36067 482 23.843700278028 -157.32248303275
OMA0485 OMA7478 2021-04-14 11:52:52 36093 482 23.877177511765 -157.31983641449
OMA0485 OMA7478 2021-04-14 11:52:37 36096 478 23.910344673466 -157.31720420366
OMA0485 OMA7478 2021-04-14 11:52:22 36086 472 23.943331335145 -157.3145841591
OMA0485 OMA7478 2021-04-14 11:52:07 36092 478 23.976114853892 -157.31198303097
OMA0485 OMA7478 2021-04-14 11:51:52 36091 480 24.009468762047 -157.30932192523
OMA0485 OMA7478 2021-04-14 11:51:37 36091 478 24.042494494108 -157.30667437316
OMA0485 OMA7478 2021-04-14 11:51:22 36091 478 24.075736892137 -157.30399496465
OMA0485 OMA7478 2021-04-14 11:51:07 36091 478 24.108761760321 -157.30131251457
OMA0485 OMA7478 2021-04-14 11:50:52 36091 478 24.141962087198 -157.29858798947
OMA0485 OMA7478 2021-04-14 11:50:37 36091 478 24.174948895664 -157.2958486834
OMA0485 OMA7478 2021-04-14 11:50:22 36092 480 24.20816916217 -157.29304411702
OMA0485 OMA7478 2021-04-14 11:50:07 36095 480 24.241173700215 -157.29010030548
OMA0485 OMA7478 2021-04-14 11:49:52 36093 476 24.274237984829 -157.28571855237
OMA0485 OMA7478 2021-04-14 11:49:37 36093 472 24.30595018347 -157.27652874628
OMA0485 OMA7478 2021-04-14 11:49:22 36087 466 24.335516652915 -157.26139416766
OMA0485 OMA7478 2021-04-14 11:49:07 36092 458 24.361034556511 -157.24040958538
OMA0485 OMA7478 2021-04-14 11:48:52 36091 458 24.38490377337 -157.21719209152
OMA0485 OMA7478 2021-04-14 11:48:37 36091 456 24.408595310014 -157.19413769511
OMA0485 OMA7478 2021-04-14 11:48:22 36091 458 24.432400716541 -157.17096223627
OMA0485 OMA7478 2021-04-14 11:48:07 36092 458 24.4560900887 -157.14788928362
OMA0485 OMA7478 2021-04-14 11:47:52 36091 458 24.479959563916 -157.12462644638
OMA0485 OMA7478 2021-04-14 11:47:37 36092 458 24.503598414954 -157.10157813978
OMA0485 OMA7478 2021-04-14 11:47:22 36092 458 24.527432948608 -157.07832464736
OMA0485 OMA7478 2021-04-14 11:47:07 36092 456 24.551082270484 -157.0552375074
OMA0485 OMA7478 2021-04-14 11:46:52 36091 456 24.574877711097 -157.03199741188
OMA0485 OMA7478 2021-04-14 11:46:37 36092 456 24.598489118865 -157.00892566653
OMA0485 OMA7478 2021-04-14 11:46:22 36092 456 24.622248978423 -156.9856971103
OMA0485 OMA7478 2021-04-14 11:46:07 36091 456 24.645889398476 -156.96257304129
OMA0485 OMA7478 2021-04-14 11:45:52 36092 456 24.669707719667 -156.93926613799
OMA0485 OMA7478 2021-04-14 11:45:37 36091 456 24.693374081353 -156.91609657552
OMA0485 OMA7478 2021-04-14 11:45:22 36091 456 24.717157062627 -156.89280148832
OMA0485 OMA7478 2021-04-14 11:45:07 36092 456 24.740769072837 -156.86966326201
OMA0485 OMA7478 2021-04-14 11:44:52 36091 456 24.764554394728 -156.84634032711
OMA0485 OMA7478 2021-04-14 11:44:37 36092 456 24.788165925088 -156.82317916897
OMA0485 OMA7478 2021-04-14 11:44:22 36092 456 24.811910311859 -156.79988087345
OMA0485 OMA7478 2021-04-14 11:44:07 36092 456 24.835487542974 -156.77673913866
OMA0485 OMA7478 2021-04-14 11:43:52 36092 456 24.859211267546 -156.75344930083
OMA0485 OMA7478 2021-04-14 11:43:37 36092 456 24.882797583667 -156.73029306523
OMA0485 OMA7478 2021-04-14 11:43:22 36091 456 24.906557030596 -156.70696279321
OMA0485 OMA7478 2021-04-14 11:43:07 36091 456 24.930198847961 -156.68375079552
OMA0485 OMA7478 2021-04-14 11:42:52 36092 456 24.953963448129 -156.66042924801
OMA0485 OMA7478 2021-04-14 11:42:37 36092 456 24.977605962399 -156.63726556082
OMA0485 OMA7478 2021-04-14 11:42:22 36092 456 25.00143520777 -156.61395732684
OMA0485 OMA7478 2021-04-14 11:42:07 36092 456 25.025057384948 -156.59089594016
OMA0485 OMA7478 2021-04-14 11:41:52 36092 454 25.04887454063 -156.56771545205
OMA0485 OMA7478 2021-04-14 11:41:37 36092 454 25.072622302527 -156.54470806656
OMA0485 OMA7478 2021-04-14 11:41:22 36091 454 25.096529862279 -156.52171802334
OMA0485 OMA7478 2021-04-14 11:41:07 36092 456 25.120385913225 -156.49903197689
OMA0485 OMA7478 2021-04-14 11:40:52 36091 456 25.143784071485 -156.47708994083
OMA0485 OMA7478 2021-04-14 11:40:37 36092 456 25.167996482106 -156.45469684547
OMA0485 OMA7478 2021-04-14 11:40:22 36093 454 25.192202121533 -156.43195287582
OMA0485 OMA7478 2021-04-14 11:40:07 36093 452 25.215548536339 -156.40878268636
OMA0485 OMA7478 2021-04-14 11:39:52 36093 450 25.238937552224 -156.3855377917
OMA0485 OMA7478 2021-04-14 11:39:37 36091 452 25.262141117187 -156.36247685859
OMA0485 OMA7478 2021-04-14 11:39:22 36094 458 25.285705511279 -156.33905787416
OMA0485 OMA7478 2021-04-14 11:39:07 36025 474 25.309654674815 -156.3153386282
OMA0485 OMA7478 2021-04-14 11:38:52 36084 499 25.335013544478 -156.29026220231
OMA0485 OMA7478 2021-04-14 11:38:37 36074 501 25.360773260776 -156.26462484714
OMA0485 OMA7478 2021-04-14 11:38:22 36073 499 25.38663804012 -156.2388557707
OMA0485 OMA7478 2021-04-14 11:38:07 36073 499 25.412331604809 -156.21324289482
OMA0485 OMA7478 2021-04-14 11:37:52 36073 499 25.438182482152 -156.18745814363
OMA0485 OMA7478 2021-04-14 11:37:37 36073 499 25.463898258915 -156.16179453492
OMA0485 OMA7478 2021-04-14 11:37:22 36073 499 25.489771802271 -156.13595778358
OMA0485 OMA7478 2021-04-14 11:37:07 36073 499 25.515457681413 -156.11029194705
OMA0485 OMA7478 2021-04-14 11:36:52 36073 499 25.541281957151 -156.08447077708
OMA0485 OMA7478 2021-04-14 11:36:37 36073 499 25.56697418878 -156.05876650072
OMA0485 OMA7478 2021-04-14 11:36:22 36073 499 25.592814708953 -156.03289987064
OMA0485 OMA7478 2021-04-14 11:36:07 36073 501 25.618473903769 -156.00719995737
OMA0485 OMA7478 2021-04-14 11:35:52 36073 501 25.64434430242 -155.98127178138
OMA0485 OMA7478 2021-04-14 11:35:37 36073 501 25.670020355208 -155.95551913008
OMA0485 OMA7478 2021-04-14 11:35:22 36073 501 25.695827620657 -155.92961886932
OMA0485 OMA7478 2021-04-14 11:35:07 36073 501 25.72151057049 -155.90382932232
OMA0485 OMA7478 2021-04-14 11:34:52 36073 499 25.747325717346 -155.87789071845
OMA0485 OMA7478 2021-04-14 11:34:37 36073 499 25.773157933755 -155.85191909756
OMA0485 OMA7478 2021-04-14 11:34:22 36074 499 25.79883460443 -155.82608590805
OMA0485 OMA7478 2021-04-14 11:34:07 36073 499 25.824606752613 -155.80013745911
OMA0485 OMA7478 2021-04-14 11:33:52 36073 499 25.850184780501 -155.77436790242
OMA0485 OMA7478 2021-04-14 11:33:37 36073 499 25.875943818291 -155.74840147087
OMA0485 OMA7478 2021-04-14 11:33:22 36073 501 25.90158456359 -155.72253298316
OMA0485 OMA7478 2021-04-14 11:33:07 36073 501 25.927411884127 -155.69644843736
OMA0485 OMA7478 2021-04-14 11:32:52 36073 499 25.952998469421 -155.67058339142
OMA0485 OMA7478 2021-04-14 11:32:37 36074 499 25.978717510661 -155.64458661648
OMA0485 OMA7478 2021-04-14 11:32:22 36073 499 26.004289647989 -155.6187349908
OMA0485 OMA7478 2021-04-14 11:32:07 36074 499 26.030024312646 -155.59270391258
OMA0485 OMA7478 2021-04-14 11:31:52 36073 499 26.055587416907 -155.56683008878
OMA0485 OMA7478 2021-04-14 11:31:37 36073 499 26.081306046679 -155.54078284222
OMA0485 OMA7478 2021-04-14 11:31:22 36075 499 26.10425360848 -155.51752914302
OMA0485 OMA7478 2021-04-14 11:31:07 36076 499 26.129976293354 -155.49144785223
OMA0485 OMA7478 2021-04-14 11:30:52 36077 499 26.155534238735 -155.46551666552
OMA0485 OMA7478 2021-04-14 11:30:37 36077 499 26.178439136956 -155.44226075185
OMA0485 OMA7478 2021-04-14 11:30:22 36075 499 26.203994216715 -155.41630053684
OMA0485 OMA7478 2021-04-14 11:30:07 36073 499 26.229682513357 -155.39018912385
OMA0485 OMA7478 2021-04-14 11:29:52 36073 499 26.255232034979 -155.3642029221
OMA0485 OMA7478 2021-04-14 11:29:37 36073 499 26.280915029829 -155.33806120015
OMA0485 OMA7478 2021-04-14 11:29:22 36073 499 26.306422794831 -155.31208257564
OMA0485 OMA7478 2021-04-14 11:29:07 36074 499 26.332152889124 -155.28586446762
OMA0485 OMA7478 2021-04-14 11:28:52 36077 499 26.35775668088 -155.25975396176
OMA0485 OMA7478 2021-04-14 11:28:37 36080 499 26.383432324818 -155.23355380968
OMA0485 OMA7478 2021-04-14 11:28:22 36083 499 26.408950417026 -155.20750264109
OMA0485 OMA7478 2021-04-14 11:28:07 36086 501 26.434617979763 -155.18128313235
OMA0485 OMA7478 2021-04-14 11:27:52 36089 501 26.46022385679 -155.15510623225
OMA0485 OMA7478 2021-04-14 11:27:37 36092 499 26.485948315441 -155.12878695206
OMA0485 OMA7478 2021-04-14 11:27:22 36095 499 26.511395935513 -155.1027318948
OMA0485 OMA7478 2021-04-14 11:27:07 36098 499 26.536983692875 -155.07651524087
OMA0485 OMA7478 2021-04-14 11:26:52 36098 499 26.56245815506 -155.05040218703
OMA0485 OMA7478 2021-04-14 11:26:37 36094 499 26.588094551162 -155.02411119643
OMA0485 OMA7478 2021-04-14 11:26:22 36092 501 26.613619938725 -154.99791773591
OMA0485 OMA7478 2021-04-14 11:26:07 36090 503 26.639418790703 -154.97142701084
OMA0485 OMA7478 2021-04-14 11:25:52 36090 503 26.665074495211 -154.94506550554
OMA0485 OMA7478 2021-04-14 11:25:37 36090 505 26.690953651244 -154.91846082816
OMA0485 OMA7478 2021-04-14 11:25:22 36091 507 26.716741860488 -154.89193508816
OMA0485 OMA7478 2021-04-14 11:25:07 36095 509 26.742802875712 -154.86511480959
OMA0485 OMA7478 2021-04-14 11:24:52 36098 511 26.768779303578 -154.83836484061
OMA0485 OMA7478 2021-04-14 11:24:37 36100 513 26.794990903185 -154.81134977492
OMA0485 OMA7478 2021-04-14 11:24:22 36100 513 26.821041624573 -154.78447995747
OMA0485 OMA7478 2021-04-14 11:24:07 36101 513 26.847313529533 -154.7573617986
OMA0485 OMA7478 2021-04-14 11:23:52 36101 513 26.87338497974 -154.730426414
OMA0485 OMA7478 2021-04-14 11:23:37 36101 511 26.899606778344 -154.70330728131
OMA0485 OMA7478 2021-04-14 11:23:22 36100 509 26.925590133054 -154.67639734983
OMA0485 OMA7478 2021-04-14 11:23:07 36101 507 26.951642834987 -154.64941075775
OMA0485 OMA7478 2021-04-14 11:22:52 36101 507 26.977580137503 -154.62254410193
OMA0485 OMA7478 2021-04-14 11:22:37 36101 505 27.003232165498 -154.59595145408
OMA0485 OMA7478 2021-04-14 11:22:22 36100 503 27.028968813776 -154.56925827439
OMA0485 OMA7478 2021-04-14 11:22:07 36100 503 27.054468491576 -154.54279849508
OMA0485 OMA7478 2021-04-14 11:21:52 36098 503 27.080177816059 -154.51610200701
OMA0485 OMA7478 2021-04-14 11:21:37 36097 503 27.105791833418 -154.48948977574
OMA0485 OMA7478 2021-04-14 11:21:22 36097 503 27.131482752479 -154.46278373608
OMA0485 OMA7478 2021-04-14 11:21:07 36096 503 27.157011495243 -154.43622225098
OMA0485 OMA7478 2021-04-14 11:20:52 36094 503 27.180959389987 -154.41128936578
OMA0485 OMA7478 2021-04-14 11:20:37 36093 503 27.206554959931 -154.38462788244
OMA0485 OMA7478 2021-04-14 11:20:22 36093 503 27.232202681637 -154.35789628294
OMA0485 OMA7478 2021-04-14 11:20:07 36092 503 27.257825357979 -154.33117186047
OMA0485 OMA7478 2021-04-14 11:19:52 36091 503 27.283330078292 -154.30455066457
OMA0485 OMA7478 2021-04-14 11:19:37 36092 503 27.308992926635 -154.27775097662
OMA0485 OMA7478 2021-04-14 11:19:22 36091 503 27.334668434059 -154.25092100638
OMA0485 OMA7478 2021-04-14 11:19:07 36093 503 27.360147531139 -154.22427513109
OMA0485 OMA7478 2021-04-14 11:18:52 36092 503 27.385792844197 -154.19743403512
OMA0485 OMA7478 2021-04-14 11:18:37 36092 503 27.41125048749 -154.17077327215
OMA0485 OMA7478 2021-04-14 11:18:22 36093 503 27.436811245331 -154.14399128666
OMA0485 OMA7478 2021-04-14 11:18:07 36092 503 27.462457004682 -154.11710072517
OMA0485 OMA7478 2021-04-14 11:17:52 36092 503 27.487903883991 -154.09039942129
OMA0485 OMA7478 2021-04-14 11:17:37 36092 503 27.513508164648 -154.06351112765
OMA0485 OMA7478 2021-04-14 11:17:22 36091 503 27.53910812955 -154.03661004407
OMA0485 OMA7478 2021-04-14 11:17:07 36092 503 27.564519528463 -154.00989449201
OMA0485 OMA7478 2021-04-14 11:16:52 36091 503 27.590113189889 -153.98296895665
OMA0485 OMA7478 2021-04-14 11:16:37 36092 503 27.615590835535 -153.95614621682
OMA0485 OMA7478 2021-04-14 11:16:22 36092 503 27.641172130323 -153.9291931631
OMA0485 OMA7478 2021-04-14 11:16:07 36092 503 27.666782685422 -153.90219129088
OMA0485 OMA7478 2021-04-14 11:15:52 36091 503 27.69222976799 -153.87534121694
OMA0485 OMA7478 2021-04-14 11:15:37 36092 503 27.717813318695 -153.84833571618
OMA0485 OMA7478 2021-04-14 11:15:22 36092 503 27.743411836561 -153.82129292952
OMA0485 OMA7478 2021-04-14 11:15:07 36092 503 27.768953926667 -153.7942873087
OMA0485 OMA7478 2021-04-14 11:14:52 36091 503 27.794350120487 -153.76741266209
OMA0485 OMA7478 2021-04-14 11:14:37 36092 503 27.819949181049 -153.74030220053
OMA0485 OMA7478 2021-04-14 11:14:22 36092 503 27.845572121105 -153.71313904513
OMA0485 OMA7478 2021-04-14 11:14:07 36092 501 27.870868506956 -153.68629384037
OMA0485 OMA7478 2021-04-14 11:13:52 36091 501 27.896289570681 -153.65930304053
OMA0485 OMA7478 2021-04-14 11:13:37 36092 503 27.921833524207 -153.63218726182
OMA0485 OMA7478 2021-04-14 11:13:22 36091 501 27.947204633974 -153.6052382702
OMA0485 OMA7478 2021-04-14 11:13:07 36091 503 27.972698361817 -153.57814541772
OMA0485 OMA7478 2021-04-14 11:12:52 36092 503 27.998049372498 -153.55118820853
OMA0485 OMA7478 2021-04-14 11:12:37 36092 503 28.023553866176 -153.52404775817
OMA0485 OMA7478 2021-04-14 11:12:22 36092 503 28.046179556223 -153.49995047725
OMA0485 OMA7478 2021-04-14 11:12:07 36091 501 28.071662188557 -153.47278974977
OMA0485 OMA7478 2021-04-14 11:11:52 36092 501 28.097112507152 -153.44565186074
OMA0485 OMA7478 2021-04-14 11:11:37 36092 503 28.122433222444 -153.4186313389
OMA0485 OMA7478 2021-04-14 11:11:22 36091 503 28.14790965742 -153.39142717568
OMA0485 OMA7478 2021-04-14 11:11:07 36092 503 28.173193730854 -153.36440745425
OMA0485 OMA7478 2021-04-14 11:10:52 36092 503 28.198687340578 -153.33714752894
OMA0485 OMA7478 2021-04-14 11:10:37 36091 503 28.223976089908 -153.31008821376
OMA0485 OMA7478 2021-04-14 11:10:22 36091 503 28.249433007462 -153.28283023612
OMA0485 OMA7478 2021-04-14 11:10:07 36092 503 28.274884165593 -153.25555849139
OMA0485 OMA7478 2021-04-14 11:09:52 36092 503 28.300147221885 -153.22846638596
OMA0485 OMA7478 2021-04-14 11:09:37 36092 501 28.325739733266 -153.20099679252
OMA0485 OMA7478 2021-04-14 11:09:22 36092 501 28.350854287452 -153.1740185058
OMA0485 OMA7478 2021-04-14 11:09:07 36090 501 28.376272573185 -153.14669413392
OMA0485 OMA7478 2021-04-14 11:08:52 36092 503 28.401484462944 -153.1195846462
OMA0485 OMA7478 2021-04-14 11:08:37 36091 503 28.426917006222 -153.09221643171
OMA0485 OMA7478 2021-04-14 11:08:22 36092 505 28.452251748679 -153.06493871055
OMA0485 OMA7478 2021-04-14 11:08:07 36091 507 28.47782371611 -153.03738710148
OMA0485 OMA7478 2021-04-14 11:07:52 36091 509 28.503398522114 -153.00981408804
OMA0485 OMA7478 2021-04-14 11:07:37 36091 511 28.529186136407 -152.98199398384
OMA0485 OMA7478 2021-04-14 11:07:22 36091 513 28.554863960313 -152.95427555207
OMA0485 OMA7478 2021-04-14 11:07:07 36091 513 28.580758659702 -152.92630095152
OMA0485 OMA7478 2021-04-14 11:06:52 36092 515 28.606554692951 -152.89841090791
OMA0485 OMA7478 2021-04-14 11:06:37 36092 515 28.63253572448 -152.87029669535
OMA0485 OMA7478 2021-04-14 11:06:22 36091 515 28.658366978686 -152.84232134775
OMA0485 OMA7478 2021-04-14 11:06:07 36091 515 28.684315215049 -152.81419542916
OMA0485 OMA7478 2021-04-14 11:05:52 36091 515 28.710124748219 -152.78620224569
OMA0485 OMA7478 2021-04-14 11:05:37 36092 515 28.736092673261 -152.75801450856
OMA0485 OMA7478 2021-04-14 11:05:22 36092 515 28.761912886095 -152.72995675846
OMA0485 OMA7478 2021-04-14 11:05:07 36092 515 28.787823181459 -152.7017701419
OMA0485 OMA7478 2021-04-14 11:04:52 36092 515 28.81370162166 -152.67358750072
OMA0485 OMA7478 2021-04-14 11:04:37 36091 513 28.839383116502 -152.64562624598
OMA0485 OMA7478 2021-04-14 11:04:22 36090 515 28.865307249513 -152.61741420297
OMA0485 OMA7478 2021-04-14 11:04:07 36090 517 28.891232769325 -152.58919735749
OMA0485 OMA7478 2021-04-14 11:03:52 36090 517 28.9171189786 -152.56099950847
OMA0485 OMA7478 2021-04-14 11:03:37 36092 515 28.94309860246 -152.53266244099
OMA0485 OMA7478 2021-04-14 11:03:22 36091 509 28.968754533371 -152.50464169664
OMA0485 OMA7478 2021-04-14 11:03:07 36092 503 28.994199745179 -152.47682463066
OMA0485 OMA7478 2021-04-14 11:02:52 36092 495 29.019121912401 -152.44955392646
OMA0485 OMA7478 2021-04-14 11:02:37 36092 489 29.043849635746 -152.42246779745
OMA0485 OMA7478 2021-04-14 11:02:22 36094 482 29.068201177091 -152.39576021033
OMA0485 OMA7478 2021-04-14 11:02:07 36094 474 29.092084373401 -152.36953151019
OMA0485 OMA7478 2021-04-14 11:01:52 36092 468 29.115826535423 -152.34347313789
OMA0485 OMA7478 2021-04-14 11:01:37 36091 470 29.139258718435 -152.31775160597
OMA0485 OMA7478 2021-04-14 11:01:22 36092 470 29.160234404027 -152.29471348462
OMA0485 OMA7478 2021-04-14 11:01:07 36092 470 29.18363607787 -152.26898120049
OMA0485 OMA7478 2021-04-14 11:00:52 36092 468 29.207175112208 -152.24309152852
OMA0485 OMA7478 2021-04-14 11:00:37 36091 468 29.2305061055 -152.21742894701
OMA0485 OMA7478 2021-04-14 11:00:22 36091 468 29.254067370048 -152.19148783518
OMA0485 OMA7478 2021-04-14 11:00:07 36091 470 29.277662684881 -152.16548583862
OMA0485 OMA7478 2021-04-14 10:59:52 36093 470 29.30107666531 -152.13966808374
OMA0485 OMA7478 2021-04-14 10:59:37 36092 468 29.323338018217 -152.11509963983
OMA0485 OMA7478 2021-04-14 10:59:22 36091 468 29.346685769092 -152.08930894557
OMA0485 OMA7478 2021-04-14 10:59:07 36091 468 29.368892592248 -152.06477151099
OMA0485 OMA7478 2021-04-14 10:58:52 36090 468 29.392211867041 -152.03898824057
OMA0485 OMA7478 2021-04-14 10:58:37 36092 470 29.415766077631 -152.0129351043
OMA0485 OMA7478 2021-04-14 10:58:22 36092 470 29.439187531044 -151.98700857916
OMA0485 OMA7478 2021-04-14 10:58:07 36091 468 29.463247609866 -151.96033913254
OMA0485 OMA7478 2021-04-14 10:57:52 36091 468 29.484328595389 -151.93696293684
OMA0485 OMA7478 2021-04-14 10:57:37 36091 468 29.507781685002 -151.91094361801
OMA0485 OMA7478 2021-04-14 10:57:22 36093 470 29.531194693672 -151.88495306735
OMA0485 OMA7478 2021-04-14 10:57:07 36092 468 29.554716827369 -151.85881846907
OMA0485 OMA7478 2021-04-14 10:56:52 36091 468 29.578058570908 -151.8328645373
OMA0485 OMA7478 2021-04-14 10:56:37 36091 468 29.601495873808 -151.80678980989
OMA0485 OMA7478 2021-04-14 10:56:22 36091 468 29.624794438868 -151.78084772423
OMA0485 OMA7478 2021-04-14 10:56:07 36092 470 29.64827937564 -151.75467964201
OMA0485 OMA7478 2021-04-14 10:55:52 36091 470 29.671762428226 -151.72847986345
OMA0485 OMA7478 2021-04-14 10:55:37 36092 470 29.695085312577 -151.70245147995
OMA0485 OMA7478 2021-04-14 10:55:22 36091 470 29.718466917006 -151.67632411206
OMA0485 OMA7478 2021-04-14 10:55:07 36091 470 29.742029953081 -151.64999986156
OMA0485 OMA7478 2021-04-14 10:54:52 36092 470 29.765378046862 -151.62390939271
OMA0485 OMA7478 2021-04-14 10:54:37 36092 470 29.788849904101 -151.59765985515
OMA0485 OMA7478 2021-04-14 10:54:22 36091 468 29.812141788506 -151.57160839308
OMA0485 OMA7478 2021-04-14 10:54:07 36092 468 29.835517703606 -151.54545671932
OMA0485 OMA7478 2021-04-14 10:53:52 36091 470 29.858756299312 -151.51944207624
OMA0485 OMA7478 2021-04-14 10:53:37 36092 470 29.882218611331 -151.49316927335
OMA0485 OMA7478 2021-04-14 10:53:22 36092 468 29.905582048517 -151.46700196486
OMA0485 OMA7478 2021-04-14 10:53:07 36091 468 29.928871186229 -151.44091427077
OMA0485 OMA7478 2021-04-14 10:52:52 36092 468 29.952234554571 -151.41474050563
OMA0485 OMA7478 2021-04-14 10:52:37 36091 468 29.975474780907 -151.38873223916
OMA0485 OMA7478 2021-04-14 10:52:22 36092 468 29.99890324492 -151.36252867198
OMA0485 OMA7478 2021-04-14 10:52:07 36091 468 30.022156950655 -151.3365644549
OMA0485 OMA7478 2021-04-14 10:51:52 36092 468 30.045600567082 -151.3104623267
OMA0485 OMA7478 2021-04-14 10:51:37 36090 468 30.069150310516 -151.28435094039
OMA0485 OMA7478 2021-04-14 10:51:22 36091 470 30.092651729961 -151.25847183387
OMA0485 OMA7478 2021-04-14 10:51:07 36091 470 30.116482749854 -151.2324690369
OMA0485 OMA7478 2021-04-14 10:50:52 36093 470 30.14030637812 -151.20680437431
OMA0485 OMA7478 2021-04-14 10:50:37 36093 470 30.162650039578 -151.18315360367
OMA0485 OMA7478 2021-04-14 10:50:22 36092 470 30.186866797238 -151.15801663989
OMA0485 OMA7478 2021-04-14 10:50:07 36091 468 30.211094185944 -151.13256846228
OMA0485 OMA7478 2021-04-14 10:49:52 36091 468 30.234321657532 -151.10630250959
OMA0485 OMA7478 2021-04-14 10:49:37 36089 470 30.25765223673 -151.07980814577
OMA0485 OMA7478 2021-04-14 10:49:22 36092 474 30.280973415049 -151.05330926629
OMA0485 OMA7478 2021-04-14 10:49:07 36093 476 30.30457057136 -151.0264390653
OMA0485 OMA7478 2021-04-14 10:48:52 36092 476 30.328066011789 -150.9996818886
OMA0485 OMA7478 2021-04-14 10:48:37 36091 474 30.351651896751 -150.97278816616
OMA0485 OMA7478 2021-04-14 10:48:22 36093 476 30.375069713812 -150.9460730118
OMA0485 OMA7478 2021-04-14 10:48:07 36092 476 30.396746606205 -150.92130680257
OMA0485 OMA7478 2021-04-14 10:47:52 36091 474 30.420142723591 -150.89458273362
OMA0485 OMA7478 2021-04-14 10:47:37 36092 476 30.443708017881 -150.86765908174
OMA0485 OMA7478 2021-04-14 10:47:22 36092 476 30.467150811391 -150.84081981337
OMA0485 OMA7478 2021-04-14 10:47:07 36091 476 30.490712902357 -150.81385669447
OMA0485 OMA7478 2021-04-14 10:46:52 36091 476 30.514198924771 -150.78698058043
OMA0485 OMA7478 2021-04-14 10:46:37 36093 478 30.537864343267 -150.75985428404
OMA0485 OMA7478 2021-04-14 10:46:22 36093 478 30.550539528652 -150.74530251265
OMA0485 OMA7478 2021-04-14 10:46:07 36093 476 30.572738186531 -150.71978906138
OMA0485 OMA7478 2021-04-14 10:45:52 36088 474 30.596056358453 -150.69296327997
OMA0485 OMA7478 2021-04-14 10:45:37 36092 476 30.619622101958 -150.66585927508
OMA0485 OMA7478 2021-04-14 10:45:22 36090 480 30.643141397766 -150.63881718771
OMA0485 OMA7478 2021-04-14 10:45:07 36093 478 30.666868651809 -150.61153298321
OMA0485 OMA7478 2021-04-14 10:44:52 36090 478 30.690357541451 -150.58448127195
OMA0485 OMA7478 2021-04-14 10:44:37 36090 478 30.71397426326 -150.55728831451
OMA0485 OMA7478 2021-04-14 10:44:22 36092 478 30.737411876246 -150.53026744582
OMA0485 OMA7478 2021-04-14 10:44:07 36093 478 30.761090092757 -150.50294354086
OMA0485 OMA7478 2021-04-14 10:43:52 36091 476 30.784517460652 -150.4758970056
OMA0485 OMA7478 2021-04-14 10:43:37 36092 478 30.808100612519 -150.44865933177
OMA0485 OMA7478 2021-04-14 10:43:22 36092 478 30.83157840625 -150.42151994862
OMA0485 OMA7478 2021-04-14 10:43:07 36092 476 30.855087349246 -150.39430228511
OMA0485 OMA7478 2021-04-14 10:42:52 36090 474 30.878411414824 -150.36731834214
OMA0485 OMA7478 2021-04-14 10:42:37 36090 474 30.901856776843 -150.34015972241
OMA0485 OMA7478 2021-04-14 10:42:22 36092 474 30.925093574117 -150.31319875128
OMA0485 OMA7478 2021-04-14 10:42:07 36093 468 30.948378478976 -150.28614650641
OMA0485 OMA7478 2021-04-14 10:41:52 36093 464 30.970953822054 -150.25987343671
OMA0485 OMA7478 2021-04-14 10:41:37 36093 464 30.972168311565 -150.2584596676
OMA0485 OMA7478 2021-04-14 10:41:22 36091 460 30.995029159613 -150.23185109154
OMA0485 OMA7478 2021-04-14 10:41:07 36090 460 31.01757135928 -150.20561221281
OMA0485 OMA7478 2021-04-14 10:40:52 36092 460 31.040246261944 -150.1792064747
OMA0485 OMA7478 2021-04-14 10:40:37 36092 460 31.062809788318 -150.15292006479
OMA0485 OMA7478 2021-04-14 10:40:22 36092 460 31.085507653326 -150.12645018693
OMA0485 OMA7478 2021-04-14 10:40:07 36092 458 31.107927303157 -150.10027963011
OMA0485 OMA7478 2021-04-14 10:39:52 36092 456 31.130462825373 -150.0739767517
OMA0485 OMA7478 2021-04-14 10:39:37 36090 458 31.152845415626 -150.04785333919
OMA0485 OMA7478 2021-04-14 10:39:22 36092 460 31.17547477698 -150.02140292971
OMA0485 OMA7478 2021-04-14 10:39:07 36092 460 31.197962999749 -149.99507975
OMA0485 OMA7478 2021-04-14 10:38:52 36092 460 31.220577152377 -149.96859609754
OMA0485 OMA7478 2021-04-14 10:38:37 36091 460 31.243091185605 -149.94221140361
OMA0485 OMA7478 2021-04-14 10:38:22 36091 460 31.265779937906 -149.91560857718
OMA0485 OMA7478 2021-04-14 10:38:07 36091 460 31.288246268451 -149.88924634817
OMA0485 OMA7478 2021-04-14 10:37:52 36091 460 31.31090821169 -149.86263555764
OMA0485 OMA7478 2021-04-14 10:37:37 36092 460 31.333345434314 -149.83625843428
OMA0485 OMA7478 2021-04-14 10:37:22 36085 460 31.354321589819 -149.81158058729
OMA0485 OMA7478 2021-04-14 10:37:07 36083 460 31.358076510364 -149.80716112139
OMA0485 OMA7478 2021-04-14 10:36:52 36082 460 31.380695497029 -149.78052754577
OMA0485 OMA7478 2021-04-14 10:36:37 36083 458 31.403057527712 -149.7541698591
OMA0485 OMA7478 2021-04-14 10:36:22 36082 458 31.425578098085 -149.72761515083
OMA0485 OMA7478 2021-04-14 10:36:07 36084 458 31.445432429859 -149.7041702597
OMA0485 OMA7478 2021-04-14 10:35:52 36082 458 31.463619725091 -149.68267586782
OMA0485 OMA7478 2021-04-14 10:35:37 36083 458 31.485990819954 -149.65623052262
OMA0485 OMA7478 2021-04-14 10:35:22 36082 458 31.508470913045 -149.62964125544
OMA0485 OMA7478 2021-04-14 10:35:07 36083 458 31.530775694567 -149.60324342807
OMA0485 OMA7478 2021-04-14 10:34:52 36080 458 31.553201780709 -149.5766764468
OMA0485 OMA7478 2021-04-14 10:34:37 36083 458 31.575472176509 -149.55026453217
OMA0485 OMA7478 2021-04-14 10:34:22 36082 458 31.597923329603 -149.52361964405
OMA0485 OMA7478 2021-04-14 10:34:07 36082 458 31.620209930977 -149.49712149828
OMA0485 OMA7478 2021-04-14 10:33:52 36082 458 31.642612436863 -149.47042191529
OMA0485 OMA7478 2021-04-14 10:33:37 36083 458 31.6648959469 -149.44381648752
OMA0485 OMA7478 2021-04-14 10:33:22 36082 458 31.687288026477 -149.41699516174
OMA0485 OMA7478 2021-04-14 10:33:07 36082 458 31.709464003495 -149.39034221614
OMA0485 OMA7478 2021-04-14 10:32:52 36081 458 31.73173016698 -149.36346307388
OMA0485 OMA7478 2021-04-14 10:32:37 36082 458 31.751387278421 -149.33961578855
OMA0485 OMA7478 2021-04-14 10:32:22 36089 458 31.773593125003 -149.31268704738
OMA0485 OMA7478 2021-04-14 10:32:07 36078 458 31.796189506317 -149.2866429491
OMA0485 OMA7478 2021-04-14 10:31:52 36082 456 31.81978137107 -149.26139726259
OMA0485 OMA7478 2021-04-14 10:31:37 36083 456 31.842212823694 -149.23522472474
OMA0485 OMA7478 2021-04-14 10:31:22 36082 456 31.864917479202 -149.20897231904
OMA0485 OMA7478 2021-04-14 10:31:07 36082 458 31.887667366298 -149.18301594601
OMA0485 OMA7478 2021-04-14 10:30:52 36083 458 31.910859967095 -149.15706892446
OMA0485 OMA7478 2021-04-14 10:30:37 36082 460 31.934250585536 -149.1316834592
OMA0485 OMA7478 2021-04-14 10:30:22 36082 462 31.958411736282 -149.10669488528
OMA0485 OMA7478 2021-04-14 10:30:07 36083 466 31.983327241901 -149.0828591726
OMA0485 OMA7478 2021-04-14 10:29:52 36083 470 32.009832519306 -149.06049045648
OMA0485 OMA7478 2021-04-14 10:29:37 36085 474 32.037838990134 -149.04075922391
OMA0485 OMA7478 2021-04-14 10:29:22 36082 476 32.067596165277 -149.02340246758
OMA0485 OMA7478 2021-04-14 10:29:07 36082 474 32.096524159884 -149.00516917463
OMA0485 OMA7478 2021-04-14 10:28:52 36079 476 32.124992986066 -148.98536650647
OMA0485 OMA7478 2021-04-14 10:28:37 36079 480 32.153432994426 -148.9654970993
OMA0485 OMA7478 2021-04-14 10:28:22 36064 478 32.182111820221 -148.94533388729
OMA0485 OMA7478 2021-04-14 10:28:07 35786 476 32.210390081561 -148.92530810615
OMA0485 OMA7478 2021-04-14 10:27:52 35610 470 32.238660869019 -148.90523958296
OMA0485 OMA7478 2021-04-14 10:27:37 35502 472 32.266583240754 -148.88549849531
OMA0485 OMA7478 2021-04-14 10:27:22 35466 472 32.294795595147 -148.86550054185
OMA0485 OMA7478 2021-04-14 10:27:07 35558 470 32.322756653839 -148.84558753888
OMA0485 OMA7478 2021-04-14 10:26:52 35631 468 32.350713384401 -148.82549588376
OMA0485 OMA7478 2021-04-14 10:26:37 35556 470 32.378271777687 -148.80528899589
OMA0485 OMA7478 2021-04-14 10:26:22 35500 464 32.404663674129 -148.78261466215
OMA0485 OMA7478 2021-04-14 10:26:07 35489 452 32.425287200631 -148.75403485615
OMA0485 OMA7478 2021-04-14 10:25:52 35432 439 32.438068873762 -148.72063477754
OMA0485 OMA7478 2021-04-14 10:25:37 35466 421 32.442050767838 -148.68575196091
OMA0485 OMA7478 2021-04-14 10:25:22 35590 404 32.437216332384 -148.65231533012
OMA0485 OMA7478 2021-04-14 10:25:07 35622 414 32.429875389097 -148.62020593607
OMA0485 OMA7478 2021-04-14 10:24:52 35493 431 32.428970285356 -148.58550137137
OMA0485 OMA7478 2021-04-14 10:24:37 35472 445 32.434526747279 -148.55020663564
OMA0485 OMA7478 2021-04-14 10:24:22 35599 456 32.446951167179 -148.51609442977
OMA0485 OMA7478 2021-04-14 10:24:07 35735 462 32.464702025316 -148.48481093607
OMA0485 OMA7478 2021-04-14 10:23:52 35786 466 32.485847794239 -148.45581021966
OMA0485 OMA7478 2021-04-14 10:23:37 35789 468 32.508118861999 -148.42811046752
OMA0485 OMA7478 2021-04-14 10:23:22 35790 468 32.530841601205 -148.40034334731
OMA0485 OMA7478 2021-04-14 10:23:07 35790 470 32.553434413943 -148.3727167529
OMA0485 OMA7478 2021-04-14 10:22:52 35790 468 32.576138207499 -148.34491494813
OMA0485 OMA7478 2021-04-14 10:22:37 35789 468 32.598695012873 -148.31726898373
OMA0485 OMA7478 2021-04-14 10:22:22 35790 468 32.621340985131 -148.28949332578
OMA0485 OMA7478 2021-04-14 10:22:07 35790 466 32.643796222147 -148.26193818156
OMA0485 OMA7478 2021-04-14 10:21:52 35790 466 32.664093505793 -148.23700921839
OMA0485 OMA7478 2021-04-14 10:21:37 35790 468 32.684737767232 -148.21163082343
OMA0485 OMA7478 2021-04-14 10:21:22 35789 468 32.707340279087 -148.18382096117
OMA0485 OMA7478 2021-04-14 10:21:07 35789 468 32.729802078716 -148.15617018096
OMA0485 OMA7478 2021-04-14 10:20:52 35789 468 32.75242307138 -148.12830002094
OMA0485 OMA7478 2021-04-14 10:20:37 35789 468 32.77491814465 -148.10056654474
OMA0485 OMA7478 2021-04-14 10:20:22 35790 468 32.797569730972 -148.07261783754
OMA0485 OMA7478 2021-04-14 10:20:07 35790 468 32.820055204275 -148.04484672861
OMA0485 OMA7478 2021-04-14 10:19:52 35790 468 32.842648713727 -148.01691961421
OMA0485 OMA7478 2021-04-14 10:19:37 35789 468 32.865056911836 -147.98920423818
OMA0485 OMA7478 2021-04-14 10:19:22 35789 468 32.887595495602 -147.96131509254
OMA0485 OMA7478 2021-04-14 10:19:07 35787 470 32.910124344743 -147.93341854224
OMA0485 OMA7478 2021-04-14 10:18:52 35790 472 32.932854503356 -147.90524390519
OMA0485 OMA7478 2021-04-14 10:18:37 35791 470 32.955387926384 -147.87725242927
OMA0485 OMA7478 2021-04-14 10:18:22 35790 464 32.977880821838 -147.84926459523
OMA0485 OMA7478 2021-04-14 10:18:07 35789 458 32.999950912467 -147.82176848144
OMA0485 OMA7478 2021-04-14 10:17:52 35789 454 33.02192525796 -147.79438306475
OMA0485 OMA7478 2021-04-14 10:17:37 35790 452 33.043601433206 -147.76734361315
OMA0485 OMA7478 2021-04-14 10:17:22 35790 449 33.065264344528 -147.74030641604
OMA0485 OMA7478 2021-04-14 10:17:07 35789 445 33.086603875481 -147.71366480962
OMA0485 OMA7478 2021-04-14 10:16:52 35789 443 33.107968489161 -147.68699294759
OMA0485 OMA7478 2021-04-14 10:16:37 35790 443 33.129159785241 -147.66052801895
OMA0485 OMA7478 2021-04-14 10:16:22 35790 441 33.150283760114 -147.63413722746
OMA0485 OMA7478 2021-04-14 10:16:07 35788 441 33.171514308988 -147.60759564596
OMA0485 OMA7478 2021-04-14 10:15:52 35790 441 33.192593167244 -147.58123052879
OMA0485 OMA7478 2021-04-14 10:15:37 35790 441 33.213822181563 -147.55465372912
OMA0485 OMA7478 2021-04-14 10:15:22 35790 443 33.234914849545 -147.52822116384
OMA0485 OMA7478 2021-04-14 10:15:07 35789 441 33.256136627114 -147.50159703309
OMA0485 OMA7478 2021-04-14 10:14:52 35789 441 33.277248376513 -147.47510449021
OMA0485 OMA7478 2021-04-14 10:14:37 35790 441 33.298435388611 -147.44849807527
OMA0485 OMA7478 2021-04-14 10:14:22 35790 441 33.319657904775 -147.42182445233
OMA0485 OMA7478 2021-04-14 10:14:07 35789 441 33.340710836801 -147.39534444925
OMA0485 OMA7478 2021-04-14 10:13:52 35789 441 33.361778023298 -147.36883208281
OMA0485 OMA7478 2021-04-14 10:13:37 35789 443 33.382983026376 -147.3421175321
OMA0485 OMA7478 2021-04-14 10:13:22 35789 443 33.404038285608 -147.3155725355
OMA0485 OMA7478 2021-04-14 10:13:07 35790 441 33.425241562863 -147.2888202053
OMA0485 OMA7478 2021-04-14 10:12:52 35790 441 33.446404475352 -147.26210154581
OMA0485 OMA7478 2021-04-14 10:12:37 35790 441 33.467459015649 -147.23550014679
OMA0485 OMA7478 2021-04-14 10:12:22 35790 441 33.488590721985 -147.20877777871
OMA0485 OMA7478 2021-04-14 10:12:07 35789 441 33.509574846052 -147.18222028233
OMA0485 OMA7478 2021-04-14 10:11:52 35789 441 33.530548280548 -147.15567379162
OMA0485 OMA7478 2021-04-14 10:11:37 35789 441 33.55170699007 -147.12888883127
OMA0485 OMA7478 2021-04-14 10:11:22 35789 443 33.572756777854 -147.10221346076
OMA0485 OMA7478 2021-04-14 10:11:07 35790 445 33.594052210944 -147.07520509186
OMA0485 OMA7478 2021-04-14 10:10:52 35790 447 33.615232051779 -147.04830744672
OMA0485 OMA7478 2021-04-14 10:10:37 35790 447 33.636608899017 -147.02114139983
OMA0485 OMA7478 2021-04-14 10:10:22 35789 449 33.657884542327 -146.99409883995
OMA0485 OMA7478 2021-04-14 10:10:07 35789 450 33.679329221896 -146.96681159389
OMA0485 OMA7478 2021-04-14 10:09:52 35790 452 33.700758543613 -146.93951890168
OMA0485 OMA7478 2021-04-14 10:09:37 35790 452 33.722384437873 -146.91194280665
OMA0485 OMA7478 2021-04-14 10:09:22 35789 454 33.743932741204 -146.88443602737
OMA0485 OMA7478 2021-04-14 10:09:07 35790 454 33.765613187384 -146.85674017057
OMA0485 OMA7478 2021-04-14 10:08:52 35790 454 33.787137405493 -146.82920759799
OMA0485 OMA7478 2021-04-14 10:08:37 35790 452 33.80878863809 -146.80150391049
OMA0485 OMA7478 2021-04-14 10:08:22 35789 452 33.830248342398 -146.77402340475
OMA0485 OMA7478 2021-04-14 10:08:07 35790 452 33.851875387404 -146.74630534984
OMA0485 OMA7478 2021-04-14 10:07:52 35789 454 33.873313295986 -146.71879497537
OMA0485 OMA7478 2021-04-14 10:07:37 35789 454 33.894940782755 -146.69102286592
OMA0485 OMA7478 2021-04-14 10:07:22 35789 454 33.916434089685 -146.66339029509
OMA0485 OMA7478 2021-04-14 10:07:07 35790 454 33.938155863992 -146.63544985108
OMA0485 OMA7478 2021-04-14 10:06:52 35790 454 33.959784775913 -146.60762221966
OMA0485 OMA7478 2021-04-14 10:06:37 35790 452 33.981231620276 -146.57999885359
OMA0485 OMA7478 2021-04-14 10:06:22 35790 452 34.002807582943 -146.55219507446
OMA0485 OMA7478 2021-04-14 10:06:07 35790 452 34.024253655512 -146.52455527324
OMA0485 OMA7478 2021-04-14 10:05:52 35789 452 34.045801756539 -146.49674679837
OMA0485 OMA7478 2021-04-14 10:05:37 35789 454 34.067311999068 -146.46896500392
OMA0485 OMA7478 2021-04-14 10:05:22 35789 454 34.088844675031 -146.44112870136
OMA0485 OMA7478 2021-04-14 10:05:07 35791 452 34.109703111687 -146.41413654081
OMA0485 OMA7478 2021-04-14 10:04:52 35790 452 34.131254773714 -146.38623532477
OMA0485 OMA7478 2021-04-14 10:04:37 35789 452 34.152617414618 -146.35855977178
OMA0485 OMA7478 2021-04-14 10:04:22 35789 452 34.174120483229 -146.33069171952
OMA0485 OMA7478 2021-04-14 10:04:07 35789 454 34.195502693975 -146.30295194674
OMA0485 OMA7478 2021-04-14 10:03:52 35789 454 34.217051936627 -146.27496180484
OMA0485 OMA7478 2021-04-14 10:03:37 35791 456 34.238510384052 -146.24705506595
OMA0485 OMA7478 2021-04-14 10:03:22 35790 454 34.260116312413 -146.21893636442
OMA0485 OMA7478 2021-04-14 10:03:07 35789 454 34.281517838969 -146.19106545735
OMA0485 OMA7478 2021-04-14 10:02:52 35790 454 34.303040845659 -146.16302103412
OMA0485 OMA7478 2021-04-14 10:02:37 35790 452 34.324368587226 -146.13521662801
OMA0485 OMA7478 2021-04-14 10:02:22 35789 452 34.345854886371 -146.10717818787
OMA0485 OMA7478 2021-04-14 10:02:07 35789 454 34.367189938542 -146.07932406278
OMA0485 OMA7478 2021-04-14 10:01:52 35789 454 34.38869531811 -146.05120932996
OMA0485 OMA7478 2021-04-14 10:01:37 35789 454 34.410051916447 -146.02327047285
OMA0485 OMA7478 2021-04-14 10:01:22 35790 454 34.431563025204 -145.99509595711
OMA0485 OMA7478 2021-04-14 10:01:07 35790 454 34.452893099323 -145.96712943781
OMA0485 OMA7478 2021-04-14 10:00:52 35789 452 34.474325624836 -145.93901575553
OMA0485 OMA7478 2021-04-14 10:00:37 35789 454 34.495629844977 -145.91104799184
OMA0485 OMA7478 2021-04-14 10:00:22 35791 454 34.517065434541 -145.88289057701
OMA0485 OMA7478 2021-04-14 10:00:07 35790 454 34.538409584759 -145.85483442773
OMA0485 OMA7478 2021-04-14 09:59:52 35790 452 34.559816931693 -145.82665808314
OMA0485 OMA7478 2021-04-14 09:59:37 35789 452 34.581098311109 -145.79864274158
OMA0485 OMA7478 2021-04-14 09:59:22 35789 454 34.602508282273 -145.77042755028
OMA0485 OMA7478 2021-04-14 09:59:07 35790 454 34.623844999741 -145.74229103956
OMA0485 OMA7478 2021-04-14 09:58:52 35790 454 34.645276181132 -145.71400229033
OMA0485 OMA7478 2021-04-14 09:58:37 35789 454 34.666578286364 -145.6858687945
OMA0485 OMA7478 2021-04-14 09:58:22 35789 454 34.68802200417 -145.65756067528
OMA0485 OMA7478 2021-04-14 09:58:07 35790 454 34.709291607887 -145.62948202666
OMA0485 OMA7478 2021-04-14 09:57:52 35790 454 34.730755201536 -145.60113476725
OMA0485 OMA7478 2021-04-14 09:57:37 35790 452 34.751981173393 -145.57310479147
OMA0485 OMA7478 2021-04-14 09:57:22 35789 452 34.773396780274 -145.5448548089
OMA0485 OMA7478 2021-04-14 09:57:07 35789 454 34.794666771286 -145.51682067098
OMA0485 OMA7478 2021-04-14 09:56:52 35789 454 34.8161622524 -145.48853515008
OMA0485 OMA7478 2021-04-14 09:56:37 35789 454 34.837568299526 -145.46043991398
OMA0485 OMA7478 2021-04-14 09:56:22 35790 454 34.859198742456 -145.43216482513
OMA0485 OMA7478 2021-04-14 09:56:07 35789 454 34.880735969706 -145.40419143854
OMA0485 OMA7478 2021-04-14 09:55:52 35789 452 34.902454302499 -145.37629238361
OMA0485 OMA7478 2021-04-14 09:55:37 35790 450 34.924077506535 -145.3489380096
OMA0485 OMA7478 2021-04-14 09:55:22 35790 447 34.946005611169 -145.3217890215
OMA0485 OMA7478 2021-04-14 09:55:07 35791 445 34.967970750926 -145.29533054952
OMA0485 OMA7478 2021-04-14 09:54:52 35789 441 34.990026820453 -145.26903127965
OMA0485 OMA7478 2021-04-14 09:54:37 35789 437 35.010761335082 -145.24210021728
OMA0485 OMA7478 2021-04-14 09:54:22 35789 435 35.03106651428 -145.21492076014
OMA0485 OMA7478 2021-04-14 09:54:07 35790 435 35.051469765103 -145.1876000835
OMA0485 OMA7478 2021-04-14 09:53:52 35790 435 35.071795732647 -145.16036163593
OMA0485 OMA7478 2021-04-14 09:53:37 35790 437 35.092249336655 -145.13293310367
OMA0485 OMA7478 2021-04-14 09:53:22 35790 437 35.112605106029 -145.10561558199
OMA0485 OMA7478 2021-04-14 09:53:07 35789 437 35.133100553707 -145.07808573748
OMA0485 OMA7478 2021-04-14 09:52:52 35789 439 35.153502232023 -145.0506523227
OMA0485 OMA7478 2021-04-14 09:52:37 35789 441 35.174096858037 -145.02292512974
OMA0485 OMA7478 2021-04-14 09:52:22 35790 441 35.194562967527 -144.99533401572
OMA0485 OMA7478 2021-04-14 09:52:07 35789 441 35.215204471475 -144.9674731484
OMA0485 OMA7478 2021-04-14 09:51:52 35790 441 35.235687582778 -144.93980241457
OMA0485 OMA7478 2021-04-14 09:51:37 35790 441 35.256321501622 -144.91190518725
OMA0485 OMA7478 2021-04-14 09:51:22 35790 441 35.276800199522 -144.88419395586
OMA0485 OMA7478 2021-04-14 09:51:07 35790 441 35.297432454079 -144.85625145186
OMA0485 OMA7478 2021-04-14 09:50:52 35789 441 35.317969506016 -144.82841370856
OMA0485 OMA7478 2021-04-14 09:50:37 35790 441 35.33847006342 -144.80060395302
OMA0485 OMA7478 2021-04-14 09:50:22 35790 441 35.359065933446 -144.77263975784
OMA0485 OMA7478 2021-04-14 09:50:07 35790 441 35.379498327641 -144.74487138364
OMA0485 OMA7478 2021-04-14 09:49:52 35789 441 35.400063507957 -144.716894662
OMA0485 OMA7478 2021-04-14 09:49:37 35790 441 35.420499878511 -144.68906825788
OMA0485 OMA7478 2021-04-14 09:49:22 35790 441 35.441040721881 -144.66107899643
OMA0485 OMA7478 2021-04-14 09:49:07 35790 441 35.461434863577 -144.63327817109
OMA0485 OMA7478 2021-04-14 09:48:52 35790 441 35.481969641133 -144.60526569768
OMA0485 OMA7478 2021-04-14 09:48:37 35790 441 35.502357380384 -144.57743059573
OMA0485 OMA7478 2021-04-14 09:48:22 35790 441 35.522888766703 -144.5493745265
OMA0485 OMA7478 2021-04-14 09:48:07 35789 441 35.543261991424 -144.52151226389
OMA0485 OMA7478 2021-04-14 09:47:52 35790 441 35.563794176664 -144.49340902366
OMA0485 OMA7478 2021-04-14 09:47:37 35790 441 35.584168260867 -144.46549766906
OMA0485 OMA7478 2021-04-14 09:47:22 35790 441 35.604671817577 -144.43738594446
OMA0485 OMA7478 2021-04-14 09:47:07 35790 441 35.625016218725 -144.40946984074
OMA0485 OMA7478 2021-04-14 09:46:52 35790 441 35.645489550784 -144.38135483445
OMA0485 OMA7478 2021-04-14 09:46:37 35790 441 35.665824372112 -144.35340791484
OMA0485 OMA7478 2021-04-14 09:46:22 35789 441 35.686277379494 -144.32527479253
OMA0485 OMA7478 2021-04-14 09:46:07 35789 441 35.706635801477 -144.29724817849
OMA0485 OMA7478 2021-04-14 09:45:52 35790 441 35.727077711974 -144.26908247939
OMA0485 OMA7478 2021-04-14 09:45:37 35790 441 35.747400387616 -144.24105567858
OMA0485 OMA7478 2021-04-14 09:45:22 35789 441 35.767854633649 -144.21282283818
OMA0485 OMA7478 2021-04-14 09:45:07 35790 441 35.788158155344 -144.18477410607
OMA0485 OMA7478 2021-04-14 09:44:52 35790 441 35.808598325403 -144.15651354471
OMA0485 OMA7478 2021-04-14 09:44:37 35789 441 35.828894179217 -144.1284304482
OMA0485 OMA7478 2021-04-14 09:44:22 35790 441 35.849288657577 -144.10019053749
OMA0485 OMA7478 2021-04-14 09:44:07 35789 441 35.869556762682 -144.07210450614
OMA0485 OMA7478 2021-04-14 09:43:52 35789 441 35.889972416471 -144.04378731891
OMA0485 OMA7478 2021-04-14 09:43:37 35790 441 35.910230351252 -144.01566152872
OMA0485 OMA7478 2021-04-14 09:43:22 35790 441 35.930605479392 -143.98735103827
OMA0485 OMA7478 2021-04-14 09:43:07 35790 441 35.950866314468 -143.95917675974
OMA0485 OMA7478 2021-04-14 09:42:52 35790 441 35.971243255255 -143.93081655366
OMA0485 OMA7478 2021-04-14 09:42:37 35789 441 35.991472303373 -143.90263920188
OMA0485 OMA7478 2021-04-14 09:42:22 35789 441 36.011833626312 -143.87425330921
OMA0485 OMA7478 2021-04-14 09:42:07 35789 441 36.032061145546 -143.84602808608
OMA0485 OMA7478 2021-04-14 09:41:52 35789 441 36.052425318494 -143.8175860578
OMA0485 OMA7478 2021-04-14 09:41:37 35790 441 36.072642146697 -143.78932118754
OMA0485 OMA7478 2021-04-14 09:41:22 35785 441 36.093000067537 -143.7608316681
OMA0485 OMA7478 2021-04-14 09:41:07 35775 441 36.113181696172 -143.73256276911
OMA0485 OMA7478 2021-04-14 09:40:52 35760 441 36.133523716576 -143.70404216697
OMA0485 OMA7478 2021-04-14 09:40:37 35744 441 36.153686106622 -143.67574682767
OMA0485 OMA7478 2021-04-14 09:40:22 35732 441 36.174001259113 -143.64722066826
OMA0485 OMA7478 2021-04-14 09:40:07 35719 441 36.194166076118 -143.61889037761
OMA0485 OMA7478 2021-04-14 09:39:52 35706 441 36.214321948226 -143.59055016183
OMA0485 OMA7478 2021-04-14 09:39:37 35692 441 36.23457599162 -143.56205023702
OMA0485 OMA7478 2021-04-14 09:39:22 35681 441 36.254705924135 -143.53369924236
OMA0485 OMA7478 2021-04-14 09:39:07 35680 441 36.275022014962 -143.50505977892
OMA0485 OMA7478 2021-04-14 09:38:52 35680 441 36.295128679122 -143.47669240247
OMA0485 OMA7478 2021-04-14 09:38:37 35680 441 36.315356059587 -143.44813159293
OMA0485 OMA7478 2021-04-14 09:38:22 35680 441 36.335475517902 -143.41969730197
OMA0485 OMA7478 2021-04-14 09:38:07 35680 441 36.355692164538 -143.39109964676
OMA0485 OMA7478 2021-04-14 09:37:52 35680 441 36.375786627826 -143.36264854714
OMA0485 OMA7478 2021-04-14 09:37:37 35680 441 36.396008663073 -143.33399000719
OMA0485 OMA7478 2021-04-14 09:37:22 35680 441 36.416092419114 -143.30550134153
OMA0485 OMA7478 2021-04-14 09:37:07 35680 441 36.436272991664 -143.27684939165
OMA0485 OMA7478 2021-04-14 09:36:52 35680 441 36.456342433246 -143.24833097731
OMA0485 OMA7478 2021-04-14 09:36:37 35680 439 36.476491922736 -143.21967493198
OMA0485 OMA7478 2021-04-14 09:36:22 35680 439 36.496523265838 -143.19115929241
OMA0485 OMA7478 2021-04-14 09:36:07 35679 441 36.516687596101 -143.16241676248
OMA0485 OMA7478 2021-04-14 09:35:52 35679 441 36.536704798922 -143.13383199392
OMA0485 OMA7478 2021-04-14 09:35:37 35679 443 36.556889909789 -143.10494578323
OMA0485 OMA7478 2021-04-14 09:35:22 35680 443 36.57697935558 -143.07614424287
OMA0485 OMA7478 2021-04-14 09:35:07 35680 441 36.597098735503 -143.0472361709
OMA0485 OMA7478 2021-04-14 09:34:52 35680 437 36.616937952615 -143.01870765135
OMA0485 OMA7478 2021-04-14 09:34:37 35680 433 36.636742342936 -142.99021640352
OMA0485 OMA7478 2021-04-14 09:34:22 35680 429 36.655745778501 -142.96286533203
OMA0485 OMA7478 2021-04-14 09:34:07 35680 425 36.675223470035 -142.93482525438
OMA0485 OMA7478 2021-04-14 09:33:52 35680 421 36.694387224608 -142.90723495869
OMA0485 OMA7478 2021-04-14 09:33:37 35680 417 36.713558609005 -142.87963691234
OMA0485 OMA7478 2021-04-14 09:33:22 35680 415 36.732451678884 -142.85244851726
OMA0485 OMA7478 2021-04-14 09:33:07 35679 414 36.751376553307 -142.82521659306
OMA0485 OMA7478 2021-04-14 09:32:52 35680 414 36.770115991606 -142.798241548
OMA0485 OMA7478 2021-04-14 09:32:37 35680 414 36.788979406564 -142.77106846748
OMA0485 OMA7478 2021-04-14 09:32:22 35680 414 36.807739777919 -142.74402326625
OMA0485 OMA7478 2021-04-14 09:32:07 35680 414 36.826592907059 -142.71682329186
OMA0485 OMA7478 2021-04-14 09:31:52 35680 414 36.845334745454 -142.68976547078
OMA0485 OMA7478 2021-04-14 09:31:37 35680 414 36.864191975926 -142.66251536387
OMA0485 OMA7478 2021-04-14 09:31:22 35680 414 36.882899210169 -142.63545054477
OMA0485 OMA7478 2021-04-14 09:31:07 35680 414 36.901724055716 -142.60820193197
OMA0485 OMA7478 2021-04-14 09:30:52 35680 412 36.920396920802 -142.58116500166
OMA0485 OMA7478 2021-04-14 09:30:37 35680 412 36.939195455442 -142.55393719959
OMA0485 OMA7478 2021-04-14 09:30:22 35680 414 36.957865854027 -142.52688399423
OMA0485 OMA7478 2021-04-14 09:30:07 35680 414 36.976675075885 -142.49961670512
OMA0485 OMA7478 2021-04-14 09:29:52 35680 415 36.995426080093 -142.47242054603
OMA0485 OMA7478 2021-04-14 09:29:37 35680 415 37.014339677635 -142.44497548525
OMA0485 OMA7478 2021-04-14 09:29:22 35680 417 37.033195189308 -142.41759704548
OMA0485 OMA7478 2021-04-14 09:29:07 35679 421 37.052271987503 -142.38986983919
OMA0485 OMA7478 2021-04-14 09:28:52 35679 423 37.071345598666 -142.36210405299
OMA0485 OMA7478 2021-04-14 09:28:37 35680 427 37.090682446269 -142.33390177502
OMA0485 OMA7478 2021-04-14 09:28:22 35680 429 37.110020047964 -142.30564712338
OMA0485 OMA7478 2021-04-14 09:28:07 35680 429 37.129512233472 -142.27713308462
OMA0485 OMA7478 2021-04-14 09:27:52 35680 429 37.148876621926 -142.24878158303
OMA0485 OMA7478 2021-04-14 09:27:37 35680 429 37.168376524158 -142.22020700639
OMA0485 OMA7478 2021-04-14 09:27:22 35680 429 37.187706785923 -142.19185601172
OMA0485 OMA7478 2021-04-14 09:27:07 35680 429 37.207207454397 -142.16323083565
OMA0485 OMA7478 2021-04-14 09:26:52 35680 429 37.226534121545 -142.13483645861
OMA0485 OMA7478 2021-04-14 09:26:37 35680 429 37.245998520266 -142.10621206962
OMA0485 OMA7478 2021-04-14 09:26:22 35680 429 37.26533072893 -142.0777595626
OMA0485 OMA7478 2021-04-14 09:26:07 35680 429 37.284774672371 -142.04911781798
OMA0485 OMA7478 2021-04-14 09:25:52 35680 429 37.304082529461 -142.020651167
OMA0485 OMA7478 2021-04-14 09:25:37 35680 431 37.323514302689 -141.99197602266
OMA0485 OMA7478 2021-04-14 09:25:22 35680 431 37.3428035481 -141.96348770968
OMA0485 OMA7478 2021-04-14 09:25:07 35680 431 37.362244767399 -141.93474946863
OMA0485 OMA7478 2021-04-14 09:24:52 35680 429 37.38152509802 -141.9062246043
OMA0485 OMA7478 2021-04-14 09:24:37 35680 429 37.400941064437 -141.87747250277
OMA0485 OMA7478 2021-04-14 09:24:22 35680 429 37.420177728382 -141.84896130548
OMA0485 OMA7478 2021-04-14 09:24:07 35680 429 37.439583908615 -141.82017525978
OMA0485 OMA7478 2021-04-14 09:23:52 35680 431 37.458851462806 -141.7915695871
OMA0485 OMA7478 2021-04-14 09:23:37 35680 431 37.478229566909 -141.76277117502
OMA0485 OMA7478 2021-04-14 09:23:22 35680 431 37.497486039556 -141.73412757612
OMA0485 OMA7478 2021-04-14 09:23:07 35680 431 37.516866491873 -141.70527306845
OMA0485 OMA7478 2021-04-14 09:22:52 35680 431 37.536101052385 -141.67661119345
OMA0485 OMA7478 2021-04-14 09:22:37 35680 429 37.555438365733 -141.64777316653
OMA0485 OMA7478 2021-04-14 09:22:22 35680 429 37.574634214586 -141.61912249732
OMA0485 OMA7478 2021-04-14 09:22:07 35680 429 37.593984760716 -141.59021574937
OMA0485 OMA7478 2021-04-14 09:21:52 35680 429 37.613165784809 -141.56153722578
OMA0485 OMA7478 2021-04-14 09:21:37 35680 429 37.632474344646 -141.5326423773
OMA0485 OMA7478 2021-04-14 09:21:22 35680 429 37.651653373364 -141.50391348108
OMA0485 OMA7478 2021-04-14 09:21:07 35680 429 37.670943407292 -141.47498949757
OMA0485 OMA7478 2021-04-14 09:20:52 35680 429 37.690110113365 -141.44622807791
OMA0485 OMA7478 2021-04-14 09:20:37 35680 429 37.709400656928 -141.41725332155
OMA0485 OMA7478 2021-04-14 09:20:22 35680 429 37.728559806415 -141.38844857287
OMA0485 OMA7478 2021-04-14 09:20:07 35680 429 37.747822830289 -141.35946130339
OMA0485 OMA7478 2021-04-14 09:19:52 35680 429 37.767048285131 -141.33050543678
OMA0485 OMA7478 2021-04-14 09:19:37 35680 429 37.786149685323 -141.301712134
OMA0485 OMA7478 2021-04-14 09:19:22 35680 429 37.805369925477 -141.27271373879
OMA0485 OMA7478 2021-04-14 09:19:07 35679 429 37.824448792482 -141.24390256013
OMA0485 OMA7478 2021-04-14 09:18:52 35679 429 37.843662506912 -141.21485141771
OMA0485 OMA7478 2021-04-14 09:18:37 35679 431 37.862770057349 -141.18591774921
OMA0485 OMA7478 2021-04-14 09:18:22 35680 431 37.882048990052 -141.15667474784
OMA0485 OMA7478 2021-04-14 09:18:07 35680 431 37.901148728596 -141.12765612887
OMA0485 OMA7478 2021-04-14 09:17:52 35680 427 37.920281145707 -141.09855922285
OMA0485 OMA7478 2021-04-14 09:17:37 35680 423 37.939121883411 -141.06988388091
OMA0485 OMA7478 2021-04-14 09:17:22 35679 421 37.957958449478 -141.04119388141
OMA0485 OMA7478 2021-04-14 09:17:07 35680 417 37.976531658588 -141.01288593227
OMA0485 OMA7478 2021-04-14 09:16:52 35680 415 37.995102622914 -140.98456706084
OMA0485 OMA7478 2021-04-14 09:16:37 35680 412 38.013405540507 -140.95664800227
OMA0485 OMA7478 2021-04-14 09:16:22 35680 410 38.031711802966 -140.92871881847
OMA0485 OMA7478 2021-04-14 09:16:07 35679 408 38.049770316308 -140.90116015243
OMA0485 OMA7478 2021-04-14 09:15:52 35680 408 38.067911295764 -140.87345879279
OMA0485 OMA7478 2021-04-14 09:15:37 35680 408 38.085933010357 -140.84591824276
OMA0485 OMA7478 2021-04-14 09:15:22 35680 408 38.104059886072 -140.81819574556
OMA0485 OMA7478 2021-04-14 09:15:07 35680 408 38.122048800289 -140.79066299955
OMA0485 OMA7478 2021-04-14 09:14:52 35680 408 38.140176435865 -140.76289740012
OMA0485 OMA7478 2021-04-14 09:14:37 35680 408 38.158182449343 -140.73529882016
OMA0485 OMA7478 2021-04-14 09:14:22 35680 408 38.176298330868 -140.70751297029
OMA0485 OMA7478 2021-04-14 09:14:07 35680 408 38.194281160541 -140.67990972125
OMA0485 OMA7478 2021-04-14 09:13:52 35680 408 38.212373534448 -140.65210116634
OMA0485 OMA7478 2021-04-14 09:13:37 35680 408 38.230315782391 -140.62448851804
OMA0485 OMA7478 2021-04-14 09:13:22 35680 408 38.248402080073 -140.59662913691
OMA0485 OMA7478 2021-04-14 09:13:07 35680 408 38.266320412926 -140.56900646453
OMA0485 OMA7478 2021-04-14 09:12:52 35680 408 38.284378521763 -140.5411434015
OMA0485 OMA7478 2021-04-14 09:12:37 35680 408 38.302291458037 -140.51348113536
OMA0485 OMA7478 2021-04-14 09:12:22 35680 408 38.320331016454 -140.48560051661
OMA0485 OMA7478 2021-04-14 09:12:07 35680 408 38.338232195556 -140.45790906209
OMA0485 OMA7478 2021-04-14 09:11:52 35680 408 38.356270883038 -140.42998044525
OMA0485 OMA7478 2021-04-14 09:11:37 35680 408 38.374161322178 -140.40225846832
OMA0485 OMA7478 2021-04-14 09:11:22 35680 408 38.392174402206 -140.37432176731
OMA0485 OMA7478 2021-04-14 09:11:07 35680 408 38.410052152611 -140.34657046859
OMA0485 OMA7478 2021-04-14 09:10:52 35680 408 38.428051347971 -140.31860671364
OMA0485 OMA7478 2021-04-14 09:10:37 35680 408 38.445925124344 -140.29081395353
OMA0485 OMA7478 2021-04-14 09:10:22 35680 408 38.463910241833 -140.26282314462
OMA0485 OMA7478 2021-04-14 09:10:07 35680 408 38.481771861678 -140.23500039572
OMA0485 OMA7478 2021-04-14 09:09:52 35680 408 38.49973644042 -140.20699068373
OMA0485 OMA7478 2021-04-14 09:09:37 35680 408 38.517579999115 -140.17914635036
OMA0485 OMA7478 2021-04-14 09:09:22 35680 408 38.53554110091 -140.15109620418
OMA0485 OMA7478 2021-04-14 09:09:07 35680 408 38.553376600142 -140.12321820011
OMA0485 OMA7478 2021-04-14 09:08:52 35680 408 38.571329970291 -140.09513022109
OMA0485 OMA7478 2021-04-14 09:08:37 35680 408 38.589141286025 -140.06724030421
OMA0485 OMA7478 2021-04-14 09:08:22 35680 408 38.607072460558 -140.03913908836
OMA0485 OMA7478 2021-04-14 09:08:07 35680 408 38.624884238229 -140.01119994943
OMA0485 OMA7478 2021-04-14 09:07:52 35680 408 38.642801753246 -139.98306961523
OMA0485 OMA7478 2021-04-14 09:07:37 35680 408 38.660590572941 -139.9551187736
OMA0485 OMA7478 2021-04-14 09:07:22 35680 408 38.678510232894 -139.92693785331
OMA0485 OMA7478 2021-04-14 09:07:07 35680 408 38.696277292372 -139.89897180384
OMA0485 OMA7478 2021-04-14 09:06:52 35680 406 38.714155516979 -139.87081021352
OMA0485 OMA7478 2021-04-14 09:06:37 35680 408 38.731941680199 -139.84277188677
OMA0485 OMA7478 2021-04-14 09:06:22 35680 408 38.749821411502 -139.81456237841
OMA0485 OMA7478 2021-04-14 09:06:07 35680 408 38.767597965453 -139.78649339585
OMA0485 OMA7478 2021-04-14 09:05:52 35680 408 38.785480808647 -139.75823408847
OMA0485 OMA7478 2021-04-14 09:05:37 35680 408 38.803266791045 -139.7301060888
OMA0485 OMA7478 2021-04-14 09:05:22 35681 408 38.821117975761 -139.70185679992
OMA0485 OMA7478 2021-04-14 09:05:07 35680 406 38.83885772141 -139.67376625958
OMA0485 OMA7478 2021-04-14 09:04:52 35679 406 38.856642101446 -139.64556995028
OMA0485 OMA7478 2021-04-14 09:04:37 35679 406 38.874309862424 -139.61753271743
OMA0485 OMA7478 2021-04-14 09:04:22 35680 408 38.892147576025 -139.58920434776
OMA0485 OMA7478 2021-04-14 09:04:07 35680 412 38.909992977895 -139.56083718476
OMA0485 OMA7478 2021-04-14 09:03:52 35680 414 38.928038496661 -139.53212621777
OMA0485 OMA7478 2021-04-14 09:03:37 35680 415 38.946049093385 -139.50344379885
OMA0485 OMA7478 2021-04-14 09:03:22 35680 419 38.964295640492 -139.47435578408
OMA0485 OMA7478 2021-04-14 09:03:07 35680 421 38.982541337926 -139.44523876769
OMA0485 OMA7478 2021-04-14 09:02:52 35680 423 39.001008896973 -139.41573456495
OMA0485 OMA7478 2021-04-14 09:02:37 35681 425 39.019440640684 -139.38625296054
OMA0485 OMA7478 2021-04-14 09:02:22 35680 425 39.038023280692 -139.35649940253
OMA0485 OMA7478 2021-04-14 09:02:07 35679 427 39.056482514263 -139.32691483835
OMA0485 OMA7478 2021-04-14 09:01:52 35679 427 39.075086250394 -139.29706904611
OMA0485 OMA7478 2021-04-14 09:01:37 35680 427 39.093605054026 -139.2673264004
OMA0485 OMA7478 2021-04-14 09:01:22 35680 427 39.11222934297 -139.23738114353
OMA0485 OMA7478 2021-04-14 09:01:07 35680 427 39.130729344009 -139.20760299951
OMA0485 OMA7478 2021-04-14 09:00:52 35680 425 39.14928509861 -139.17770634104
OMA0485 OMA7478 2021-04-14 09:00:37 35680 423 39.167603352967 -139.14816790732
OMA0485 OMA7478 2021-04-14 09:00:22 35680 421 39.185941766709 -139.11857074997
OMA0485 OMA7478 2021-04-14 09:00:07 35680 419 39.204062824735 -139.08929902713
OMA0485 OMA7478 2021-04-14 08:59:52 35680 417 39.222243410888 -139.05990861641
OMA0485 OMA7478 2021-04-14 08:59:37 35680 415 39.240190871411 -139.030872355
OMA0485 OMA7478 2021-04-14 08:59:22 35680 414 39.258224375428 -139.00167179281
OMA0485 OMA7478 2021-04-14 08:59:07 35680 414 39.276070953178 -138.97274974134
OMA0485 OMA7478 2021-04-14 08:58:52 35680 414 39.294027549915 -138.94362347852
OMA0485 OMA7478 2021-04-14 08:58:37 35680 414 39.311869254114 -138.9146568797
OMA0485 OMA7478 2021-04-14 08:58:22 35680 414 39.329809375852 -138.88550564567
OMA0485 OMA7478 2021-04-14 08:58:07 35680 414 39.347629061778 -138.85652459273
OMA0485 OMA7478 2021-04-14 08:57:52 35680 414 39.365599512221 -138.82727325373
OMA0485 OMA7478 2021-04-14 08:57:37 35680 414 39.383394589251 -138.79828384982
OMA0485 OMA7478 2021-04-14 08:57:22 35680 414 39.401340514077 -138.76902568063
OMA0485 OMA7478 2021-04-14 08:57:07 35680 414 39.419133988286 -138.73999588256
OMA0485 OMA7478 2021-04-14 08:56:52 35680 414 39.437055218838 -138.71073836704
OMA0485 OMA7478 2021-04-14 08:56:37 35680 414 39.454865539322 -138.68164066728
OMA0485 OMA7478 2021-04-14 08:56:22 35680 414 39.472748719998 -138.65238646014
OMA0485 OMA7478 2021-04-14 08:56:07 35680 414 39.490515947569 -138.6232932883
OMA0485 OMA7478 2021-04-14 08:55:52 35680 414 39.508396079129 -138.59399609899
OMA0485 OMA7478 2021-04-14 08:55:37 35680 414 39.526163966737 -138.56486598251
OMA0485 OMA7478 2021-04-14 08:55:22 35680 414 39.544044492515 -138.53553848423
OMA0485 OMA7478 2021-04-14 08:55:07 35680 414 39.561809615242 -138.50639417377
OMA0485 OMA7478 2021-04-14 08:54:52 35680 414 39.579680996594 -138.47707510651
OMA0485 OMA7478 2021-04-14 08:54:37 35680 414 39.597459490181 -138.4479217247
OMA0485 OMA7478 2021-04-14 08:54:22 35680 414 39.61535028224 -138.41861319621
OMA0485 OMA7478 2021-04-14 08:54:07 35680 414 39.633163830217 -138.38947819721
OMA0485 OMA7478 2021-04-14 08:53:52 35680 414 39.651139467847 -138.36015568817
OMA0485 OMA7478 2021-04-14 08:53:37 35680 414 39.669012668072 -138.33113901686
OMA0485 OMA7478 2021-04-14 08:53:22 35680 414 39.687122017759 -138.30196306341
OMA0485 OMA7478 2021-04-14 08:53:07 35680 414 39.705243215332 -138.27313897142
OMA0485 OMA7478 2021-04-14 08:52:52 35680 414 39.723705619805 -138.24434083949
OMA0485 OMA7478 2021-04-14 08:52:37 35680 414 39.742349029465 -138.21604788809
OMA0485 OMA7478 2021-04-14 08:52:22 35680 414 39.761442314646 -138.18808696126
OMA0485 OMA7478 2021-04-14 08:52:07 35679 414 39.780845990138 -138.16034458714
OMA0485 OMA7478 2021-04-14 08:51:52 35680 414 39.799263111516 -138.1318137664
OMA0485 OMA7478 2021-04-14 08:51:37 35680 414 39.816998890576 -138.10223529869
OMA0485 OMA7478 2021-04-14 08:51:22 35680 414 39.834611559757 -138.07283455598
OMA0485 OMA7478 2021-04-14 08:51:07 35680 414 39.852337244802 -138.04321705147
OMA0485 OMA7478 2021-04-14 08:50:52 35680 414 39.869937108314 -138.01378007924
OMA0485 OMA7478 2021-04-14 08:50:37 35680 414 39.887666424273 -137.98410031846
OMA0485 OMA7478 2021-04-14 08:50:22 35680 414 39.905282523592 -137.95458286722
OMA0485 OMA7478 2021-04-14 08:50:07 35680 414 39.922972130454 -137.92491503009
OMA0485 OMA7478 2021-04-14 08:49:52 35680 414 39.940572572089 -137.89536937931
OMA0485 OMA7478 2021-04-14 08:49:37 35680 414 39.958251393111 -137.86566514674
OMA0485 OMA7478 2021-04-14 08:49:22 35680 414 39.975808445147 -137.83613869253
OMA0485 OMA7478 2021-04-14 08:49:07 35680 414 39.993468830622 -137.80640799965
OMA0485 OMA7478 2021-04-14 08:48:52 35680 414 40.011084619702 -137.77672980051
OMA0485 OMA7478 2021-04-14 08:48:37 35680 414 40.028774802411 -137.74689890929
OMA0485 OMA7478 2021-04-14 08:48:22 35680 414 40.046309182977 -137.71730599413
OMA0485 OMA7478 2021-04-14 08:48:07 35680 414 40.063955196358 -137.68750150319
OMA0485 OMA7478 2021-04-14 08:47:52 35680 414 40.081484882799 -137.6578588824
OMA0485 OMA7478 2021-04-14 08:47:37 35680 414 40.099106139428 -137.62802089978
OMA0485 OMA7478 2021-04-14 08:47:22 35680 414 40.116615875339 -137.59834346104
OMA0485 OMA7478 2021-04-14 08:47:07 35680 414 40.134208290772 -137.56849633478
OMA0485 OMA7478 2021-04-14 08:46:52 35680 414 40.151735985372 -137.53873170439
OMA0485 OMA7478 2021-04-14 08:46:37 35680 414 40.16932598176 -137.5088337786
OMA0485 OMA7478 2021-04-14 08:46:22 35680 414 40.186792494932 -137.47911717299
OMA0485 OMA7478 2021-04-14 08:46:07 35680 414 40.204383455178 -137.44915889607
OMA0485 OMA7478 2021-04-14 08:45:52 35680 414 40.221829423299 -137.41941945201
OMA0485 OMA7478 2021-04-14 08:45:37 35680 414 40.239394592386 -137.38944650086
OMA0485 OMA7478 2021-04-14 08:45:22 35680 414 40.256843698642 -137.35964107611
OMA0485 OMA7478 2021-04-14 08:45:07 35680 414 40.274374772385 -137.32966278887
OMA0485 OMA7478 2021-04-14 08:44:52 35680 414 40.29180468673 -137.29982777552
OMA0485 OMA7478 2021-04-14 08:44:37 35680 414 40.309320911264 -137.26981904592
OMA0485 OMA7478 2021-04-14 08:44:22 35680 414 40.326722932749 -137.23998243175
OMA0485 OMA7478 2021-04-14 08:44:07 35680 414 40.344226953648 -137.20994450042
OMA0485 OMA7478 2021-04-14 08:43:52 35679 414 40.361603175746 -137.18008935669
OMA0485 OMA7478 2021-04-14 08:43:37 35679 414 40.379076041328 -137.15001485984
OMA0485 OMA7478 2021-04-14 08:43:22 35679 415 40.396455109265 -137.12002611387
OMA0485 OMA7478 2021-04-14 08:43:07 35679 415 40.413936316328 -137.08977807418
OMA0485 OMA7478 2021-04-14 08:42:52 35680 415 40.431305307451 -137.05965740018
OMA0485 OMA7478 2021-04-14 08:42:37 35680 414 40.448721342371 -137.02941638078
OMA0485 OMA7478 2021-04-14 08:42:22 35680 412 40.465912443709 -136.9995347942
OMA0485 OMA7478 2021-04-14 08:42:07 35680 408 40.483116997804 -136.96960397066
OMA0485 OMA7478 2021-04-14 08:41:52 35680 406 40.500115129188 -136.94001575126
OMA0485 OMA7478 2021-04-14 08:41:37 35680 404 40.517109725032 -136.91044062527
OMA0485 OMA7478 2021-04-14 08:41:22 35681 400 40.533868386662 -136.88131361706
OMA0485 OMA7478 2021-04-14 08:41:07 35680 396 40.550637862361 -136.85223385989
OMA0485 OMA7478 2021-04-14 08:40:52 35679 394 40.567190299986 -136.82360461505
OMA0485 OMA7478 2021-04-14 08:40:37 35680 394 40.583872753531 -136.7948304288
OMA0485 OMA7478 2021-04-14 08:40:22 35680 394 40.600446689045 -136.76635942558
OMA0485 OMA7478 2021-04-14 08:40:07 35680 394 40.617233380008 -136.73772938033
OMA0485 OMA7478 2021-04-14 08:39:52 35680 394 40.634008067357 -136.70945840026
OMA0485 OMA7478 2021-04-14 08:39:37 35680 394 40.651110156271 -136.68116244731
OMA0485 OMA7478 2021-04-14 08:39:22 35680 394 40.668343439259 -136.65330594767
OMA0485 OMA7478 2021-04-14 08:39:07 35680 394 40.685833916363 -136.62543316522
OMA0485 OMA7478 2021-04-14 08:38:52 35680 394 40.703006101365 -136.59758066764
OMA0485 OMA7478 2021-04-14 08:38:37 35680 394 40.720041600986 -136.56917625876
OMA0485 OMA7478 2021-04-14 08:38:22 35680 394 40.736615253056 -136.54069959929
OMA0485 OMA7478 2021-04-14 08:38:07 35680 394 40.753007033523 -136.51165187196
OMA0485 OMA7478 2021-04-14 08:37:52 35679 394 40.768964172096 -136.48250425312
OMA0485 OMA7478 2021-04-14 08:37:37 35680 394 40.784733980344 -136.45287489251
OMA0485 OMA7478 2021-04-14 08:37:22 35680 394 40.800144652409 -136.42319940143
OMA0485 OMA7478 2021-04-14 08:37:07 35680 394 40.815461994249 -136.39312479785
OMA0485 OMA7478 2021-04-14 08:36:52 35680 394 40.83053640871 -136.36314971227
OMA0485 OMA7478 2021-04-14 08:36:37 35680 394 40.845678541768 -136.33290734217
OMA0485 OMA7478 2021-04-14 08:36:22 35680 394 40.8608149796 -136.30282710902
OMA0485 OMA7478 2021-04-14 08:36:07 35679 394 40.876059666394 -136.27299201563
OMA0485 OMA7478 2021-04-14 08:35:52 35679 394 40.891691092444 -136.24317898696
OMA0485 OMA7478 2021-04-14 08:35:37 35679 394 40.907610923621 -136.21386933789
OMA0485 OMA7478 2021-04-14 08:35:22 35679 394 40.924115512384 -136.18476894341
OMA0485 OMA7478 2021-04-14 08:35:07 35681 394 40.941059571375 -136.15636590857
OMA0485 OMA7478 2021-04-14 08:34:52 35682 394 40.958552714628 -136.12834520424
OMA0485 OMA7478 2021-04-14 08:34:37 35683 390 40.976002368761 -136.10078929962
OMA0485 OMA7478 2021-04-14 08:34:22 35680 388 40.993346670146 -136.07306923701
OMA0485 OMA7478 2021-04-14 08:34:07 35672 394 41.010208806777 -136.04511580404
OMA0485 OMA7478 2021-04-14 08:33:52 35684 408 41.027221021489 -136.01586444503
OMA0485 OMA7478 2021-04-14 08:33:37 35670 417 41.044453049884 -135.98556335966
OMA0485 OMA7478 2021-04-14 08:33:22 35669 423 41.062028861913 -135.95450450681
OMA0485 OMA7478 2021-04-14 08:33:07 35668 433 41.079757247662 -135.92298260016
OMA0485 OMA7478 2021-04-14 08:32:52 35672 443 41.097936477612 -135.89046226192
OMA0485 OMA7478 2021-04-14 08:32:37 35671 447 41.116253516092 -135.85760532342
OMA0485 OMA7478 2021-04-14 08:32:22 35671 447 41.134788156118 -135.82432586702
OMA0485 OMA7478 2021-04-14 08:32:07 35671 447 41.153172819225 -135.79128185204
OMA0485 OMA7478 2021-04-14 08:31:52 35671 447 41.171646959122 -135.75804214948
OMA0485 OMA7478 2021-04-14 08:31:37 35670 447 41.19000603226 -135.72496925294
OMA0485 OMA7478 2021-04-14 08:31:22 35670 447 41.20845583617 -135.69168864928
OMA0485 OMA7478 2021-04-14 08:31:07 35671 447 41.226788128885 -135.65857754637
OMA0485 OMA7478 2021-04-14 08:30:52 35671 447 41.24525706509 -135.62520387364
OMA0485 OMA7478 2021-04-14 08:30:37 35671 447 41.263583623916 -135.59205312361
OMA0485 OMA7478 2021-04-14 08:30:22 35671 447 41.282044255867 -135.55862425682
OMA0485 OMA7478 2021-04-14 08:30:07 35671 447 41.300362708327 -135.52541582372
OMA0485 OMA7478 2021-04-14 08:29:52 35671 447 41.318794946045 -135.49196385168
OMA0485 OMA7478 2021-04-14 08:29:37 35671 447 41.337094766717 -135.45871641179
OMA0485 OMA7478 2021-04-14 08:29:22 35671 447 41.355493242449 -135.42525208672
OMA0485 OMA7478 2021-04-14 08:29:07 35671 447 41.373766432044 -135.39198060776
OMA0485 OMA7478 2021-04-14 08:28:52 35671 447 41.392156344095 -135.35846166786
OMA0485 OMA7478 2021-04-14 08:28:37 35671 447 41.410420262637 -135.32513586755
OMA0485 OMA7478 2021-04-14 08:28:22 35671 447 41.428773774266 -135.29160673572
OMA0485 OMA7478 2021-04-14 08:28:07 35670 447 41.447012158436 -135.2582467578
OMA0485 OMA7478 2021-04-14 08:27:52 35670 447 41.465362131006 -135.22463462316
OMA0485 OMA7478 2021-04-14 08:27:37 35671 449 41.483582791318 -135.19120927818
OMA0485 OMA7478 2021-04-14 08:27:22 35671 449 41.501927168735 -135.15750899142
OMA0485 OMA7478 2021-04-14 08:27:07 35670 447 41.52012841103 -135.12403236667
OMA0485 OMA7478 2021-04-14 08:26:52 35671 447 41.538425437471 -135.09034353247
OMA0485 OMA7478 2021-04-14 08:26:37 35671 447 41.556533122097 -135.05697056118
OMA0485 OMA7478 2021-04-14 08:26:22 35671 445 41.574757932318 -135.02335011225
OMA0485 OMA7478 2021-04-14 08:26:07 35671 445 41.592803589983 -134.99003255787
OMA0485 OMA7478 2021-04-14 08:25:52 35671 443 41.610925955431 -134.95654780392
OMA0485 OMA7478 2021-04-14 08:25:37 35670 443 41.62888460618 -134.92333743649
OMA0485 OMA7478 2021-04-14 08:25:22 35671 443 41.646947827729 -134.88989839779
OMA0485 OMA7478 2021-04-14 08:25:07 35671 443 41.664874343973 -134.85667636433
OMA0485 OMA7478 2021-04-14 08:24:52 35671 443 41.682917241164 -134.82320224754
OMA0485 OMA7478 2021-04-14 08:24:37 35671 443 41.700799986133 -134.78998926542
OMA0485 OMA7478 2021-04-14 08:24:22 35671 443 41.718821744534 -134.75648126449
OMA0485 OMA7478 2021-04-14 08:24:07 35671 443 41.736679509389 -134.72324089491
OMA0485 OMA7478 2021-04-14 08:23:52 35671 443 41.754661049299 -134.68972566358
OMA0485 OMA7478 2021-04-14 08:23:37 35670 443 41.772512428393 -134.65641392387
OMA0485 OMA7478 2021-04-14 08:23:22 35670 443 41.79049475457 -134.62283705301
OMA0485 OMA7478 2021-04-14 08:23:07 35670 443 41.808344851263 -134.58946923103
OMA0485 OMA7478 2021-04-14 08:22:52 35670 443 41.826309275845 -134.5558495992
OMA0485 OMA7478 2021-04-14 08:22:37 35670 443 41.844149565534 -134.52242542816
OMA0485 OMA7478 2021-04-14 08:22:22 35670 443 41.862096879539 -134.4887616669
OMA0485 OMA7478 2021-04-14 08:22:07 35670 443 41.879902545618 -134.45532607664
OMA0485 OMA7478 2021-04-14 08:21:52 35671 443 41.897834815215 -134.42161837272
OMA0485 OMA7478 2021-04-14 08:21:37 35671 443 41.91563575706 -134.38811960321
OMA0485 OMA7478 2021-04-14 08:21:22 35671 443 41.933550000819 -134.35437094483
OMA0485 OMA7478 2021-04-14 08:21:07 35671 443 41.951324062223 -134.32084840307
OMA0485 OMA7478 2021-04-14 08:20:52 35671 443 41.969208136928 -134.28708034801
OMA0485 OMA7478 2021-04-14 08:20:37 35671 443 41.986961776798 -134.25352061373
OMA0485 OMA7478 2021-04-14 08:20:22 35671 443 42.004820972739 -134.21972417071
OMA0485 OMA7478 2021-04-14 08:20:07 35671 443 42.022572888199 -134.18609365326
OMA0485 OMA7478 2021-04-14 08:19:52 35671 443 42.040404359184 -134.1522723174
OMA0485 OMA7478 2021-04-14 08:19:37 35671 443 42.058119098964 -134.11863823811
OMA0485 OMA7478 2021-04-14 08:19:22 35671 443 42.075949061925 -134.0847471396
OMA0485 OMA7478 2021-04-14 08:19:07 35671 443 42.093637613256 -134.05108652663
OMA0485 OMA7478 2021-04-14 08:18:52 35671 443 42.111436558682 -134.01717865447
OMA0485 OMA7478 2021-04-14 08:18:37 35671 443 42.129112901878 -133.98346577955
OMA0485 OMA7478 2021-04-14 08:18:22 35671 443 42.146906895492 -133.94948766283
OMA0485 OMA7478 2021-04-14 08:18:07 35670 443 42.164585372434 -133.91569147327
OMA0485 OMA7478 2021-04-14 08:17:52 35671 443 42.182350920732 -133.88169059815
OMA0485 OMA7478 2021-04-14 08:17:37 35671 443 42.200002856758 -133.84786751472
OMA0485 OMA7478 2021-04-14 08:17:22 35671 443 42.217753765339 -133.81381667383
OMA0485 OMA7478 2021-04-14 08:17:07 35670 443 42.235347071167 -133.78002906202
OMA0485 OMA7478 2021-04-14 08:16:52 35671 443 42.253071712036 -133.74594815229
OMA0485 OMA7478 2021-04-14 08:16:37 35670 443 42.270657893046 -133.71209213188
OMA0485 OMA7478 2021-04-14 08:16:22 35671 443 42.288372472305 -133.67794358727
OMA0485 OMA7478 2021-04-14 08:16:07 35671 443 42.30594646872 -133.64403491862
OMA0485 OMA7478 2021-04-14 08:15:52 35671 443 42.32364382725 -133.60986257507
OMA0485 OMA7478 2021-04-14 08:15:37 35671 443 42.341221727396 -133.57588393141
OMA0485 OMA7478 2021-04-14 08:15:22 35671 443 42.35888070713 -133.54170972023
OMA0485 OMA7478 2021-04-14 08:15:07 35671 443 42.376423762194 -133.50772200523
OMA0485 OMA7478 2021-04-14 08:14:52 35670 443 42.39408470407 -133.47346711244
OMA0485 OMA7478 2021-04-14 08:14:37 35670 443 42.41160646795 -133.43943857639
OMA0485 OMA7478 2021-04-14 08:14:22 35671 443 42.429279988597 -133.40507424048
OMA0485 OMA7478 2021-04-14 08:14:07 35671 443 42.446804904854 -133.37096560979
OMA0485 OMA7478 2021-04-14 08:13:52 35671 443 42.464449945972 -133.33660122053
OMA0485 OMA7478 2021-04-14 08:13:37 35672 443 42.481928806527 -133.30255214055
OMA0485 OMA7478 2021-04-14 08:13:22 35671 441 42.499514870864 -133.26828804301
OMA0485 OMA7478 2021-04-14 08:13:07 35669 441 42.516932731986 -133.23432692839
OMA0485 OMA7478 2021-04-14 08:12:52 35670 443 42.534497534323 -133.20002779946
OMA0485 OMA7478 2021-04-14 08:12:37 35670 447 42.552047911018 -133.16569642722
OMA0485 OMA7478 2021-04-14 08:12:22 35670 449 42.569789614285 -133.13092985721
OMA0485 OMA7478 2021-04-14 08:12:07 35670 452 42.587653910314 -133.09586225862
OMA0485 OMA7478 2021-04-14 08:11:52 35671 454 42.605490766509 -133.06079097813
OMA0485 OMA7478 2021-04-14 08:11:37 35671 456 42.623489239257 -133.02534987358
OMA0485 OMA7478 2021-04-14 08:11:22 35671 456 42.641406330956 -132.99001652293
OMA0485 OMA7478 2021-04-14 08:11:07 35671 456 42.65944096567 -132.95440756015
OMA0485 OMA7478 2021-04-14 08:10:52 35671 456 42.677345074829 -132.91901706169
OMA0485 OMA7478 2021-04-14 08:10:37 35670 456 42.695359553975 -132.88336307402
OMA0485 OMA7478 2021-04-14 08:10:22 35671 456 42.713235668543 -132.84793723067
OMA0485 OMA7478 2021-04-14 08:10:07 35671 456 42.731213104819 -132.81226491354
OMA0485 OMA7478 2021-04-14 08:09:52 35671 456 42.749072686579 -132.77677678474
OMA0485 OMA7478 2021-04-14 08:09:37 35671 456 42.767036970873 -132.74102665415
OMA0485 OMA7478 2021-04-14 08:09:22 35671 456 42.784853552899 -132.7055169809
OMA0485 OMA7478 2021-04-14 08:09:07 35671 456 42.802788859602 -132.66972361468
OMA0485 OMA7478 2021-04-14 08:08:52 35671 456 42.820607163029 -132.63415862517
OMA0485 OMA7478 2021-04-14 08:08:37 35671 456 42.838507894014 -132.5984040256
OMA0485 OMA7478 2021-04-14 08:08:22 35670 454 42.856265238016 -132.56289632671
OMA0485 OMA7478 2021-04-14 08:08:07 35673 456 42.874121689758 -132.52714263428
OMA0485 OMA7478 2021-04-14 08:07:52 35689 456 42.891913233326 -132.49146759575
OMA0485 OMA7478 2021-04-14 08:07:37 35704 458 42.909843331046 -132.45546753626
OMA0485 OMA7478 2021-04-14 08:07:22 35720 460 42.927658286955 -132.41965706789
OMA0485 OMA7478 2021-04-14 08:07:07 35735 460 42.945651715906 -132.38344468557
OMA0485 OMA7478 2021-04-14 08:06:52 35750 462 42.963580471053 -132.34731912136
OMA0485 OMA7478 2021-04-14 08:06:37 35766 462 42.981643173694 -132.31088107599
OMA0485 OMA7478 2021-04-14 08:06:22 35781 464 42.999626054321 -132.27455927725
OMA0485 OMA7478 2021-04-14 08:06:07 35797 466 43.017759160013 -132.23789020607
OMA0485 OMA7478 2021-04-14 08:05:52 35808 466 43.035780242219 -132.20140080088
OMA0485 OMA7478 2021-04-14 08:05:37 35808 466 43.053916030147 -132.16463335897
OMA0485 OMA7478 2021-04-14 08:05:22 35808 466 43.071917754496 -132.12809334101
OMA0485 OMA7478 2021-04-14 08:05:07 35808 466 43.090038759214 -132.091264941
OMA0485 OMA7478 2021-04-14 08:04:52 35808 466 43.108013656051 -132.05468711354
OMA0485 OMA7478 2021-04-14 08:04:37 35808 466 43.126102121842 -132.01783195306
OMA0485 OMA7478 2021-04-14 08:04:22 35808 466 43.144086822541 -131.98114117069
OMA0485 OMA7478 2021-04-14 08:04:07 35808 466 43.16203184956 -131.94448408569
OMA0485 OMA7478 2021-04-14 08:03:52 35808 466 43.180092607023 -131.9075421838
OMA0485 OMA7478 2021-04-14 08:03:37 35808 466 43.197995792931 -131.87087115162
OMA0485 OMA7478 2021-04-14 08:03:22 35808 466 43.216040595658 -131.83386111793
OMA0485 OMA7478 2021-04-14 08:03:07 35808 466 43.233919959257 -131.79713633802
OMA0485 OMA7478 2021-04-14 08:02:52 35808 466 43.251913922989 -131.76011663267
OMA0485 OMA7478 2021-04-14 08:02:37 35808 466 43.269783128836 -131.72329791098
OMA0485 OMA7478 2021-04-14 08:02:22 35808 466 43.287751217533 -131.68621668058
OMA0485 OMA7478 2021-04-14 08:02:07 35808 466 43.305563856251 -131.64942751306
OMA0485 OMA7478 2021-04-14 08:01:52 35808 466 43.323528505271 -131.61232005579
OMA0485 OMA7478 2021-04-14 08:01:37 35808 466 43.341343712963 -131.57547438687
OMA0485 OMA7478 2021-04-14 08:01:22 35808 466 43.359310834991 -131.53826693137
OMA0485 OMA7478 2021-04-14 08:01:07 35808 466 43.377086292144 -131.50141021675
OMA0485 OMA7478 2021-04-14 08:00:52 35808 466 43.394993911195 -131.46423242988
OMA0485 OMA7478 2021-04-14 08:00:37 35808 466 43.412776649089 -131.4272656585
OMA0485 OMA7478 2021-04-14 08:00:22 35808 466 43.430645269567 -131.39007498499
OMA0485 OMA7478 2021-04-14 08:00:08 35808 466 43.448379465364 -131.35311707151
OMA0485 OMA7478 2021-04-14 07:59:52 35808 466 43.466241475917 -131.31584512942
OMA0485 OMA7478 2021-04-14 07:59:37 35808 466 43.483983906339 -131.27877526487
OMA0485 OMA7478 2021-04-14 07:59:22 35808 466 43.501833173346 -131.24143403371
OMA0485 OMA7478 2021-04-14 07:59:07 35808 466 43.51954750755 -131.2043262296
OMA0485 OMA7478 2021-04-14 07:58:52 35809 464 43.537360505972 -131.16696201325
OMA0485 OMA7478 2021-04-14 07:58:37 35808 464 43.554981826662 -131.12995279331
OMA0485 OMA7478 2021-04-14 07:58:22 35807 464 43.572719946645 -131.09264991527
OMA0485 OMA7478 2021-04-14 07:58:07 35808 464 43.590307828802 -131.05561766679
OMA0485 OMA7478 2021-04-14 07:57:52 35808 466 43.608084294969 -131.01814319858
OMA0485 OMA7478 2021-04-14 07:57:37 35808 470 43.625807486917 -130.98073396568
OMA0485 OMA7478 2021-04-14 07:57:22 35807 472 43.643746185237 -130.94282174504
OMA0485 OMA7478 2021-04-14 07:57:07 35808 474 43.661636435582 -130.90496079919
OMA0485 OMA7478 2021-04-14 07:56:52 35808 476 43.679697046542 -130.86668255145
OMA0485 OMA7478 2021-04-14 07:56:37 35808 476 43.697684053704 -130.82850080681
OMA0485 OMA7478 2021-04-14 07:56:22 35808 478 43.715832150666 -130.78991399994
OMA0485 OMA7478 2021-04-14 07:56:07 35808 478 43.733821267535 -130.75160485627
OMA0485 OMA7478 2021-04-14 07:55:52 35808 476 43.751879829038 -130.71307936102
OMA0485 OMA7478 2021-04-14 07:55:37 35808 476 43.76981943157 -130.67474809927
OMA0485 OMA7478 2021-04-14 07:55:22 35808 476 43.787865675351 -130.63620138533
OMA0485 OMA7478 2021-04-14 07:55:07 35808 476 43.805815089953 -130.59784405681
OMA0485 OMA7478 2021-04-14 07:54:52 35808 476 43.823865459169 -130.55923070292
OMA0485 OMA7478 2021-04-14 07:54:37 35808 476 43.841781014566 -130.52086963914
OMA0485 OMA7478 2021-04-14 07:54:22 35808 476 43.859827580556 -130.48219508034
OMA0485 OMA7478 2021-04-14 07:54:07 35808 476 43.877690446901 -130.44388887152
OMA0485 OMA7478 2021-04-14 07:53:52 35807 476 43.895706106049 -130.40523659088
OMA0485 OMA7478 2021-04-14 07:53:37 35808 476 43.913625341101 -130.36678001117
OMA0485 OMA7478 2021-04-14 07:53:22 35808 476 43.931645610566 -130.32811588442
OMA0485 OMA7478 2021-04-14 07:53:07 35808 476 43.949575032208 -130.28967477936
OMA0485 OMA7478 2021-04-14 07:52:52 35808 476 43.967650777517 -130.25096975152
OMA0485 OMA7478 2021-04-14 07:52:37 35808 478 43.985636378178 -130.2125623305
OMA0485 OMA7478 2021-04-14 07:52:22 35808 478 44.00380447147 -130.17393822439
OMA0485 OMA7478 2021-04-14 07:52:07 35808 478 44.021951166702 -130.13563337627
OMA0485 OMA7478 2021-04-14 07:51:52 35808 478 44.040390240131 -130.09713257375
OMA0485 OMA7478 2021-04-14 07:51:37 35808 478 44.0588796291 -130.05908958068
OMA0485 OMA7478 2021-04-14 07:51:22 35808 478 44.07767963618 -130.02087334492
OMA0485 OMA7478 2021-04-14 07:51:07 35808 476 44.095905251838 -129.98257896886
OMA0485 OMA7478 2021-04-14 07:50:52 35808 476 44.113737641043 -129.94357075133
OMA0485 OMA7478 2021-04-14 07:50:37 35808 476 44.131431646991 -129.90480820049
OMA0485 OMA7478 2021-04-14 07:50:22 35808 476 44.149272357302 -129.8656672545
OMA0485 OMA7478 2021-04-14 07:50:07 35808 476 44.166942775122 -129.82683837612
OMA0485 OMA7478 2021-04-14 07:49:52 35808 476 44.184698495618 -129.7877569675
OMA0485 OMA7478 2021-04-14 07:49:37 35808 476 44.20231035043 -129.74892400702
OMA0485 OMA7478 2021-04-14 07:49:22 35808 476 44.220042443207 -129.70975425951
OMA0485 OMA7478 2021-04-14 07:49:07 35808 476 44.237599509959 -129.67090510401
OMA0485 OMA7478 2021-04-14 07:48:52 35808 476 44.255300798995 -129.63175242423
OMA0485 OMA7478 2021-04-14 07:48:37 35808 476 44.27289222816 -129.59280935362
OMA0485 OMA7478 2021-04-14 07:48:22 35808 476 44.290567481931 -129.55362770664
OMA0485 OMA7478 2021-04-14 07:48:07 35808 476 44.308118347416 -129.51466595974
OMA0485 OMA7478 2021-04-14 07:47:52 35808 476 44.325769779981 -129.47542983133
OMA0485 OMA7478 2021-04-14 07:47:37 35808 476 44.343300938405 -129.43640709297
OMA0485 OMA7478 2021-04-14 07:47:22 35808 476 44.360954513742 -129.39705920026
OMA0485 OMA7478 2021-04-14 07:47:07 35808 476 44.378467387451 -129.35797109485
OMA0485 OMA7478 2021-04-14 07:46:52 35808 476 44.396088080102 -129.31858547602
OMA0485 OMA7478 2021-04-14 07:46:37 35808 476 44.413555594426 -129.27948411044
OMA0485 OMA7478 2021-04-14 07:46:22 35808 476 44.431105761674 -129.24014008639
OMA0485 OMA7478 2021-04-14 07:46:07 35808 476 44.448511883082 -129.20106856287
OMA0485 OMA7478 2021-04-14 07:45:52 35807 476 44.465999090936 -129.16176511975
OMA0485 OMA7478 2021-04-14 07:45:37 35808 476 44.483404739064 -129.12259729323
OMA0485 OMA7478 2021-04-14 07:45:22 35808 478 44.500973682919 -129.08301015046
OMA0485 OMA7478 2021-04-14 07:45:07 35808 480 44.518465008646 -129.04354761195
OMA0485 OMA7478 2021-04-14 07:44:52 35808 482 44.536129180528 -129.00363755556
OMA0485 OMA7478 2021-04-14 07:44:37 35808 482 44.553686405571 -128.9639033407
OMA0485 OMA7478 2021-04-14 07:44:22 35809 484 44.571371202204 -128.92382201973
OMA0485 OMA7478 2021-04-14 07:44:07 35807 484 44.588952953151 -128.88390412639
OMA0485 OMA7478 2021-04-14 07:43:52 35807 484 44.606626937901 -128.84371419941
OMA0485 OMA7478 2021-04-14 07:43:37 35808 484 44.624181922647 -128.80373211296
OMA0485 OMA7478 2021-04-14 07:43:22 35815 484 44.641831813943 -128.76344981835
OMA0485 OMA7478 2021-04-14 07:43:07 35824 484 44.659360230779 -128.72336303791
OMA0485 OMA7478 2021-04-14 07:42:52 35834 484 44.676946176833 -128.68306799005
OMA0485 OMA7478 2021-04-14 07:42:37 35844 484 44.694424248144 -128.64302325021
OMA0485 OMA7478 2021-04-14 07:42:22 35854 482 44.712009264009 -128.60271739679
OMA0485 OMA7478 2021-04-14 07:42:07 35864 482 44.729482196603 -128.56261954396
OMA0485 OMA7478 2021-04-14 07:41:52 35874 482 44.747040316388 -128.52227260268
OMA0485 OMA7478 2021-04-14 07:41:37 35884 482 44.764458432044 -128.48218648925
OMA0485 OMA7478 2021-04-14 07:41:22 35893 482 44.781971612217 -128.44182071158
OMA0485 OMA7478 2021-04-14 07:41:07 35899 482 44.799347787609 -128.40171328049
OMA0485 OMA7478 2021-04-14 07:40:52 35899 482 44.816777655568 -128.36142839787
OMA0485 OMA7478 2021-04-14 07:40:37 35900 484 44.83426684009 -128.32094997545
OMA0485 OMA7478 2021-04-14 07:40:22 35900 482 44.851624100708 -128.28070828845
OMA0485 OMA7478 2021-04-14 07:40:07 35899 482 44.869064877346 -128.24021716614
OMA0485 OMA7478 2021-04-14 07:39:52 35899 482 44.886358509867 -128.20001987537
OMA0485 OMA7478 2021-04-14 07:39:37 35899 482 44.903786747029 -128.15945419461
OMA0485 OMA7478 2021-04-14 07:39:22 35899 482 44.921086760747 -128.11912733035
OMA0485 OMA7478 2021-04-14 07:39:07 35900 484 44.938485715529 -128.07850381309
OMA0485 OMA7478 2021-04-14 07:38:52 35899 484 44.955743956148 -128.03815228278
OMA0485 OMA7478 2021-04-14 07:38:37 35899 484 44.9731200428 -127.99746675375
OMA0485 OMA7478 2021-04-14 07:38:22 35899 484 44.990407367203 -127.95693482018
OMA0485 OMA7478 2021-04-14 07:38:07 35899 485 45.007805133431 -127.91608504291
OMA0485 OMA7478 2021-04-14 07:37:52 35899 485 45.025078617762 -127.87545885094
OMA0485 OMA7478 2021-04-14 07:37:37 35900 485 45.042471093629 -127.83446905812
OMA0485 OMA7478 2021-04-14 07:37:22 35898 485 45.059728913905 -127.7937119453
OMA0485 OMA7478 2021-04-14 07:37:07 35898 485 45.077132661729 -127.75253432228
OMA0485 OMA7478 2021-04-14 07:36:52 35900 487 45.094407434002 -127.71157888051
OMA0485 OMA7478 2021-04-14 07:36:37 35899 487 45.111801346643 -127.67027507242
OMA0485 OMA7478 2021-04-14 07:36:22 35900 487 45.12910592641 -127.62922872269
OMA0485 OMA7478 2021-04-14 07:36:07 35900 487 45.146499841525 -127.5879040505
OMA0485 OMA7478 2021-04-14 07:35:52 35898 487 45.163778600202 -127.54680199978
OMA0485 OMA7478 2021-04-14 07:35:37 35900 487 45.181127100091 -127.50549104133
OMA0485 OMA7478 2021-04-14 07:35:22 35900 487 45.198353891026 -127.46441081521
OMA0485 OMA7478 2021-04-14 07:35:07 35900 487 45.21569945806 -127.42299180103
OMA0485 OMA7478 2021-04-14 07:34:52 35899 485 45.232871265768 -127.38190290377
OMA0485 OMA7478 2021-04-14 07:34:37 35899 485 45.250109746906 -127.3406107817
OMA0485 OMA7478 2021-04-14 07:34:22 35900 485 45.267232481634 -127.29956049101
OMA0485 OMA7478 2021-04-14 07:34:07 35898 485 45.284475177676 -127.25818453904
OMA0485 OMA7478 2021-04-14 07:33:52 35899 487 45.301610536453 -127.2170458561
OMA0485 OMA7478 2021-04-14 07:33:37 35900 487 45.318915073804 -127.17546327757
OMA0485 OMA7478 2021-04-14 07:33:22 35900 489 45.336141222529 -127.13406862262
OMA0485 OMA7478 2021-04-14 07:33:07 35898 491 45.353529824021 -127.09229930111
OMA0485 OMA7478 2021-04-14 07:32:52 35898 493 45.37089791424 -127.05060137976
OMA0485 OMA7478 2021-04-14 07:32:37 35901 495 45.388467901619 -127.00849484851
OMA0485 OMA7478 2021-04-14 07:32:22 35899 497 45.406027196614 -126.96651688857
OMA0485 OMA7478 2021-04-14 07:32:07 35899 497 45.423792884086 -126.92425674393
OMA0485 OMA7478 2021-04-14 07:31:52 35898 497 45.441614014524 -126.88223213076
OMA0485 OMA7478 2021-04-14 07:31:37 35899 499 45.459748001163 -126.84001856014
OMA0485 OMA7478 2021-04-14 07:31:22 35902 501 45.478048708905 -126.79822775422
OMA0485 OMA7478 2021-04-14 07:31:07 35899 501 45.496911318619 -126.75635485263
OMA0485 OMA7478 2021-04-14 07:30:52 35900 501 45.516264694714 -126.71534730399
OMA0485 OMA7478 2021-04-14 07:30:37 35897 505 45.536929575003 -126.67505604475
OMA0485 OMA7478 2021-04-14 07:30:22 35901 507 45.559146333823 -126.63643281135
OMA0485 OMA7478 2021-04-14 07:30:07 35899 507 45.581742271882 -126.59767687726
OMA0485 OMA7478 2021-04-14 07:29:52 35903 507 45.604110634403 -126.55925098004
OMA0485 OMA7478 2021-04-14 07:29:37 35911 507 45.626658438502 -126.52049408545
OMA0485 OMA7478 2021-04-14 07:29:22 35918 507 45.649082390214 -126.48189492555
OMA0485 OMA7478 2021-04-14 07:29:07 35923 507 45.671642907334 -126.44298123009
OMA0485 OMA7478 2021-04-14 07:28:52 35929 507 45.694041062301 -126.40430485703
OMA0485 OMA7478 2021-04-14 07:28:37 35936 507 45.716530155729 -126.365417842
OMA0485 OMA7478 2021-04-14 07:28:22 35941 507 45.738868898341 -126.32675248795
OMA0485 OMA7478 2021-04-14 07:28:07 35945 507 45.76135726647 -126.2877564567
OMA0485 OMA7478 2021-04-14 07:27:52 35944 507 45.783704683369 -126.24895191087
OMA0485 OMA7478 2021-04-14 07:27:37 35945 509 45.806231454245 -126.20978455126
OMA0485 OMA7478 2021-04-14 07:27:22 35948 507 45.828562727872 -126.17088673066
OMA0485 OMA7478 2021-04-14 07:27:07 35945 507 45.851020324063 -126.13170269578
OMA0485 OMA7478 2021-04-14 07:26:52 35945 505 45.873215468313 -126.09293947126
OMA0485 OMA7478 2021-04-14 07:26:37 35944 507 45.895555993294 -126.05389148989
OMA0485 OMA7478 2021-04-14 07:26:22 35946 507 45.917873579657 -126.01482253603
OMA0485 OMA7478 2021-04-14 07:26:07 35945 507 45.940269889211 -125.97553929666
OMA0485 OMA7478 2021-04-14 07:25:52 35945 507 45.962455363893 -125.9365649049
OMA0485 OMA7478 2021-04-14 07:25:37 35945 507 45.984756655703 -125.8973004152
OMA0485 OMA7478 2021-04-14 07:25:22 35945 507 46.006935932023 -125.85821467768
OMA0485 OMA7478 2021-04-14 07:25:07 35944 507 46.029234146993 -125.81885980803
OMA0485 OMA7478 2021-04-14 07:24:52 35946 507 46.051366499758 -125.77971112472
OMA0485 OMA7478 2021-04-14 07:24:37 35944 507 46.073610927452 -125.74027613376
OMA0485 OMA7478 2021-04-14 07:24:22 35945 507 46.095647886534 -125.70112661001
OMA0485 OMA7478 2021-04-14 07:24:07 35943 507 46.117877421588 -125.66160404054
OMA0485 OMA7478 2021-04-14 07:23:52 35947 507 46.14004591587 -125.62223354176
OMA0485 OMA7478 2021-04-14 07:23:37 35946 507 46.162319301489 -125.58263285201
OMA0485 OMA7478 2021-04-14 07:23:22 35944 507 46.18438610289 -125.54332383267
OMA0485 OMA7478 2021-04-14 07:23:07 35945 505 46.206555026223 -125.50378834988
OMA0485 OMA7478 2021-04-14 07:22:52 35946 507 46.228577026202 -125.46444784764
OMA0485 OMA7478 2021-04-14 07:22:37 35945 505 46.250696494502 -125.42487399839
OMA0485 OMA7478 2021-04-14 07:22:22 35944 505 46.272674464073 -125.38550638884
OMA0485 OMA7478 2021-04-14 07:22:07 35945 507 46.294768204825 -125.34588595557
OMA0485 OMA7478 2021-04-14 07:21:52 35945 507 46.316774311563 -125.30636773502
OMA0485 OMA7478 2021-04-14 07:21:37 35946 507 46.338905919337 -125.26654975987
OMA0485 OMA7478 2021-04-14 07:21:22 35946 505 46.36081571728 -125.22706096782
OMA0485 OMA7478 2021-04-14 07:21:07 35946 505 46.382871425114 -125.18726551095
OMA0485 OMA7478 2021-04-14 07:20:52 35948 505 46.404751878552 -125.14773138886
OMA0485 OMA7478 2021-04-14 07:20:37 35953 505 46.426781012161 -125.10787672812
OMA0485 OMA7478 2021-04-14 07:20:22 35959 505 46.448607659676 -125.06831664598
OMA0485 OMA7478 2021-04-14 07:20:07 35964 505 46.470622151858 -125.02837249909
OMA0485 OMA7478 2021-04-14 07:19:52 35968 505 46.492446663692 -124.98869840398
OMA0485 OMA7478 2021-04-14 07:19:37 35974 505 46.514383432982 -124.9487715235
OMA0485 OMA7478 2021-04-14 07:19:22 35978 505 46.536142976193 -124.90908108412
OMA0485 OMA7478 2021-04-14 07:19:07 35982 503 46.558023132038 -124.86911400541
OMA0485 OMA7478 2021-04-14 07:18:52 35983 503 46.579682373098 -124.82947621652
OMA0485 OMA7478 2021-04-14 07:18:37 35982 503 46.601476334728 -124.78951140565
OMA0485 OMA7478 2021-04-14 07:18:22 35983 503 46.62304309575 -124.74987068191
OMA0485 OMA7478 2021-04-14 07:18:07 35983 501 46.644735962833 -124.70990623122
OMA0485 OMA7478 2021-04-14 07:17:52 35981 501 46.666190302528 -124.67030650196
OMA0485 OMA7478 2021-04-14 07:17:37 35982 501 46.68783803655 -124.630376568
OMA0485 OMA7478 2021-04-14 07:17:22 35983 503 46.70932553033 -124.59068649881
OMA0485 OMA7478 2021-04-14 07:17:07 35983 503 46.73101891023 -124.55054254221
OMA0485 OMA7478 2021-04-14 07:16:52 35978 505 46.752665055734 -124.51039122181
OMA0485 OMA7478 2021-04-14 07:16:37 35987 505 46.774442625652 -124.46987907533
OMA0485 OMA7478 2021-04-14 07:16:22 35843 503 46.795941295547 -124.42975782377
OMA0485 OMA7478 2021-04-14 07:16:07 35438 505 46.817571292422 -124.38926446031
OMA0485 OMA7478 2021-04-14 07:15:52 35076 505 46.838987049398 -124.34899401181
OMA0485 OMA7478 2021-04-14 07:15:37 34690 507 46.860598899994 -124.3081299505
OMA0485 OMA7478 2021-04-14 07:15:22 34238 509 46.882003555212 -124.26737842723
OMA0485 OMA7478 2021-04-14 07:15:07 33839 509 46.903327128795 -124.22598198469
OMA0485 OMA7478 2021-04-14 07:14:52 33314 509 46.923529311778 -124.18365947789
OMA0485 OMA7478 2021-04-14 07:14:37 32813 507 46.941533314085 -124.13920276376
OMA0485 OMA7478 2021-04-14 07:14:22 32378 507 46.958168321867 -124.09379796734
OMA0485 OMA7478 2021-04-14 07:14:07 31837 509 46.974959852314 -124.04868202323
OMA0485 OMA7478 2021-04-14 07:13:52 31340 503 46.988785738806 -124.00141221592
OMA0485 OMA7478 2021-04-14 07:13:37 30802 505 47.001705152154 -123.95367098694
OMA0485 OMA7478 2021-04-14 07:13:22 30313 507 47.01459772392 -123.90586616611
OMA0485 OMA7478 2021-04-14 07:13:07 29965 503 47.027499331216 -123.85788416056
OMA0485 OMA7478 2021-04-14 07:12:52 29528 503 47.040265308319 -123.81032291201
OMA0485 OMA7478 2021-04-14 07:12:37 29162 499 47.053002062684 -123.76273657051
OMA0485 OMA7478 2021-04-14 07:12:22 28757 497 47.065563971511 -123.71569353588
OMA0485 OMA7478 2021-04-14 07:12:07 28352 493 47.078115311996 -123.66861952528
OMA0485 OMA7478 2021-04-14 07:11:52 27980 489 47.0905537433 -123.62208653261
OMA0485 OMA7478 2021-04-14 07:11:37 27513 487 47.102988164705 -123.57558457703
OMA0485 OMA7478 2021-04-14 07:11:22 27125 484 47.115260719277 -123.52963229159
OMA0485 OMA7478 2021-04-14 07:11:07 26683 480 47.127492784638 -123.48385881837
OMA0485 OMA7478 2021-04-14 07:10:52 26226 476 47.139614298026 -123.43852333104
OMA0485 OMA7478 2021-04-14 07:10:37 25776 472 47.151720068226 -123.39333306526
OMA0485 OMA7478 2021-04-14 07:10:22 25299 470 47.163701172867 -123.34878971978
OMA0485 OMA7478 2021-04-14 07:10:07 24830 466 47.175751817112 -123.30425758009
OMA0485 OMA7478 2021-04-14 07:09:52 24336 462 47.187738001113 -123.26039893439
OMA0485 OMA7478 2021-04-14 07:09:37 23840 458 47.199840260853 -123.21676668546
OMA0485 OMA7478 2021-04-14 07:09:22 23345 454 47.212000182999 -123.17387429809
OMA0485 OMA7478 2021-04-14 07:09:07 22821 450 47.224475423369 -123.1312718736
OMA0485 OMA7478 2021-04-14 07:08:52 22334 447 47.23728361994 -123.08973653943
OMA0485 OMA7478 2021-04-14 07:08:37 21832 441 47.251041493167 -123.04903452503
OMA0485 OMA7478 2021-04-14 07:08:22 21291 439 47.266740581326 -123.01063297536
OMA0485 OMA7478 2021-04-14 07:08:07 20805 431 47.286581201458 -122.97683303053
OMA0485 OMA7478 2021-04-14 07:07:52 20290 425 47.307225693062 -122.9455607743
OMA0485 OMA7478 2021-04-14 07:07:37 19741 419 47.327740173159 -122.91444135522
OMA0485 OMA7478 2021-04-14 07:07:22 19189 414 47.34778085005 -122.8840238548
OMA0485 OMA7478 2021-04-14 07:07:07 18583 408 47.367674360208 -122.85385338845
OMA0485 OMA7478 2021-04-14 07:06:52 17963 402 47.387212832123 -122.82419255827
OMA0485 OMA7478 2021-04-14 07:06:37 17324 396 47.406533440008 -122.79483070895
OMA0485 OMA7478 2021-04-14 07:06:22 16668 392 47.425678603232 -122.76570274024
OMA0485 OMA7478 2021-04-14 07:06:07 15995 386 47.444445827437 -122.7371168511
OMA0485 OMA7478 2021-04-14 07:05:52 15306 380 47.462896562306 -122.70898010026
OMA0485 OMA7478 2021-04-14 07:05:37 14594 375 47.481197547525 -122.6810362489
OMA0485 OMA7478 2021-04-14 07:05:22 13879 369 47.499090697659 -122.65369585542
OMA0485 OMA7478 2021-04-14 07:05:07 13130 365 47.516855521288 -122.62656446866
OMA0485 OMA7478 2021-04-14 07:04:52 12409 359 47.534241778339 -122.6000066121
OMA0485 OMA7478 2021-04-14 07:04:37 11645 353 47.551457364664 -122.57371753415
OMA0485 OMA7478 2021-04-14 07:04:22 10945 346 47.568346069306 -122.54799189344
OMA0485 OMA7478 2021-04-14 07:04:07 10609 326 47.584763054263 -122.52302029495
OMA0485 OMA7478 2021-04-14 07:03:52 10141 309 47.59964256175 -122.49925726642
OMA0485 OMA7478 2021-04-14 07:03:37 9328 307 47.61048348871 -122.47199840833
OMA0485 OMA7478 2021-04-14 07:03:22 8542 299 47.61544878679 -122.44193554414
OMA0485 OMA7478 2021-04-14 07:03:07 7792 289 47.614066370122 -122.41180149657
OMA0485 OMA7478 2021-04-14 07:02:52 6976 281 47.608501325518 -122.38383397967
OMA0485 OMA7478 2021-04-14 07:02:37 6215 270 47.598773845237 -122.35952578998
OMA0485 OMA7478 2021-04-14 07:02:22 5366 262 47.585924533633 -122.34033439916
OMA0485 OMA7478 2021-04-14 07:02:07 4566 252 47.570958676406 -122.32598080998
OMA0485 OMA7478 2021-04-14 07:01:52 3549 254 47.555164034765 -122.3154990576
OMA0485 OMA7478 2021-04-14 07:01:37 2994 242 47.538338748157 -122.3094652258
OMA0485 OMA7478 2021-04-14 07:01:22 3045 242 47.521438928683 -122.30760207826
OMA0485 OMA7478 2021-04-14 07:01:07 2878 219 47.505251167801 -122.30755952298
OMA0485 OMA7478 2021-04-14 07:00:52 2574 190 47.490951586487 -122.30880555226
OMA0485 OMA7478 2021-04-14 07:00:37 2264 169 47.478435370763 -122.30844427261
OMA0485 OMA7478 2021-04-14 07:00:22 1902 151 47.467450827616 -122.30722577753
OMA0485 OMA7478 2021-04-14 07:00:07 1218 147 47.45716463912 -122.30729664074
OMA0485 OMA7478 2021-04-14 06:59:52 420 155 47.446953573808 -122.30797304291
OMA0485 OMA7478 2021-04-14 06:59:37 365 104 47.437761898462 -122.30801357048
OMA0485 OMA7478 2021-04-14 06:59:22 330 38 47.432624221431 -122.30804601388
OMA0485 OMA7478 2021-04-14 06:59:07 324 0 47.431828852596 -122.30756963487
OMA0485 OMA7478 2021-04-14 06:58:52 324 1 47.431791767616 -122.30743660626
OMA0485 OMA7478 2021-04-14 06:58:37 325 1 47.431755061211 -122.30712895426
OMA0485 OMA7478 2021-04-14 06:58:22 325 1 47.431756940846 -122.3067810415
OMA0485 OMA7478 2021-04-14 06:58:07 326 0 47.431783674983 -122.30653558158
OMA0485 OMA7478 2021-04-14 06:57:52 326 0 47.431792995209 -122.30648627615
OMA0485 OMA7478 2021-04-14 06:57:37 326 0 47.431792987604 -122.30648630283
OMA0485 OMA7478 2021-04-14 06:57:22 333 17 47.432433481112 -122.30570331236
OMA0485 OMA7478 2021-04-14 06:57:07 340 17 47.433742674335 -122.30557535303
OMA0485 OMA7478 2021-04-14 06:56:52 349 11 47.434828655733 -122.30555275471
OMA0485 OMA7478 2021-04-14 06:56:37 355 7 47.435536305231 -122.30519750483
OMA0485 OMA7478 2021-04-14 06:56:22 358 1 47.435879235065 -122.30500212407
OMA0485 OMA7478 2021-04-14 06:56:07 358 0 47.435914830519 -122.30499881569
OMA0485 OMA7478 2021-04-14 06:55:52 358 0 47.435914829343 -122.30499878901
OMA0485 OMA7478 2021-04-14 06:55:37 358 0 47.435914828062 -122.30499876233
OMA0485 OMA7478 2021-04-14 06:55:22 358 0 47.435914830218 -122.30499878901
OMA0485 OMA7478 2021-04-14 06:55:07 358 0 47.435914831518 -122.30499881569
OMA0485 OMA7478 2021-04-14 06:54:52 358 0 47.435914854316 -122.30499878901
OMA0485 OMA7478 2021-04-14 06:54:37 358 0 47.435914857576 -122.30499878901
OMA0485 OMA7478 2021-04-14 06:54:22 358 0 47.435914854257 -122.30499878901
OMA0485 OMA7478 2021-04-14 06:54:07 358 0 47.435915146199 -122.30499878901
OMA0485 OMA7478 2021-04-14 06:53:52 358 0 47.435899335811 -122.30499849553
OMA0485 OMA7478 2021-04-14 06:53:37 358 0 47.435837585051 -122.30499742831
OMA0485 OMA7478 2021-04-14 06:53:22 357 1 47.43570953526 -122.30494238659
OMA0485 OMA7478 2021-04-14 06:53:07 356 1 47.435590429102 -122.30480861093
OMA0485 OMA7478 2021-04-14 06:52:52 355 1 47.435512528353 -122.30461717888
OMA0485 OMA7478 2021-04-14 06:52:37 355 1 47.435498574531 -122.30439180931
OMA0485 OMA7478 2021-04-14 06:52:22 355 0 47.435499492401 -122.30419205296
OMA0485 OMA7478 2021-04-14 06:52:07 355 0 47.435499773994 -122.3041917328
OMA0485 OMA7478 2021-04-14 06:51:52 355 0 47.435499780349 -122.3041917328
OMA0485 OMA7478 2021-04-14 06:51:37 355 0 47.435499799957 -122.3041917328
OMA0485 OMA7478 2021-04-14 06:51:22 355 0 47.435499765127 -122.30419127923
OMA0485 OMA7478 2021-04-14 06:51:07 355 0 47.435499796631 -122.30419130591
OMA0485 OMA7478 2021-04-14 06:50:52 355 0 47.435499770512 -122.30419127923
OMA0485 OMA7478 2021-04-14 06:50:37 355 0 47.435499785575 -122.30419127923
OMA0485 OMA7478 2021-04-14 06:50:22 355 0 47.435499784099 -122.30419127923
OMA0485 OMA7478 2021-04-14 06:50:07 355 0 47.435499776336 -122.30419127923
OMA0485 OMA7478 2021-04-14 06:49:52 355 0 47.435499789434 -122.30419127923
OMA0485 OMA7478 2021-04-14 06:49:37 355 0 47.435499921323 -122.30419130591
OMA0485 OMA7478 2021-04-14 06:49:22 355 0 47.435499809089 -122.30419127923
OMA0485 OMA7478 2021-04-14 06:49:07 355 0 47.435499781176 -122.30419127923
OMA0485 OMA7478 2021-04-14 06:48:52 355 0 47.435499805833 -122.30419127923
OMA0485 OMA7478 2021-04-14 06:48:37 355 0 47.435499794228 -122.30419127923
OMA0485 OMA7478 2021-04-14 06:48:22 355 0 47.435499773731 -122.30419127923
OMA0485 OMA7478 2021-04-14 06:48:07 355 0 47.435499808737 -122.30419127923
OMA0485 OMA7478 2021-04-14 06:47:52 355 0 47.43549974698 -122.30419125255
OMA0485 OMA7478 2021-04-14 06:47:37 355 0 47.435499798281 -122.30419119919
OMA0485 OMA7478 2021-04-14 06:47:22 355 0 47.435499797498 -122.30419119919
OMA0485 OMA7478 2021-04-14 06:47:07 355 0 47.435499769342 -122.30419119919
OMA0485 OMA7478 2021-04-14 06:46:52 355 0 47.43549979225 -122.30419119919
OMA0485 OMA7478 2021-04-14 06:46:37 355 0 47.435499756839 -122.30419119919
OMA0485 OMA7478 2021-04-14 06:46:22 355 0 47.43549980187 -122.30419119919
OMA0485 OMA7478 2021-04-14 06:46:07 355 0 47.43549974835 -122.30419119919
OMA0485 OMA7478 2021-04-14 06:45:52 355 0 47.435499752808 -122.30419119919
OMA0485 OMA7478 2021-04-14 06:45:37 355 0 47.435499803052 -122.30419119919
OMA0485 OMA7478 2021-04-14 06:45:22 355 0 47.435499755805 -122.30419119919
OMA0485 OMA7478 2021-04-14 06:45:07 355 0 47.435499778049 -122.30419119919
OMA0485 OMA7478 2021-04-14 06:44:52 355 0 47.435499760317 -122.30419117251
OMA0485 OMA7478 2021-04-14 06:44:37 355 0 47.435499777866 -122.30419119919
OMA0485 OMA7478 2021-04-14 06:44:22 355 0 47.435499755428 -122.30419119919
OMA0485 OMA7478 2021-04-14 06:44:07 355 0 47.435499798443 -122.30419119919
OMA0485 OMA7478 2021-04-14 06:43:52 355 0 47.435499780008 -122.30419117251
OMA0485 OMA7478 2021-04-14 06:43:37 355 0 47.435499824097 -122.30419127923
OMA0485 OMA7478 2021-04-14 06:43:22 355 0 47.435499809649 -122.30419127923
OMA0485 OMA7478 2021-04-14 06:43:07 355 0 47.435499829223 -122.30419127923
OMA0485 OMA7478 2021-04-14 06:42:52 355 0 47.435499813492 -122.30419127923
OMA0485 OMA7478 2021-04-14 06:42:37 355 0 47.435499795177 -122.30419127923
OMA0485 OMA7478 2021-04-14 06:42:22 355 0 47.435499835352 -122.30419127923
OMA0485 OMA7478 2021-04-14 06:42:07 355 0 47.435499781187 -122.30419127923
OMA0485 OMA7478 2021-04-14 06:41:52 355 0 47.435499818124 -122.30419127923
OMA0485 OMA7478 2021-04-14 06:41:37 355 0 47.435499801036 -122.30419127923
OMA0485 OMA7478 2021-04-14 06:41:22 355 0 47.435499817832 -122.30419127923
OMA0485 OMA7478 2021-04-14 06:41:07 355 0 47.435499796689 -122.30419127923
OMA0485 OMA7478 2021-04-14 06:40:52 355 0 47.435499815375 -122.30419127923
OMA0485 OMA7478 2021-04-14 06:40:37 355 0 47.435499826831 -122.30419127923
OMA0485 OMA7478 2021-04-14 06:40:22 355 0 47.435499834737 -122.30419127923
OMA0485 OMA7478 2021-04-14 06:40:07 355 0 47.435499814497 -122.30419127923
OMA0485 OMA7478 2021-04-14 06:39:52 355 0 47.435499809911 -122.30419127923
OMA0485 OMA7478 2021-04-14 06:39:37 355 0 47.435499783467 -122.30419127923
OMA0485 OMA7478 2021-04-14 06:39:22 355 0 47.435499825792 -122.30419127923
OMA0485 OMA7478 2021-04-14 06:39:07 355 0 47.43549983208 -122.30419127923
OMA0485 OMA7478 2021-04-14 06:38:52 355 0 47.43549979781 -122.30419125255
OMA0485 OMA7478 2021-04-13 20:22:54 390 0 47.445747517462 -122.30121286318
OMA0485 OMA7478 2021-04-13 20:22:39 390 0 47.445747518477 -122.30121286318
OMA0485 OMA7478 2021-04-13 20:22:24 390 0 47.445747519165 -122.30121286318
OMA0485 OMA7478 2021-04-13 20:22:09 390 0 47.445747517919 -122.30121286318
OMA0485 OMA7478 2021-04-13 20:21:54 390 0 47.44574751818 -122.30121286318
OMA0485 OMA7478 2021-04-13 20:21:39 390 0 47.445747518637 -122.30121286318
OMA0485 OMA7478 2021-04-13 20:21:24 390 0 47.445747518451 -122.30121286318
OMA0485 OMA7478 2021-04-13 20:21:09 390 0 47.445747479295 -122.30121278314
OMA0485 OMA7478 2021-04-13 20:20:54 393 5 47.44600553326 -122.30168403951
OMA0485 OMA7478 2021-04-13 20:20:39 394 5 47.44642429443 -122.30198544829
OMA0485 OMA7478 2021-04-13 20:20:24 395 3 47.446768048401 -122.30219878498
OMA0485 OMA7478 2021-04-13 20:20:09 399 11 47.447195680187 -122.30321386849
OMA0485 OMA7478 2021-04-13 20:19:54 401 11 47.447666263232 -122.30422767133
OMA0485 OMA7478 2021-04-13 20:19:39 403 9 47.447760390704 -122.30536113589
OMA0485 OMA7478 2021-04-13 20:19:24 401 9 47.44744228553 -122.30624879367
OMA0485 OMA7478 2021-04-13 20:19:09 398 5 47.446783277159 -122.30630370199
OMA0485 OMA7478 2021-04-13 20:18:54 397 3 47.446382689125 -122.30635724961
OMA0485 OMA7478 2021-04-13 20:18:39 396 3 47.446116691649 -122.30653331374
OMA0485 OMA7478 2021-04-13 20:18:24 396 1 47.445945640856 -122.30684990368
OMA0485 OMA7478 2021-04-13 20:18:09 396 1 47.445865607743 -122.30714314825
OMA0485 OMA7478 2021-04-13 20:17:54 395 0 47.445834693582 -122.3072601686
OMA0485 OMA7478 2021-04-13 20:17:39 395 0 47.44583320209 -122.30726574481
OMA0485 OMA7478 2021-04-13 20:17:24 394 7 47.445628703089 -122.30769964858
OMA0485 OMA7478 2021-04-13 20:17:09 391 5 47.444989633592 -122.30793841172
OMA0485 OMA7478 2021-04-13 20:16:54 391 0 47.444795761344 -122.30794732298
OMA0485 OMA7478 2021-04-13 20:16:39 389 31 47.444013998471 -122.30797306959
OMA0485 OMA7478 2021-04-13 20:16:24 374 99 47.43965146707 -122.30802056075
OMA0485 OMA7478 2021-04-13 20:16:09 391 132 47.431079745546 -122.30804820167
OMA0485 OMA7478 2021-04-13 20:15:54 551 132 47.421836145594 -122.30812915009
OMA0485 OMA7478 2021-04-13 20:15:39 712 132 47.412673330942 -122.30820999178
OMA0485 OMA7478 2021-04-13 20:15:24 874 132 47.403466967212 -122.30829136708
OMA0485 OMA7478 2021-04-13 20:15:09 1040 132 47.394286405004 -122.308371355
OMA0485 OMA7478 2021-04-13 20:14:54 1207 134 47.384981523058 -122.30845192989
OMA0485 OMA7478 2021-04-13 20:14:39 1380 134 47.37573203778 -122.30853370539
OMA0485 OMA7478 2021-04-13 20:14:24 1548 134 47.366462835051 -122.30861761533
OMA0485 OMA7478 2021-04-13 20:14:09 1713 132 47.357202910775 -122.30869915072
OMA0485 OMA7478 2021-04-13 20:13:54 1871 134 47.347800089493 -122.30878420792
OMA0485 OMA7478 2021-04-13 20:13:39 2024 134 47.338434337788 -122.30887198652
OMA0485 OMA7478 2021-04-13 20:13:24 2172 136 47.3289049044 -122.3089670222
OMA0485 OMA7478 2021-04-13 20:13:09 2188 136 47.319482246741 -122.30906509945
OMA0485 OMA7478 2021-04-13 20:12:54 2156 138 47.309866957727 -122.30916186935
OMA0485 OMA7478 2021-04-13 20:12:39 2163 157 47.299676771901 -122.3092410035
OMA0485 OMA7478 2021-04-13 20:12:24 2172 182 47.287945974009 -122.3093159755
OMA0485 OMA7478 2021-04-13 20:12:09 2164 207 47.274287046638 -122.30948080717
OMA0485 OMA7478 2021-04-13 20:11:54 2176 239 47.258695897375 -122.30985065124
OMA0485 OMA7478 2021-04-13 20:11:39 2455 262 47.241180689567 -122.31056424593
OMA0485 OMA7478 2021-04-13 20:11:24 3271 262 47.223041683644 -122.309209654
OMA0485 OMA7478 2021-04-13 20:11:09 4101 262 47.20499046542 -122.3055970709
OMA0485 OMA7478 2021-04-13 20:10:54 4923 260 47.187145494139 -122.30203667471
OMA0485 OMA7478 2021-04-13 20:10:39 5762 254 47.169360098289 -122.29850930889
OMA0485 OMA7478 2021-04-13 20:10:24 6567 233 47.152693328563 -122.29522366773
OMA0485 OMA7478 2021-04-13 20:10:09 7131 217 47.137322854905 -122.29218023149
OMA0485 OMA7478 2021-04-13 20:09:54 7231 223 47.122069046822 -122.28914415904
OMA0485 OMA7478 2021-04-13 20:09:39 7318 231 47.106397146746 -122.28602249579
OMA0485 OMA7478 2021-04-13 20:09:24 7406 241 47.090054004751 -122.28276665667
OMA0485 OMA7478 2021-04-13 20:09:09 7462 252 47.072979382732 -122.2793612204
OMA0485 OMA7478 2021-04-13 20:08:54 7463 270 47.05502101874 -122.27577761224
OMA0485 OMA7478 2021-04-13 20:08:39 7456 289 47.035739063226 -122.2719289874
OMA0485 OMA7478 2021-04-13 20:08:24 7461 311 47.015125112229 -122.26782321662
OMA0485 OMA7478 2021-04-13 20:08:09 7464 314 46.993376517136 -122.26352417283
OMA0485 OMA7478 2021-04-13 20:07:54 7461 314 46.971539702335 -122.2592243553
OMA0485 OMA7478 2021-04-13 20:07:39 7465 316 46.949836374902 -122.25492643208
OMA0485 OMA7478 2021-04-13 20:07:24 7464 318 46.927880859539 -122.25059187664
OMA0485 OMA7478 2021-04-13 20:07:09 7462 318 46.905948986006 -122.2462986225
OMA0485 OMA7478 2021-04-13 20:06:54 7464 318 46.883900343881 -122.24195769044
OMA0485 OMA7478 2021-04-13 20:06:39 7462 316 46.861956911206 -122.23762612321
OMA0485 OMA7478 2021-04-13 20:06:24 7463 318 46.840032688664 -122.23329266166
OMA0485 OMA7478 2021-04-13 20:06:09 7463 318 46.818157791022 -122.22896856495
OMA0485 OMA7478 2021-04-13 20:05:54 7464 320 46.796021211295 -122.22460708896
OMA0485 OMA7478 2021-04-13 20:05:39 7465 318 46.773980716707 -122.22028072441
OMA0485 OMA7478 2021-04-13 20:05:24 7462 318 46.751822547691 -122.21594667589
OMA0485 OMA7478 2021-04-13 20:05:09 7464 318 46.729737914333 -122.21163738682
OMA0485 OMA7478 2021-04-13 20:04:54 7462 318 46.707830355833 -122.20734557342
OMA0485 OMA7478 2021-04-13 20:04:39 7463 318 46.685707590362 -122.20300961726
OMA0485 OMA7478 2021-04-13 20:04:24 7465 320 46.663657310904 -122.19865050248
OMA0485 OMA7478 2021-04-13 20:04:10 7461 316 46.641680056497 -122.19432447144
OMA0485 OMA7478 2021-04-13 20:03:54 7462 318 46.619547106058 -122.18998595395
OMA0485 OMA7478 2021-04-13 20:03:39 7463 318 46.597596049812 -122.1856996634
OMA0485 OMA7478 2021-04-13 20:03:24 7461 318 46.575530110153 -122.18139417628
OMA0485 OMA7478 2021-04-13 20:03:09 7463 318 46.553589830563 -122.17711014023
OMA0485 OMA7478 2021-04-13 20:02:54 7463 318 46.531564738403 -122.17283590924
OMA0485 OMA7478 2021-04-13 20:02:40 7463 318 46.509667296301 -122.16855664898
OMA0485 OMA7478 2021-04-13 20:02:24 7464 318 46.487676060113 -122.16429044879
OMA0485 OMA7478 2021-04-13 20:02:09 7462 318 46.465694683497 -122.15998201349
OMA0485 OMA7478 2021-04-13 20:01:54 7463 320 46.443558244204 -122.15566063817
OMA0485 OMA7478 2021-04-13 20:01:40 7464 318 46.421597386249 -122.1513981599
OMA0485 OMA7478 2021-04-13 20:01:24 7458 320 46.399468173725 -122.14713412083
OMA0485 OMA7478 2021-04-13 20:01:09 7447 320 46.37741757242 -122.14287117566
OMA0485 OMA7478 2021-04-13 20:00:54 7434 322 46.355074750054 -122.13855807128
OMA0485 OMA7478 2021-04-13 20:00:39 7424 322 46.332966545666 -122.13429025692
OMA0485 OMA7478 2021-04-13 20:00:24 7412 324 46.310639396596 -122.12998567694
OMA0485 OMA7478 2021-04-13 20:00:09 7402 326 46.288273177135 -122.12571069889
OMA0485 OMA7478 2021-04-13 19:59:55 7384 324 46.265789966148 -122.12139037746
OMA0485 OMA7478 2021-04-13 19:59:39 7384 330 46.243220146389 -122.11703359722
OMA0485 OMA7478 2021-04-13 19:59:24 7373 324 46.220511540452 -122.11268267334
OMA0485 OMA7478 2021-04-13 19:59:09 7380 332 46.19788394012 -122.10832842774
OMA0485 OMA7478 2021-04-13 19:58:54 7381 322 46.175047402269 -122.10398474093
OMA0485 OMA7478 2021-04-13 19:58:39 7390 314 46.153162670262 -122.09984476583
OMA0485 OMA7478 2021-04-13 19:58:25 7378 301 46.132031990811 -122.09581742216
OMA0485 OMA7478 2021-04-13 19:58:10 7383 309 46.110981431433 -122.09177378342
OMA0485 OMA7478 2021-04-13 19:57:54 7377 307 46.089824662693 -122.08775841259
OMA0485 OMA7478 2021-04-13 19:57:39 7383 307 46.068697712652 -122.08373292321
OMA0485 OMA7478 2021-04-13 19:57:25 7383 305 46.047493843259 -122.07969197252
OMA0485 OMA7478 2021-04-13 19:57:09 7377 299 46.026801693487 -122.0757320036
OMA0485 OMA7478 2021-04-13 19:56:54 7379 305 46.00586894821 -122.07174530089
OMA0485 OMA7478 2021-04-13 19:56:39 7382 307 45.984937223215 -122.06772640157
OMA0485 OMA7478 2021-04-13 19:56:24 7382 303 45.963835489677 -122.06371698715
OMA0485 OMA7478 2021-04-13 19:56:09 7376 303 45.943097337179 -122.05975895255
OMA0485 OMA7478 2021-04-13 19:55:54 7380 305 45.921854855247 -122.05571411319
OMA0485 OMA7478 2021-04-13 19:55:39 7379 303 45.900987765464 -122.05174337205
OMA0485 OMA7478 2021-04-13 19:55:24 7376 305 45.880021943025 -122.04774720446
OMA0485 OMA7478 2021-04-13 19:55:09 7379 307 45.858952964365 -122.04376120877
OMA0485 OMA7478 2021-04-13 19:54:54 7395 295 45.838275780161 -122.03989367419
OMA0485 OMA7478 2021-04-13 19:54:39 7381 274 45.818556526535 -122.0362274134
OMA0485 OMA7478 2021-04-13 19:54:24 7384 272 45.799810543964 -122.03268408936
OMA0485 OMA7478 2021-04-13 19:54:09 7377 268 45.781141706079 -122.02915959502
OMA0485 OMA7478 2021-04-13 19:53:54 7375 268 45.762605158356 -122.02564734533
OMA0485 OMA7478 2021-04-13 19:53:39 7390 272 45.743965205398 -122.02212530225
OMA0485 OMA7478 2021-04-13 19:53:24 7370 264 45.725626674011 -122.01867564818
OMA0485 OMA7478 2021-04-13 19:53:09 7554 264 45.707349655828 -122.01528801109
OMA0485 OMA7478 2021-04-13 19:52:54 7819 239 45.690050809201 -122.01208848934
OMA0485 OMA7478 2021-04-13 19:52:39 8160 246 45.673293799935 -122.00890055858
OMA0485 OMA7478 2021-04-13 19:52:24 8616 248 45.656275471476 -122.00568426902
OMA0485 OMA7478 2021-04-13 19:52:09 9094 250 45.639058206986 -122.00242968555
OMA0485 OMA7478 2021-04-13 19:51:54 9537 254 45.621759853473 -121.99915446618
OMA0485 OMA7478 2021-04-13 19:51:39 9995 256 45.604160972037 -121.99582583144
OMA0485 OMA7478 2021-04-13 19:51:24 10452 260 45.586418692993 -121.99247323909
OMA0485 OMA7478 2021-04-13 19:51:09 10944 262 45.568414240478 -121.98907574275
OMA0485 OMA7478 2021-04-13 19:50:54 11422 264 45.550205954787 -121.98563753624
OMA0485 OMA7478 2021-04-13 19:50:39 11915 268 45.531947171324 -121.98219476572
OMA0485 OMA7478 2021-04-13 19:50:24 12425 270 45.513353872714 -121.9786851107
OMA0485 OMA7478 2021-04-13 19:50:09 12862 276 45.494603188418 -121.97512054236
OMA0485 OMA7478 2021-04-13 19:49:54 13192 289 45.475070806758 -121.97142226506
OMA0485 OMA7478 2021-04-13 19:49:39 13909 289 45.455119275309 -121.96768328011
OMA0485 OMA7478 2021-04-13 19:49:24 14614 287 45.435428079161 -121.96397827601
OMA0485 OMA7478 2021-04-13 19:49:09 15139 295 45.415343537932 -121.96018027728
OMA0485 OMA7478 2021-04-13 19:48:54 15660 303 45.394881851368 -121.95634129742
OMA0485 OMA7478 2021-04-13 19:48:39 16730 291 45.374337497266 -121.95259538222
OMA0485 OMA7478 2021-04-13 19:48:24 17784 274 45.355209670717 -121.94916468626
OMA0485 OMA7478 2021-04-13 19:48:09 18281 276 45.336290606054 -121.94648278647
OMA0485 OMA7478 2021-04-13 19:47:54 18755 272 45.317302735513 -121.94812158164
OMA0485 OMA7478 2021-04-13 19:47:39 19267 270 45.301343151127 -121.96162711012
OMA0485 OMA7478 2021-04-13 19:47:24 19764 276 45.290724739308 -121.98344760517
OMA0485 OMA7478 2021-04-13 19:47:09 20267 287 45.286145275128 -122.0103176294
OMA0485 OMA7478 2021-04-13 19:46:54 20764 303 45.288439602071 -122.03897269588
OMA0485 OMA7478 2021-04-13 19:46:39 21266 326 45.297785900764 -122.06702227844
OMA0485 OMA7478 2021-04-13 19:46:24 21764 351 45.313624982814 -122.09132542553
OMA0485 OMA7478 2021-04-13 19:46:09 22264 380 45.335305831359 -122.10990794234
OMA0485 OMA7478 2021-04-13 19:45:54 22764 412 45.361691249468 -122.12080447529
OMA0485 OMA7478 2021-04-13 19:45:39 23268 445 45.391213465547 -122.12373973575
OMA0485 OMA7478 2021-04-13 19:45:24 23869 478 45.423288534174 -122.1253558092
OMA0485 OMA7478 2021-04-13 19:45:09 25641 484 45.456666438009 -122.12708695533
OMA0485 OMA7478 2021-04-13 19:44:54 27618 482 45.489715196926 -122.12880558834
OMA0485 OMA7478 2021-04-13 19:44:39 29129 484 45.522817674929 -122.1304924583
OMA0485 OMA7478 2021-04-13 19:44:24 29893 503 45.556927502392 -122.13225007141
OMA0485 OMA7478 2021-04-13 19:44:09 30646 505 45.591964986225 -122.13408257648
OMA0485 OMA7478 2021-04-13 19:43:54 31393 505 45.626791589294 -122.13590003379
OMA0485 OMA7478 2021-04-13 19:43:39 32147 505 45.662007976031 -122.13773439315
OMA0485 OMA7478 2021-04-13 19:43:24 32889 505 45.696980725958 -122.13955387817
OMA0485 OMA7478 2021-04-13 19:43:09 33631 501 45.731831637289 -122.14136310457
OMA0485 OMA7478 2021-04-13 19:42:54 34386 501 45.766377180949 -122.14314391631
OMA0485 OMA7478 2021-04-13 19:42:39 35127 503 45.800395466994 -122.14489616666
OMA0485 OMA7478 2021-04-13 19:42:24 35869 501 45.835059338685 -122.14667625803
OMA0485 OMA7478 2021-04-13 19:42:09 36619 503 45.869984670494 -122.14846224578
OMA0485 OMA7478 2021-04-13 19:41:54 37329 505 45.904776462603 -122.15023588049
OMA0485 OMA7478 2021-04-13 19:41:39 38081 505 45.939994749214 -122.15202453628
OMA0485 OMA7478 2021-04-13 19:41:24 38247 509 45.975011050232 -122.15379962507
OMA0485 OMA7478 2021-04-13 19:41:09 38247 509 46.010434219761 -122.15559161591
OMA0485 OMA7478 2021-04-13 19:40:54 38247 507 46.045707020243 -122.15737094689
OMA0485 OMA7478 2021-04-13 19:40:39 38247 507 46.080921724099 -122.15914133993
OMA0485 OMA7478 2021-04-13 19:40:24 38248 507 46.116249176508 -122.16091090587
OMA0485 OMA7478 2021-04-13 19:40:09 38248 507 46.15132346393 -122.16266220906
OMA0485 OMA7478 2021-04-13 19:39:54 38248 507 46.186650208269 -122.16441968877
OMA0485 OMA7478 2021-04-13 19:39:39 38250 507 46.221727377876 -122.16615865227
OMA0485 OMA7478 2021-04-13 19:39:24 38266 509 46.257056036827 -122.16790469942
OMA0485 OMA7478 2021-04-13 19:39:09 38284 509 46.292132783299 -122.16963215031
OMA0485 OMA7478 2021-04-13 19:38:54 38302 509 46.327575657012 -122.17137198092
OMA0485 OMA7478 2021-04-13 19:38:39 38319 507 46.362910366075 -122.17310144618
OMA0485 OMA7478 2021-04-13 19:38:24 38328 507 46.39813090879 -122.17481873183
OMA0485 OMA7478 2021-04-13 19:38:09 38328 507 46.433192554665 -122.17652181015
OMA0485 OMA7478 2021-04-13 19:37:54 38328 507 46.468490473547 -122.17823065144
OMA0485 OMA7478 2021-04-13 19:37:39 38328 507 46.503642771651 -122.17992692625
OMA0485 OMA7478 2021-04-13 19:37:24 38328 507 46.538968804906 -122.18162570903
OMA0485 OMA7478 2021-04-13 19:37:09 38328 507 46.574059904943 -122.18330642915
OMA0485 OMA7478 2021-04-13 19:36:54 38328 507 46.609326753865 -122.18499007078
OMA0485 OMA7478 2021-04-13 19:36:39 38329 509 46.644434799933 -122.18665978523
OMA0485 OMA7478 2021-04-13 19:36:24 38329 509 46.679799358237 -122.18833590298
OMA0485 OMA7478 2021-04-13 19:36:09 38330 509 46.71510307364 -122.19000324287
OMA0485 OMA7478 2021-04-13 19:35:54 38330 507 46.750485461141 -122.19166992909
OMA0485 OMA7478 2021-04-13 19:35:39 38330 507 46.785550053889 -122.19331539103
OMA0485 OMA7478 2021-04-13 19:35:24 38329 505 46.82077260477 -122.19496168006
OMA0485 OMA7478 2021-04-13 19:35:09 38329 505 46.855719391542 -122.19658711834
OMA0485 OMA7478 2021-04-13 19:34:54 38329 509 46.891101048938 -122.19822437605
OMA0485 OMA7478 2021-04-13 19:34:39 38329 511 46.926461790839 -122.19985613759
OMA0485 OMA7478 2021-04-13 19:34:24 38329 515 46.962086364461 -122.20149324856
OMA0485 OMA7478 2021-04-13 19:34:09 38329 517 46.997782154847 -122.20312930565
OMA0485 OMA7478 2021-04-13 19:33:54 38330 517 47.033732913422 -122.20477416728
OMA0485 OMA7478 2021-04-13 19:33:39 38330 517 47.069522020648 -122.20640624899
OMA0485 OMA7478 2021-04-13 19:33:24 38328 517 47.105481015834 -122.20803930453
OMA0485 OMA7478 2021-04-13 19:33:09 38323 517 47.141199627334 -122.20965519121
OMA0485 OMA7478 2021-04-13 19:32:54 38325 517 47.177184481078 -122.21127624056
OMA0485 OMA7478 2021-04-13 19:32:39 38330 517 47.21312803333 -122.21288959261
OMA0485 OMA7478 2021-04-13 19:32:24 38337 517 47.248859551064 -122.21448752337
OMA0485 OMA7478 2021-04-13 19:32:09 38344 517 47.284750036933 -122.21608569426
OMA0485 OMA7478 2021-04-13 19:31:54 38350 517 47.320737261229 -122.2176811304
OMA0485 OMA7478 2021-04-13 19:31:39 38354 517 47.356760489902 -122.21926930946
OMA0485 OMA7478 2021-04-13 19:31:24 38358 517 47.392600599858 -122.22079337546
OMA0485 OMA7478 2021-04-13 19:31:09 38361 519 47.428794885448 -122.22162345689
OMA0485 OMA7478 2021-04-13 19:30:54 38359 520 47.464552638702 -122.21729817289
OMA0485 OMA7478 2021-04-13 19:30:39 38359 520 47.499471646284 -122.20282929759
OMA0485 OMA7478 2021-04-13 19:30:24 38351 519 47.531453357325 -122.17880557461
OMA0485 OMA7478 2021-04-13 19:30:09 38356 515 47.559734939216 -122.14619366248
OMA0485 OMA7478 2021-04-13 19:29:54 38357 515 47.586372417899 -122.11103763162
OMA0485 OMA7478 2021-04-13 19:29:39 38357 515 47.613271414737 -122.07573579222
OMA0485 OMA7478 2021-04-13 19:29:24 38357 515 47.640222833479 -122.0407047825
OMA0485 OMA7478 2021-04-13 19:29:09 38356 515 47.667191877883 -122.00615857613
OMA0485 OMA7478 2021-04-13 19:28:54 38358 515 47.694621470296 -121.97176126656
OMA0485 OMA7478 2021-04-13 19:28:39 38362 515 47.722416057959 -121.93784301072
OMA0485 OMA7478 2021-04-13 19:28:24 38368 515 47.749972125313 -121.90418497907
OMA0485 OMA7478 2021-04-13 19:28:09 38369 509 47.775226374676 -121.8668108843
OMA0485 OMA7478 2021-04-13 19:27:54 38376 499 47.794690575579 -121.82383090509
OMA0485 OMA7478 2021-04-13 19:27:39 38381 487 47.807737859492 -121.7764775104
OMA0485 OMA7478 2021-04-13 19:27:24 38386 476 47.813733934294 -121.7277183774
OMA0485 OMA7478 2021-04-13 19:27:09 38380 460 47.812690496551 -121.67922136625
OMA0485 OMA7478 2021-04-13 19:26:54 38384 452 47.805612019933 -121.63327006024
OMA0485 OMA7478 2021-04-13 19:26:39 38383 454 47.79759762888 -121.58781515132
OMA0485 OMA7478 2021-04-13 19:26:24 38381 454 47.789737628505 -121.54261584088
OMA0485 OMA7478 2021-04-13 19:26:09 38379 454 47.781928721033 -121.49691675269
OMA0485 OMA7478 2021-04-13 19:25:54 38377 452 47.774185308554 -121.45162929012
OMA0485 OMA7478 2021-04-13 19:25:39 38373 452 47.76590327465 -121.40639646906
OMA0485 OMA7478 2021-04-13 19:25:24 38369 452 47.757542555041 -121.36145545183
OMA0485 OMA7478 2021-04-13 19:25:09 38365 452 47.749103835742 -121.31620462148
OMA0485 OMA7478 2021-04-13 19:24:54 38360 452 47.740642945328 -121.27094495992
OMA0485 OMA7478 2021-04-13 19:24:39 38355 452 47.73223970783 -121.22610623544
OMA0485 OMA7478 2021-04-13 19:24:24 38352 452 47.723758488964 -121.18096862348
OMA0485 OMA7478 2021-04-13 19:24:09 38347 452 47.715320960619 -121.13616663795
OMA0485 OMA7478 2021-04-13 19:23:54 38345 452 47.706811140126 -121.09106714566
OMA0485 OMA7478 2021-04-13 19:23:39 38343 452 47.698318175689 -121.04615837839
OMA0485 OMA7478 2021-04-13 19:23:24 38340 452 47.689748252368 -121.00096929499
OMA0485 OMA7478 2021-04-13 19:23:09 38343 452 47.68122797343 -120.95614948183
OMA0485 OMA7478 2021-04-13 19:22:54 38349 452 47.672628778895 -120.91102632066
OMA0485 OMA7478 2021-04-13 19:22:39 38354 452 47.664079426075 -120.86627358053
OMA0485 OMA7478 2021-04-13 19:22:24 38359 452 47.65543626958 -120.82113407427
OMA0485 OMA7478 2021-04-13 19:22:09 38363 452 47.646853800822 -120.77642663083
OMA0485 OMA7478 2021-04-13 19:21:54 38366 452 47.63818339308 -120.73136849986
OMA0485 OMA7478 2021-04-13 19:21:39 38365 452 47.629547993858 -120.68660298647
OMA0485 OMA7478 2021-04-13 19:21:24 38366 452 47.620927204511 -120.6420029907
OMA0485 OMA7478 2021-04-13 19:21:09 38368 452 47.612272118343 -120.59732693679
OMA0485 OMA7478 2021-04-13 19:20:54 38372 452 47.60355167663 -120.55242212489
OMA0485 OMA7478 2021-04-13 19:20:39 38374 452 47.594820406349 -120.50757478264
OMA0485 OMA7478 2021-04-13 19:20:24 38375 452 47.586113512205 -120.46294862112
OMA0485 OMA7478 2021-04-13 19:20:09 38376 452 47.57734954566 -120.41812899983
OMA0485 OMA7478 2021-04-13 19:19:54 38375 452 47.568622179701 -120.37361022702
OMA0485 OMA7478 2021-04-13 19:19:39 38375 452 47.559840541187 -120.32891843165
OMA0485 OMA7478 2021-04-13 19:19:24 38375 452 47.551030927291 -120.28418461461
OMA0485 OMA7478 2021-04-13 19:19:09 38375 452 47.54219247562 -120.23940789544
OMA0485 OMA7478 2021-04-13 19:18:54 38375 452 47.533411394646 -120.19501548114
OMA0485 OMA7478 2021-04-13 19:18:39 38375 452 47.524533525504 -120.15022602207
OMA0485 OMA7478 2021-04-13 19:18:24 38375 452 47.515698375568 -120.10575830893
OMA0485 OMA7478 2021-04-13 19:18:09 38375 452 47.506782130947 -120.0609729253
OMA0485 OMA7478 2021-04-13 19:17:54 38375 452 47.497910473024 -120.01650835211
OMA0485 OMA7478 2021-04-13 19:17:39 38371 452 47.488958209629 -119.97174272033
OMA0485 OMA7478 2021-04-13 19:17:24 38368 452 47.480012209728 -119.92709362031
OMA0485 OMA7478 2021-04-13 19:17:09 38364 452 47.471037933801 -119.88237073558
OMA0485 OMA7478 2021-04-13 19:16:54 38361 452 47.462100420542 -119.83790497678
OMA0485 OMA7478 2021-04-13 19:16:39 38358 452 47.453106294643 -119.79322897622
OMA0485 OMA7478 2021-04-13 19:16:24 38357 452 47.444158389378 -119.74882953163
OMA0485 OMA7478 2021-04-13 19:16:09 38357 452 47.435160914543 -119.7042168704
OMA0485 OMA7478 2021-04-13 19:15:54 38356 452 47.426202973055 -119.65980412561
OMA0485 OMA7478 2021-04-13 19:15:39 38357 452 47.417212666032 -119.61520084815
OMA0485 OMA7478 2021-04-13 19:15:24 38357 452 47.408288906337 -119.57087654898
OMA0485 OMA7478 2021-04-13 19:15:09 38357 452 47.399334387366 -119.52624014217
OMA0485 OMA7478 2021-04-13 19:14:54 38354 452 47.390493655952 -119.48162342553
OMA0485 OMA7478 2021-04-13 19:14:39 38352 454 47.382142008001 -119.43704563562
OMA0485 OMA7478 2021-04-13 19:14:24 38351 454 47.374713930101 -119.3915961695
OMA0485 OMA7478 2021-04-13 19:14:09 38349 454 47.367422313097 -119.3463782628
OMA0485 OMA7478 2021-04-13 19:13:54 38348 454 47.360056408679 -119.30083200009
OMA0485 OMA7478 2021-04-13 19:13:39 38347 454 47.35272138171 -119.25560683632
OMA0485 OMA7478 2021-04-13 19:13:24 38348 454 47.34531486887 -119.2100573853
OMA0485 OMA7478 2021-04-13 19:13:09 38348 454 47.337955383096 -119.16492969847
OMA0485 OMA7478 2021-04-13 19:12:54 38348 454 47.330529046963 -119.11950955414
OMA0485 OMA7478 2021-04-13 19:12:39 38347 454 47.323151201415 -119.07448925602
OMA0485 OMA7478 2021-04-13 19:12:24 38348 454 47.315697094504 -119.02910417977
OMA0485 OMA7478 2021-04-13 19:12:09 38348 456 47.308254708296 -118.9839088914
OMA0485 OMA7478 2021-04-13 19:11:54 38347 456 47.300730178182 -118.93834218148
OMA0485 OMA7478 2021-04-13 19:11:39 38348 458 47.293223982357 -118.893000591
OMA0485 OMA7478 2021-04-13 19:11:24 38348 458 47.285629218148 -118.84725030307
OMA0485 OMA7478 2021-04-13 19:11:09 38348 458 47.278077323644 -118.80186787152
OMA0485 OMA7478 2021-04-13 19:10:54 38348 458 47.270464515995 -118.7562319359
OMA0485 OMA7478 2021-04-13 19:10:39 38348 458 47.26283618578 -118.71060144309
OMA0485 OMA7478 2021-04-13 19:10:24 38347 458 47.25520188876 -118.6650201223
OMA0485 OMA7478 2021-04-13 19:10:09 38348 458 47.24756091003 -118.6194533346
OMA0485 OMA7478 2021-04-13 19:09:54 38347 458 47.239963956601 -118.57420269102
OMA0485 OMA7478 2021-04-13 19:09:39 38344 458 47.232281884472 -118.52847281362
OMA0485 OMA7478 2021-04-13 19:09:24 38340 458 47.224611785326 -118.4828131591
OMA0485 OMA7478 2021-04-13 19:09:09 38337 458 47.217006474545 -118.43750787401
OMA0485 OMA7478 2021-04-13 19:08:54 38333 458 47.209360706444 -118.39188322421
OMA0485 OMA7478 2021-04-13 19:08:39 38330 458 47.201801942788 -118.3466323405
OMA0485 OMA7478 2021-04-13 19:08:24 38330 458 47.19422172101 -118.30099987334
OMA0485 OMA7478 2021-04-13 19:08:09 38329 458 47.186760633682 -118.25563156908
OMA0485 OMA7478 2021-04-13 19:07:54 38330 458 47.179387849334 -118.21008187793
OMA0485 OMA7478 2021-04-13 19:07:39 38329 458 47.172169792323 -118.16435832379
OMA0485 OMA7478 2021-04-13 19:07:24 38330 458 47.165197270395 -118.11853650564
OMA0485 OMA7478 2021-04-13 19:07:09 38330 460 47.158616155369 -118.07281615982
OMA0485 OMA7478 2021-04-13 19:06:54 38329 460 47.152519157497 -118.02651733567
OMA0485 OMA7478 2021-04-13 19:06:39 38329 460 47.147259747908 -117.98018063698
OMA0485 OMA7478 2021-04-13 19:06:24 38329 462 47.143114643896 -117.93332379337
OMA0485 OMA7478 2021-04-13 19:06:09 38329 462 47.140174010512 -117.8888836678
OMA0485 OMA7478 2021-04-13 19:05:54 38327 462 47.137180860605 -117.84173620598
OMA0485 OMA7478 2021-04-13 19:05:39 38323 462 47.13418169 -117.79482414556
OMA0485 OMA7478 2021-04-13 19:05:24 38318 462 47.131146845471 -117.74768603523
OMA0485 OMA7478 2021-04-13 19:05:09 38312 462 47.128107761102 -117.70081063372
OMA0485 OMA7478 2021-04-13 19:04:54 38306 462 47.125024621872 -117.65353651992
OMA0485 OMA7478 2021-04-13 19:04:39 38303 462 47.121959934148 -117.6067740489
OMA0485 OMA7478 2021-04-13 19:04:24 38302 462 47.118846595221 -117.55956580907
OMA0485 OMA7478 2021-04-13 19:04:09 38302 462 47.115741966316 -117.51278819133
OMA0485 OMA7478 2021-04-13 19:03:54 38302 462 47.112593188425 -117.46563598039
OMA0485 OMA7478 2021-04-13 19:03:39 38301 462 47.109429759126 -117.41857797804
OMA0485 OMA7478 2021-04-13 19:03:24 38299 462 47.106259731998 -117.37171674384
OMA0485 OMA7478 2021-04-13 19:03:09 38293 462 47.103059535587 -117.32470239067
OMA0485 OMA7478 2021-04-13 19:02:54 38287 462 47.099848471834 -117.2778145294
OMA0485 OMA7478 2021-04-13 19:02:39 38282 462 47.096612536466 -117.23083598136
OMA0485 OMA7478 2021-04-13 19:02:24 38278 462 47.093371605853 -117.18405987105
OMA0485 OMA7478 2021-04-13 19:02:09 38275 464 47.090082806924 -117.13687824495
OMA0485 OMA7478 2021-04-13 19:01:54 38275 464 47.086774989766 -117.08971245368
OMA0485 OMA7478 2021-04-13 19:01:39 38274 464 47.083473714854 -117.04292053522
OMA0485 OMA7478 2021-04-13 19:01:24 38274 464 47.080126832188 -116.99571288944
OMA0485 OMA7478 2021-04-13 19:01:09 38275 464 47.076782034884 -116.9488249844
OMA0485 OMA7478 2021-04-13 19:00:54 38276 464 47.073388695204 -116.90162898088
OMA0485 OMA7478 2021-04-13 19:00:39 38278 464 47.06997471773 -116.85440867483
OMA0485 OMA7478 2021-04-13 19:00:24 38280 464 47.066578585284 -116.80770210706
OMA0485 OMA7478 2021-04-13 19:00:09 38282 464 47.06313226405 -116.76056222248
OMA0485 OMA7478 2021-04-13 18:59:54 38283 464 47.059657324111 -116.71335158141
OMA0485 OMA7478 2021-04-13 18:59:39 38282 464 47.056188223512 -116.66649184131
OMA0485 OMA7478 2021-04-13 18:59:24 38281 464 47.052684924877 -116.61935947286
OMA0485 OMA7478 2021-04-13 18:59:09 38278 464 47.049176374029 -116.57251840906
OMA0485 OMA7478 2021-04-13 18:58:54 38277 464 47.045626439678 -116.52524672318
OMA0485 OMA7478 2021-04-13 18:58:39 38275 464 47.042093555811 -116.47845539169
OMA0485 OMA7478 2021-04-13 18:58:24 38274 464 47.0385107826 -116.43134637636
OMA0485 OMA7478 2021-04-13 18:58:09 38288 462 47.034912436519 -116.38427836886
OMA0485 OMA7478 2021-04-13 18:57:54 38303 464 47.031306046923 -116.33730865204
OMA0485 OMA7478 2021-04-13 18:57:39 38315 464 47.027693322865 -116.29053295528
OMA0485 OMA7478 2021-04-13 18:57:24 38329 464 47.024032395195 -116.2434215654
OMA0485 OMA7478 2021-04-13 18:57:09 38339 464 47.020377577947 -116.19664225344
OMA0485 OMA7478 2021-04-13 18:56:54 38318 462 47.016690862208 -116.14972847214
OMA0485 OMA7478 2021-04-13 18:56:39 38287 460 47.013012890327 -116.10320966787
OMA0485 OMA7478 2021-04-13 18:56:24 38257 460 47.009304852582 -116.05647629294
OMA0485 OMA7478 2021-04-13 18:56:09 38229 460 47.005585171539 -116.00993055644
OMA0485 OMA7478 2021-04-13 18:55:54 38203 460 47.001836348338 -115.96325716078
OMA0485 OMA7478 2021-04-13 18:55:39 38192 460 46.998070278781 -115.91656265589
OMA0485 OMA7478 2021-04-13 18:55:24 38192 460 46.994301551994 -115.8701693897
OMA0485 OMA7478 2021-04-13 18:55:09 38193 460 46.990496711547 -115.82352989652
OMA0485 OMA7478 2021-04-13 18:54:54 38193 458 46.986710236804 -115.77733441899
OMA0485 OMA7478 2021-04-13 18:54:39 38193 458 46.98288383026 -115.73093534314
OMA0485 OMA7478 2021-04-13 18:54:24 38192 456 46.979075860223 -115.6849155829
OMA0485 OMA7478 2021-04-13 18:54:09 38191 456 46.975219120506 -115.63848688403
OMA0485 OMA7478 2021-04-13 18:53:54 38191 456 46.971375148538 -115.59256922978
OMA0485 OMA7478 2021-04-13 18:53:39 38192 456 46.967478730617 -115.54631161355
OMA0485 OMA7478 2021-04-13 18:53:24 38191 456 46.963592871954 -115.50042720311
OMA0485 OMA7478 2021-04-13 18:53:09 38202 456 46.959663141949 -115.45426355534
OMA0485 OMA7478 2021-04-13 18:52:54 38243 454 46.955757658078 -115.4084500348
OMA0485 OMA7478 2021-04-13 18:52:39 38284 454 46.951819183443 -115.36247213616
OMA0485 OMA7478 2021-04-13 18:52:24 38326 454 46.947864206278 -115.31652454647
OMA0485 OMA7478 2021-04-13 18:52:09 38368 454 46.943907776104 -115.27085200531
OMA0485 OMA7478 2021-04-13 18:51:54 38406 454 46.939907289652 -115.2249250396
OMA0485 OMA7478 2021-04-13 18:51:39 38411 452 46.935919579652 -115.17938051112
OMA0485 OMA7478 2021-04-13 18:51:24 38412 452 46.931895350672 -115.13358426616
OMA0485 OMA7478 2021-04-13 18:51:09 38412 450 46.927868894838 -115.08792936743
OMA0485 OMA7478 2021-04-13 18:50:54 38411 450 46.923863787445 -115.0426808983
OMA0485 OMA7478 2021-04-13 18:50:39 38412 450 46.919813576521 -114.99710608962
OMA0485 OMA7478 2021-04-13 18:50:24 38411 450 46.915739722853 -114.95146988845
OMA0485 OMA7478 2021-04-13 18:50:09 38412 452 46.911662307816 -114.90613996731
OMA0485 OMA7478 2021-04-13 18:49:54 38412 452 46.907531581661 -114.86042547118
OMA0485 OMA7478 2021-04-13 18:49:39 38413 450 46.903424326041 -114.81514558585
OMA0485 OMA7478 2021-04-13 18:49:24 38412 450 46.899303367739 -114.76982964192
OMA0485 OMA7478 2021-04-13 18:49:09 38412 449 46.895166129975 -114.72451811361
OMA0485 OMA7478 2021-04-13 18:48:54 38412 449 46.891027296134 -114.67928233102
OMA0485 OMA7478 2021-04-13 18:48:39 38411 449 46.886867276586 -114.63408050488
OMA0485 OMA7478 2021-04-13 18:48:24 38412 449 46.882720179847 -114.58919106091
OMA0485 OMA7478 2021-04-13 18:48:09 38412 449 46.878511548059 -114.54385514668
OMA0485 OMA7478 2021-04-13 18:47:54 38411 449 46.874305277409 -114.49885529911
OMA0485 OMA7478 2021-04-13 18:47:39 38411 449 46.870058663033 -114.45357066467
OMA0485 OMA7478 2021-04-13 18:47:24 38411 450 46.865802706973 -114.40841932563
OMA0485 OMA7478 2021-04-13 18:47:09 38412 450 46.86150736835 -114.36302084581
OMA0485 OMA7478 2021-04-13 18:46:54 38402 450 46.857194841788 -114.31766089252
OMA0485 OMA7478 2021-04-13 18:46:39 38402 450 46.852888773974 -114.27255005437
OMA0485 OMA7478 2021-04-13 18:46:24 38403 450 46.848524075979 -114.22706190163
OMA0485 OMA7478 2021-04-13 18:46:09 38403 450 46.844174499363 -114.18194403319
OMA0485 OMA7478 2021-04-13 18:45:54 38404 450 46.83978181872 -114.13649444701
OMA0485 OMA7478 2021-04-13 18:45:39 38403 449 46.835422815953 -114.09159639194
OMA0485 OMA7478 2021-04-13 18:45:24 38402 447 46.831024390027 -114.04641989993
OMA0485 OMA7478 2021-04-13 18:45:09 38402 449 46.826647983444 -114.00168582776
OMA0485 OMA7478 2021-04-13 18:44:54 38402 449 46.822204235673 -113.95649649746
OMA0485 OMA7478 2021-04-13 18:44:39 38402 450 46.817759505453 -113.91147595922
OMA0485 OMA7478 2021-04-13 18:44:24 38403 450 46.81326117507 -113.86613266786
OMA0485 OMA7478 2021-04-13 18:44:09 38403 450 46.808780250278 -113.8211062866
OMA0485 OMA7478 2021-04-13 18:43:54 38403 449 46.804257129608 -113.77581286095
OMA0485 OMA7478 2021-04-13 18:43:39 38403 449 46.799743679047 -113.73079884608
OMA0485 OMA7478 2021-04-13 18:43:24 38403 449 46.795195773485 -113.68559932219
OMA0485 OMA7478 2021-04-13 18:43:09 38402 449 46.790618295065 -113.64030803657
OMA0485 OMA7478 2021-04-13 18:42:54 38402 449 46.786060055927 -113.59544489951
OMA0485 OMA7478 2021-04-13 18:42:39 38402 449 46.781453316641 -113.55024361471
OMA0485 OMA7478 2021-04-13 18:42:24 38402 450 46.776856138514 -113.50537941043
OMA0485 OMA7478 2021-04-13 18:42:09 38402 450 46.772184823566 -113.46003666602
OMA0485 OMA7478 2021-04-13 18:41:54 38403 450 46.767529665917 -113.41494367707
OMA0485 OMA7478 2021-04-13 18:41:39 38403 450 46.762872197053 -113.37002963375
OMA0485 OMA7478 2021-04-13 18:41:24 38403 449 46.758177422379 -113.32496999534
OMA0485 OMA7478 2021-04-13 18:41:09 38400 449 46.753459852611 -113.27987369803
OMA0485 OMA7478 2021-04-13 18:40:54 38391 449 46.748742198338 -113.23488566988
OMA0485 OMA7478 2021-04-13 18:40:39 38384 449 46.743986180083 -113.18976944229
OMA0485 OMA7478 2021-04-13 18:40:24 38376 449 46.739250313057 -113.14497832903
OMA0485 OMA7478 2021-04-13 18:40:09 38367 449 46.734461174976 -113.09985828614
OMA0485 OMA7478 2021-04-13 18:39:54 38360 449 46.729680715092 -113.05499275784
OMA0485 OMA7478 2021-04-13 18:39:39 38357 449 46.724864955604 -113.00992509696
OMA0485 OMA7478 2021-04-13 18:39:24 38357 447 46.720083063846 -112.96536597835
OMA0485 OMA7478 2021-04-13 18:39:09 38357 447 46.715260637071 -112.92059079331
OMA0485 OMA7478 2021-04-13 18:38:54 38357 447 46.71042247084 -112.87583549852
OMA0485 OMA7478 2021-04-13 18:38:39 38357 449 46.705584396946 -112.83124779684
OMA0485 OMA7478 2021-04-13 18:38:24 38368 449 46.700683760144 -112.78624818939
OMA0485 OMA7478 2021-04-13 18:38:09 38382 449 46.695812687157 -112.74167955087
OMA0485 OMA7478 2021-04-13 18:37:54 38395 449 46.69088697776 -112.69677036338
OMA0485 OMA7478 2021-04-13 18:37:39 38409 449 46.685916172358 -112.65163772733
OMA0485 OMA7478 2021-04-13 18:37:24 38423 449 46.680976675375 -112.60698327681
OMA0485 OMA7478 2021-04-13 18:37:09 38430 449 46.675994511365 -112.5621000227
OMA0485 OMA7478 2021-04-13 18:36:54 38430 449 46.6710237122 -112.51747556873
OMA0485 OMA7478 2021-04-13 18:36:39 38430 449 46.666003215205 -112.47255837712
OMA0485 OMA7478 2021-04-13 18:36:24 38430 449 46.661216431948 -112.42987046854
OMA0485 OMA7478 2021-04-13 18:36:09 38430 449 46.65617039872 -112.38500866549
OMA0485 OMA7478 2021-04-13 18:35:54 38430 449 46.651143358018 -112.34044691052
OMA0485 OMA7478 2021-04-13 18:35:39 38430 449 46.646061334012 -112.29551701902
OMA0485 OMA7478 2021-04-13 18:35:24 38430 449 46.641013193069 -112.25098874799
OMA0485 OMA7478 2021-04-13 18:35:09 38430 449 46.635915205674 -112.20609682274
OMA0485 OMA7478 2021-04-13 18:34:54 38430 449 46.630851498172 -112.16155019557
OMA0485 OMA7478 2021-04-13 18:34:39 38430 449 46.625747801781 -112.11665354789
OMA0485 OMA7478 2021-04-13 18:34:24 38430 449 46.620695288864 -112.07215844062
OMA0485 OMA7478 2021-04-13 18:34:09 38430 449 46.615604473765 -112.02723091701
OMA0485 OMA7478 2021-04-13 18:33:54 38433 449 46.610538047543 -111.98235013084
OMA0485 OMA7478 2021-04-13 18:33:39 38428 449 46.605506925208 -111.93789853935
OMA0485 OMA7478 2021-04-13 18:33:24 38430 449 46.598242453899 -111.89368277615
OMA0485 OMA7478 2021-04-13 18:33:09 38430 449 46.588572265506 -111.85055686168
OMA0485 OMA7478 2021-04-13 18:32:54 38430 449 46.578918010334 -111.80759099642
OMA0485 OMA7478 2021-04-13 18:32:39 38430 449 46.569185194116 -111.76436023454
OMA0485 OMA7478 2021-04-13 18:32:24 38430 449 46.559448818549 -111.72119770786
OMA0485 OMA7478 2021-04-13 18:32:09 38430 449 46.549690443885 -111.67802474912
OMA0485 OMA7478 2021-04-13 18:31:54 38430 449 46.539959559957 -111.63507867299
OMA0485 OMA7478 2021-04-13 18:31:39 38429 449 46.530143915269 -111.59185211328
OMA0485 OMA7478 2021-04-13 18:31:24 38426 449 46.520317832527 -111.54866776201
OMA0485 OMA7478 2021-04-13 18:31:09 38423 449 46.5105431963 -111.50579503811
OMA0485 OMA7478 2021-04-13 18:30:54 38418 449 46.500667501606 -111.46256581036
OMA0485 OMA7478 2021-04-13 18:30:39 38412 449 46.490891561007 -111.41985263541
OMA0485 OMA7478 2021-04-13 18:30:24 38406 449 46.481003729692 -111.37673205036
OMA0485 OMA7478 2021-04-13 18:30:09 38399 449 46.471140503532 -111.33380777988
OMA0485 OMA7478 2021-04-13 18:29:54 38394 449 46.461316370477 -111.29114484418
OMA0485 OMA7478 2021-04-13 18:29:39 38390 449 46.451376487283 -111.24807556558
OMA0485 OMA7478 2021-04-13 18:29:24 38387 450 46.441426583337 -111.20506264939
OMA0485 OMA7478 2021-04-13 18:29:09 38385 450 46.43149879235 -111.16224128532
OMA0485 OMA7478 2021-04-13 18:28:54 38384 449 46.421504583308 -111.11921640295
OMA0485 OMA7478 2021-04-13 18:28:39 38384 449 46.411562672616 -111.07648990113
OMA0485 OMA7478 2021-04-13 18:28:24 38385 447 46.401581212816 -111.03366621253
OMA0485 OMA7478 2021-04-13 18:28:09 38384 447 46.391660954602 -110.99117577079
OMA0485 OMA7478 2021-04-13 18:27:54 38384 447 46.381648237946 -110.94836258927
OMA0485 OMA7478 2021-04-13 18:27:39 38384 447 46.371734265068 -110.90604900707
OMA0485 OMA7478 2021-04-13 18:27:24 38383 447 46.361731701468 -110.86343695761
OMA0485 OMA7478 2021-04-13 18:27:09 38381 447 46.351779314556 -110.82112008038
OMA0485 OMA7478 2021-04-13 18:26:54 38380 447 46.34173408329 -110.77848857422
OMA0485 OMA7478 2021-04-13 18:26:39 38378 447 46.331668480335 -110.73584801006
OMA0485 OMA7478 2021-04-13 18:26:24 38376 447 46.321679709796 -110.69361052044
OMA0485 OMA7478 2021-04-13 18:26:09 38375 447 46.311536615443 -110.65081677061
OMA0485 OMA7478 2021-04-13 18:25:54 38376 447 46.301519509173 -110.6086534715
OMA0485 OMA7478 2021-04-13 18:25:39 38375 447 46.291375094396 -110.56603117009
OMA0485 OMA7478 2021-04-13 18:25:24 38375 447 46.281319844265 -110.52386414348
OMA0485 OMA7478 2021-04-13 18:25:09 38375 447 46.271145011571 -110.48127956819
OMA0485 OMA7478 2021-04-13 18:24:54 38375 447 46.261047345763 -110.43909866775
OMA0485 OMA7478 2021-04-13 18:24:39 38375 447 46.250874058334 -110.3966838867
OMA0485 OMA7478 2021-04-13 18:24:24 38375 447 46.240722280966 -110.35444151456
OMA0485 OMA7478 2021-04-13 18:24:09 38375 447 46.230509037365 -110.31202342513
OMA0485 OMA7478 2021-04-13 18:23:54 38375 447 46.22032706876 -110.26981640456
OMA0485 OMA7478 2021-04-13 18:23:39 38375 447 46.210070607199 -110.2273803592
OMA0485 OMA7478 2021-04-13 18:23:24 38375 447 46.199847391158 -110.18516203947
OMA0485 OMA7478 2021-04-13 18:23:09 38375 447 46.189580777783 -110.14284113349
OMA0485 OMA7478 2021-04-13 18:22:54 38375 447 46.179296092128 -110.10052336914
OMA0485 OMA7478 2021-04-13 18:22:39 38375 447 46.169070006549 -110.05852886483
OMA0485 OMA7478 2021-04-13 18:22:24 38375 447 46.158750614194 -110.0162318962
OMA0485 OMA7478 2021-04-13 18:22:09 38375 447 46.148397486058 -109.97387791651
OMA0485 OMA7478 2021-04-13 18:21:54 38376 447 46.138117770601 -109.93190107964
OMA0485 OMA7478 2021-04-13 18:21:39 38378 447 46.12774315178 -109.88961054934
OMA0485 OMA7478 2021-04-13 18:21:24 38379 447 46.117411184585 -109.84756873396
OMA0485 OMA7478 2021-04-13 18:21:09 38378 447 46.107015368745 -109.80534027567
OMA0485 OMA7478 2021-04-13 18:20:54 38378 447 46.096589090056 -109.76306332569
OMA0485 OMA7478 2021-04-13 18:20:39 38375 447 46.086233149208 -109.72114746861
OMA0485 OMA7478 2021-04-13 18:20:24 38379 447 46.075808342229 -109.67902734619
OMA0485 OMA7478 2021-04-13 18:20:09 38385 447 46.065318262327 -109.63674086356
OMA0485 OMA7478 2021-04-13 18:19:54 38391 447 46.054915165977 -109.59488733195
OMA0485 OMA7478 2021-04-13 18:19:39 38397 447 46.04440991861 -109.55270008158
OMA0485 OMA7478 2021-04-13 18:19:24 38404 447 46.033870478185 -109.51045050572
OMA0485 OMA7478 2021-04-13 18:19:09 38410 447 46.023391136819 -109.46851565218
OMA0485 OMA7478 2021-04-13 18:18:54 38412 447 46.012844024654 -109.42638205614
OMA0485 OMA7478 2021-04-13 18:18:39 38411 447 46.002360161995 -109.38457131994
OMA0485 OMA7478 2021-04-13 18:18:24 38411 447 45.991780414605 -109.34244900972
OMA0485 OMA7478 2021-04-13 18:18:09 38411 447 45.981245972799 -109.3005735468
OMA0485 OMA7478 2021-04-13 18:17:54 38411 447 45.970602337266 -109.25832298377
OMA0485 OMA7478 2021-04-13 18:17:39 38412 447 45.960021800861 -109.21636886696
OMA0485 OMA7478 2021-04-13 18:17:24 38412 447 45.949384983596 -109.17421998304
OMA0485 OMA7478 2021-04-13 18:17:09 38412 445 45.938885296854 -109.13262521155
OMA0485 OMA7478 2021-04-13 18:16:54 38412 443 45.928340598615 -109.09083936819
OMA0485 OMA7478 2021-04-13 18:16:39 38412 441 45.917869279674 -109.04932628883
OMA0485 OMA7478 2021-04-13 18:16:24 38412 437 45.907505381917 -109.00815352081
OMA0485 OMA7478 2021-04-13 18:16:09 38412 437 45.897195166472 -108.96703328489
OMA0485 OMA7478 2021-04-13 18:15:54 38411 435 45.887005386111 -108.92616458119
OMA0485 OMA7478 2021-04-13 18:15:39 38412 437 45.876817638555 -108.88496401967
OMA0485 OMA7478 2021-04-13 18:15:24 38411 437 45.866857739242 -108.84407793367
OMA0485 OMA7478 2021-04-13 18:15:09 38412 437 45.857007440402 -108.80273985456
OMA0485 OMA7478 2021-04-13 18:14:54 38412 437 45.847444406427 -108.76130740679
OMA0485 OMA7478 2021-04-13 18:14:39 38413 437 45.838326405755 -108.71998574949
OMA0485 OMA7478 2021-04-13 18:14:24 38413 435 45.829492968922 -108.67828747128
OMA0485 OMA7478 2021-04-13 18:14:09 38411 437 45.819877853347 -108.63714704637
OMA0485 OMA7478 2021-04-13 18:13:54 38412 437 45.808184725783 -108.59694055085
OMA0485 OMA7478 2021-04-13 18:13:39 38411 437 45.796422789642 -108.55694904621
OMA0485 OMA7478 2021-04-13 18:13:24 38412 437 45.784571166834 -108.51675525057
OMA0485 OMA7478 2021-04-13 18:13:09 38412 437 45.772733643955 -108.47666252039
OMA0485 OMA7478 2021-04-13 18:12:54 38411 437 45.760967157882 -108.43681356927
OMA0485 OMA7478 2021-04-13 18:12:39 38412 437 45.749112099861 -108.39676190027
OMA0485 OMA7478 2021-04-13 18:12:24 38411 437 45.737217788051 -108.35664019514
OMA0485 OMA7478 2021-04-13 18:12:09 38411 437 45.72538402594 -108.31678966987
OMA0485 OMA7478 2021-04-13 18:11:54 38412 437 45.71345935684 -108.27671489562
OMA0485 OMA7478 2021-04-13 18:11:39 38412 437 45.701608827766 -108.23690068241
OMA0485 OMA7478 2021-04-13 18:11:24 38411 437 45.689692223019 -108.19687341266
OMA0485 OMA7478 2021-04-13 18:11:09 38411 437 45.677834452185 -108.15711195999
OMA0485 OMA7478 2021-04-13 18:10:54 38411 437 45.66587568379 -108.1171424
OMA0485 OMA7478 2021-04-13 18:10:39 38411 439 45.65384840187 -108.07704188581
OMA0485 OMA7478 2021-04-13 18:10:24 38410 439 45.641816537826 -108.03705487682
OMA0485 OMA7478 2021-04-13 18:10:09 38413 439 45.629683064447 -107.99679534353
OMA0485 OMA7478 2021-04-13 18:09:54 38412 439 45.6176492392 -107.95689852813
OMA0485 OMA7478 2021-04-13 18:09:39 38413 437 45.605550286088 -107.91681447243
OMA0485 OMA7478 2021-04-13 18:09:24 38412 437 45.59355442109 -107.87712693788
OMA0485 OMA7478 2021-04-13 18:09:09 38412 437 45.581475707311 -107.83719569098
OMA0485 OMA7478 2021-04-13 18:08:54 38412 437 45.569389752391 -107.79727415576
OMA0485 OMA7478 2021-04-13 18:08:39 38407 437 45.557384199864 -107.75768647271
OMA0485 OMA7478 2021-04-13 18:08:24 38397 435 45.54531586165 -107.71792260547
OMA0485 OMA7478 2021-04-13 18:08:09 38388 437 45.533284401117 -107.67836086914
OMA0485 OMA7478 2021-04-13 18:07:54 38378 439 45.521054016754 -107.63828976903
OMA0485 OMA7478 2021-04-13 18:07:39 38370 439 45.508914721304 -107.59857478033
OMA0485 OMA7478 2021-04-13 18:07:24 38360 439 45.496660211885 -107.55857729927
OMA0485 OMA7478 2021-04-13 18:07:09 38358 441 45.484456303325 -107.51878221593
OMA0485 OMA7478 2021-04-13 18:06:54 38357 439 45.472175546587 -107.47881419006
OMA0485 OMA7478 2021-04-13 18:06:39 38357 439 45.459979162594 -107.43918855411
OMA0485 OMA7478 2021-04-13 18:06:24 38358 439 45.447708337125 -107.39937644866
OMA0485 OMA7478 2021-04-13 18:06:09 38358 437 45.435498256894 -107.35981615306
OMA0485 OMA7478 2021-04-13 18:05:54 38357 437 45.42323043933 -107.3201171993
OMA0485 OMA7478 2021-04-13 18:05:39 38356 437 45.411070819061 -107.28082018616
OMA0485 OMA7478 2021-04-13 18:05:24 38357 437 45.398759353993 -107.24107478177
OMA0485 OMA7478 2021-04-13 18:05:09 38356 437 45.386517527858 -107.20162866506
OMA0485 OMA7478 2021-04-13 18:04:54 38358 437 45.37417940583 -107.16195455077
OMA0485 OMA7478 2021-04-13 18:04:39 38357 439 45.361819839107 -107.12232120417
OMA0485 OMA7478 2021-04-13 18:04:24 38358 437 45.349498663155 -107.0828788294
OMA0485 OMA7478 2021-04-13 18:04:09 38357 437 45.337114700729 -107.04326224811
OMA0485 OMA7478 2021-04-13 18:03:54 38356 437 45.324823666166 -107.00402161071
OMA0485 OMA7478 2021-04-13 18:03:39 38357 435 45.312461883996 -106.96456310095
OMA0485 OMA7478 2021-04-13 18:03:24 38358 435 45.300128855424 -106.92525986126
OMA0485 OMA7478 2021-04-13 18:03:09 38356 433 45.287901728927 -106.88631024728
OMA0485 OMA7478 2021-04-13 18:02:54 38356 433 45.27555637294 -106.84708305682
OMA0485 OMA7478 2021-04-13 18:02:39 38357 433 45.263221503738 -106.80792910412
OMA0485 OMA7478 2021-04-13 18:02:24 38356 435 45.250931709344 -106.76895545775
OMA0485 OMA7478 2021-04-13 18:02:09 38357 435 45.238544250716 -106.72973379013
OMA0485 OMA7478 2021-04-13 18:01:54 38357 435 45.226241020294 -106.69086342369
OMA0485 OMA7478 2021-04-13 18:01:39 38356 435 45.213819628736 -106.65167081106
OMA0485 OMA7478 2021-04-13 18:01:24 38357 435 45.201419000695 -106.61263493818
OMA0485 OMA7478 2021-04-13 18:01:09 38356 435 45.188985639034 -106.57353482659
OMA0485 OMA7478 2021-04-13 18:00:54 38356 435 45.176601251181 -106.53468097533
OMA0485 OMA7478 2021-04-13 18:00:39 38355 435 45.164071823427 -106.49546405683
OMA0485 OMA7478 2021-04-13 18:00:24 38357 437 45.151586897325 -106.4564945726
OMA0485 OMA7478 2021-04-13 18:00:09 38359 437 45.139000848308 -106.4173380319
OMA0485 OMA7478 2021-04-13 17:59:54 38358 435 45.126465532687 -106.37837025522
OMA0485 OMA7478 2021-04-13 17:59:39 38356 431 45.113941176269 -106.33948129252
OMA0485 OMA7478 2021-04-13 17:59:24 38347 429 45.101534206561 -106.3010135604
OMA0485 OMA7478 2021-04-13 17:59:09 38335 427 45.089115627479 -106.26255962205
OMA0485 OMA7478 2021-04-13 17:58:54 38326 425 45.076810961987 -106.2245185633
OMA0485 OMA7478 2021-04-13 17:58:39 38316 423 45.064482227575 -106.18644716891
OMA0485 OMA7478 2021-04-13 17:58:24 38305 421 45.052282254056 -106.14882947517
OMA0485 OMA7478 2021-04-13 17:58:09 38297 419 45.040032019819 -106.11110103098
OMA0485 OMA7478 2021-04-13 17:57:54 38293 415 45.027950056561 -106.07396094355
OMA0485 OMA7478 2021-04-13 17:57:39 38293 414 45.015853543886 -106.03679917828
OMA0485 OMA7478 2021-04-13 17:57:24 38293 412 45.003826624552 -105.99987104972
OMA0485 OMA7478 2021-04-13 17:57:09 38293 408 44.991969044761 -105.96348658243
OMA0485 OMA7478 2021-04-13 17:56:54 38292 406 44.980110939063 -105.92711473787
OMA0485 OMA7478 2021-04-13 17:56:39 38293 404 44.96840393687 -105.89122889062
OMA0485 OMA7478 2021-04-13 17:56:24 38293 404 44.956611851268 -105.85512880622
OMA0485 OMA7478 2021-04-13 17:56:09 38293 402 44.94490341344 -105.81931500279
OMA0485 OMA7478 2021-04-13 17:55:54 38293 402 44.933146524094 -105.78335857914
OMA0485 OMA7478 2021-04-13 17:55:39 38292 402 44.921465176937 -105.74768881
OMA0485 OMA7478 2021-04-13 17:55:24 38292 404 44.909673867838 -105.71169878235
OMA0485 OMA7478 2021-04-13 17:55:09 38294 404 44.897922516789 -105.67585867202
OMA0485 OMA7478 2021-04-13 17:54:54 38292 404 44.88603362262 -105.63972341507
OMA0485 OMA7478 2021-04-13 17:54:39 38292 404 44.874222351259 -105.60397249741
OMA0485 OMA7478 2021-04-13 17:54:24 38292 406 44.862312657058 -105.56795968468
OMA0485 OMA7478 2021-04-13 17:54:09 38292 406 44.8503816994 -105.53191384158
OMA0485 OMA7478 2021-04-13 17:53:54 38293 406 44.838510689324 -105.49611521932
OMA0485 OMA7478 2021-04-13 17:53:39 38293 404 44.826559383543 -105.46012054928
OMA0485 OMA7478 2021-04-13 17:53:24 38293 404 44.814612603272 -105.42416413897
OMA0485 OMA7478 2021-04-13 17:53:09 38293 404 44.802766891187 -105.38856223149
OMA0485 OMA7478 2021-04-13 17:52:54 38293 404 44.790816899402 -105.35269624114
OMA0485 OMA7478 2021-04-13 17:52:39 38293 402 44.778966527705 -105.31714980227
OMA0485 OMA7478 2021-04-13 17:52:24 38292 402 44.767046311449 -105.28142769947
OMA0485 OMA7478 2021-04-13 17:52:09 38292 404 44.755181175474 -105.24595012277
OMA0485 OMA7478 2021-04-13 17:51:54 38292 404 44.743790349992 -105.2119553508
OMA0485 OMA7478 2021-04-13 17:51:39 38292 406 44.731727646639 -105.17602012475
OMA0485 OMA7478 2021-04-13 17:51:24 38293 406 44.719643500551 -105.14006746304
OMA0485 OMA7478 2021-04-13 17:51:09 38293 406 44.707638223015 -105.10439487244
OMA0485 OMA7478 2021-04-13 17:50:54 38294 404 44.695578103089 -105.06856982988
OMA0485 OMA7478 2021-04-13 17:50:39 38293 404 44.683604632871 -105.03304155037
OMA0485 OMA7478 2021-04-13 17:50:24 38293 402 44.671573901834 -104.99739551722
OMA0485 OMA7478 2021-04-13 17:50:09 38293 402 44.659614625897 -104.96200264713
OMA0485 OMA7478 2021-04-13 17:49:54 38293 402 44.64757442586 -104.92644872773
OMA0485 OMA7478 2021-04-13 17:49:39 38292 402 44.635614765903 -104.89116272984
OMA0485 OMA7478 2021-04-13 17:49:24 38291 402 44.623536711663 -104.85558542838
OMA0485 OMA7478 2021-04-13 17:49:09 38288 404 44.611502902101 -104.82017711407
OMA0485 OMA7478 2021-04-13 17:48:54 38290 404 44.599418863202 -104.78462137707
OMA0485 OMA7478 2021-04-13 17:48:39 38287 404 44.58738764885 -104.74923619469
OMA0485 OMA7478 2021-04-13 17:48:24 38287 402 44.575298996214 -104.71372163892
OMA0485 OMA7478 2021-04-13 17:48:09 38285 402 44.563275833356 -104.67841775181
OMA0485 OMA7478 2021-04-13 17:47:54 38282 402 44.551153635433 -104.64293669891
OMA0485 OMA7478 2021-04-13 17:47:39 38281 402 44.539017395177 -104.60749351328
OMA0485 OMA7478 2021-04-13 17:47:24 38282 402 44.526926007692 -104.57224408092
OMA0485 OMA7478 2021-04-13 17:47:09 38281 404 44.514743979732 -104.53677917743
OMA0485 OMA7478 2021-04-13 17:46:54 38282 404 44.502605722295 -104.50150066339
OMA0485 OMA7478 2021-04-13 17:46:39 38284 404 44.49036528804 -104.46598074486
OMA0485 OMA7478 2021-04-13 17:46:24 38284 402 44.478223895952 -104.43077957738
OMA0485 OMA7478 2021-04-13 17:46:09 38281 402 44.466029833088 -104.39547459637
OMA0485 OMA7478 2021-04-13 17:45:54 38277 400 44.453943940277 -104.3605003726
OMA0485 OMA7478 2021-04-13 17:45:39 38272 400 44.441755446422 -104.32528877308
OMA0485 OMA7478 2021-04-13 17:45:24 38268 402 44.429623973498 -104.29029750052
OMA0485 OMA7478 2021-04-13 17:45:09 38265 406 44.41731304019 -104.25483035587
OMA0485 OMA7478 2021-04-13 17:44:54 38261 406 44.404936698325 -104.21922489989
OMA0485 OMA7478 2021-04-13 17:44:39 38257 406 44.392559170835 -104.1836664815
OMA0485 OMA7478 2021-04-13 17:44:24 38257 406 44.380212512118 -104.14824840216
OMA0485 OMA7478 2021-04-13 17:44:09 38258 406 44.367778924349 -104.11261685273
OMA0485 OMA7478 2021-04-13 17:43:54 38257 404 44.355443931812 -104.07729681728
OMA0485 OMA7478 2021-04-13 17:43:39 38255 404 44.343056681205 -104.04188422076
OMA0485 OMA7478 2021-04-13 17:43:24 38256 404 44.336775353103 -104.0239457511
OMA0485 OMA7478 2021-04-13 17:43:09 38256 404 44.325986499607 -103.99315723434
OMA0485 OMA7478 2021-04-13 17:42:54 38256 404 44.313587850797 -103.95781738201
OMA0485 OMA7478 2021-04-13 17:42:39 38255 406 44.301176591701 -103.92249843046
OMA0485 OMA7478 2021-04-13 17:42:24 38257 406 44.288759485656 -103.88721406007
OMA0485 OMA7478 2021-04-13 17:42:09 38257 406 44.285788805265 -103.87877776259
OMA0485 OMA7478 2021-04-13 17:41:54 38257 406 44.27419215959 -103.84586121335
OMA0485 OMA7478 2021-04-13 17:41:39 38256 406 44.261657824511 -103.8103188299
OMA0485 OMA7478 2021-04-13 17:41:24 38257 406 44.249265608222 -103.77519035324
OMA0485 OMA7478 2021-04-13 17:41:09 38255 406 44.236756146504 -103.73973033227
OMA0485 OMA7478 2021-04-13 17:40:54 38256 406 44.226256471831 -103.70999043465
OMA0485 OMA7478 2021-04-13 17:40:39 38256 406 44.223348943089 -103.70176109723
OMA0485 OMA7478 2021-04-13 17:40:24 38254 406 44.21091265041 -103.66662489659
OMA0485 OMA7478 2021-04-13 17:40:09 38252 406 44.198342444761 -103.63120184695
OMA0485 OMA7478 2021-04-13 17:39:54 38248 406 44.185840681195 -103.59604905108
OMA0485 OMA7478 2021-04-13 17:39:39 38247 406 44.173222652047 -103.56059663403
OMA0485 OMA7478 2021-04-13 17:39:24 38241 406 44.160645978589 -103.52529656221
OMA0485 OMA7478 2021-04-13 17:39:09 38233 406 44.14813316989 -103.49021927196
OMA0485 OMA7478 2021-04-13 17:38:54 38226 406 44.135618071311 -103.4551596975
OMA0485 OMA7478 2021-04-13 17:38:39 38224 406 44.123048258614 -103.41996914884
OMA0485 OMA7478 2021-04-13 17:38:24 38224 406 44.110466596191 -103.38476534
OMA0485 OMA7478 2021-04-13 17:38:09 38225 406 44.097879855399 -103.34954811091
OMA0485 OMA7478 2021-04-13 17:37:54 38230 408 44.085256907582 -103.31421783685
OMA0485 OMA7478 2021-04-13 17:37:39 38238 408 44.072717383345 -103.2790785146
OMA0485 OMA7478 2021-04-13 17:37:24 38245 406 44.060141959527 -103.24376448892
OMA0485 OMA7478 2021-04-13 17:37:09 38251 404 44.04771898016 -103.20875662113
OMA0485 OMA7478 2021-04-13 17:36:54 38253 404 44.035276286611 -103.17350370697
OMA0485 OMA7478 2021-04-13 17:36:39 38254 406 44.023042679088 -103.13843844958
OMA0485 OMA7478 2021-04-13 17:36:24 38256 404 44.010910041649 -103.10303955347
OMA0485 OMA7478 2021-04-13 17:36:09 38257 404 43.999091749966 -103.06768205203
OMA0485 OMA7478 2021-04-13 17:35:54 38255 404 43.987462833093 -103.03189597624
OMA0485 OMA7478 2021-04-13 17:35:39 38255 406 43.983564281494 -103.01975668236
OMA0485 OMA7478 2021-04-13 17:35:24 38255 406 43.983564281494 -103.01975668236
OMA0485 OMA7478 2021-04-13 17:35:09 38255 406 43.983564281494 -103.01975668236
OMA0485 OMA7478 2021-04-13 17:34:54 38256 406 43.979856711342 -103.00823932673
OMA0485 OMA7478 2021-04-13 17:34:39 38257 406 43.976331131364 -102.9973055354
OMA0485 OMA7478 2021-04-13 17:34:24 38257 406 43.976331131364 -102.9973055354
OMA0485 OMA7478 2021-04-13 17:34:09 38257 406 43.966839308562 -102.96788355673
OMA0485 OMA7478 2021-04-13 17:33:54 38256 406 43.955273605446 -102.93203266084
OMA0485 OMA7478 2021-04-13 17:33:39 38256 406 43.943767031274 -102.89646939995
OMA0485 OMA7478 2021-04-13 17:33:24 38257 406 43.932157464133 -102.86065254829
OMA0485 OMA7478 2021-04-13 17:33:09 38257 406 43.920616047403 -102.82503065717
OMA0485 OMA7478 2021-04-13 17:32:54 38256 406 43.909042727944 -102.78930403203
OMA0485 OMA7478 2021-04-13 17:32:39 38256 406 43.897529427563 -102.75379980159
OMA0485 OMA7478 2021-04-13 17:32:24 38256 406 43.885901573481 -102.71797946146
OMA0485 OMA7478 2021-04-13 17:32:09 38257 406 43.874329992988 -102.68240183316
OMA0485 OMA7478 2021-04-13 17:31:54 38256 406 43.862626304896 -102.64650051019
OMA0485 OMA7478 2021-04-13 17:31:39 38256 406 43.851008444356 -102.61097066654
OMA0485 OMA7478 2021-04-13 17:31:24 38254 406 43.839289962308 -102.5752220434
OMA0485 OMA7478 2021-04-13 17:31:09 38258 408 43.827594565488 -102.53960618205
OMA0485 OMA7478 2021-04-13 17:30:54 38261 408 43.815826732218 -102.50379384605
OMA0485 OMA7478 2021-04-13 17:30:39 38262 406 43.804155217507 -102.46827003217
OMA0485 OMA7478 2021-04-13 17:30:24 38262 406 43.792430783411 -102.43259606086
OMA0485 OMA7478 2021-04-13 17:30:09 38262 404 43.780747050867 -102.39714844628
OMA0485 OMA7478 2021-04-13 17:29:54 38264 406 43.768966588458 -102.36150379676
OMA0485 OMA7478 2021-04-13 17:29:39 38267 408 43.757153377317 -102.3258343878
OMA0485 OMA7478 2021-04-13 17:29:24 38269 408 43.74532859292 -102.29010270672
OMA0485 OMA7478 2021-04-13 17:29:09 38270 406 43.733529280832 -102.25446029835
OMA0485 OMA7478 2021-04-13 17:28:54 38269 404 43.721810635292 -102.2191304912
OMA0485 OMA7478 2021-04-13 17:28:39 38267 404 43.710062871219 -102.18375020468
OMA0485 OMA7478 2021-04-13 17:28:24 38264 406 43.698362039062 -102.1485670465
OMA0485 OMA7478 2021-04-13 17:28:09 38263 406 43.686544879365 -102.11309091054
OMA0485 OMA7478 2021-04-13 17:27:54 38260 408 43.674756351295 -102.07773659742
OMA0485 OMA7478 2021-04-13 17:27:39 38258 408 43.662826029241 -102.04202843848
OMA0485 OMA7478 2021-04-13 17:27:24 38257 406 43.651018474245 -102.00671343479
OMA0485 OMA7478 2021-04-13 17:27:09 38256 406 43.639111683419 -101.97116902113
OMA0485 OMA7478 2021-04-13 17:26:54 38256 406 43.627294569968 -101.9359403428
OMA0485 OMA7478 2021-04-13 17:26:39 38256 408 43.61535882764 -101.90039705221
OMA0485 OMA7478 2021-04-13 17:26:24 38256 408 43.603466060357 -101.86502741785
OMA0485 OMA7478 2021-04-13 17:26:09 38257 408 43.59151773114 -101.8295211597
OMA0485 OMA7478 2021-04-13 17:25:54 38256 408 43.579556183979 -101.7939682108
OMA0485 OMA7478 2021-04-13 17:25:39 38256 406 43.567708879392 -101.75879963347
OMA0485 OMA7478 2021-04-13 17:25:24 38257 408 43.555717403878 -101.72327616644
OMA0485 OMA7478 2021-04-13 17:25:09 38255 408 43.543818513963 -101.68803420459
OMA0485 OMA7478 2021-04-13 17:24:54 38258 408 43.531792431815 -101.65245038644
OMA0485 OMA7478 2021-04-13 17:24:39 38257 408 43.519872416553 -101.61727194294
OMA0485 OMA7478 2021-04-13 17:24:24 38256 406 43.507873379834 -101.58189337731
OMA0485 OMA7478 2021-04-13 17:24:09 38255 406 43.495942631285 -101.54679954518
OMA0485 OMA7478 2021-04-13 17:23:54 38256 408 43.483906893863 -101.51144968769
OMA0485 OMA7478 2021-04-13 17:23:39 38256 408 43.471908885248 -101.47628525916
OMA0485 OMA7478 2021-04-13 17:23:24 38256 408 43.459831376448 -101.44096701798
OMA0485 OMA7478 2021-04-13 17:23:09 38256 408 43.447808824992 -101.40585245516
OMA0485 OMA7478 2021-04-13 17:22:54 38256 408 43.435699420261 -101.37050934782
OMA0485 OMA7478 2021-04-13 17:22:39 38255 408 43.423620671869 -101.33533816914
OMA0485 OMA7478 2021-04-13 17:22:24 38257 408 43.411447397601 -101.29992438535
OMA0485 OMA7478 2021-04-13 17:22:09 38255 406 43.399375895072 -101.26480558035
OMA0485 OMA7478 2021-04-13 17:21:54 38253 404 43.387304128422 -101.22970972052
OMA0485 OMA7478 2021-04-13 17:21:39 38249 404 43.375335423524 -101.19497173858
OMA0485 OMA7478 2021-04-13 17:21:24 38243 404 43.363278044455 -101.16000525214
OMA0485 OMA7478 2021-04-13 17:21:09 38242 408 43.351221200306 -101.12507019523
OMA0485 OMA7478 2021-04-13 17:20:54 38240 410 43.338998321819 -101.0897439099
OMA0485 OMA7478 2021-04-13 17:20:39 38239 408 43.326827313659 -101.05463428964
OMA0485 OMA7478 2021-04-13 17:20:24 38238 406 43.314589825828 -101.01934596888
OMA0485 OMA7478 2021-04-13 17:20:09 38237 406 43.302489131033 -100.98448963591
OMA0485 OMA7478 2021-04-13 17:19:54 38238 408 43.290273882338 -100.94936669378
OMA0485 OMA7478 2021-04-13 17:19:39 38238 408 43.27810566372 -100.9144328575
OMA0485 OMA7478 2021-04-13 17:19:24 38238 406 43.265851487075 -100.87929102729
OMA0485 OMA7478 2021-04-13 17:19:09 38239 406 43.253686400086 -100.84448256901
OMA0485 OMA7478 2021-04-13 17:18:54 38237 404 43.241489573998 -100.80956680206
OMA0485 OMA7478 2021-04-13 17:18:39 38237 402 43.229459462118 -100.775114901
OMA0485 OMA7478 2021-04-13 17:18:24 38239 404 43.217313734712 -100.74032872088
OMA0485 OMA7478 2021-04-13 17:18:09 38238 404 43.20519198815 -100.70563949742
OMA0485 OMA7478 2021-04-13 17:17:54 38238 404 43.193017195388 -100.6708282377
OMA0485 OMA7478 2021-04-13 17:17:39 38238 404 43.18085164288 -100.63625015716
OMA0485 OMA7478 2021-04-13 17:17:24 38237 404 43.16862298832 -100.60151106798
OMA0485 OMA7478 2021-04-13 17:17:09 38237 408 43.156396251314 -100.56686205193
OMA0485 OMA7478 2021-04-13 17:16:54 38239 408 43.14401438328 -100.53182857094
OMA0485 OMA7478 2021-04-13 17:16:39 38238 408 43.131731312899 -100.49710554338
OMA0485 OMA7478 2021-04-13 17:16:24 38238 408 43.119328458326 -100.46211699223
OMA0485 OMA7478 2021-04-13 17:16:09 38240 406 43.107040872313 -100.4274706709
OMA0485 OMA7478 2021-04-13 17:15:54 38239 404 43.094673635695 -100.39256691014
OMA0485 OMA7478 2021-04-13 17:15:39 38236 404 43.082483451983 -100.35821935622
OMA0485 OMA7478 2021-04-13 17:15:24 38234 406 43.07013323518 -100.32359942184
OMA0485 OMA7478 2021-04-13 17:15:09 38236 408 43.057760940137 -100.28887900896
OMA0485 OMA7478 2021-04-13 17:14:54 38230 408 43.045296963075 -100.25393317317
OMA0485 OMA7478 2021-04-13 17:14:39 38232 404 43.032960781399 -100.21946398319
OMA0485 OMA7478 2021-04-13 17:14:24 38227 402 43.020593387677 -100.18490922909
OMA0485 OMA7478 2021-04-13 17:14:09 38229 402 43.008343499779 -100.15070624307
OMA0485 OMA7478 2021-04-13 17:13:54 38227 400 42.996041816714 -100.11633734481
OMA0485 OMA7478 2021-04-13 17:13:39 38228 400 42.983840322296 -100.08236217628
OMA0485 OMA7478 2021-04-13 17:13:24 38227 400 42.971577930755 -100.04824446424
OMA0485 OMA7478 2021-04-13 17:13:09 38231 400 42.959368299136 -100.01432729729
OMA0485 OMA7478 2021-04-13 17:12:54 38233 398 42.947093504264 -99.980283413318
OMA0485 OMA7478 2021-04-13 17:12:39 38228 398 42.934911494059 -99.946505218039
OMA0485 OMA7478 2021-04-13 17:12:24 38236 396 42.923108160667 -99.913773504123
OMA0485 OMA7478 2021-04-13 17:12:09 38236 394 42.915689005482 -99.893173766978
OMA0485 OMA7478 2021-04-13 17:11:54 38236 390 42.903570649589 -99.859645122064
OMA0485 OMA7478 2021-04-13 17:11:39 38237 390 42.891589001519 -99.826569664204
OMA0485 OMA7478 2021-04-13 17:11:24 38237 390 42.879552376008 -99.793329814897
OMA0485 OMA7478 2021-04-13 17:11:09 38236 392 42.867530147282 -99.760079039954
OMA0485 OMA7478 2021-04-13 17:10:54 38237 394 42.855375408998 -99.726592730207
OMA0485 OMA7478 2021-04-13 17:10:39 38238 394 42.843259759765 -99.693204497708
OMA0485 OMA7478 2021-04-13 17:10:24 38243 392 42.831064093703 -99.659657223187
OMA0485 OMA7478 2021-04-13 17:10:09 38237 390 42.818946131986 -99.62640465291
OMA0485 OMA7478 2021-04-13 17:09:54 38240 388 42.806865700002 -99.5933223115
OMA0485 OMA7478 2021-04-13 17:09:39 38235 388 42.79489197785 -99.560503039094
OMA0485 OMA7478 2021-04-13 17:09:24 38234 388 42.782801698057 -99.527447004585
OMA0485 OMA7478 2021-04-13 17:09:09 38233 392 42.770704110152 -99.494510445025
OMA0485 OMA7478 2021-04-13 17:08:54 38234 396 42.758404734564 -99.461077576172
OMA0485 OMA7478 2021-04-13 17:08:39 38238 396 42.746119433762 -99.427635155727
OMA0485 OMA7478 2021-04-13 17:08:24 38241 394 42.733777517017 -99.394036121178
OMA0485 OMA7478 2021-04-13 17:08:09 38238 390 42.72162204854 -99.360975657718
OMA0485 OMA7478 2021-04-13 17:07:54 38234 388 42.709464721777 -99.327962338571
OMA0485 OMA7478 2021-04-13 17:07:39 38234 392 42.697317734239 -99.295058035647
OMA0485 OMA7478 2021-04-13 17:07:24 38234 392 42.685055703599 -99.261849949387
OMA0485 OMA7478 2021-04-13 17:07:09 38233 392 42.672866667731 -99.228893459548
OMA0485 OMA7478 2021-04-13 17:06:54 38229 392 42.660585815533 -99.19573365152
OMA0485 OMA7478 2021-04-13 17:06:39 38230 392 42.648344967168 -99.162769677822
OMA0485 OMA7478 2021-04-13 17:06:24 38230 394 42.635990041476 -99.129476347599
OMA0485 OMA7478 2021-04-13 17:06:09 38229 390 42.623756302272 -99.096523006051
OMA0485 OMA7478 2021-04-13 17:05:54 38228 388 42.611493649432 -99.063507258985
OMA0485 OMA7478 2021-04-13 17:05:39 38227 388 42.599379160255 -99.03087694403
OMA0485 OMA7478 2021-04-13 17:05:24 38231 390 42.587185534274 -98.998016005553
OMA0485 OMA7478 2021-04-13 17:05:09 38231 388 42.575058188796 -98.965290436056
OMA0485 OMA7478 2021-04-13 17:04:54 38229 386 42.56292232388 -98.932503870519
OMA0485 OMA7478 2021-04-13 17:04:39 38227 384 42.550972499886 -98.900157815497
OMA0485 OMA7478 2021-04-13 17:04:24 38228 384 42.539016365957 -98.867672568691
OMA0485 OMA7478 2021-04-13 17:04:09 38229 386 42.52716238219 -98.835134948207
OMA0485 OMA7478 2021-04-13 17:03:54 38229 386 42.515367481313 -98.802233206604
OMA0485 OMA7478 2021-04-13 17:03:39 38230 384 42.503920206964 -98.769599336482
OMA0485 OMA7478 2021-04-13 17:03:24 38229 382 42.49257451377 -98.736676143815
OMA0485 OMA7478 2021-04-13 17:03:09 38227 384 42.480965705659 -98.704321591078
OMA0485 OMA7478 2021-04-13 17:02:54 38228 386 42.467863270871 -98.672478635517
OMA0485 OMA7478 2021-04-13 17:02:39 38228 388 42.454500336245 -98.6407814007
OMA0485 OMA7478 2021-04-13 17:02:24 38228 388 42.441071858397 -98.60898665667
OMA0485 OMA7478 2021-04-13 17:02:09 38229 388 42.427694933822 -98.577375794139
OMA0485 OMA7478 2021-04-13 17:01:54 38228 388 42.414236865368 -98.545601060429
OMA0485 OMA7478 2021-04-13 17:01:39 38226 390 42.400815246716 -98.513989130681
OMA0485 OMA7478 2021-04-13 17:01:24 38231 392 42.387220844173 -98.481995617475
OMA0485 OMA7478 2021-04-13 17:01:09 38231 390 42.373731449076 -98.450243668849
OMA0485 OMA7478 2021-04-13 17:00:54 38228 386 42.360227408026 -98.418402420836
OMA0485 OMA7478 2021-04-13 17:00:39 38229 386 42.346887248695 -98.387017301393
OMA0485 OMA7478 2021-04-13 17:00:24 38231 386 42.333450486772 -98.355454570352
OMA0485 OMA7478 2021-04-13 17:00:09 38229 386 42.320003853098 -98.323947067793
OMA0485 OMA7478 2021-04-13 16:59:54 38230 388 42.306433133656 -98.29220277645
OMA0485 OMA7478 2021-04-13 16:59:39 38233 390 42.292945699059 -98.260680733058
OMA0485 OMA7478 2021-04-13 16:59:24 38236 390 42.279287467504 -98.228735031176
OMA0485 OMA7478 2021-04-13 16:59:09 38237 388 42.265869871648 -98.197365919989
OMA0485 OMA7478 2021-04-13 16:58:54 38238 386 42.252305661657 -98.165731885508
OMA0485 OMA7478 2021-04-13 16:58:39 38238 386 42.238871634555 -98.134464253323
OMA0485 OMA7478 2021-04-13 16:58:24 38238 386 42.225362192153 -98.103042314892
OMA0485 OMA7478 2021-04-13 16:58:09 38238 388 42.211863522231 -98.071655814737
OMA0485 OMA7478 2021-04-13 16:57:54 38237 388 42.198252126789 -98.040068754482
OMA0485 OMA7478 2021-04-13 16:57:39 38239 388 42.18462480833 -98.008442816677
OMA0485 OMA7478 2021-04-13 16:57:24 38235 388 42.171076976381 -97.977014005534
OMA0485 OMA7478 2021-04-13 16:57:09 38240 388 42.157431330187 -97.94542353352
OMA0485 OMA7478 2021-04-13 16:56:54 38235 390 42.143822881344 -97.913977556024
OMA0485 OMA7478 2021-04-13 16:56:39 38232 388 42.13015677177 -97.882408341639
OMA0485 OMA7478 2021-04-13 16:56:24 38227 388 42.116609519813 -97.851146765911
OMA0485 OMA7478 2021-04-13 16:56:09 38228 388 42.102996766398 -97.819752121556
OMA0485 OMA7478 2021-04-13 16:55:54 38219 388 42.08938816367 -97.788327208258
OMA0485 OMA7478 2021-04-13 16:55:39 38218 388 42.075748211028 -97.756933390996
OMA0485 OMA7478 2021-04-13 16:55:24 38212 388 42.062201209957 -97.72575451125
OMA0485 OMA7478 2021-04-13 16:55:09 38212 388 42.048518297635 -97.694264884577
OMA0485 OMA7478 2021-04-13 16:54:54 38212 388 42.034911946393 -97.66296460889
OMA0485 OMA7478 2021-04-13 16:54:39 38210 388 42.02115500207 -97.631408673611
OMA0485 OMA7478 2021-04-13 16:54:24 38211 388 42.007529202992 -97.600250898083
OMA0485 OMA7478 2021-04-13 16:54:09 38211 388 41.993798716256 -97.568876637573
OMA0485 OMA7478 2021-04-13 16:53:54 38209 388 41.98011487081 -97.537644423655
OMA0485 OMA7478 2021-04-13 16:53:39 38212 390 41.966324533046 -97.506204956183
OMA0485 OMA7478 2021-04-13 16:53:24 38210 388 41.952653339825 -97.475016017917
OMA0485 OMA7478 2021-04-13 16:53:09 38211 388 41.938911403115 -97.443733804879
OMA0485 OMA7478 2021-04-13 16:52:54 38210 388 41.925226174217 -97.412629576966
OMA0485 OMA7478 2021-04-13 16:52:39 38208 390 41.911423785133 -97.38128055614
OMA0485 OMA7478 2021-04-13 16:52:24 38211 390 41.897673712221 -97.350075609617
OMA0485 OMA7478 2021-04-13 16:52:09 38210 390 41.883797536666 -97.318652097041
OMA0485 OMA7478 2021-04-13 16:51:54 38212 390 41.870013275199 -97.287458302936
OMA0485 OMA7478 2021-04-13 16:51:39 38210 390 41.856161825171 -97.256138710621
OMA0485 OMA7478 2021-04-13 16:51:24 38211 390 41.842361965734 -97.224970743169
OMA0485 OMA7478 2021-04-13 16:51:09 38210 388 41.828498008724 -97.193675243279
OMA0485 OMA7478 2021-04-13 16:50:54 38208 388 41.814758974552 -97.162696853598
OMA0485 OMA7478 2021-04-13 16:50:39 38206 388 41.800921895672 -97.131540572173
OMA0485 OMA7478 2021-04-13 16:50:24 38206 388 41.787169593587 -97.100634986705
OMA0485 OMA7478 2021-04-13 16:50:09 38205 386 41.773316285404 -97.069480652951
OMA0485 OMA7478 2021-04-13 16:49:54 38208 386 41.759598992313 -97.038668992589
OMA0485 OMA7478 2021-04-13 16:49:39 38206 384 41.745820399741 -97.007745195229
OMA0485 OMA7478 2021-04-13 16:49:24 38212 384 41.732152238062 -96.9771332537
OMA0485 OMA7478 2021-04-13 16:49:09 38214 386 41.718336482549 -96.946203852617
OMA0485 OMA7478 2021-04-13 16:48:54 38220 386 41.704605541312 -96.915486674315
OMA0485 OMA7478 2021-04-13 16:48:39 38222 384 41.690791291086 -96.884606515294
OMA0485 OMA7478 2021-04-13 16:48:24 38222 384 41.677080395062 -96.854001451479
OMA0485 OMA7478 2021-04-13 16:48:09 38224 386 41.663239324923 -96.823138134477
OMA0485 OMA7478 2021-04-13 16:47:54 38223 386 41.649447951005 -96.792398067704
OMA0485 OMA7478 2021-04-13 16:47:39 38221 386 41.635554470944 -96.761435899722
OMA0485 OMA7478 2021-04-13 16:47:24 38220 386 41.621781166216 -96.73075597063
OMA0485 OMA7478 2021-04-13 16:47:09 38219 386 41.607918612224 -96.699878739786
OMA0485 OMA7478 2021-04-13 16:46:54 38220 386 41.594142682777 -96.669238724612
OMA0485 OMA7478 2021-04-13 16:46:39 38220 386 41.58019920054 -96.638327068271
OMA0485 OMA7478 2021-04-13 16:46:24 38220 386 41.566380910045 -96.607731982936
OMA0485 OMA7478 2021-04-13 16:46:09 38220 386 41.552446820088 -96.576910540863
OMA0485 OMA7478 2021-04-13 16:45:54 38219 386 41.538597741874 -96.546312680764
OMA0485 OMA7478 2021-04-13 16:45:39 38221 386 41.524667996335 -96.515562315346
OMA0485 OMA7478 2021-04-13 16:45:24 38219 384 41.510854988265 -96.485085584383
OMA0485 OMA7478 2021-04-13 16:45:09 38219 384 41.496920831838 -96.454410404408
OMA0485 OMA7478 2021-04-13 16:44:54 38216 384 41.483121021438 -96.424037166818
OMA0485 OMA7478 2021-04-13 16:44:39 38215 384 41.46919694976 -96.39345125955
OMA0485 OMA7478 2021-04-13 16:44:24 38214 386 41.455325959493 -96.363011881184
OMA0485 OMA7478 2021-04-13 16:44:09 38213 386 41.441303258377 -96.332290277266
OMA0485 OMA7478 2021-04-13 16:43:54 38216 388 41.427336682599 -96.301691563393
OMA0485 OMA7478 2021-04-13 16:43:39 38218 388 41.41327262664 -96.270915958293
OMA0485 OMA7478 2021-04-13 16:43:24 38209 386 41.399308920582 -96.240361880773
OMA0485 OMA7478 2021-04-13 16:43:09 38212 384 41.385285655309 -96.20971310108
OMA0485 OMA7478 2021-04-13 16:42:54 38214 384 41.371396396716 -96.179384993432
OMA0485 OMA7478 2021-04-13 16:42:39 38214 382 41.357436844092 -96.148918107546
OMA0485 OMA7478 2021-04-13 16:42:24 38216 384 41.343562180916 -96.118681153575
OMA0485 OMA7478 2021-04-13 16:42:09 38216 384 41.329601513405 -96.088268242191
OMA0485 OMA7478 2021-04-13 16:41:54 38215 384 41.315693079843 -96.057997630863
OMA0485 OMA7478 2021-04-13 16:41:39 38219 386 41.301672071385 -96.027515105244
OMA0485 OMA7478 2021-04-13 16:41:24 38219 386 41.287544586049 -95.996754847433
OMA0485 OMA7478 2021-04-13 16:41:09 38218 384 41.273607642853 -95.966403253298
OMA0485 OMA7478 2021-04-13 16:40:54 38215 384 41.259626106132 -95.935920212414
OMA0485 OMA7478 2021-04-13 16:40:39 38212 384 41.245752112292 -95.905621940153
OMA0485 OMA7478 2021-04-13 16:40:24 38210 384 41.231831190307 -95.875096810896
OMA0485 OMA7478 2021-04-13 16:40:09 38209 386 41.218055491447 -95.844637595632
OMA0485 OMA7478 2021-04-13 16:39:54 38207 384 41.204343542283 -95.813894780776
OMA0485 OMA7478 2021-04-13 16:39:39 38203 384 41.191011922443 -95.78324269271
OMA0485 OMA7478 2021-04-13 16:39:24 38200 382 41.178073729807 -95.752114665856
OMA0485 OMA7478 2021-04-13 16:39:09 38200 380 41.166117638849 -95.720860440586
OMA0485 OMA7478 2021-04-13 16:38:54 38201 379 41.155409738822 -95.688664769788
OMA0485 OMA7478 2021-04-13 16:38:39 38203 380 41.145359825964 -95.656365178729
OMA0485 OMA7478 2021-04-13 16:38:24 38201 380 41.13521887225 -95.623843758858
OMA0485 OMA7478 2021-04-13 16:38:09 38202 379 41.125153686869 -95.591606760079
OMA0485 OMA7478 2021-04-13 16:37:54 38203 380 41.115022889949 -95.559204075853
OMA0485 OMA7478 2021-04-13 16:37:39 38205 379 41.104904188067 -95.526832020755
OMA0485 OMA7478 2021-04-13 16:37:24 38207 379 41.094754326099 -95.494400308224
OMA0485 OMA7478 2021-04-13 16:37:09 38209 380 41.08466627451 -95.462235186515
OMA0485 OMA7478 2021-04-13 16:36:54 38212 380 41.074470307153 -95.429762519529
OMA0485 OMA7478 2021-04-13 16:36:39 38214 382 41.064270797782 -95.39734406717
OMA0485 OMA7478 2021-04-13 16:36:24 38217 382 41.053987324256 -95.364697470485
OMA0485 OMA7478 2021-04-13 16:36:09 38219 384 41.043748269227 -95.332232487463
OMA0485 OMA7478 2021-04-13 16:35:54 38219 384 41.033401913005 -95.299448006333
OMA0485 OMA7478 2021-04-13 16:35:39 38220 382 41.023148689216 -95.267005274786
OMA0485 OMA7478 2021-04-13 16:35:24 38220 384 41.012815354122 -95.234369030107
OMA0485 OMA7478 2021-04-13 16:35:09 38219 384 41.002504111946 -95.201844829878
OMA0485 OMA7478 2021-04-13 16:34:54 38220 384 40.992113452098 -95.16909488656
OMA0485 OMA7478 2021-04-13 16:34:39 38220 384 40.981776335542 -95.136567858206
OMA0485 OMA7478 2021-04-13 16:34:24 38219 386 40.971348476412 -95.103799138539
OMA0485 OMA7478 2021-04-13 16:34:09 38221 386 40.960969544413 -95.071210751874
OMA0485 OMA7478 2021-04-13 16:33:54 38223 384 40.950543222555 -95.038479291422
OMA0485 OMA7478 2021-04-13 16:33:39 38226 384 40.940173928795 -95.005974109751
OMA0485 OMA7478 2021-04-13 16:33:24 38227 384 40.929741753032 -94.973307517337
OMA0485 OMA7478 2021-04-13 16:33:09 38231 386 40.919349975112 -94.940836201048
OMA0485 OMA7478 2021-04-13 16:32:54 38234 386 40.908834286386 -94.908022731636
OMA0485 OMA7478 2021-04-13 16:32:39 38235 386 40.898407006331 -94.875489333329
OMA0485 OMA7478 2021-04-13 16:32:24 38237 384 40.887905973647 -94.842766857511
OMA0485 OMA7478 2021-04-13 16:32:09 38236 384 40.877483650901 -94.810312640041
OMA0485 OMA7478 2021-04-13 16:31:54 38233 384 40.866988734586 -94.777650101801
OMA0485 OMA7478 2021-04-13 16:31:39 38227 384 40.856575677638 -94.745239200003
OMA0485 OMA7478 2021-04-13 16:31:24 38221 384 40.846102800971 -94.712654128381
OMA0485 OMA7478 2021-04-13 16:31:09 38217 384 40.835696980577 -94.680300536138
OMA0485 OMA7478 2021-04-13 16:30:54 38212 384 40.825119695571 -94.647530107848
OMA0485 OMA7478 2021-04-13 16:30:39 38207 384 40.81462824233 -94.615130145024
OMA0485 OMA7478 2021-04-13 16:30:24 38202 384 40.804068234007 -94.582564763557
OMA0485 OMA7478 2021-04-13 16:30:09 38201 384 40.793490572604 -94.549990364106
OMA0485 OMA7478 2021-04-13 16:29:54 38202 384 40.782964614964 -94.517606943147
OMA0485 OMA7478 2021-04-13 16:29:39 38201 384 40.772385640965 -94.485105114455
OMA0485 OMA7478 2021-04-13 16:29:24 38201 384 40.76188000469 -94.452826654294
OMA0485 OMA7478 2021-04-13 16:29:09 38201 384 40.751309453198 -94.42039160671
OMA0485 OMA7478 2021-04-13 16:28:54 38201 384 40.74078615105 -94.388168455073
OMA0485 OMA7478 2021-04-13 16:28:39 38201 384 40.730163697087 -94.355669000939
OMA0485 OMA7478 2021-04-13 16:28:24 38202 384 40.7196012605 -94.323389126715
OMA0485 OMA7478 2021-04-13 16:28:09 38203 384 40.708947520013 -94.290866247167
OMA0485 OMA7478 2021-04-13 16:27:54 38205 384 40.698350550688 -94.258559212269
OMA0485 OMA7478 2021-04-13 16:27:39 38205 384 40.687684332231 -94.226085157902
OMA0485 OMA7478 2021-04-13 16:27:24 38207 384 40.67708978272 -94.193866381854
OMA0485 OMA7478 2021-04-13 16:27:09 38208 384 40.666416159172 -94.161444007473
OMA0485 OMA7478 2021-04-13 16:26:54 38209 384 40.655814745139 -94.129277685144
OMA0485 OMA7478 2021-04-13 16:26:39 38210 384 40.645130888789 -94.096912767061
OMA0485 OMA7478 2021-04-13 16:26:24 38211 384 40.63449318357 -94.064724626813
OMA0485 OMA7478 2021-04-13 16:26:09 38211 384 40.623793894727 -94.032360909349
OMA0485 OMA7478 2021-04-13 16:25:54 38211 384 40.61313993354 -94.000181002866
OMA0485 OMA7478 2021-04-13 16:25:39 38211 384 40.602430519078 -93.967876843266
OMA0485 OMA7478 2021-04-13 16:25:24 38210 384 40.591792739319 -93.935809682077
OMA0485 OMA7478 2021-04-13 16:25:09 38211 384 40.581078044277 -93.903543548273
OMA0485 OMA7478 2021-04-13 16:24:54 38211 384 40.570404774986 -93.871434095273
OMA0485 OMA7478 2021-04-13 16:24:39 38211 384 40.55968387812 -93.839193134451
OMA0485 OMA7478 2021-04-13 16:24:24 38210 384 40.549032013814 -93.807187014743
OMA0485 OMA7478 2021-04-13 16:24:09 38210 384 40.538285121505 -93.774923015372
OMA0485 OMA7478 2021-04-13 16:23:54 38209 384 40.527590755048 -93.742839615809
OMA0485 OMA7478 2021-04-13 16:23:39 38211 386 40.516816725273 -93.710528632208
OMA0485 OMA7478 2021-04-13 16:23:24 38211 386 40.506079288796 -93.678331974234
OMA0485 OMA7478 2021-04-13 16:23:09 38211 386 40.495242634553 -93.645949506024
OMA0485 OMA7478 2021-04-13 16:22:54 38210 384 40.484471492278 -93.613863838624
OMA0485 OMA7478 2021-04-13 16:22:39 38210 384 40.473623889877 -93.581585698628
OMA0485 OMA7478 2021-04-13 16:22:24 38211 384 40.462852266357 -93.549572175101
OMA0485 OMA7478 2021-04-13 16:22:09 38210 384 40.452017903221 -93.517411695786
OMA0485 OMA7478 2021-04-13 16:21:54 38210 384 40.44125537317 -93.485500625097
OMA0485 OMA7478 2021-04-13 16:21:39 38210 384 40.430394026163 -93.453327339177
OMA0485 OMA7478 2021-04-13 16:21:24 38210 384 40.419604189558 -93.421400953923
OMA0485 OMA7478 2021-04-13 16:21:09 38210 384 40.408719935016 -93.389236525904
OMA0485 OMA7478 2021-04-13 16:20:54 38209 384 40.397878823142 -93.357225830503
OMA0485 OMA7478 2021-04-13 16:20:39 38210 386 40.38696082026 -93.3250574271
OMA0485 OMA7478 2021-04-13 16:20:24 38211 386 40.376071944799 -93.29299363765
OMA0485 OMA7478 2021-04-13 16:20:09 38211 386 40.365110785106 -93.260736948717
OMA0485 OMA7478 2021-04-13 16:19:54 38211 384 40.354254937648 -93.228817420333
OMA0485 OMA7478 2021-04-13 16:19:39 38211 384 40.343336469329 -93.196750762737
OMA0485 OMA7478 2021-04-13 16:19:24 38210 382 40.33249912119 -93.164958820152
OMA0485 OMA7478 2021-04-13 16:19:09 38210 384 40.321569456995 -93.132954181207
OMA0485 OMA7478 2021-04-13 16:18:54 38210 386 40.310658870414 -93.101041923239
OMA0485 OMA7478 2021-04-13 16:18:39 38210 386 40.299643245793 -93.068860806614
OMA0485 OMA7478 2021-04-13 16:18:24 38210 388 40.288620185661 -93.036708714957
OMA0485 OMA7478 2021-04-13 16:18:09 38209 390 40.277489106086 -93.004267402475
OMA0485 OMA7478 2021-04-13 16:17:54 38208 392 40.266348963553 -92.971844849668
OMA0485 OMA7478 2021-04-13 16:17:39 38207 394 40.255104986952 -92.93916333164
OMA0485 OMA7478 2021-04-13 16:17:24 38207 396 40.243833611194 -92.906432731632
OMA0485 OMA7478 2021-04-13 16:17:09 38205 396 40.232484624666 -92.873500667724
OMA0485 OMA7478 2021-04-13 16:16:54 38203 396 40.221101873383 -92.84051069395
OMA0485 OMA7478 2021-04-13 16:16:39 38202 396 40.209823084744 -92.807869940278
OMA0485 OMA7478 2021-04-13 16:16:24 38202 396 40.198421177913 -92.774920080526
OMA0485 OMA7478 2021-04-13 16:16:09 38201 396 40.187080993845 -92.742202380504
OMA0485 OMA7478 2021-04-13 16:15:54 38202 398 40.175625087497 -92.709271103668
OMA0485 OMA7478 2021-04-13 16:15:39 38202 398 40.164119792983 -92.676570745923
OMA0485 OMA7478 2021-04-13 16:15:24 38201 398 40.152182560002 -92.644082783307
OMA0485 OMA7478 2021-04-13 16:15:09 38202 400 40.139143654628 -92.612173740331
OMA0485 OMA7478 2021-04-13 16:14:54 38205 400 40.125488974944 -92.580347406676
OMA0485 OMA7478 2021-04-13 16:14:39 38197 402 40.11177599018 -92.548838249931
OMA0485 OMA7478 2021-04-13 16:14:24 38201 408 40.095092186542 -92.518880720066
OMA0485 OMA7478 2021-04-13 16:14:09 38200 406 40.077935888634 -92.48965887628
OMA0485 OMA7478 2021-04-13 16:13:54 38201 406 40.060664201431 -92.460277430183
OMA0485 OMA7478 2021-04-13 16:13:39 38201 408 40.04349941048 -92.431109160693
OMA0485 OMA7478 2021-04-13 16:13:24 38201 408 40.026216612553 -92.40176922934
OMA0485 OMA7478 2021-04-13 16:13:09 38202 408 40.009003850654 -92.372572972083
OMA0485 OMA7478 2021-04-13 16:12:54 38201 408 39.991668519812 -92.343193740461
OMA0485 OMA7478 2021-04-13 16:12:39 38201 406 39.974474641538 -92.314082407002
OMA0485 OMA7478 2021-04-13 16:12:24 38202 406 39.95716037951 -92.284795009408
OMA0485 OMA7478 2021-04-13 16:12:09 38201 406 39.939952240635 -92.255700831462
OMA0485 OMA7478 2021-04-13 16:11:54 38201 406 39.922651153456 -92.226477600294
OMA0485 OMA7478 2021-04-13 16:11:39 38201 406 39.905511289588 -92.197555337677
OMA0485 OMA7478 2021-04-13 16:11:24 38201 406 39.888242793088 -92.168450540921
OMA0485 OMA7478 2021-04-13 16:11:10 38201 406 39.871029037418 -92.139466046209
OMA0485 OMA7478 2021-04-13 16:10:54 38202 406 39.853704375683 -92.110325737806
OMA0485 OMA7478 2021-04-13 16:10:39 38202 408 39.83644431104 -92.08131599674
OMA0485 OMA7478 2021-04-13 16:10:24 38203 406 39.819026879175 -92.05206071571
OMA0485 OMA7478 2021-04-13 16:10:09 38202 406 39.801818746465 -92.023177516572
OMA0485 OMA7478 2021-04-13 16:09:54 38202 406 39.784493841225 -91.994129338183
OMA0485 OMA7478 2021-04-13 16:09:39 38201 406 39.76727194201 -91.965291246474
OMA0485 OMA7478 2021-04-13 16:09:24 38202 406 39.749884639925 -91.936207700679
OMA0485 OMA7478 2021-04-13 16:09:09 38201 408 39.732597747006 -91.907313379138
OMA0485 OMA7478 2021-04-13 16:08:54 38202 408 39.715178738638 -91.878214738891
OMA0485 OMA7478 2021-04-13 16:08:39 38201 406 39.697881271143 -91.849337659575
OMA0485 OMA7478 2021-04-13 16:08:24 38201 406 39.680480042674 -91.820316932844
OMA0485 OMA7478 2021-04-13 16:08:09 38202 406 39.663209452448 -91.791532768114
OMA0485 OMA7478 2021-04-13 16:07:54 38201 406 39.645811080167 -91.762550287773
OMA0485 OMA7478 2021-04-13 16:07:39 38201 406 39.628538482654 -91.73379593842
OMA0485 OMA7478 2021-04-13 16:07:24 38201 406 39.611120557134 -91.704815712576
OMA0485 OMA7478 2021-04-13 16:07:09 38201 408 39.593801444247 -91.676021796149
OMA0485 OMA7478 2021-04-13 16:06:54 38202 408 39.576269505824 -91.646932466295
OMA0485 OMA7478 2021-04-13 16:06:39 38201 408 39.558893247688 -91.61814860839
OMA0485 OMA7478 2021-04-13 16:06:24 38201 408 39.541377123928 -91.589158350705
OMA0485 OMA7478 2021-04-13 16:06:09 38201 408 39.524001340699 -91.560432976295
OMA0485 OMA7478 2021-04-13 16:05:54 38202 408 39.506456388181 -91.53145584538
OMA0485 OMA7478 2021-04-13 16:05:39 38202 408 39.489016656242 -91.502676576508
OMA0485 OMA7478 2021-04-13 16:05:24 38201 408 39.471468416643 -91.473738452377
OMA0485 OMA7478 2021-04-13 16:05:09 38202 408 39.454020143151 -91.444991760305
OMA0485 OMA7478 2021-04-13 16:04:54 38201 408 39.436494362472 -91.41614221519
OMA0485 OMA7478 2021-04-13 16:04:39 38201 406 39.419075564687 -91.387497148863
OMA0485 OMA7478 2021-04-13 16:04:24 38201 408 39.401525384843 -91.358666413448
OMA0485 OMA7478 2021-04-13 16:04:09 38202 408 39.384099705748 -91.330065449866
OMA0485 OMA7478 2021-04-13 16:03:54 38201 408 39.366467919872 -91.301142320134
OMA0485 OMA7478 2021-04-13 16:03:39 38202 408 39.348958144578 -91.272447121286
OMA0485 OMA7478 2021-04-13 16:03:24 38201 408 39.331356310385 -91.243624363319
OMA0485 OMA7478 2021-04-13 16:03:09 38202 408 39.313898250054 -91.21506614178
OMA0485 OMA7478 2021-04-13 16:02:54 38200 408 39.29627403925 -91.186260365904
OMA0485 OMA7478 2021-04-13 16:02:39 38199 408 39.27879792806 -91.157726543615
OMA0485 OMA7478 2021-04-13 16:02:24 38198 408 39.261578236056 -91.129637497375
OMA0485 OMA7478 2021-04-13 16:02:09 38197 410 39.244008406796 -91.101000308444
OMA0485 OMA7478 2021-04-13 16:01:54 38196 410 39.226292948028 -91.072157853652
OMA0485 OMA7478 2021-04-13 16:01:39 38195 410 39.208657942918 -91.043461027297
OMA0485 OMA7478 2021-04-13 16:01:24 38193 410 39.19090325582 -91.014595537292
OMA0485 OMA7478 2021-04-13 16:01:09 38190 410 39.173289031126 -90.985979954504
OMA0485 OMA7478 2021-04-13 16:00:54 38187 412 39.155489149777 -90.957108072869
OMA0485 OMA7478 2021-04-13 16:00:39 38187 412 39.137775120066 -90.928401721602
OMA0485 OMA7478 2021-04-13 16:00:24 38187 414 39.119864302435 -90.899399451056
OMA0485 OMA7478 2021-04-13 16:00:10 38185 414 39.10200661065 -90.870511752931
OMA0485 OMA7478 2021-04-13 15:59:54 38185 412 39.084049109171 -90.841485650093
OMA0485 OMA7478 2021-04-13 15:59:39 38183 412 39.066230521291 -90.81268631754
OMA0485 OMA7478 2021-04-13 15:59:24 38182 412 39.048370239913 -90.783839400447
OMA0485 OMA7478 2021-04-13 15:59:09 38183 412 39.030585727137 -90.755136037388
OMA0485 OMA7478 2021-04-13 15:58:54 38183 412 39.012717339691 -90.726304021313
OMA0485 OMA7478 2021-04-13 15:58:39 38183 412 38.994922783233 -90.697599991243
OMA0485 OMA7478 2021-04-13 15:58:24 38184 412 38.977053096333 -90.668782169155
OMA0485 OMA7478 2021-04-13 15:58:09 38184 412 38.959232668622 -90.640131518873
OMA0485 OMA7478 2021-04-13 15:57:54 38184 410 38.941267494341 -90.611450380609
OMA0485 OMA7478 2021-04-13 15:57:39 38184 412 38.923092217899 -90.58332072676
OMA0485 OMA7478 2021-04-13 15:57:24 38183 415 38.903366957969 -90.556414103659
OMA0485 OMA7478 2021-04-13 15:57:09 38182 419 38.881475124978 -90.532119174142
OMA0485 OMA7478 2021-04-13 15:56:54 38181 425 38.857253705565 -90.510389567628
OMA0485 OMA7478 2021-04-13 15:56:39 38180 431 38.831297798079 -90.491758946006
OMA0485 OMA7478 2021-04-13 15:56:24 38177 439 38.803481207105 -90.476313060168
OMA0485 OMA7478 2021-04-13 15:56:09 38174 447 38.774244262955 -90.464732421069
OMA0485 OMA7478 2021-04-13 15:55:54 38175 450 38.743502065552 -90.457250482442
OMA0485 OMA7478 2021-04-13 15:55:39 38175 450 38.71265008258 -90.45072300939
OMA0485 OMA7478 2021-04-13 15:55:24 38177 450 38.681687327978 -90.444178620948
OMA0485 OMA7478 2021-04-13 15:55:09 38178 450 38.65087728377 -90.437674359868
OMA0485 OMA7478 2021-04-13 15:54:54 38179 450 38.619866685827 -90.431132399345
OMA0485 OMA7478 2021-04-13 15:54:39 38180 450 38.589098142923 -90.424648895636
OMA0485 OMA7478 2021-04-13 15:54:24 38180 450 38.558049343317 -90.418112057755
OMA0485 OMA7478 2021-04-13 15:54:09 38181 450 38.527124612771 -90.411607289746
OMA0485 OMA7478 2021-04-13 15:53:54 38180 450 38.496012773223 -90.405063141428
OMA0485 OMA7478 2021-04-13 15:53:39 38180 450 38.465220866468 -90.398591830674
OMA0485 OMA7478 2021-04-13 15:53:24 38180 450 38.434184368808 -90.39207358905
OMA0485 OMA7478 2021-04-13 15:53:09 38179 450 38.403459833521 -90.385625116741
OMA0485 OMA7478 2021-04-13 15:52:54 38178 450 38.37249682807 -90.379136170225
OMA0485 OMA7478 2021-04-13 15:52:39 38179 450 38.341727311797 -90.372697249509
OMA0485 OMA7478 2021-04-13 15:52:24 38178 452 38.310669642792 -90.366197950988
OMA0485 OMA7478 2021-04-13 15:52:09 38179 452 38.279816187908 -90.359740620778
OMA0485 OMA7478 2021-04-13 15:51:54 38178 450 38.248778534646 -90.353241428978
OMA0485 OMA7478 2021-04-13 15:51:39 38180 450 38.217965909816 -90.346789114688
OMA0485 OMA7478 2021-04-13 15:51:24 38180 450 38.187010718004 -90.340303022978
OMA0485 OMA7478 2021-04-13 15:51:09 38181 450 38.156238914703 -90.333855804649
OMA0485 OMA7478 2021-04-13 15:50:54 38182 450 38.125263014687 -90.327362482543
OMA0485 OMA7478 2021-04-13 15:50:39 38183 450 38.09438787102 -90.320881380073
OMA0485 OMA7478 2021-04-13 15:50:24 38183 452 38.063330887849 -90.314343555016
OMA0485 OMA7478 2021-04-13 15:50:09 38183 452 38.032529707023 -90.307836092284
OMA0485 OMA7478 2021-04-13 15:49:54 38183 452 38.001460252644 -90.301251496439
OMA0485 OMA7478 2021-04-13 15:49:39 38183 450 37.970637855978 -90.294692353722
OMA0485 OMA7478 2021-04-13 15:49:24 38183 450 37.939640586014 -90.288034920313
OMA0485 OMA7478 2021-04-13 15:49:09 38183 450 37.908958456389 -90.281363826526
OMA0485 OMA7478 2021-04-13 15:48:54 38182 450 37.878072263488 -90.274524646052
OMA0485 OMA7478 2021-04-13 15:48:39 38184 450 37.847366746553 -90.267539870491
OMA0485 OMA7478 2021-04-13 15:48:24 38183 450 37.816607210248 -90.260248003222
OMA0485 OMA7478 2021-04-13 15:48:09 38183 449 37.786078265556 -90.25258997378
OMA0485 OMA7478 2021-04-13 15:47:54 38183 447 37.755564432716 -90.244284410389
OMA0485 OMA7478 2021-04-13 15:47:39 38183 445 37.725313473582 -90.23496984663
OMA0485 OMA7478 2021-04-13 15:47:24 38183 441 37.695933712014 -90.224131990603
OMA0485 OMA7478 2021-04-13 15:47:09 38182 435 37.667283528087 -90.210728904956
OMA0485 OMA7478 2021-04-13 15:46:54 38183 431 37.640162281761 -90.19472952033
OMA0485 OMA7478 2021-04-13 15:46:39 38182 427 37.613839690136 -90.176754463467
OMA0485 OMA7478 2021-04-13 15:46:24 38181 425 37.588572940627 -90.157457871721
OMA0485 OMA7478 2021-04-13 15:46:09 38178 423 37.564234248996 -90.136468820463
OMA0485 OMA7478 2021-04-13 15:45:54 38174 423 37.540188687301 -90.115271234993
OMA0485 OMA7478 2021-04-13 15:45:39 38169 423 37.516034796238 -90.093995042315
OMA0485 OMA7478 2021-04-13 15:45:24 38162 423 37.492000425831 -90.072844927994
OMA0485 OMA7478 2021-04-13 15:45:09 38155 423 37.467793831292 -90.051564646541
OMA0485 OMA7478 2021-04-13 15:44:54 38150 423 37.443703450531 -90.030405527575
OMA0485 OMA7478 2021-04-13 15:44:39 38146 423 37.419434705577 -90.009102370159
OMA0485 OMA7478 2021-04-13 15:44:24 38147 423 37.395370271026 -89.987997098963
OMA0485 OMA7478 2021-04-13 15:44:09 38147 423 37.371145176875 -89.966762965477
OMA0485 OMA7478 2021-04-13 15:43:54 38146 421 37.347133704125 -89.945737225298
OMA0485 OMA7478 2021-04-13 15:43:39 38147 421 37.322982682587 -89.924615095409
OMA0485 OMA7478 2021-04-13 15:43:24 38147 423 37.298959822069 -89.903633874856
OMA0485 OMA7478 2021-04-13 15:43:09 38146 423 37.274766149696 -89.882533833025
OMA0485 OMA7478 2021-04-13 15:42:54 38145 423 37.250671553915 -89.861563378025
OMA0485 OMA7478 2021-04-13 15:42:39 38145 425 37.226309782899 -89.840400810614
OMA0485 OMA7478 2021-04-13 15:42:24 38148 427 37.202052997597 -89.819343697588
OMA0485 OMA7478 2021-04-13 15:42:09 38151 423 37.177623923522 -89.798106278241
OMA0485 OMA7478 2021-04-13 15:41:54 38138 417 37.15375910213 -89.777176230747
OMA0485 OMA7478 2021-04-13 15:41:39 38110 415 37.129930228262 -89.756231722461
OMA0485 OMA7478 2021-04-13 15:41:24 38113 414 37.105642066161 -89.735096342405
OMA0485 OMA7478 2021-04-13 15:41:09 38116 412 37.08289690273 -89.715305655841
OMA0485 OMA7478 2021-04-13 15:40:54 38118 410 37.059534568121 -89.694977251963
OMA0485 OMA7478 2021-04-13 15:40:39 38121 408 37.036116495075 -89.674596847934
OMA0485 OMA7478 2021-04-13 15:40:24 38124 408 37.012886820206 -89.654387945686
OMA0485 OMA7478 2021-04-13 15:40:09 38126 406 36.989631802066 -89.63418647953
OMA0485 OMA7478 2021-04-13 15:39:54 38128 404 36.966571277881 -89.614154868716
OMA0485 OMA7478 2021-04-13 15:39:39 38128 404 36.94340346525 -89.59401429504
OMA0485 OMA7478 2021-04-13 15:39:24 38128 404 36.920426771257 -89.574021904453
OMA0485 OMA7478 2021-04-13 15:39:09 38128 404 36.897277364485 -89.553876048052
OMA0485 OMA7478 2021-04-13 15:38:54 38129 406 36.87423183232 -89.5339384057
OMA0485 OMA7478 2021-04-13 15:38:39 38127 406 36.850967280751 -89.513881608563
OMA0485 OMA7478 2021-04-13 15:38:24 38126 404 36.827884912279 -89.493999461498
OMA0485 OMA7478 2021-04-13 15:38:09 38126 406 36.804681483587 -89.474032630759
OMA0485 OMA7478 2021-04-13 15:37:54 38126 406 36.781530885317 -89.454122202441
OMA0485 OMA7478 2021-04-13 15:37:39 38125 406 36.758305524532 -89.434154971496
OMA0485 OMA7478 2021-04-13 15:37:24 38126 404 36.735200166666 -89.414308843006
OMA0485 OMA7478 2021-04-13 15:37:09 38126 404 36.711954752489 -89.394358367369
OMA0485 OMA7478 2021-04-13 15:36:54 38126 404 36.688925518963 -89.374610076003
OMA0485 OMA7478 2021-04-13 15:36:39 38127 404 36.665635434108 -89.354654931291
OMA0485 OMA7478 2021-04-13 15:36:24 38126 406 36.642536032428 -89.334879505931
OMA0485 OMA7478 2021-04-13 15:36:09 38118 406 36.619252121794 -89.314954696864
OMA0485 OMA7478 2021-04-13 15:35:54 38109 406 36.596116243393 -89.295164970796
OMA0485 OMA7478 2021-04-13 15:35:39 38099 404 36.572859893056 -89.275288613383
OMA0485 OMA7478 2021-04-13 15:35:24 38091 404 36.549799890673 -89.255597124645
OMA0485 OMA7478 2021-04-13 15:35:09 38081 404 36.526534905692 -89.23573941685
OMA0485 OMA7478 2021-04-13 15:34:54 38077 406 36.503386057272 -89.215995981322
OMA0485 OMA7478 2021-04-13 15:34:39 38073 406 36.480099999927 -89.196139367424
OMA0485 OMA7478 2021-04-13 15:34:24 38073 406 36.456924139018 -89.176382324879
OMA0485 OMA7478 2021-04-13 15:34:09 38073 406 36.433639733248 -89.156536449853
OMA0485 OMA7478 2021-04-13 15:33:54 38073 406 36.410285997338 -89.136624487411
OMA0485 OMA7478 2021-04-13 15:33:39 38073 404 36.387202051312 -89.116933305498
OMA0485 OMA7478 2021-04-13 15:33:24 38073 404 36.364080487814 -89.097197120376
OMA0485 OMA7478 2021-04-13 15:33:09 38073 404 36.340845902343 -89.077339099086
OMA0485 OMA7478 2021-04-13 15:32:54 38073 404 36.31767432453 -89.057511253358
OMA0485 OMA7478 2021-04-13 15:32:39 38073 406 36.294589547161 -89.037801902075
OMA0485 OMA7478 2021-04-13 15:32:24 38074 406 36.271263413725 -89.018040714058
OMA0485 OMA7478 2021-04-13 15:32:09 38074 406 36.248021276185 -88.998364954474
OMA0485 OMA7478 2021-04-13 15:31:54 38073 404 36.224695721397 -88.978627551014
OMA0485 OMA7478 2021-04-13 15:31:39 38073 404 36.201593979108 -88.959099156388
OMA0485 OMA7478 2021-04-13 15:31:24 38073 404 36.178310306114 -88.939435211855
OMA0485 OMA7478 2021-04-13 15:31:09 38071 406 36.155125820018 -88.919872829701
OMA0485 OMA7478 2021-04-13 15:30:54 38073 408 36.131704699806 -88.900120683014
OMA0485 OMA7478 2021-04-13 15:30:39 38072 408 36.108359049235 -88.880431308699
OMA0485 OMA7478 2021-04-13 15:30:24 38071 406 36.084818917968 -88.860610673357
OMA0485 OMA7478 2021-04-13 15:30:09 38073 408 36.061523230027 -88.841022758035
OMA0485 OMA7478 2021-04-13 15:29:54 38074 408 36.037963018624 -88.821218491134
OMA0485 OMA7478 2021-04-13 15:29:39 38073 408 36.014597246864 -88.801567476603
OMA0485 OMA7478 2021-04-13 15:29:24 38068 406 35.991094161904 -88.781830310975
OMA0485 OMA7478 2021-04-13 15:29:09 38065 408 35.967735814177 -88.762256803083
OMA0485 OMA7478 2021-04-13 15:28:54 38063 410 35.944183949451 -88.742512193616
OMA0485 OMA7478 2021-04-13 15:28:39 38060 410 35.920731765277 -88.722833804967
OMA0485 OMA7478 2021-04-13 15:28:24 38060 410 35.897145593248 -88.703068784974
OMA0485 OMA7478 2021-04-13 15:28:09 38058 408 35.8737098687 -88.683420651929
OMA0485 OMA7478 2021-04-13 15:27:54 38059 406 35.850244288093 -88.663750694295
OMA0485 OMA7478 2021-04-13 15:27:39 38059 408 35.826822072126 -88.644170135024
OMA0485 OMA7478 2021-04-13 15:27:24 38056 408 35.803295360275 -88.624522668989
OMA0485 OMA7478 2021-04-13 15:27:09 38056 410 35.779856919732 -88.604981444413
OMA0485 OMA7478 2021-04-13 15:26:54 38056 410 35.756217063216 -88.585266743704
OMA0485 OMA7478 2021-04-13 15:26:39 38053 410 35.732758217085 -88.565706042416
OMA0485 OMA7478 2021-04-13 15:26:24 38048 408 35.709138025895 -88.546010071367
OMA0485 OMA7478 2021-04-13 15:26:09 38046 408 35.685739152835 -88.526498088538
OMA0485 OMA7478 2021-04-13 15:25:54 38044 408 35.662198225317 -88.506879704168
OMA0485 OMA7478 2021-04-13 15:25:39 38041 408 35.638842513907 -88.487403099585
OMA0485 OMA7478 2021-04-13 15:25:24 38041 408 35.615345473781 -88.467796187799
OMA0485 OMA7478 2021-04-13 15:25:09 38041 408 35.591939984993 -88.448239061688
OMA0485 OMA7478 2021-04-13 15:24:54 38041 408 35.568410973596 -88.428628307921
OMA0485 OMA7478 2021-04-13 15:24:39 38040 406 35.545070786598 -88.409304208655
OMA0485 OMA7478 2021-04-13 15:24:24 38040 408 35.52155922576 -88.389873467724
OMA0485 OMA7478 2021-04-13 15:24:09 38039 410 35.498083255257 -88.370494620224
OMA0485 OMA7478 2021-04-13 15:23:54 38039 410 35.474403061942 -88.350953609091
OMA0485 OMA7478 2021-04-13 15:23:39 38037 408 35.450908940102 -88.331573747734
OMA0485 OMA7478 2021-04-13 15:23:24 38033 408 35.42727194226 -88.312093834777
OMA0485 OMA7478 2021-04-13 15:23:09 38031 408 35.403821714081 -88.292797856681
OMA0485 OMA7478 2021-04-13 15:22:54 38029 410 35.380206239584 -88.273381016253
OMA0485 OMA7478 2021-04-13 15:22:39 38027 410 35.356677481073 -88.254035439244
OMA0485 OMA7478 2021-04-13 15:22:24 38027 410 35.332981925885 -88.234561769507
OMA0485 OMA7478 2021-04-13 15:22:09 38028 410 35.309434159032 -88.215222288975
OMA0485 OMA7478 2021-04-13 15:21:54 38028 408 35.285782855779 -88.1958049683
OMA0485 OMA7478 2021-04-13 15:21:39 38027 408 35.26232226544 -88.17656324485
OMA0485 OMA7478 2021-04-13 15:21:24 38028 408 35.238760609695 -88.157258368832
OMA0485 OMA7478 2021-04-13 15:21:09 38027 408 35.215307946239 -88.138051996948
OMA0485 OMA7478 2021-04-13 15:20:54 38027 408 35.191721468798 -88.118746974187
OMA0485 OMA7478 2021-04-13 15:20:39 38028 408 35.16824864794 -88.099541135911
OMA0485 OMA7478 2021-04-13 15:20:24 38027 408 35.144632093073 -88.080235886367
OMA0485 OMA7478 2021-04-13 15:20:09 38028 408 35.120960594623 -88.060888775233
OMA0485 OMA7478 2021-04-13 15:19:54 38030 408 35.097471730547 -88.041677587532
OMA0485 OMA7478 2021-04-13 15:19:39 38033 408 35.073962045812 -88.022454388636
OMA0485 OMA7478 2021-04-13 15:19:24 38034 408 35.050332798592 -88.003111346059
OMA0485 OMA7478 2021-04-13 15:19:09 38036 406 35.026750514198 -87.983818309688
OMA0485 OMA7478 2021-04-13 15:18:54 38037 406 35.003374194587 -87.964776150826
OMA0485 OMA7478 2021-04-13 15:18:39 38039 406 34.979868769072 -87.94564879636
OMA0485 OMA7478 2021-04-13 15:18:24 38041 404 34.956524969108 -87.926678346147
OMA0485 OMA7478 2021-04-13 15:18:09 38040 404 34.933093569137 -87.907642969116
OMA0485 OMA7478 2021-04-13 15:17:54 38043 404 34.909839999265 -87.888754167677
OMA0485 OMA7478 2021-04-13 15:17:39 38045 404 34.886480770104 -87.86979657076
OMA0485 OMA7478 2021-04-13 15:17:24 38046 404 34.863200602654 -87.850917647749
OMA0485 OMA7478 2021-04-13 15:17:09 38046 402 34.83983928205 -87.831997917026
OMA0485 OMA7478 2021-04-13 15:16:54 38046 402 34.816739446886 -87.813280463957
OMA0485 OMA7478 2021-04-13 15:16:39 38046 402 34.793431603277 -87.794381530627
OMA0485 OMA7478 2021-04-13 15:16:24 38046 402 34.770351277111 -87.775654112418
OMA0485 OMA7478 2021-04-13 15:16:09 38045 402 34.747058235341 -87.756747748589
OMA0485 OMA7478 2021-04-13 15:15:54 38045 402 34.723887244624 -87.737945972032
OMA0485 OMA7478 2021-04-13 15:15:39 38045 404 34.700540636419 -87.718980511058
OMA0485 OMA7478 2021-04-13 15:15:24 38047 404 34.677330263093 -87.700094370992
OMA0485 OMA7478 2021-04-13 15:15:09 38046 404 34.653903355701 -87.681121626262
OMA0485 OMA7478 2021-04-13 15:14:54 38047 402 34.630726330903 -87.662419394376
OMA0485 OMA7478 2021-04-13 15:14:39 38045 402 34.607351605182 -87.643610806564
OMA0485 OMA7478 2021-04-13 15:14:24 38045 404 34.584116372501 -87.624945820553
OMA0485 OMA7478 2021-04-13 15:14:09 38046 404 34.560654075119 -87.606114882289
OMA0485 OMA7478 2021-04-13 15:13:54 38047 404 34.53734303527 -87.587414571394
OMA0485 OMA7478 2021-04-13 15:13:39 38047 402 34.513908758588 -87.568587154946
OMA0485 OMA7478 2021-04-13 15:13:24 38046 402 34.490697121507 -87.549983213751
OMA0485 OMA7478 2021-04-13 15:13:09 38046 402 34.467382358157 -87.531318334462
OMA0485 OMA7478 2021-04-13 15:12:54 38046 402 34.444202224549 -87.512766046572
OMA0485 OMA7478 2021-04-13 15:12:39 38044 402 34.420845920573 -87.494091722412
OMA0485 OMA7478 2021-04-13 15:12:24 38048 402 34.397697250351 -87.475586018547
OMA0485 OMA7478 2021-04-13 15:12:09 38050 402 34.374267194692 -87.456860414607
OMA0485 OMA7478 2021-04-13 15:11:54 38052 404 34.351015857486 -87.438309860945
OMA0485 OMA7478 2021-04-13 15:11:39 38057 404 34.327524156909 -87.419560404704
OMA0485 OMA7478 2021-04-13 15:11:24 38058 404 34.304048037275 -87.400840243571
OMA0485 OMA7478 2021-04-13 15:11:09 38060 404 34.280730104369 -87.382256979707
OMA0485 OMA7478 2021-04-13 15:10:54 38064 402 34.257310816513 -87.363593140954
OMA0485 OMA7478 2021-04-13 15:10:39 38066 402 34.234028670172 -87.345069454482
OMA0485 OMA7478 2021-04-13 15:10:24 38067 402 34.210614446489 -87.326452519919
OMA0485 OMA7478 2021-04-13 15:10:09 38068 402 34.187364498133 -87.307973283037
OMA0485 OMA7478 2021-04-13 15:09:54 38066 402 34.163937811288 -87.289351172471
OMA0485 OMA7478 2021-04-13 15:09:39 38066 402 34.140686572825 -87.270877191633
OMA0485 OMA7478 2021-04-13 15:09:24 38066 402 34.117251158805 -87.252251132364
OMA0485 OMA7478 2021-04-13 15:09:09 38065 402 34.093900837069 -87.23369727033
OMA0485 OMA7478 2021-04-13 15:08:54 38065 402 34.070482254173 -87.215096864291
OMA0485 OMA7478 2021-04-13 15:08:39 38064 402 34.047232844419 -87.196615252851
OMA0485 OMA7478 2021-04-13 15:08:24 38065 402 34.023856714393 -87.178050251738
OMA0485 OMA7478 2021-04-13 15:08:09 38064 402 34.00060679898 -87.159667744742
OMA0485 OMA7478 2021-04-13 15:07:54 38063 402 33.977218115498 -87.141205970199
OMA0485 OMA7478 2021-04-13 15:07:39 38064 402 33.953944898699 -87.122844634122
OMA0485 OMA7478 2021-04-13 15:07:24 38066 404 33.930498421623 -87.104350609613
OMA0485 OMA7478 2021-04-13 15:07:09 38069 404 33.907133987503 -87.085923326192
OMA0485 OMA7478 2021-04-13 15:06:54 38068 402 33.88363131799 -87.067383771535
OMA0485 OMA7478 2021-04-13 15:06:39 38069 402 33.860320698893 -87.049008084723
OMA0485 OMA7478 2021-04-13 15:06:24 38070 404 33.836840823998 -87.030486075783
OMA0485 OMA7478 2021-04-13 15:06:09 38068 404 33.813477845106 -87.012047412326
OMA0485 OMA7478 2021-04-13 15:05:54 38071 404 33.789874120325 -86.993408828681
OMA0485 OMA7478 2021-04-13 15:05:39 38070 406 33.766447309293 -86.974872456083
OMA0485 OMA7478 2021-04-13 15:05:24 38071 406 33.742868173167 -86.956157692733
OMA0485 OMA7478 2021-04-13 15:05:09 38072 406 33.719478825592 -86.93748094399
OMA0485 OMA7478 2021-04-13 15:04:54 38074 406 33.69597444744 -86.918502803143
OMA0485 OMA7478 2021-04-13 15:04:39 38073 406 33.67283937923 -86.899225921562
OMA0485 OMA7478 2021-04-13 15:04:24 38073 404 33.650221834921 -86.878924998523
OMA0485 OMA7478 2021-04-13 15:04:09 38072 404 33.628109877549 -86.858432069795
OMA0485 OMA7478 2021-04-13 15:03:54 38074 404 33.605789818916 -86.837763610542
OMA0485 OMA7478 2021-04-13 15:03:39 38073 404 33.583599257796 -86.817233195815
OMA0485 OMA7478 2021-04-13 15:03:24 38073 404 33.561343037449 -86.796648152915
OMA0485 OMA7478 2021-04-13 15:03:09 38073 402 33.539241355136 -86.776214548116
OMA0485 OMA7478 2021-04-13 15:02:54 38073 404 33.516944454759 -86.755625489811
OMA0485 OMA7478 2021-04-13 15:02:39 38072 404 33.494744397141 -86.735132387661
OMA0485 OMA7478 2021-04-13 15:02:24 38073 406 33.473068571516 -86.715138156124
OMA0485 OMA7478 2021-04-13 15:02:09 38073 406 33.450704002017 -86.694495616905
OMA0485 OMA7478 2021-04-13 15:01:54 38072 406 33.42821272774 -86.673742380596
OMA0485 OMA7478 2021-04-13 15:01:39 38072 404 33.40589077469 -86.653168303352
OMA0485 OMA7478 2021-04-13 15:01:24 38070 404 33.383487871266 -86.632567724697
OMA0485 OMA7478 2021-04-13 15:01:09 38069 404 33.361321633269 -86.612205810203
OMA0485 OMA7478 2021-04-13 15:00:54 38069 404 33.339043901876 -86.591758038097
OMA0485 OMA7478 2021-04-13 15:00:39 38068 404 33.316827121753 -86.571368322599
OMA0485 OMA7478 2021-04-13 15:00:24 38068 404 33.294529790012 -86.55092225804
OMA0485 OMA7478 2021-04-13 15:00:09 38067 404 33.272374848168 -86.530622082053
OMA0485 OMA7478 2021-04-13 14:59:54 38069 406 33.249987118809 -86.510115986535
OMA0485 OMA7478 2021-04-13 14:59:39 38072 406 33.227702391832 -86.489717946744
OMA0485 OMA7478 2021-04-13 14:59:24 38070 404 33.205335371503 -86.469265372161
OMA0485 OMA7478 2021-04-13 14:59:09 38072 404 33.183112243497 -86.448955377777
OMA0485 OMA7478 2021-04-13 14:58:54 38073 404 33.160710494441 -86.428490236714
OMA0485 OMA7478 2021-04-13 14:58:39 38073 404 33.138470919718 -86.408195716977
OMA0485 OMA7478 2021-04-13 14:58:24 38074 404 33.116058884164 -86.387754241452
OMA0485 OMA7478 2021-04-13 14:58:09 38072 404 33.093711588028 -86.36739808993
OMA0485 OMA7478 2021-04-13 14:57:54 38074 402 33.071352273541 -86.347023021986
OMA0485 OMA7478 2021-04-13 14:57:39 38073 402 33.049226058642 -86.326871082449
OMA0485 OMA7478 2021-04-13 14:57:24 38073 400 33.027010362624 -86.306653615784
OMA0485 OMA7478 2021-04-13 14:57:09 38073 400 33.004960104394 -86.286599993618
OMA0485 OMA7478 2021-04-13 14:56:54 38073 400 32.982788842675 -86.266450081793
OMA0485 OMA7478 2021-04-13 14:56:39 38073 400 32.960758665553 -86.246439548515
OMA0485 OMA7478 2021-04-13 14:56:24 38073 400 32.938588973604 -86.226317090849
OMA0485 OMA7478 2021-04-13 14:56:09 38073 400 32.916569026583 -86.206347031778
OMA0485 OMA7478 2021-04-13 14:55:54 38074 400 32.894418793999 -86.186271024734
OMA0485 OMA7478 2021-04-13 14:55:39 38073 400 32.872421730669 -86.16634265383
OMA0485 OMA7478 2021-04-13 14:55:24 38073 400 32.850245775352 -86.146265739652
OMA0485 OMA7478 2021-04-13 14:55:09 38073 400 32.828261275697 -86.126378069738
OMA0485 OMA7478 2021-04-13 14:54:54 38072 400 32.806109533798 -86.106350841184
OMA0485 OMA7478 2021-04-13 14:54:39 38070 400 32.784092731806 -86.086458995783
OMA0485 OMA7478 2021-04-13 14:54:24 38069 400 32.761940012276 -86.066455319376
OMA0485 OMA7478 2021-04-13 14:54:09 38067 400 32.739800879994 -86.046476342373
OMA0485 OMA7478 2021-04-13 14:53:54 38067 400 32.717789751581 -86.026626875494
OMA0485 OMA7478 2021-04-13 14:53:39 38067 400 32.695631524817 -86.006656403711
OMA0485 OMA7478 2021-04-13 14:53:24 38068 400 32.673587279092 -85.98680320741
OMA0485 OMA7478 2021-04-13 14:53:09 38069 400 32.651454810716 -85.96688197352
OMA0485 OMA7478 2021-04-13 14:52:54 38071 398 32.629409231883 -85.947049708847
OMA0485 OMA7478 2021-04-13 14:52:39 38073 398 32.607225447056 -85.927106947187
OMA0485 OMA7478 2021-04-13 14:52:24 38074 400 32.585208405323 -85.907328793754
OMA0485 OMA7478 2021-04-13 14:52:09 38075 400 32.563030150402 -85.887415844136
OMA0485 OMA7478 2021-04-13 14:51:54 38075 398 32.541011298184 -85.8676568806
OMA0485 OMA7478 2021-04-13 14:51:39 38076 398 32.518863483402 -85.847795637649
OMA0485 OMA7478 2021-04-13 14:51:24 38077 398 32.496790766582 -85.82801402243
OMA0485 OMA7478 2021-04-13 14:51:09 38076 398 32.474631211965 -85.808162824659
OMA0485 OMA7478 2021-04-13 14:50:54 38076 398 32.452570109086 -85.788410611271
OMA0485 OMA7478 2021-04-13 14:50:39 38076 398 32.430364240936 -85.768539189737
OMA0485 OMA7478 2021-04-13 14:50:24 38076 398 32.408362146179 -85.748859867273
OMA0485 OMA7478 2021-04-13 14:50:09 38078 400 32.386144410656 -85.728997650487
OMA0485 OMA7478 2021-04-13 14:49:54 38080 400 32.364107167055 -85.709301546035
OMA0485 OMA7478 2021-04-13 14:49:39 38082 400 32.341854323824 -85.689417878185
OMA0485 OMA7478 2021-04-13 14:49:24 38082 400 32.319763507368 -85.66968402093
OMA0485 OMA7478 2021-04-13 14:49:09 38080 400 32.297469609383 -85.649795916383
OMA0485 OMA7478 2021-04-13 14:48:54 38079 400 32.275364336497 -85.630110884308
OMA0485 OMA7478 2021-04-13 14:48:39 38078 400 32.253116434008 -85.610310592791
OMA0485 OMA7478 2021-04-13 14:48:24 38077 400 32.231005030676 -85.590645571036
OMA0485 OMA7478 2021-04-13 14:48:09 38076 400 32.208762932882 -85.570878416609
OMA0485 OMA7478 2021-04-13 14:47:54 38074 400 32.186655344658 -85.551241355941
OMA0485 OMA7478 2021-04-13 14:47:39 38074 400 32.164400069243 -85.531483326219
OMA0485 OMA7478 2021-04-13 14:47:24 38073 400 32.142250870462 -85.511829830408
OMA0485 OMA7478 2021-04-13 14:47:09 38073 400 32.120031017749 -85.49213017746
OMA0485 OMA7478 2021-04-13 14:46:54 38073 400 32.097843947037 -85.472475347628
OMA0485 OMA7478 2021-04-13 14:46:39 38073 400 32.075543209693 -85.452730871563
OMA0485 OMA7478 2021-04-13 14:46:24 38073 400 32.053401218166 -85.433135859247
OMA0485 OMA7478 2021-04-13 14:46:09 38073 400 32.031083969262 -85.413397626402
OMA0485 OMA7478 2021-04-13 14:45:54 38074 400 32.008922361661 -85.39380915079
OMA0485 OMA7478 2021-04-13 14:45:39 38073 400 31.986622803746 -85.37410816382
OMA0485 OMA7478 2021-04-13 14:45:24 38073 400 31.964418978794 -85.354503199706
OMA0485 OMA7478 2021-04-13 14:45:09 38073 400 31.942299387752 -85.334987294854
OMA0485 OMA7478 2021-04-13 14:44:54 38073 400 31.920034796123 -85.315354769858
OMA0485 OMA7478 2021-04-13 14:44:39 38073 400 31.897886509436 -85.295839985585
OMA0485 OMA7478 2021-04-13 14:44:24 38073 400 31.875587943549 -85.276205379516
OMA0485 OMA7478 2021-04-13 14:44:09 38073 400 31.853423838913 -85.256699559865
OMA0485 OMA7478 2021-04-13 14:43:54 38074 400 31.83105514519 -85.237022131712
OMA0485 OMA7478 2021-04-13 14:43:39 38073 400 31.808723042014 -85.217382763187
OMA0485 OMA7478 2021-04-13 14:43:24 38073 400 31.786521752098 -85.197862949653
OMA0485 OMA7478 2021-04-13 14:43:09 38073 400 31.764234648392 -85.178270231854
OMA0485 OMA7478 2021-04-13 14:42:54 38073 398 31.742115539867 -85.15882360273
OMA0485 OMA7478 2021-04-13 14:42:39 38073 398 31.719933797884 -85.139319037059
OMA0485 OMA7478 2021-04-13 14:42:24 38073 398 31.697924645233 -85.119961013631
OMA0485 OMA7478 2021-04-13 14:42:09 38074 396 31.675762201799 -85.100452866114
OMA0485 OMA7478 2021-04-13 14:41:54 38075 398 31.653779720668 -85.081075452686
OMA0485 OMA7478 2021-04-13 14:41:39 38075 398 31.63165102484 -85.06151926039
OMA0485 OMA7478 2021-04-13 14:41:24 38077 396 31.60971992071 -85.042066011185
OMA0485 OMA7478 2021-04-13 14:41:09 38078 394 31.587746652155 -85.022534773426
OMA0485 OMA7478 2021-04-13 14:40:54 38078 392 31.56590681278 -85.003368082631
OMA0485 OMA7478 2021-04-13 14:40:39 38074 388 31.544115594427 -84.984431854442
OMA0485 OMA7478 2021-04-13 14:40:24 38067 390 31.522473965968 -84.965683035196
OMA0485 OMA7478 2021-04-13 14:40:09 38074 398 31.500419819097 -84.946554603508
OMA0485 OMA7478 2021-04-13 14:39:54 38064 402 31.478132803046 -84.927185787847
OMA0485 OMA7478 2021-04-13 14:39:39 38064 402 31.45561730487 -84.90768700516
OMA0485 OMA7478 2021-04-13 14:39:24 38064 402 31.43325246369 -84.888330088969
OMA0485 OMA7478 2021-04-13 14:39:09 38064 402 31.410739147189 -84.8688556455
OMA0485 OMA7478 2021-04-13 14:38:54 38064 402 31.388338570704 -84.849490111532
OMA0485 OMA7478 2021-04-13 14:38:39 38064 402 31.365829674902 -84.830041521396
OMA0485 OMA7478 2021-04-13 14:38:24 38064 402 31.343449630962 -84.81071486081
OMA0485 OMA7478 2021-04-13 14:38:09 38064 402 31.320919209677 -84.791268565191
OMA0485 OMA7478 2021-04-13 14:37:54 38064 402 31.298540309394 -84.771961728161
OMA0485 OMA7478 2021-04-13 14:37:39 38064 402 31.276018579785 -84.75254035206
OMA0485 OMA7478 2021-04-13 14:37:24 38064 402 31.253640948314 -84.733251257514
OMA0485 OMA7478 2021-04-13 14:37:09 38064 402 31.231060918201 -84.713796103993
OMA0485 OMA7478 2021-04-13 14:36:54 38064 402 31.208657396489 -84.694498178226
OMA0485 OMA7478 2021-04-13 14:36:39 38064 402 31.186074182724 -84.67505020174
OMA0485 OMA7478 2021-04-13 14:36:24 38065 402 31.16366165519 -84.655765055897
OMA0485 OMA7478 2021-04-13 14:36:09 38064 402 31.141059064144 -84.636355171313
OMA0485 OMA7478 2021-04-13 14:35:54 38064 402 31.118600302893 -84.617083205601
OMA0485 OMA7478 2021-04-13 14:35:39 38064 402 31.095981375466 -84.597685681801
OMA0485 OMA7478 2021-04-13 14:35:24 38064 402 31.073530618283 -84.57844445194
OMA0485 OMA7478 2021-04-13 14:35:09 38064 402 31.050924630569 -84.559079851787
OMA0485 OMA7478 2021-04-13 14:34:54 38064 402 31.028451746888 -84.539839795864
OMA0485 OMA7478 2021-04-13 14:34:39 38064 402 31.005823451456 -84.520478504084
OMA0485 OMA7478 2021-04-13 14:34:24 38064 402 30.983404143452 -84.501307016857
OMA0485 OMA7478 2021-04-13 14:34:09 38064 402 30.960828737678 -84.482013066474
OMA0485 OMA7478 2021-04-13 14:33:54 38064 402 30.938410976475 -84.462864791218
OMA0485 OMA7478 2021-04-13 14:33:39 38064 402 30.915873651213 -84.443626149358
OMA0485 OMA7478 2021-04-13 14:33:24 38064 402 30.893464258332 -84.424509570449
OMA0485 OMA7478 2021-04-13 14:33:09 38064 402 30.870943050416 -84.405309188321
OMA0485 OMA7478 2021-04-13 14:32:54 38064 402 30.848520020791 -84.386203281582
OMA0485 OMA7478 2021-04-13 14:32:39 38064 402 30.825971675533 -84.367001992319
OMA0485 OMA7478 2021-04-13 14:32:24 38064 402 30.803544231448 -84.347914948642
OMA0485 OMA7478 2021-04-13 14:32:09 38064 402 30.780982297095 -84.328725025241
OMA0485 OMA7478 2021-04-13 14:31:54 38064 402 30.758580324628 -84.309681950907
OMA0485 OMA7478 2021-04-13 14:31:39 38064 402 30.736024113419 -84.290519294902
OMA0485 OMA7478 2021-04-13 14:31:24 38064 402 30.713620050746 -84.271497138022
OMA0485 OMA7478 2021-04-13 14:31:09 38064 402 30.691031611782 -84.252329519457
OMA0485 OMA7478 2021-04-13 14:30:54 38064 402 30.66856397168 -84.233275292705
OMA0485 OMA7478 2021-04-13 14:30:39 38064 402 30.646006076605 -84.214155498805
OMA0485 OMA7478 2021-04-13 14:30:24 38064 402 30.623564127424 -84.195145788344
OMA0485 OMA7478 2021-04-13 14:30:09 38064 402 30.600999658075 -84.176044070432
OMA0485 OMA7478 2021-04-13 14:29:54 38064 402 30.578542710165 -84.157044378472
OMA0485 OMA7478 2021-04-13 14:29:39 38064 402 30.555958238212 -84.137947729841
OMA0485 OMA7478 2021-04-13 14:29:24 38064 402 30.533507812666 -84.118975345297
OMA0485 OMA7478 2021-04-13 14:29:09 38064 402 30.510898063304 -84.099879717193
OMA0485 OMA7478 2021-04-13 14:28:54 38064 402 30.488469929633 -84.080948167041
OMA0485 OMA7478 2021-04-13 14:28:39 38064 402 30.465853474586 -84.061868760637
OMA0485 OMA7478 2021-04-13 14:28:24 38064 402 30.443364989725 -84.042907255036
OMA0485 OMA7478 2021-04-13 14:28:09 38064 402 30.420773814766 -84.023870212146
OMA0485 OMA7478 2021-04-13 14:27:54 38064 402 30.398288174589 -84.004931871826
OMA0485 OMA7478 2021-04-13 14:27:39 38064 402 30.375654806755 -83.985878423808
OMA0485 OMA7478 2021-04-13 14:27:24 38064 402 30.353197821064 -83.966981961753
OMA0485 OMA7478 2021-04-13 14:27:09 38064 402 30.330562656437 -83.947942916163
OMA0485 OMA7478 2021-04-13 14:26:54 38064 402 30.308091561702 -83.929048148314
OMA0485 OMA7478 2021-04-13 14:26:39 38064 402 30.285451380044 -83.910014778985
OMA0485 OMA7478 2021-04-13 14:26:24 38064 402 30.262856345794 -83.891020569852
OMA0485 OMA7478 2021-04-13 14:26:09 38064 402 30.24037256179 -83.872118448211
OMA0485 OMA7478 2021-04-13 14:25:54 38064 402 30.21793360474 -83.85324946366
OMA0485 OMA7478 2021-04-13 14:25:39 38064 402 30.195318761499 -83.834232829628
OMA0485 OMA7478 2021-04-13 14:25:24 38064 402 30.172646991777 -83.815215488565
OMA0485 OMA7478 2021-04-13 14:25:09 38064 402 30.150138250687 -83.79639255443
OMA0485 OMA7478 2021-04-13 14:24:54 38064 402 30.127500875842 -83.777468568179
OMA0485 OMA7478 2021-04-13 14:24:39 38064 400 30.10501451927 -83.758678664412
OMA0485 OMA7478 2021-04-13 14:24:24 38064 400 30.082338969518 -83.739737002378
OMA0485 OMA7478 2021-04-13 14:24:09 38064 400 30.059866604801 -83.720969029921
OMA0485 OMA7478 2021-04-13 14:23:54 38064 402 30.037263065631 -83.702092281366
OMA0485 OMA7478 2021-04-13 14:23:39 38064 402 30.014770025979 -83.683304938919
OMA0485 OMA7478 2021-04-13 14:23:24 38064 402 29.992097886983 -83.664366318455
OMA0485 OMA7478 2021-04-13 14:23:09 38064 402 29.969554103658 -83.645554689074
OMA0485 OMA7478 2021-04-13 14:22:54 38064 402 29.946911179016 -83.626666121089
OMA0485 OMA7478 2021-04-13 14:22:39 38064 402 29.924425499695 -83.607897775106
OMA0485 OMA7478 2021-04-13 14:22:24 38064 402 29.901779200257 -83.588980072096
OMA0485 OMA7478 2021-04-13 14:22:09 38064 402 29.879290466611 -83.57018653979
OMA0485 OMA7478 2021-04-13 14:21:54 38064 402 29.856625300036 -83.551312165792
OMA0485 OMA7478 2021-04-13 14:21:39 38064 402 29.83408910344 -83.532610894402
OMA0485 OMA7478 2021-04-13 14:21:24 38064 402 29.811418191177 -83.513807970586
OMA0485 OMA7478 2021-04-13 14:21:09 38064 402 29.788867519083 -83.495115343653
OMA0485 OMA7478 2021-04-13 14:20:54 38064 402 29.766171798913 -83.476313326972
OMA0485 OMA7478 2021-04-13 14:20:39 38064 402 29.743590770646 -83.457616484532
OMA0485 OMA7478 2021-04-13 14:20:24 38064 402 29.720880092279 -83.438823512515
OMA0485 OMA7478 2021-04-13 14:20:09 38064 402 29.698341213335 -83.420183099177
OMA0485 OMA7478 2021-04-13 14:19:54 38064 402 29.675620863393 -83.401402960446
OMA0485 OMA7478 2021-04-13 14:19:39 38064 402 29.653043200082 -83.382751608133
OMA0485 OMA7478 2021-04-13 14:19:24 38064 402 29.630314893267 -83.36398641044
OMA0485 OMA7478 2021-04-13 14:19:09 38064 402 29.607774069496 -83.34538591102
OMA0485 OMA7478 2021-04-13 14:18:54 38064 402 29.585051244277 -83.326645712887
OMA0485 OMA7478 2021-04-13 14:18:39 38064 402 29.56247377019 -83.30803670241
OMA0485 OMA7478 2021-04-13 14:18:24 38064 402 29.539725390393 -83.289297011205
OMA0485 OMA7478 2021-04-13 14:18:09 38064 402 29.517157866966 -83.270716041857
OMA0485 OMA7478 2021-04-13 14:17:54 38064 402 29.494417670916 -83.25200308444
OMA0485 OMA7478 2021-04-13 14:17:39 38064 402 29.471808844475 -83.233407494218
OMA0485 OMA7478 2021-04-13 14:17:24 38064 402 29.449087222433 -83.214727713911
OMA0485 OMA7478 2021-04-13 14:17:09 38064 402 29.426492199696 -83.196160258198
OMA0485 OMA7478 2021-04-13 14:16:54 38064 402 29.40374305316 -83.177473754424
OMA0485 OMA7478 2021-04-13 14:16:39 38064 402 29.381152589455 -83.158924054535
OMA0485 OMA7478 2021-04-13 14:16:24 38064 402 29.358418298261 -83.140262150114
OMA0485 OMA7478 2021-04-13 14:16:09 38064 402 29.335851490587 -83.12174153189
OMA0485 OMA7478 2021-04-13 14:15:54 38064 402 29.313083865346 -83.10305722925
OMA0485 OMA7478 2021-04-13 14:15:39 38064 402 29.29047729649 -83.084503980866
OMA0485 OMA7478 2021-04-13 14:15:24 38064 402 29.267728409573 -83.065839775257
OMA0485 OMA7478 2021-04-13 14:15:09 38064 402 29.244943760573 -83.047179294903
OMA0485 OMA7478 2021-04-13 14:14:54 38064 402 29.222297996287 -83.028636608632
OMA0485 OMA7478 2021-04-13 14:14:39 38063 400 29.199571965663 -83.010024228918
OMA0485 OMA7478 2021-04-13 14:14:24 38063 400 29.177056053821 -82.991575847115
OMA0485 OMA7478 2021-04-13 14:14:09 38061 400 29.154429322009 -82.973023782674
OMA0485 OMA7478 2021-04-13 14:13:54 38060 400 29.13198273795 -82.954600019401
OMA0485 OMA7478 2021-04-13 14:13:39 38059 400 29.109387367631 -82.93602509984
OMA0485 OMA7478 2021-04-13 14:13:24 38058 400 29.089368117297 -82.919547922138
OMA0485 OMA7478 2021-04-13 14:13:09 38057 400 29.066742033955 -82.900989150905
OMA0485 OMA7478 2021-04-13 14:12:54 38056 400 29.044144325036 -82.882599706998
OMA0485 OMA7478 2021-04-13 14:12:39 38055 400 29.02142580768 -82.864124272077
OMA0485 OMA7478 2021-04-13 14:12:24 38055 400 28.998792885894 -82.845726837382
OMA0485 OMA7478 2021-04-13 14:12:09 38055 400 28.976051003007 -82.827248320872
OMA0485 OMA7478 2021-04-13 14:11:54 38055 400 28.953438891368 -82.808883649741
OMA0485 OMA7478 2021-04-13 14:11:39 38055 400 28.930695324918 -82.790421515012
OMA0485 OMA7478 2021-04-13 14:11:24 38055 400 28.908106681722 -82.772092729055
OMA0485 OMA7478 2021-04-13 14:11:09 38055 400 28.885399179569 -82.753674883834
OMA0485 OMA7478 2021-04-13 14:10:54 38055 400 28.862826397325 -82.735374032283
OMA0485 OMA7478 2021-04-13 14:10:39 38055 400 28.840087153237 -82.716944954603
OMA0485 OMA7478 2021-04-13 14:10:24 38055 400 28.81743276339 -82.698590128549
OMA0485 OMA7478 2021-04-13 14:10:09 38055 402 28.794657774544 -82.680141574158
OMA0485 OMA7478 2021-04-13 14:09:54 38057 402 28.772019373242 -82.661810120158
OMA0485 OMA7478 2021-04-13 14:09:39 38058 402 28.74922337284 -82.643382742278
OMA0485 OMA7478 2021-04-13 14:09:24 38059 400 28.726548302817 -82.625069724453
OMA0485 OMA7478 2021-04-13 14:09:09 38060 400 28.703790071744 -82.606701104619
OMA0485 OMA7478 2021-04-13 14:08:54 38062 400 28.681126677313 -82.588419409614
OMA0485 OMA7478 2021-04-13 14:08:39 38064 400 28.658325435582 -82.570036222268
OMA0485 OMA7478 2021-04-13 14:08:24 38064 400 28.635724149817 -82.551824003093
OMA0485 OMA7478 2021-04-13 14:08:09 38064 400 28.612917786253 -82.533456717281
OMA0485 OMA7478 2021-04-13 14:07:54 38064 400 28.590301836436 -82.515252502235
OMA0485 OMA7478 2021-04-13 14:07:39 38064 400 28.56751780922 -82.496923049267
OMA0485 OMA7478 2021-04-13 14:07:24 38064 400 28.544858725909 -82.478703412934
OMA0485 OMA7478 2021-04-13 14:07:09 38064 400 28.522071742681 -82.460390128304
OMA0485 OMA7478 2021-04-13 14:06:54 38064 400 28.499428818069 -82.442203042092
OMA0485 OMA7478 2021-04-13 14:06:39 38064 400 28.476613987795 -82.423887996554
OMA0485 OMA7478 2021-04-13 14:06:24 38064 400 28.453957418462 -82.405709341356
OMA0485 OMA7478 2021-04-13 14:06:09 38064 400 28.431153513139 -82.387421429813
OMA0485 OMA7478 2021-04-13 14:05:54 38064 400 28.408483986841 -82.369250992186
OMA0485 OMA7478 2021-04-13 14:05:39 38064 400 28.385663831091 -82.350969137099
OMA0485 OMA7478 2021-04-13 14:05:24 38064 400 28.363005449941 -82.332825379899
OMA0485 OMA7478 2021-04-13 14:05:09 38064 400 28.340173200736 -82.314550248279
OMA0485 OMA7478 2021-04-13 14:04:54 38064 400 28.317533390921 -82.296436853405
OMA0485 OMA7478 2021-04-13 14:04:39 38064 400 28.294691168973 -82.278168712057
OMA0485 OMA7478 2021-04-13 14:04:24 38064 400 28.272046992782 -82.260064975497
OMA0485 OMA7478 2021-04-13 14:04:09 38064 400 28.249210033226 -82.241811108177
OMA0485 OMA7478 2021-04-13 14:03:54 38064 400 28.226533221938 -82.223687267915
OMA0485 OMA7478 2021-04-13 14:03:39 38064 400 28.203700444669 -82.205437696144
OMA0485 OMA7478 2021-04-13 14:03:24 38064 400 28.181040103694 -82.187321499825
OMA0485 OMA7478 2021-04-13 14:03:09 38064 400 28.158204835396 -82.169057760747
OMA0485 OMA7478 2021-04-13 14:02:54 38063 400 28.135537049466 -82.150925089264
OMA0485 OMA7478 2021-04-13 14:02:39 38062 400 28.112710579736 -82.132719593557
OMA0485 OMA7478 2021-04-13 14:02:24 38060 402 28.089847249991 -82.114825071561
OMA0485 OMA7478 2021-04-13 14:02:09 38058 404 28.06616199934 -82.097662373652
OMA0485 OMA7478 2021-04-13 14:01:54 38057 404 28.042174572468 -82.081381790672
OMA0485 OMA7478 2021-04-13 14:01:39 38056 404 28.017959362576 -82.064955879409
OMA0485 OMA7478 2021-04-13 14:01:24 38056 404 27.993954473455 -82.048680802602
OMA0485 OMA7478 2021-04-13 14:01:09 38057 404 27.9697632191 -82.032288005084
OMA0485 OMA7478 2021-04-13 14:00:54 38058 404 27.94575540725 -82.016027457437
OMA0485 OMA7478 2021-04-13 14:00:39 38058 404 27.921554276985 -81.999644171386
OMA0485 OMA7478 2021-04-13 14:00:24 38059 404 27.897511007953 -81.983375763122
OMA0485 OMA7478 2021-04-13 14:00:09 38060 404 27.873303464401 -81.967004283265
OMA0485 OMA7478 2021-04-13 13:59:54 38060 404 27.849298116198 -81.950776947746
OMA0485 OMA7478 2021-04-13 13:59:39 38061 404 27.825034040323 -81.934381365458
OMA0485 OMA7478 2021-04-13 13:59:24 38061 404 27.801039582645 -81.918174347083
OMA0485 OMA7478 2021-04-13 13:59:09 38062 404 27.776844293206 -81.901836888104
OMA0485 OMA7478 2021-04-13 13:58:54 38063 404 27.75281328458 -81.885614461784
OMA0485 OMA7478 2021-04-13 13:58:39 38063 404 27.72861968377 -81.869284573376
OMA0485 OMA7478 2021-04-13 13:58:24 38064 404 27.704592307629 -81.853066035728
OMA0485 OMA7478 2021-04-13 13:58:09 38064 404 27.680424317947 -81.836748220213
OMA0485 OMA7478 2021-04-13 13:57:54 38063 404 27.656414077743 -81.820529122276
OMA0485 OMA7478 2021-04-13 13:57:39 38062 404 27.63221902536 -81.804173633998
OMA0485 OMA7478 2021-04-13 13:57:24 38062 404 27.608218309665 -81.787944304118
OMA0485 OMA7478 2021-04-13 13:57:09 38061 404 27.584032512886 -81.771641563044
OMA0485 OMA7478 2021-04-13 13:56:54 38061 404 27.559957934136 -81.755465060407
OMA0485 OMA7478 2021-04-13 13:56:39 38060 404 27.535746980151 -81.739203180406
OMA0485 OMA7478 2021-04-13 13:56:24 38059 404 27.511697505439 -81.723056426445
OMA0485 OMA7478 2021-04-13 13:56:09 38057 404 27.48751296382 -81.706824028315
OMA0485 OMA7478 2021-04-13 13:55:54 38056 404 27.463271157236 -81.690556038497
OMA0485 OMA7478 2021-04-13 13:55:39 38056 406 27.439143119372 -81.674365848802
OMA0485 OMA7478 2021-04-13 13:55:24 38056 406 27.415070563956 -81.658220188738
OMA0485 OMA7478 2021-04-13 13:55:09 38055 406 27.390818206483 -81.641980739229
OMA0485 OMA7478 2021-04-13 13:54:54 38055 406 27.3665321686 -81.625728677625
OMA0485 OMA7478 2021-04-13 13:54:39 38055 406 27.342444567787 -81.609613700052
OMA0485 OMA7478 2021-04-13 13:54:24 38055 406 27.318192172331 -81.593390293226
OMA0485 OMA7478 2021-04-13 13:54:09 38055 406 27.294090146406 -81.577267258164
OMA0485 OMA7478 2021-04-13 13:53:54 38055 404 27.269831813414 -81.561037501397
OMA0485 OMA7478 2021-04-13 13:53:39 38055 404 27.245735583209 -81.544914039448
OMA0485 OMA7478 2021-04-13 13:53:24 38055 404 27.221549628638 -81.528720781504
OMA0485 OMA7478 2021-04-13 13:53:09 38055 404 27.197493757778 -81.512597426277
OMA0485 OMA7478 2021-04-13 13:52:54 38055 404 27.173315958055 -81.496361052764
OMA0485 OMA7478 2021-04-13 13:52:39 38055 404 27.149306160447 -81.480187431614
OMA0485 OMA7478 2021-04-13 13:52:24 38055 404 27.12520723547 -81.463873951668
OMA0485 OMA7478 2021-04-13 13:52:09 38055 404 27.101482812821 -81.447686510057
OMA0485 OMA7478 2021-04-13 13:51:54 38055 402 27.080131689808 -81.432936716544
OMA0485 OMA7478 2021-04-13 13:51:39 38055 402 27.056564786211 -81.416309981711
OMA0485 OMA7478 2021-04-13 13:51:24 38053 402 27.03309615311 -81.399151852825
OMA0485 OMA7478 2021-04-13 13:51:09 38051 400 27.010259574495 -81.381422736133
OMA0485 OMA7478 2021-04-13 13:50:54 38048 398 26.988140899511 -81.362446362865
OMA0485 OMA7478 2021-04-13 13:50:39 38045 396 26.967549995156 -81.341971003198
OMA0485 OMA7478 2021-04-13 13:50:24 38043 396 26.948421723683 -81.319649971671
OMA0485 OMA7478 2021-04-13 13:50:09 38042 394 26.930665948651 -81.296169302088
OMA0485 OMA7478 2021-04-13 13:49:54 38042 396 26.913576554901 -81.271986003476
OMA0485 OMA7478 2021-04-13 13:49:39 38042 396 26.896520236142 -81.247823969163
OMA0485 OMA7478 2021-04-13 13:49:24 38042 396 26.879368983019 -81.22353740396
OMA0485 OMA7478 2021-04-13 13:49:09 38042 396 26.862348223855 -81.199446432963
OMA0485 OMA7478 2021-04-13 13:48:54 38042 396 26.845195816313 -81.17518115874
OMA0485 OMA7478 2021-04-13 13:48:39 38042 396 26.828089006892 -81.150994018146
OMA0485 OMA7478 2021-04-13 13:48:24 38041 396 26.810975671201 -81.126812133596
OMA0485 OMA7478 2021-04-13 13:48:09 38041 396 26.793913927236 -81.102716186699
OMA0485 OMA7478 2021-04-13 13:47:54 38041 398 26.776712156223 -81.078435264406
OMA0485 OMA7478 2021-04-13 13:47:40 38041 398 26.759588242842 -81.054277172127
OMA0485 OMA7478 2021-04-13 13:47:26 38041 398 26.74234802188 -81.029968418814
OMA0485 OMA7478 2021-04-13 13:47:10 38041 398 26.725184378213 -81.0057822087
OMA0485 OMA7478 2021-04-13 13:46:56 38041 400 26.707868202589 -80.981395483508
OMA0485 OMA7478 2021-04-13 13:45:24 38036 402 26.603802519529 -80.83510696044
OMA0485 OMA7478 2021-04-13 13:45:09 38034 402 26.58630527238 -80.810551750023
OMA0485 OMA7478 2021-04-13 13:44:54 38033 402 26.569004301927 -80.786282620478
OMA0485 OMA7478 2021-04-13 13:44:39 38031 402 26.551492880889 -80.761727516783
OMA0485 OMA7478 2021-04-13 13:44:24 38031 402 26.534171992674 -80.737446434407
OMA0485 OMA7478 2021-04-13 13:44:09 38030 402 26.516713709082 -80.712978028758
OMA0485 OMA7478 2021-04-13 13:43:54 38029 402 26.499338257296 -80.688630245316
OMA0485 OMA7478 2021-04-13 13:43:39 38029 402 26.481851628731 -80.664139294706
OMA0485 OMA7478 2021-04-13 13:43:24 38027 402 26.464482559975 -80.639855216376
OMA0485 OMA7478 2021-04-13 13:43:09 38027 402 26.446969141531 -80.615389905656
OMA0485 OMA7478 2021-04-13 13:42:54 38027 402 26.429616711324 -80.591161783927
OMA0485 OMA7478 2021-04-13 13:42:39 38028 402 26.412101503332 -80.566718511239
OMA0485 OMA7478 2021-04-13 13:42:24 38028 402 26.394575815652 -80.542273424282
OMA0485 OMA7478 2021-04-13 13:42:09 38028 402 26.377179055489 -80.518019582622
OMA0485 OMA7478 2021-04-13 13:41:54 38028 402 26.359689548262 -80.493647333229
OMA0485 OMA7478 2021-04-13 13:41:39 38028 402 26.342304224964 -80.46943047064
OMA0485 OMA7478 2021-04-13 13:41:24 38028 402 26.324797292751 -80.445052858482
OMA0485 OMA7478 2021-04-13 13:41:09 38028 402 26.30726252785 -80.420642616162
OMA0485 OMA7478 2021-04-13 13:40:54 38028 402 26.289827779434 -80.396375861175
OMA0485 OMA7478 2021-04-13 13:40:39 38028 402 26.272399146535 -80.372118631101
OMA0485 OMA7478 2021-04-13 13:40:24 38027 402 26.25486233577 -80.347706067584
OMA0485 OMA7478 2021-04-13 13:40:09 38028 402 26.23743305548 -80.323432188923
OMA0485 OMA7478 2021-04-13 13:39:54 38028 402 26.219956076995 -80.299070585021
OMA0485 OMA7478 2021-04-13 13:39:39 38027 402 26.202483342566 -80.27467090815
OMA0485 OMA7478 2021-04-13 13:39:24 38026 402 26.18520829859 -80.250445080937
OMA0485 OMA7478 2021-04-13 13:39:09 38025 402 26.167906304426 -80.225900689433
OMA0485 OMA7478 2021-04-13 13:38:54 38023 400 26.151055927417 -80.201122764156
OMA0485 OMA7478 2021-04-13 13:38:39 38021 400 26.135446145253 -80.17558783514
OMA0485 OMA7478 2021-04-13 13:38:24 38020 400 26.120708669269 -80.149166622378
OMA0485 OMA7478 2021-04-13 13:38:09 38019 400 26.1059384222 -80.122684831707
OMA0485 OMA7478 2021-04-13 13:37:54 38019 400 26.091347427952 -80.096521371875
OMA0485 OMA7478 2021-04-13 13:37:39 38019 400 26.076673827736 -80.070202738682
OMA0485 OMA7478 2021-04-13 13:37:24 38020 398 26.062109985934 -80.044067570107
OMA0485 OMA7478 2021-04-13 13:37:09 38020 398 26.047474202077 -80.017781310277
OMA0485 OMA7478 2021-04-13 13:36:54 38019 398 26.032959589865 -79.991676980106
OMA0485 OMA7478 2021-04-13 13:36:39 38018 400 26.018342234278 -79.965324003368
OMA0485 OMA7478 2021-04-13 13:36:24 38017 400 26.003811800243 -79.939019870987
OMA0485 OMA7478 2021-04-13 13:36:09 38017 402 25.989241179127 -79.912444158545
OMA0485 OMA7478 2021-04-13 13:35:54 38021 402 25.974924199735 -79.885943258019
OMA0485 OMA7478 2021-04-13 13:35:39 38021 396 25.960918322023 -79.859262964976
OMA0485 OMA7478 2021-04-13 13:35:24 38024 390 25.94772732475 -79.832749344557
OMA0485 OMA7478 2021-04-13 13:35:09 37905 386 25.935610000671 -79.805873323905
OMA0485 OMA7478 2021-04-13 13:34:54 37639 384 25.925249240203 -79.778308321261
OMA0485 OMA7478 2021-04-13 13:34:39 37368 384 25.917553395877 -79.749957393296
OMA0485 OMA7478 2021-04-13 13:34:24 37088 384 25.912635466729 -79.720689472413
OMA0485 OMA7478 2021-04-13 13:34:09 36797 384 25.908881641763 -79.691440948201
OMA0485 OMA7478 2021-04-13 13:33:54 36495 384 25.904933964279 -79.661967427952
OMA0485 OMA7478 2021-04-13 13:33:39 36195 384 25.900982646301 -79.632687146286
OMA0485 OMA7478 2021-04-13 13:33:24 35872 386 25.896989670386 -79.603180835793
OMA0485 OMA7478 2021-04-13 13:33:09 35537 386 25.893006845043 -79.573812089579
OMA0485 OMA7478 2021-04-13 13:32:54 35189 386 25.888986046008 -79.544222642877
OMA0485 OMA7478 2021-04-13 13:32:39 34833 388 25.884973000447 -79.514749309392
OMA0485 OMA7478 2021-04-13 13:32:24 34461 388 25.880922269693 -79.485060451421
OMA0485 OMA7478 2021-04-13 13:32:09 34082 390 25.876851239145 -79.455319353176
OMA0485 OMA7478 2021-04-13 13:31:54 33659 392 25.872719936307 -79.425449895399
OMA0485 OMA7478 2021-04-13 13:31:39 33247 394 25.868378381806 -79.395631183793
OMA0485 OMA7478 2021-04-13 13:31:24 32781 396 25.862909541712 -79.365712900835
OMA0485 OMA7478 2021-04-13 13:31:09 32345 400 25.85329514708 -79.33697221186
OMA0485 OMA7478 2021-04-13 13:30:54 31918 406 25.837484786908 -79.311632850369
OMA0485 OMA7478 2021-04-13 13:30:39 31487 414 25.815967979758 -79.290916406369
OMA0485 OMA7478 2021-04-13 13:30:24 31064 423 25.790235085232 -79.276430669037
OMA0485 OMA7478 2021-04-13 13:30:09 30635 435 25.761281110818 -79.268876079608
OMA0485 OMA7478 2021-04-13 13:29:54 30207 447 25.730730795069 -79.268943901252
OMA0485 OMA7478 2021-04-13 13:29:39 29779 458 25.700214100489 -79.276820950315
OMA0485 OMA7478 2021-04-13 13:29:24 29356 468 25.6714032158 -79.292220225449
OMA0485 OMA7478 2021-04-13 13:29:09 28935 480 25.64546028105 -79.314770708643
OMA0485 OMA7478 2021-04-13 13:28:54 28569 487 25.624166409685 -79.343188297654
OMA0485 OMA7478 2021-04-13 13:28:39 28231 491 25.608318293479 -79.376597962282
OMA0485 OMA7478 2021-04-13 13:28:24 27895 495 25.598981049845 -79.412990971088
OMA0485 OMA7478 2021-04-13 13:28:09 27498 497 25.596466912264 -79.45127503516
OMA0485 OMA7478 2021-04-13 13:27:54 27167 495 25.601004322271 -79.488971596241
OMA0485 OMA7478 2021-04-13 13:27:39 26782 491 25.60874263918 -79.526099330631
OMA0485 OMA7478 2021-04-13 13:27:24 26394 487 25.616146185784 -79.562806207973
OMA0485 OMA7478 2021-04-13 13:27:09 25992 484 25.623233618592 -79.599753422597
OMA0485 OMA7478 2021-04-13 13:26:54 25583 480 25.629681296913 -79.636119217368
OMA0485 OMA7478 2021-04-13 13:26:39 25173 476 25.635299582943 -79.672584316687
OMA0485 OMA7478 2021-04-13 13:26:24 24766 470 25.639271397737 -79.708522264139
OMA0485 OMA7478 2021-04-13 13:26:09 24281 464 25.639858835552 -79.744598789727
OMA0485 OMA7478 2021-04-13 13:25:54 23866 456 25.634522907507 -79.779569825184
OMA0485 OMA7478 2021-04-13 13:25:39 23409 452 25.627705771086 -79.813562369343
OMA0485 OMA7478 2021-04-13 13:25:24 22941 447 25.620904290721 -79.847433144035
OMA0485 OMA7478 2021-04-13 13:25:09 22462 443 25.614202512776 -79.880768122403
OMA0485 OMA7478 2021-04-13 13:24:54 21970 439 25.607508932587 -79.914020151325
OMA0485 OMA7478 2021-04-13 13:24:39 21466 435 25.600909690269 -79.946763958144
OMA0485 OMA7478 2021-04-13 13:24:24 20943 431 25.59431896057 -79.979421597191
OMA0485 OMA7478 2021-04-13 13:24:09 20410 425 25.587848113372 -80.011443065649
OMA0485 OMA7478 2021-04-13 13:23:54 19852 421 25.581388497064 -80.043359184775
OMA0485 OMA7478 2021-04-13 13:23:39 19291 417 25.575030328732 -80.07472228953
OMA0485 OMA7478 2021-04-13 13:23:24 18700 412 25.568693593959 -80.105937488007
OMA0485 OMA7478 2021-04-13 13:23:09 18120 408 25.562527264974 -80.136597326737
OMA0485 OMA7478 2021-04-13 13:22:54 17482 404 25.556817508096 -80.167224935512
OMA0485 OMA7478 2021-04-13 13:22:39 16866 402 25.553579760222 -80.198082702986
OMA0485 OMA7478 2021-04-13 13:22:24 16216 396 25.551710962115 -80.228791780443
OMA0485 OMA7478 2021-04-13 13:22:09 15553 392 25.549898695173 -80.258925000916
OMA0485 OMA7478 2021-04-13 13:21:54 14866 386 25.548142522453 -80.288878261912
OMA0485 OMA7478 2021-04-13 13:21:39 14141 382 25.546466277224 -80.318289243241
OMA0485 OMA7478 2021-04-13 13:21:24 13488 377 25.544670868563 -80.347474374761
OMA0485 OMA7478 2021-04-13 13:21:09 12771 375 25.543969734228 -80.376118560634
OMA0485 OMA7478 2021-04-13 13:20:54 12049 373 25.550448265783 -80.403808627776
OMA0485 OMA7478 2021-04-13 13:20:39 11403 367 25.564259916985 -80.427806043858
OMA0485 OMA7478 2021-04-13 13:20:24 10778 361 25.583511849124 -80.445659117812
OMA0485 OMA7478 2021-04-13 13:20:09 10600 338 25.606089189261 -80.455552273299
OMA0485 OMA7478 2021-04-13 13:19:54 10454 311 25.628489399544 -80.458829910327
OMA0485 OMA7478 2021-04-13 13:19:39 9931 299 25.647027710515 -80.461012102406
OMA0485 OMA7478 2021-04-13 13:19:24 9129 295 25.667537473608 -80.463474118797
OMA0485 OMA7478 2021-04-13 13:19:09 8325 291 25.68764010952 -80.465981331831
OMA0485 OMA7478 2021-04-13 13:18:54 7530 287 25.707582835776 -80.468542759491
OMA0485 OMA7478 2021-04-13 13:18:39 6697 283 25.727198240485 -80.470264394049
OMA0485 OMA7478 2021-04-13 13:18:24 5873 277 25.746420826553 -80.466894816272
OMA0485 OMA7478 2021-04-13 13:18:09 5026 276 25.763609763905 -80.45793547571
OMA0485 OMA7478 2021-04-13 13:17:54 4172 270 25.777830476772 -80.444196656917
OMA0485 OMA7478 2021-04-13 13:17:39 3172 272 25.788337834896 -80.427085085375
OMA0485 OMA7478 2021-04-13 13:17:24 2988 264 25.794334351942 -80.407654451166
OMA0485 OMA7478 2021-04-13 13:17:09 3015 266 25.798206055412 -80.387617877792
OMA0485 OMA7478 2021-04-13 13:16:54 2735 248 25.80142199918 -80.3679880742
OMA0485 OMA7478 2021-04-13 13:16:39 2248 225 25.805651458979 -80.350216882475
OMA0485 OMA7478 2021-04-13 13:16:24 1731 206 25.809969464948 -80.33421060096
OMA0485 OMA7478 2021-04-13 13:16:09 1376 178 25.806381748044 -80.320054633698
OMA0485 OMA7478 2021-04-13 13:15:54 783 171 25.801535799902 -80.307814427778
OMA0485 OMA7478 2021-04-13 13:15:39 50 174 25.796002738428 -80.29587224222
OMA0485 OMA7478 2021-04-13 13:15:24 16 126 25.790671173288 -80.285444090822
OMA0485 OMA7478 2021-04-13 13:15:09 13 60 25.787404584236 -80.279034305132
OMA0485 OMA7478 2021-04-13 13:14:54 13 23 25.786674513803 -80.276637255579
OMA0485 OMA7478 2021-04-13 13:14:39 13 17 25.787628738008 -80.275543571538
OMA0485 OMA7478 2021-04-13 13:14:24 13 11 25.788620530326 -80.275304274793
OMA0485 OMA7478 2021-04-13 13:14:09 13 15 25.789441812263 -80.274936458434
OMA0485 OMA7478 2021-04-13 13:13:54 13 21 25.789529292728 -80.276297346946
OMA0485 OMA7478 2021-04-13 13:13:39 13 9 25.789418598199 -80.277825041484
OMA0485 OMA7478 2021-04-13 13:13:24 13 1 25.78958000999 -80.278242536797
OMA0485 OMA7478 2021-04-13 13:13:09 13 7 25.790136247512 -80.278158413412
OMA0485 OMA7478 2021-04-13 13:12:54 13 0 25.790391266082 -80.278044941559
OMA0485 OMA7478 2021-04-13 13:12:39 13 0 25.790391505432 -80.278044834837
OMA0485 OMA7478 2021-04-13 13:12:24 13 0 25.790391505415 -80.278044834837
OMA0485 OMA7478 2021-04-13 13:12:09 13 0 25.7903915054 -80.278044834837
OMA0485 OMA7478 2021-04-13 13:11:54 13 0 25.790391646475 -80.278044754796
OMA0485 OMA7478 2021-04-13 13:11:39 13 0 25.790391899891 -80.278044648074
OMA0485 OMA7478 2021-04-13 13:11:24 13 0 25.790391838568 -80.278044701435
OMA0485 OMA7478 2021-04-13 13:11:09 13 0 25.790391769554 -80.278044701435
OMA0485 OMA7478 2021-04-13 13:10:54 13 0 25.790391772028 -80.278044701435
OMA0485 OMA7478 2021-04-13 13:10:39 13 0 25.790391770987 -80.278044701435
OMA0485 OMA7478 2021-04-13 13:10:24 13 0 25.79039180696 -80.278044701435
OMA0485 OMA7478 2021-04-13 13:10:09 13 0 25.790359914792 -80.278060389525
OMA0485 OMA7478 2021-04-13 13:09:39 13 0 25.790289909794 -80.278086136137
OMA0485 OMA7478 2021-04-13 13:09:24 13 0 25.790185089964 -80.278024611074
OMA0485 OMA7478 2021-04-13 13:09:09 13 1 25.790146735812 -80.277877121676
OMA0485 OMA7478 2021-04-13 13:08:54 13 1 25.79010630019 -80.277724669719
OMA0485 OMA7478 2021-04-13 13:08:39 13 1 25.790064690767 -80.277566641554
OMA0485 OMA7478 2021-04-13 13:08:24 13 0 25.790047492334 -80.277503035417
OMA0485 OMA7478 2021-04-13 13:08:09 13 0 25.790047508986 -80.277503115458
OMA0485 OMA7478 2021-04-13 13:07:54 13 0 25.790047508981 -80.277503115458
OMA0485 OMA7478 2021-04-13 13:07:39 13 0 25.790047508975 -80.277503115458
OMA0485 OMA7478 2021-04-13 13:07:24 13 0 25.79004750897 -80.277503115458
OMA0485 OMA7478 2021-04-13 13:07:09 13 0 25.790047508966 -80.277503115458
OMA0485 OMA7478 2021-04-13 13:06:54 13 0 25.79004750896 -80.277503115458
OMA0485 OMA7478 2021-04-13 13:06:39 13 0 25.790047508953 -80.277503115458
OMA0485 OMA7478 2021-04-13 13:06:24 13 0 25.790047508949 -80.277503115458
OMA0485 OMA7478 2021-04-13 13:06:09 13 0 25.790047508943 -80.277503115458
OMA0485 OMA7478 2021-04-13 13:05:54 13 0 25.790047508937 -80.277503115458
OMA0485 OMA7478 2021-04-13 13:05:39 13 0 25.790047508931 -80.277503115458
OMA0485 OMA7478 2021-04-13 13:05:24 13 0 25.790047508926 -80.277503115458
OMA0485 OMA7478 2021-04-13 13:05:09 13 0 25.790047508919 -80.277503115458
OMA0485 OMA7478 2021-04-13 13:04:54 13 0 25.790047508913 -80.277503115458
OMA0485 OMA7478 2021-04-13 13:04:39 13 0 25.790047508909 -80.277503115458
OMA0485 OMA7478 2021-04-13 13:04:24 13 0 25.790047508903 -80.277503115458
OMA0485 OMA7478 2021-04-13 13:04:09 13 0 25.790047508896 -80.277503115458
OMA0485 OMA7478 2021-04-13 13:03:54 13 0 25.790047508892 -80.277503115458
OMA0485 OMA7478 2021-04-13 13:03:39 13 0 25.790047508886 -80.277503115458
OMA0485 OMA7478 2021-04-13 13:03:24 13 0 25.79004750888 -80.277503115458
OMA0485 OMA7478 2021-04-13 13:03:09 13 0 25.790047508873 -80.277503115458
OMA0485 OMA7478 2021-04-13 13:02:54 13 0 25.790047466219 -80.277502928695
OMA0485 OMA7478 2021-04-13 13:02:39 13 0 25.790047425254 -80.277502768613
OMA0485 OMA7478 2021-04-13 13:02:24 13 0 25.790047425249 -80.277502768613
OMA0485 OMA7478 2021-04-13 13:02:09 13 0 25.790047425243 -80.277502768613
OMA0485 OMA7478 2021-04-13 13:01:54 13 0 25.790047425237 -80.277502768613
OMA0485 OMA7478 2021-04-13 13:01:39 13 0 25.790047425231 -80.277502768613
OMA0485 OMA7478 2021-04-13 13:01:24 13 0 25.790047425268 -80.277502768613
OMA0485 OMA7478 2021-04-11 02:05:33 13 0 25.797828748918 -80.278936734812
OMA0485 OMA7478 2021-04-11 02:05:18 13 0 25.797828748442 -80.278936734812
OMA0485 OMA7478 2021-04-11 02:05:03 13 0 25.797828748488 -80.278936734812
OMA0485 OMA7478 2021-04-11 02:04:48 13 0 25.797828749133 -80.278936734812
OMA0485 OMA7478 2021-04-11 02:04:33 13 0 25.797828748309 -80.278936734812
OMA0485 OMA7478 2021-04-11 02:04:18 13 0 25.797828749063 -80.278936734812
OMA0485 OMA7478 2021-04-11 02:04:03 13 0 25.79782874889 -80.278936734812
OMA0485 OMA7478 2021-04-11 02:03:48 13 0 25.797828748883 -80.278936734812
OMA0485 OMA7478 2021-04-11 02:03:33 13 0 25.797828748932 -80.278936734812
OMA0485 OMA7478 2021-04-11 02:03:18 13 0 25.79782869904 -80.278936734812
OMA0485 OMA7478 2021-04-11 02:03:03 13 0 25.79782868578 -80.278936734812
OMA0485 OMA7478 2021-04-11 02:02:48 13 0 25.797828685485 -80.278936734812
OMA0485 OMA7478 2021-04-11 02:02:33 13 0 25.797828685753 -80.278936734812
OMA0485 OMA7478 2021-04-11 02:02:18 13 0 25.797839474261 -80.278937481864
OMA0485 OMA7478 2021-04-11 02:02:03 13 3 25.798215860562 -80.278959012968
OMA0485 OMA7478 2021-04-11 02:01:48 13 3 25.798579634337 -80.278974914503
OMA0485 OMA7478 2021-04-11 02:01:33 13 3 25.798879881926 -80.278989401974
OMA0485 OMA7478 2021-04-11 02:01:18 13 11 25.799209752378 -80.278991936615
OMA0485 OMA7478 2021-04-11 02:01:03 13 13 25.799680056475 -80.279688802673
OMA0485 OMA7478 2021-04-11 02:00:48 13 13 25.799626540791 -80.280808420088
OMA0485 OMA7478 2021-04-11 02:00:33 13 13 25.799586196235 -80.281937509055
OMA0485 OMA7478 2021-04-11 02:00:18 13 11 25.799698652579 -80.283018439852
OMA0485 OMA7478 2021-04-11 02:00:06 13 9 25.800326739978 -80.28285563589
OMA0485 OMA7478 2021-04-11 01:59:48 13 3 25.800610806246 -80.282380244052
OMA0485 OMA7478 2021-04-11 01:59:33 13 0 25.800909512034 -80.2824183437
OMA0485 OMA7478 2021-04-11 01:59:18 13 0 25.800916393027 -80.282421705434
OMA0485 OMA7478 2021-04-11 01:59:03 13 9 25.800958931294 -80.282446011303
OMA0485 OMA7478 2021-04-11 01:58:48 13 5 25.801285558927 -80.283067665239
OMA0485 OMA7478 2021-04-11 01:58:33 13 0 25.801322368254 -80.283295676163
OMA0485 OMA7478 2021-04-11 01:58:18 13 38 25.801331463107 -80.284725320134
OMA0485 OMA7478 2021-04-11 01:58:03 14 93 25.801123346626 -80.289718215098
OMA0485 OMA7478 2021-04-11 01:57:48 66 128 25.800826075218 -80.298693217069
OMA0485 OMA7478 2021-04-11 01:57:33 185 134 25.800382507026 -80.308986525592
OMA0485 OMA7478 2021-04-11 01:57:18 364 134 25.799943179552 -80.319316866546
OMA0485 OMA7478 2021-04-11 01:57:03 544 134 25.799505122335 -80.329692484185
OMA0485 OMA7478 2021-04-11 01:56:48 726 134 25.799068764967 -80.340166819401
OMA0485 OMA7478 2021-04-11 01:56:33 907 136 25.798627090694 -80.350651727812
OMA0485 OMA7478 2021-04-11 01:56:18 1084 138 25.798191691179 -80.361186654276
OMA0485 OMA7478 2021-04-11 01:56:03 1292 145 25.797713043061 -80.372081019446
OMA0485 OMA7478 2021-04-11 01:55:48 1486 147 25.79722061933 -80.383522119914
OMA0485 OMA7478 2021-04-11 01:55:33 1687 149 25.79673406942 -80.394936113069
OMA0485 OMA7478 2021-04-11 01:55:18 1893 149 25.79624725014 -80.406449570854
OMA0485 OMA7478 2021-04-11 01:55:03 2114 151 25.795756266891 -80.418081009485
OMA0485 OMA7478 2021-04-11 01:54:48 2319 151 25.795255566691 -80.429616451941
OMA0485 OMA7478 2021-04-11 01:54:33 2516 155 25.794740284296 -80.441640786531
OMA0485 OMA7478 2021-04-11 01:54:18 2709 155 25.794214586136 -80.453666401782
OMA0485 OMA7478 2021-04-11 01:54:03 2916 161 25.793674218002 -80.465950390283
OMA0485 OMA7478 2021-04-11 01:53:48 3019 157 25.793150297144 -80.478247612275
OMA0485 OMA7478 2021-04-11 01:53:33 3019 157 25.792626209736 -80.490382830717
OMA0485 OMA7478 2021-04-11 01:53:18 3018 157 25.79211335008 -80.502547824516
OMA0485 OMA7478 2021-04-11 01:53:03 3031 155 25.791605813707 -80.514687311827
OMA0485 OMA7478 2021-04-11 01:52:48 3020 157 25.791082973971 -80.526617090986
OMA0485 OMA7478 2021-04-11 01:52:33 3021 157 25.790556641659 -80.538868902892
OMA0485 OMA7478 2021-04-11 01:52:18 3019 157 25.790055416854 -80.551017621631
OMA0485 OMA7478 2021-04-11 01:52:03 3021 157 25.789567833872 -80.563210549836
OMA0485 OMA7478 2021-04-11 01:51:48 3024 155 25.789123359745 -80.575313725087
OMA0485 OMA7478 2021-04-11 01:51:33 3007 155 25.788706811608 -80.587381522092
OMA0485 OMA7478 2021-04-11 01:51:18 3021 157 25.78833512873 -80.599485124229
OMA0485 OMA7478 2021-04-11 01:51:03 3016 165 25.788012835474 -80.611946884411
OMA0485 OMA7478 2021-04-11 01:50:48 3012 167 25.787802068766 -80.624812719652
OMA0485 OMA7478 2021-04-11 01:50:33 2989 173 25.787735912543 -80.637963875372
OMA0485 OMA7478 2021-04-11 01:50:18 3053 190 25.787690969623 -80.651911495183
OMA0485 OMA7478 2021-04-11 01:50:03 3035 200 25.78615936197 -80.666940926246
OMA0485 OMA7478 2021-04-11 01:49:48 3025 207 25.7784830733 -80.679848889879
OMA0485 OMA7478 2021-04-11 01:49:33 3012 219 25.764514339319 -80.684224586538
OMA0485 OMA7478 2021-04-11 01:49:18 3028 229 25.750439024771 -80.676961454088
OMA0485 OMA7478 2021-04-11 01:49:03 3012 223 25.742790037147 -80.661779357626
OMA0485 OMA7478 2021-04-11 01:48:48 3021 221 25.742251990666 -80.644769377402
OMA0485 OMA7478 2021-04-11 01:48:33 3014 227 25.742714991364 -80.627405862593
OMA0485 OMA7478 2021-04-11 01:48:18 3005 246 25.743301553222 -80.609174059985
OMA0485 OMA7478 2021-04-11 01:48:03 3099 266 25.744040118414 -80.589399915286
OMA0485 OMA7478 2021-04-11 01:47:48 3683 270 25.744838180023 -80.568588328885
OMA0485 OMA7478 2021-04-11 01:47:33 4331 270 25.745604925708 -80.547919963013
OMA0485 OMA7478 2021-04-11 01:47:18 4984 268 25.746357462429 -80.527135697369
OMA0485 OMA7478 2021-04-11 01:47:03 5632 268 25.747077364726 -80.506577254854
OMA0485 OMA7478 2021-04-11 01:46:48 6284 266 25.74776886555 -80.486032045831
OMA0485 OMA7478 2021-04-11 01:46:33 6936 262 25.748440723445 -80.465604070601
OMA0485 OMA7478 2021-04-11 01:46:18 7585 260 25.749076658482 -80.44547758419
OMA0485 OMA7478 2021-04-11 01:46:03 8165 258 25.749613585968 -80.425569850596
OMA0485 OMA7478 2021-04-11 01:45:48 8653 260 25.749513987325 -80.405535171533
OMA0485 OMA7478 2021-04-11 01:45:33 9101 266 25.745739903545 -80.385957581535
OMA0485 OMA7478 2021-04-11 01:45:18 9560 270 25.736141304142 -80.368061658817
OMA0485 OMA7478 2021-04-11 01:45:03 10031 272 25.726151609165 -80.350432193517
OMA0485 OMA7478 2021-04-11 01:44:48 10318 270 25.716498635539 -80.332411032876
OMA0485 OMA7478 2021-04-11 01:44:33 10615 268 25.708575660199 -80.313457177888
OMA0485 OMA7478 2021-04-11 01:44:18 10921 268 25.703137793606 -80.293597095536
OMA0485 OMA7478 2021-04-11 01:44:03 11223 268 25.697946856516 -80.273781115928
OMA0485 OMA7478 2021-04-11 01:43:48 11527 270 25.692717626627 -80.253783309214
OMA0485 OMA7478 2021-04-11 01:43:33 11811 270 25.687517892835 -80.233840757663
OMA0485 OMA7478 2021-04-11 01:43:18 11997 276 25.682229057589 -80.213508538484
OMA0485 OMA7478 2021-04-11 01:43:03 12089 287 25.67683211306 -80.192677635454
OMA0485 OMA7478 2021-04-11 01:42:48 12210 299 25.671091497182 -80.170833783354
OMA0485 OMA7478 2021-04-11 01:42:33 12599 303 25.664408974809 -80.148739628833
OMA0485 OMA7478 2021-04-11 01:42:18 13005 307 25.654904140703 -80.127863155635
OMA0485 OMA7478 2021-04-11 01:42:03 13416 311 25.642538963243 -80.108260846222
OMA0485 OMA7478 2021-04-11 01:41:48 13825 312 25.6298497491 -80.088903643217
OMA0485 OMA7478 2021-04-11 01:41:33 14228 312 25.617112807826 -80.069469066976
OMA0485 OMA7478 2021-04-11 01:41:18 14598 316 25.60419905143 -80.049771018188
OMA0485 OMA7478 2021-04-11 01:41:03 14744 328 25.590947823705 -80.029607399293
OMA0485 OMA7478 2021-04-11 01:40:48 14832 346 25.577184591557 -80.008705176149
OMA0485 OMA7478 2021-04-11 01:40:33 14962 363 25.562628900915 -79.986643272427
OMA0485 OMA7478 2021-04-11 01:40:18 14988 380 25.547376595666 -79.963527133343
OMA0485 OMA7478 2021-04-11 01:40:03 14987 382 25.531636746167 -79.939632026691
OMA0485 OMA7478 2021-04-11 01:39:48 14984 382 25.51600181752 -79.91590303571
OMA0485 OMA7478 2021-04-11 01:39:33 14982 382 25.500315754687 -79.892100713577
OMA0485 OMA7478 2021-04-11 01:39:18 14978 382 25.484562057335 -79.868195865235
OMA0485 OMA7478 2021-04-11 01:39:03 14976 382 25.468828720912 -79.844312801461
OMA0485 OMA7478 2021-04-11 01:38:48 14974 382 25.454894155339 -79.823143670665
OMA0485 OMA7478 2021-04-11 01:38:33 14970 382 25.439177122633 -79.799228403616
OMA0485 OMA7478 2021-04-11 01:38:18 14970 382 25.423599882151 -79.775458518212
OMA0485 OMA7478 2021-04-11 01:38:03 14978 382 25.40786588037 -79.751499922151
OMA0485 OMA7478 2021-04-11 01:37:48 14970 377 25.391940245388 -79.728435120375
OMA0485 OMA7478 2021-04-11 01:37:33 15222 386 25.374067824747 -79.706794359681
OMA0485 OMA7478 2021-04-11 01:37:18 15965 390 25.355732433145 -79.685069982531
OMA0485 OMA7478 2021-04-11 01:37:03 16738 392 25.337143788803 -79.66304467685
OMA0485 OMA7478 2021-04-11 01:36:48 17506 396 25.3184889858 -79.640939188742
OMA0485 OMA7478 2021-04-11 01:36:33 18298 400 25.299605838877 -79.618555858419
OMA0485 OMA7478 2021-04-11 01:36:18 19090 404 25.280644391797 -79.59611831347
OMA0485 OMA7478 2021-04-11 01:36:03 19904 408 25.261315994252 -79.573273998738
OMA0485 OMA7478 2021-04-11 01:35:48 20718 412 25.241986068303 -79.550430911307
OMA0485 OMA7478 2021-04-11 01:35:33 21544 414 25.222380674213 -79.527264243664
OMA0485 OMA7478 2021-04-11 01:35:18 22379 417 25.202607150581 -79.503897899709
OMA0485 OMA7478 2021-04-11 01:35:03 23225 421 25.182697301863 -79.480363469067
OMA0485 OMA7478 2021-04-11 01:34:48 24073 425 25.162768894466 -79.456793073211
OMA0485 OMA7478 2021-04-11 01:34:33 24933 429 25.142543667516 -79.432849578271
OMA0485 OMA7478 2021-04-11 01:34:18 25796 433 25.122208364637 -79.408736742665
OMA0485 OMA7478 2021-04-11 01:34:03 26719 435 25.101665186105 -79.38432057729
OMA0485 OMA7478 2021-04-11 01:33:48 27658 439 25.08120506204 -79.359914043549
OMA0485 OMA7478 2021-04-11 01:33:33 28540 443 25.060449868704 -79.335026034833
OMA0485 OMA7478 2021-04-11 01:33:18 29488 443 25.041993345686 -79.312668130957
OMA0485 OMA7478 2021-04-11 01:33:03 30018 445 25.021409228326 -79.287351634592
OMA0485 OMA7478 2021-04-11 01:32:48 30018 443 25.001186288144 -79.261837569669
OMA0485 OMA7478 2021-04-11 01:32:33 30022 439 24.981555977644 -79.235683974924
OMA0485 OMA7478 2021-04-11 01:32:18 30023 435 24.963679418592 -79.20835672156
OMA0485 OMA7478 2021-04-11 01:32:03 30028 427 24.950148759955 -79.179035866712
OMA0485 OMA7478 2021-04-11 01:31:49 30032 421 24.94317278921 -79.147477004332
OMA0485 OMA7478 2021-04-11 01:31:33 30044 417 24.942425915797 -79.119040965806
OMA0485 OMA7478 2021-04-11 01:31:18 30053 417 24.944131027778 -79.08702622165
OMA0485 OMA7478 2021-04-11 01:31:03 30061 417 24.945876018752 -79.055227282123
OMA0485 OMA7478 2021-04-11 01:30:48 30070 415 24.947631505994 -79.023121542705
OMA0485 OMA7478 2021-04-11 01:30:33 30078 415 24.94935996671 -78.991403196408
OMA0485 OMA7478 2021-04-11 01:30:18 30082 415 24.95109176656 -78.959506603186
OMA0485 OMA7478 2021-04-11 01:30:04 30082 415 24.952804188028 -78.927842533215
OMA0485 OMA7478 2021-04-11 01:29:48 30082 415 24.954524094426 -78.895931349134
OMA0485 OMA7478 2021-04-11 01:29:33 30082 415 24.956227193275 -78.864225537635
OMA0485 OMA7478 2021-04-11 01:29:18 30082 415 24.957936756821 -78.832308730654
OMA0485 OMA7478 2021-04-11 01:29:03 30082 415 24.959625568663 -78.800696560783
OMA0485 OMA7478 2021-04-11 01:28:48 30082 415 24.961327905832 -78.768762985154
OMA0485 OMA7478 2021-04-11 01:28:33 30082 415 24.963016902063 -78.73704179906
OMA0485 OMA7478 2021-04-11 01:28:18 30082 415 24.96471431528 -78.705125365605
OMA0485 OMA7478 2021-04-11 01:28:03 30083 415 24.966405088685 -78.673240735218
OMA0485 OMA7478 2021-04-11 01:27:48 30082 415 24.968066834548 -78.641484856824
OMA0485 OMA7478 2021-04-11 01:27:33 30082 415 24.969724494161 -78.609535419681
OMA0485 OMA7478 2021-04-11 01:27:18 30083 415 24.971375424239 -78.57758731656
OMA0485 OMA7478 2021-04-11 01:27:03 30083 417 24.973010249205 -78.545824749125
OMA0485 OMA7478 2021-04-11 01:26:48 30083 417 24.97465019344 -78.513826273359
OMA0485 OMA7478 2021-04-11 01:26:33 30083 417 24.976272167528 -78.48204102756
OMA0485 OMA7478 2021-04-11 01:26:18 30083 417 24.977898240025 -78.450032466593
OMA0485 OMA7478 2021-04-11 01:26:03 30082 417 24.979503545722 -78.418308132209
OMA0485 OMA7478 2021-04-11 01:25:48 30083 417 24.981112397783 -78.386379692562
OMA0485 OMA7478 2021-04-11 01:25:33 30083 417 24.982717153961 -78.354404775612
OMA0485 OMA7478 2021-04-11 01:25:18 30082 417 24.984317381058 -78.322369961105
OMA0485 OMA7478 2021-04-11 01:25:03 30083 417 24.985900455209 -78.290543387327
OMA0485 OMA7478 2021-04-11 01:24:48 30082 417 24.987488966662 -78.258476849793
OMA0485 OMA7478 2021-04-11 01:24:33 30082 417 24.989062376713 -78.226567913538
OMA0485 OMA7478 2021-04-11 01:24:18 30082 417 24.99063696833 -78.194499708477
OMA0485 OMA7478 2021-04-11 01:24:03 30082 417 24.992198532136 -78.162561503794
OMA0485 OMA7478 2021-04-11 01:23:48 30082 417 24.993763651734 -78.130427664885
OMA0485 OMA7478 2021-04-11 01:23:33 30082 417 24.995321606976 -78.098305458641
OMA0485 OMA7478 2021-04-11 01:23:18 30082 417 24.996862331124 -78.06641683286
OMA0485 OMA7478 2021-04-11 01:23:03 30082 419 24.998407848268 -78.034308417062
OMA0485 OMA7478 2021-04-11 01:22:48 30082 419 24.999938873718 -78.002393306998
OMA0485 OMA7478 2021-04-11 01:22:33 30082 419 25.001477082473 -77.970240332178
OMA0485 OMA7478 2021-04-11 01:22:18 30082 419 25.003003677834 -77.938266068899
OMA0485 OMA7478 2021-04-11 01:22:03 30082 419 25.004536144717 -77.906136645599
OMA0485 OMA7478 2021-04-11 01:21:48 30082 419 25.006061901221 -77.874163569599
OMA0485 OMA7478 2021-04-11 01:21:33 30082 419 25.007599225105 -77.842022006706
OMA0485 OMA7478 2021-04-11 01:21:18 30082 419 25.009074543806 -77.81131171529
OMA0485 OMA7478 2021-04-11 01:21:03 30082 419 25.010630629065 -77.779099822792
OMA0485 OMA7478 2021-04-11 01:20:48 30082 419 25.012188752593 -77.747138419479
OMA0485 OMA7478 2021-04-11 01:20:33 30082 419 25.013783193239 -77.71491390714
OMA0485 OMA7478 2021-04-11 01:20:18 30082 419 25.015405497654 -77.682878719107
OMA0485 OMA7478 2021-04-11 01:20:04 30083 419 25.017086501135 -77.650551567167
OMA0485 OMA7478 2021-04-11 01:19:48 30083 419 25.018827014188 -77.618362798853
OMA0485 OMA7478 2021-04-11 01:19:33 30082 419 25.020688201218 -77.586345006458
OMA0485 OMA7478 2021-04-11 01:19:18 30082 419 25.022779677232 -77.554051338454
OMA0485 OMA7478 2021-04-11 01:19:03 30083 419 25.025186435298 -77.522122605322
OMA0485 OMA7478 2021-04-11 01:18:48 30083 419 25.028189364163 -77.490017621294
OMA0485 OMA7478 2021-04-11 01:18:33 30086 419 25.032307360478 -77.458127628142
OMA0485 OMA7478 2021-04-11 01:18:18 30080 419 25.038725811087 -77.426613348755
OMA0485 OMA7478 2021-04-11 01:18:03 30082 421 25.049391272921 -77.396748213207
OMA0485 OMA7478 2021-04-11 01:17:48 30083 423 25.063153717753 -77.367933406007
OMA0485 OMA7478 2021-04-11 01:17:33 30081 423 25.076868513715 -77.339257443746
OMA0485 OMA7478 2021-04-11 01:17:18 30080 427 25.090609791887 -77.310508964086
OMA0485 OMA7478 2021-04-11 01:17:03 30082 431 25.104568910905 -77.281282264462
OMA0485 OMA7478 2021-04-11 01:16:48 30081 431 25.118551211601 -77.251968373205
OMA0485 OMA7478 2021-04-11 01:16:33 30084 423 25.132435364415 -77.222821261293
OMA0485 OMA7478 2021-04-11 01:16:18 30087 414 25.146036379829 -77.194245390652
OMA0485 OMA7478 2021-04-11 01:16:03 30082 410 25.159327306911 -77.166322376706
OMA0485 OMA7478 2021-04-11 01:15:48 30081 410 25.172507637432 -77.13862086366
OMA0485 OMA7478 2021-04-11 01:15:33 30081 412 25.185810388737 -77.110642681262
OMA0485 OMA7478 2021-04-11 01:15:18 30083 410 25.199037134791 -77.082801803009
OMA0485 OMA7478 2021-04-11 01:15:03 30085 408 25.212249818244 -77.054971380148
OMA0485 OMA7478 2021-04-11 01:14:48 30080 406 25.22539019994 -77.027288980292
OMA0485 OMA7478 2021-04-11 01:14:33 30188 410 25.23850369399 -76.999649449889
OMA0485 OMA7478 2021-04-11 01:14:18 30438 410 25.251750234723 -76.971709736654
OMA0485 OMA7478 2021-04-11 01:14:03 30690 412 25.265081600141 -76.943577034566
OMA0485 OMA7478 2021-04-11 01:13:48 30940 412 25.278311115966 -76.915644162202
OMA0485 OMA7478 2021-04-11 01:13:33 31193 414 25.291675219043 -76.887412162237
OMA0485 OMA7478 2021-04-11 01:13:18 31444 415 25.305002965928 -76.859239913088
OMA0485 OMA7478 2021-04-11 01:13:03 31696 415 25.318414339254 -76.830870789071
OMA0485 OMA7478 2021-04-11 01:12:48 31946 415 25.331765674211 -76.802607026058
OMA0485 OMA7478 2021-04-11 01:12:33 32197 415 25.345142135534 -76.774275107897
OMA0485 OMA7478 2021-04-11 01:12:18 32446 414 25.35841878102 -76.746139210828
OMA0485 OMA7478 2021-04-11 01:12:03 32697 414 25.371760784526 -76.717848113718
OMA0485 OMA7478 2021-04-11 01:11:48 32947 412 25.384987400481 -76.689782893099
OMA0485 OMA7478 2021-04-11 01:11:33 33198 412 25.3982292099 -76.661651558383
OMA0485 OMA7478 2021-04-11 01:11:18 33447 410 25.411338159954 -76.633746145772
OMA0485 OMA7478 2021-04-11 01:11:03 33697 410 25.424491205273 -76.60572577495
OMA0485 OMA7478 2021-04-11 01:10:48 33947 408 25.43751917036 -76.577955613167
OMA0485 OMA7478 2021-04-11 01:10:33 34197 408 25.450613406282 -76.550027876785
OMA0485 OMA7478 2021-04-11 01:10:18 34448 406 25.463686698303 -76.522128368295
OMA0485 OMA7478 2021-04-11 01:10:03 34697 406 25.476644440057 -76.49445884508
OMA0485 OMA7478 2021-04-11 01:09:48 34948 406 25.489654945239 -76.466659868436
OMA0485 OMA7478 2021-04-11 01:09:33 35197 404 25.502531824445 -76.439129163481
OMA0485 OMA7478 2021-04-11 01:09:18 35447 404 25.515469792154 -76.41145174286
OMA0485 OMA7478 2021-04-11 01:09:03 35698 404 25.528393232384 -76.383789023154
OMA0485 OMA7478 2021-04-11 01:08:48 35948 404 25.541291618525 -76.356166217366
OMA0485 OMA7478 2021-04-11 01:08:33 36170 402 25.552722315405 -76.331673265724
OMA0485 OMA7478 2021-04-11 01:08:18 36419 402 25.565626098396 -76.304007958017
OMA0485 OMA7478 2021-04-11 01:08:03 36667 402 25.57843079211 -76.276538804805
OMA0485 OMA7478 2021-04-11 01:07:48 36888 402 25.589839582229 -76.252053937332
OMA0485 OMA7478 2021-04-11 01:07:33 37135 402 25.602569547738 -76.22472864498
OMA0485 OMA7478 2021-04-11 01:07:18 37386 404 25.615416847563 -76.197145352904
OMA0485 OMA7478 2021-04-11 01:07:03 37637 406 25.628331587358 -76.169399256865
OMA0485 OMA7478 2021-04-11 01:06:48 37892 408 25.641303149695 -76.141492091092
OMA0485 OMA7478 2021-04-11 01:06:33 38081 404 25.652898271613 -76.11652548184
OMA0485 OMA7478 2021-04-11 01:06:18 38082 404 25.665719470766 -76.08891757707
OMA0485 OMA7478 2021-04-11 01:06:03 38082 404 25.678619950692 -76.06112322948
OMA0485 OMA7478 2021-04-11 01:05:48 38082 404 25.691409537851 -76.033551890235
OMA0485 OMA7478 2021-04-11 01:05:33 38082 404 25.704275906579 -76.005799844045
OMA0485 OMA7478 2021-04-11 01:05:18 38082 404 25.71709210631 -75.978140177997
OMA0485 OMA7478 2021-04-11 01:05:03 38082 404 25.729969294068 -75.950333742507
OMA0485 OMA7478 2021-04-11 01:04:48 38082 404 25.742739053692 -75.92274324338
OMA0485 OMA7478 2021-04-11 01:04:33 38082 404 25.755617936836 -75.894901724797
OMA0485 OMA7478 2021-04-11 01:04:18 38082 404 25.768367122025 -75.867324442486
OMA0485 OMA7478 2021-04-11 01:04:03 38082 404 25.781220077773 -75.839506309296
OMA0485 OMA7478 2021-04-11 01:03:48 38082 404 25.79400481325 -75.811820657764
OMA0485 OMA7478 2021-04-11 01:03:33 38082 404 25.806836119936 -75.784020240378
OMA0485 OMA7478 2021-04-11 01:03:18 38082 404 25.819573799983 -75.756408293523
OMA0485 OMA7478 2021-04-11 01:03:03 38082 404 25.832408080418 -75.728572124365
OMA0485 OMA7478 2021-04-11 01:02:48 38082 404 25.845265667523 -75.700666559418
OMA0485 OMA7478 2021-04-11 01:02:33 38083 404 25.858031754003 -75.672928360786
OMA0485 OMA7478 2021-04-11 01:02:18 38082 404 25.870906457148 -75.644907475289
OMA0485 OMA7478 2021-04-11 01:02:03 38082 404 25.883615334753 -75.617212765752
OMA0485 OMA7478 2021-04-11 01:01:48 38082 404 25.896401786752 -75.589331880199
OMA0485 OMA7478 2021-04-11 01:01:33 38083 404 25.909128359688 -75.561565400315
OMA0485 OMA7478 2021-04-11 01:01:18 38082 404 25.921918223767 -75.533644921009
OMA0485 OMA7478 2021-04-11 01:01:03 38083 404 25.934621967403 -75.505895463237
OMA0485 OMA7478 2021-04-11 01:00:48 38083 404 25.94739475113 -75.477978292304
OMA0485 OMA7478 2021-04-11 01:00:33 38083 404 25.960079088006 -75.450238599568
OMA0485 OMA7478 2021-04-11 01:00:18 38083 404 25.972830037905 -75.422337196767
OMA0485 OMA7478 2021-04-11 01:00:04 38082 404 25.985551826088 -75.39448293828
OMA0485 OMA7478 2021-04-11 00:59:48 38082 404 25.998270242134 -75.366620542262
OMA0485 OMA7478 2021-04-11 00:59:33 38082 404 26.010927499884 -75.338874366183
OMA0485 OMA7478 2021-04-11 00:59:18 38082 404 26.023698504146 -75.310863386871
OMA0485 OMA7478 2021-04-11 00:59:03 38082 404 26.036376187117 -75.283040744689
OMA0485 OMA7478 2021-04-11 00:58:48 38082 404 26.049123341731 -75.255049055325
OMA0485 OMA7478 2021-04-11 00:58:33 38082 404 26.06174175791 -75.227323983462
OMA0485 OMA7478 2021-04-11 00:58:18 38082 404 26.074454480956 -75.199375756513
OMA0485 OMA7478 2021-04-11 00:58:03 38082 404 26.087112884185 -75.171530075783
OMA0485 OMA7478 2021-04-11 00:57:48 38082 404 26.099779639958 -75.143648790024
OMA0485 OMA7478 2021-04-11 00:57:33 38082 404 26.112461042051 -75.115719346095
OMA0485 OMA7478 2021-04-11 00:57:18 38082 404 26.125109478113 -75.087846131165
OMA0485 OMA7478 2021-04-11 00:57:03 38082 404 26.137706514356 -75.060069579419
OMA0485 OMA7478 2021-04-11 00:56:48 38082 404 26.150378801591 -75.032109726474
OMA0485 OMA7478 2021-04-11 00:56:33 38082 402 26.163018417254 -75.004204644276
OMA0485 OMA7478 2021-04-11 00:56:18 38082 402 26.175577992186 -74.976460656825
OMA0485 OMA7478 2021-04-11 00:56:03 38082 402 26.188204609648 -74.948552867397
OMA0485 OMA7478 2021-04-11 00:55:48 38082 402 26.20073893098 -74.920834125466
OMA0485 OMA7478 2021-04-11 00:55:33 38082 402 26.213356936081 -74.892915733904
OMA0485 OMA7478 2021-04-11 00:55:18 38082 402 26.225884583349 -74.865181764119
OMA0485 OMA7478 2021-04-11 00:55:03 38082 402 26.238454328083 -74.83733865805
OMA0485 OMA7478 2021-04-11 00:54:48 38082 402 26.250958359559 -74.809626032607
OMA0485 OMA7478 2021-04-11 00:54:33 38082 402 26.263533624979 -74.781739957711
OMA0485 OMA7478 2021-04-11 00:54:18 38082 402 26.276030527315 -74.754013058239
OMA0485 OMA7478 2021-04-11 00:54:03 38082 402 26.288606974782 -74.726092605614
OMA0485 OMA7478 2021-04-11 00:53:48 38082 402 26.301084296322 -74.698373243363
OMA0485 OMA7478 2021-04-11 00:53:33 38083 402 26.313639330804 -74.670453137583
OMA0485 OMA7478 2021-04-11 00:53:18 38082 402 26.326120150834 -74.642640279371
OMA0485 OMA7478 2021-04-11 00:53:03 38082 402 26.33862571598 -74.614741784737
OMA0485 OMA7478 2021-04-11 00:52:48 38082 402 26.351065740998 -74.586972103202
OMA0485 OMA7478 2021-04-11 00:52:33 38082 402 26.363576799182 -74.55902686446
OMA0485 OMA7478 2021-04-11 00:52:18 38082 402 26.376001908418 -74.531257449729
OMA0485 OMA7478 2021-04-11 00:52:03 38082 402 26.38850279799 -74.503301912343
OMA0485 OMA7478 2021-04-11 00:51:48 38082 402 26.400896421682 -74.475570063652
OMA0485 OMA7478 2021-04-11 00:51:33 38082 402 26.413389598125 -74.447598944897
OMA0485 OMA7478 2021-04-11 00:51:18 38082 402 26.425774196426 -74.419854049478
OMA0485 OMA7478 2021-04-11 00:51:03 38082 402 26.438250080502 -74.391888853777
OMA0485 OMA7478 2021-04-11 00:50:48 38082 402 26.450707587111 -74.363948284111
OMA0485 OMA7478 2021-04-11 00:50:33 38082 402 26.463057160095 -74.33623335081
OMA0485 OMA7478 2021-04-11 00:50:18 38082 402 26.475481873353 -74.308333628876
OMA0485 OMA7478 2021-04-11 00:50:03 38082 402 26.487958032874 -74.280301438625
OMA0485 OMA7478 2021-04-11 00:49:48 38082 402 26.500346556545 -74.252450141665
OMA0485 OMA7478 2021-04-11 00:49:33 38082 402 26.512795605559 -74.224445939181
OMA0485 OMA7478 2021-04-11 00:49:18 38082 402 26.525168383517 -74.196597003439
OMA0485 OMA7478 2021-04-11 00:49:03 38082 402 26.537651128191 -74.16848361131
OMA0485 OMA7478 2021-04-11 00:48:48 38082 402 26.549992750159 -74.140671321134
OMA0485 OMA7478 2021-04-11 00:48:33 38082 402 26.562430352964 -74.112626070814
OMA0485 OMA7478 2021-04-11 00:48:18 38082 402 26.57481539592 -74.084682813094
OMA0485 OMA7478 2021-04-11 00:48:03 38082 402 26.587216295301 -74.056687635264
OMA0485 OMA7478 2021-04-11 00:47:48 38082 402 26.599551093566 -74.028826269778
OMA0485 OMA7478 2021-04-11 00:47:33 38082 402 26.611943646343 -74.000819355375
OMA0485 OMA7478 2021-04-11 00:47:18 38082 402 26.624276524773 -73.972929173882
OMA0485 OMA7478 2021-04-11 00:47:03 38082 402 26.636724802523 -73.944756866369
OMA0485 OMA7478 2021-04-11 00:46:48 38082 402 26.649056063787 -73.916837304203
OMA0485 OMA7478 2021-04-11 00:46:33 38082 402 26.661472106941 -73.888709204489
OMA0485 OMA7478 2021-04-11 00:46:18 38082 402 26.673776801295 -73.860816552868
OMA0485 OMA7478 2021-04-11 00:46:03 38082 402 26.686156790733 -73.832736791416
OMA0485 OMA7478 2021-04-11 00:45:48 38082 402 26.698458210825 -73.804820901144
OMA0485 OMA7478 2021-04-11 00:45:33 38082 402 26.710827279843 -73.77673600371
OMA0485 OMA7478 2021-04-11 00:45:18 38082 402 26.723136793939 -73.74876955403
OMA0485 OMA7478 2021-04-11 00:45:03 38082 402 26.735514597487 -73.720629895021
OMA0485 OMA7478 2021-04-11 00:44:48 38082 402 26.747816944221 -73.692639966565
OMA0485 OMA7478 2021-04-11 00:44:33 38083 402 26.76016919984 -73.664502788836
OMA0485 OMA7478 2021-04-11 00:44:18 38082 402 26.772408688291 -73.636560877401
OMA0485 OMA7478 2021-04-11 00:44:03 38082 402 26.784724870333 -73.608419857691
OMA0485 OMA7478 2021-04-11 00:43:48 38082 402 26.797036350481 -73.58027259476
OMA0485 OMA7478 2021-04-11 00:43:33 38082 402 26.809245570914 -73.552342937388
OMA0485 OMA7478 2021-04-11 00:43:18 38082 402 26.821544636332 -73.524191138785
OMA0485 OMA7478 2021-04-11 00:43:03 38082 402 26.833762356047 -73.496208707529
OMA0485 OMA7478 2021-04-11 00:42:48 38082 402 26.846064910821 -73.468014913935
OMA0485 OMA7478 2021-04-11 00:42:33 38082 402 26.858297794417 -73.439962233116
OMA0485 OMA7478 2021-04-11 00:42:18 38082 402 26.870572203846 -73.41179458634
OMA0485 OMA7478 2021-04-11 00:42:03 38082 402 26.881445938229 -73.386824748756
OMA0485 OMA7478 2021-04-11 00:41:48 38082 400 26.893700643412 -73.358667347263
OMA0485 OMA7478 2021-04-11 00:41:33 38082 400 26.905856202887 -73.330720641098
OMA0485 OMA7478 2021-04-11 00:41:18 38082 400 26.918075511541 -73.302611531177
OMA0485 OMA7478 2021-04-11 00:41:03 38082 400 26.930263912321 -73.274555888831
OMA0485 OMA7478 2021-04-11 00:40:48 38082 398 26.942406256069 -73.246587304717
OMA0485 OMA7478 2021-04-11 00:40:33 38083 398 26.954477426537 -73.218762995008
OMA0485 OMA7478 2021-04-11 00:40:18 38083 398 26.966590987896 -73.190822652125
OMA0485 OMA7478 2021-04-11 00:40:03 38083 396 26.978675466703 -73.162933068753
OMA0485 OMA7478 2021-04-11 00:39:48 38082 396 26.990632710903 -73.135321095219
OMA0485 OMA7478 2021-04-11 00:39:33 38082 394 27.002651036895 -73.10755498886
OMA0485 OMA7478 2021-04-11 00:39:18 38082 394 27.014589275583 -73.079960511015
OMA0485 OMA7478 2021-04-11 00:39:03 38082 394 27.026550397761 -73.052299565558
OMA0485 OMA7478 2021-04-11 00:38:48 38082 394 27.038514840712 -73.024615709952
OMA0485 OMA7478 2021-04-11 00:38:33 38082 394 27.050424417139 -72.997041541539
OMA0485 OMA7478 2021-04-11 00:38:18 38082 394 27.062397709798 -72.969304963117
OMA0485 OMA7478 2021-04-11 00:38:03 38083 394 27.074387923725 -72.941511422611
OMA0485 OMA7478 2021-04-11 00:37:48 38082 394 27.086285920536 -72.913914203352
OMA0485 OMA7478 2021-04-11 00:37:33 38082 394 27.098247705142 -72.886151885614
OMA0485 OMA7478 2021-04-11 00:37:18 38082 394 27.110138015205 -72.85854181973
OMA0485 OMA7478 2021-04-11 00:37:03 38082 394 27.122093535804 -72.830764520933
OMA0485 OMA7478 2021-04-11 00:36:48 38082 394 27.13396494611 -72.803165860931
OMA0485 OMA7478 2021-04-11 00:36:33 38082 394 27.14591225249 -72.775376342498
OMA0485 OMA7478 2021-04-11 00:36:18 38082 394 27.157779240087 -72.747755937949
OMA0485 OMA7478 2021-04-11 00:36:03 38080 394 27.169726034005 -72.719932842199
OMA0485 OMA7478 2021-04-11 00:35:48 38076 394 27.181680570614 -72.692070472863
OMA0485 OMA7478 2021-04-11 00:35:33 38072 394 27.193537274727 -72.664399642307
OMA0485 OMA7478 2021-04-11 00:35:18 38069 394 27.205436117089 -72.636564399218
OMA0485 OMA7478 2021-04-11 00:35:03 38067 394 27.217240174699 -72.60892598538
OMA0485 OMA7478 2021-04-11 00:34:48 38065 394 27.229131568547 -72.581062975713
OMA0485 OMA7478 2021-04-11 00:34:33 38064 394 27.240942144736 -72.553371574549
OMA0485 OMA7478 2021-04-11 00:34:18 38063 394 27.252804349433 -72.52554346288
OMA0485 OMA7478 2021-04-11 00:34:03 38063 394 27.264575043692 -72.497914707357
OMA0485 OMA7478 2021-04-11 00:33:48 38063 394 27.276450109096 -72.470024963902
OMA0485 OMA7478 2021-04-11 00:33:33 38064 394 27.288236678139 -72.44232681259
OMA0485 OMA7478 2021-04-11 00:33:18 38063 394 27.300086862771 -72.414461375004
OMA0485 OMA7478 2021-04-11 00:33:03 38062 394 27.31185184351 -72.386775710132
OMA0485 OMA7478 2021-04-11 00:32:48 38060 394 27.323693181494 -72.358894637816
OMA0485 OMA7478 2021-04-11 00:32:33 38057 394 27.335510201205 -72.33105422647
OMA0485 OMA7478 2021-04-11 00:32:18 38054 394 27.347235503182 -72.303417626902
OMA0485 OMA7478 2021-04-11 00:32:03 38048 394 27.359032437978 -72.275600961135
OMA0485 OMA7478 2021-04-11 00:31:48 38067 394 27.370870001112 -72.247663139552
OMA0485 OMA7478 2021-04-11 00:31:33 38091 394 27.382703843644 -72.219712671447
OMA0485 OMA7478 2021-04-11 00:31:18 38092 394 27.394437981915 -72.191990040844
OMA0485 OMA7478 2021-04-11 00:31:03 38091 394 27.406255150647 -72.164052579447
OMA0485 OMA7478 2021-04-11 00:30:48 38091 394 27.417995827139 -72.136280416632
OMA0485 OMA7478 2021-04-11 00:30:33 38092 394 27.429814548426 -72.108304395348
OMA0485 OMA7478 2021-04-11 00:30:18 38092 394 27.441559815349 -72.080484814745
OMA0485 OMA7478 2021-04-11 00:30:04 38092 394 27.453348266672 -72.052546126049
OMA0485 OMA7478 2021-04-11 00:29:48 38091 394 27.46510567411 -72.024664895318
OMA0485 OMA7478 2021-04-11 00:29:33 38092 394 27.47687122994 -71.996748390979
OMA0485 OMA7478 2021-04-11 00:29:18 38093 394 27.488572681267 -71.96896726896
OMA0485 OMA7478 2021-04-11 00:29:03 38094 394 27.500359137334 -71.940968389221
OMA0485 OMA7478 2021-04-11 00:28:48 38096 394 27.512044337388 -71.913194025271
OMA0485 OMA7478 2021-04-11 00:28:33 38097 394 27.523809364923 -71.88521066687
OMA0485 OMA7478 2021-04-11 00:28:18 38098 394 27.535506671637 -71.857371536185
OMA0485 OMA7478 2021-04-11 00:28:03 38099 394 27.547262099898 -71.829377992531
OMA0485 OMA7478 2021-04-11 00:27:48 38100 394 27.558931128559 -71.801575107205
OMA0485 OMA7478 2021-04-11 00:27:33 38101 394 27.570667481521 -71.773596304487
OMA0485 OMA7478 2021-04-11 00:27:18 38101 394 27.582413148181 -71.74557940212
OMA0485 OMA7478 2021-04-11 00:27:03 38101 394 27.594087885203 -71.717710842924
OMA0485 OMA7478 2021-04-11 00:26:48 38101 394 27.605766478317 -71.689814002476
OMA0485 OMA7478 2021-04-11 00:26:33 38102 394 27.617505985921 -71.661726717145
OMA0485 OMA7478 2021-04-11 00:26:18 38101 394 27.62913782562 -71.633826453856
OMA0485 OMA7478 2021-04-11 00:26:03 38101 394 27.640829053906 -71.605761046474
OMA0485 OMA7478 2021-04-11 00:25:48 38101 394 27.652431431614 -71.577893661217
OMA0485 OMA7478 2021-04-11 00:25:33 38101 394 27.664120733389 -71.549798638561
OMA0485 OMA7478 2021-04-11 00:25:18 38101 394 27.675703920401 -71.521940111206
OMA0485 OMA7478 2021-04-11 00:25:03 38101 394 27.687358742184 -71.493894127174
OMA0485 OMA7478 2021-04-11 00:24:48 38101 394 27.698922771209 -71.466050487496
OMA0485 OMA7478 2021-04-11 00:24:33 38101 394 27.710591355671 -71.43793726879
OMA0485 OMA7478 2021-04-11 00:24:18 38101 394 27.722245670215 -71.409840458546
OMA0485 OMA7478 2021-04-11 00:24:03 38101 394 27.733814047796 -71.381932785845
OMA0485 OMA7478 2021-04-11 00:23:48 38101 394 27.745440787209 -71.353866471328
OMA0485 OMA7478 2021-04-11 00:23:33 38101 394 27.756985849799 -71.325980756618
OMA0485 OMA7478 2021-04-11 00:23:18 38101 394 27.768613651965 -71.297880291156
OMA0485 OMA7478 2021-04-11 00:23:03 38101 394 27.780140556202 -71.270006395875
OMA0485 OMA7478 2021-04-11 00:22:48 38101 394 27.791725431991 -71.241974392386
OMA0485 OMA7478 2021-04-11 00:22:34 38102 394 27.803325450633 -71.21388494594
OMA0485 OMA7478 2021-04-11 00:22:18 38101 394 27.814912896952 -71.185807919232
OMA0485 OMA7478 2021-04-11 00:22:03 38101 394 27.826416756443 -71.157916828416
OMA0485 OMA7478 2021-04-11 00:21:48 38101 394 27.837991135793 -71.129840041832
OMA0485 OMA7478 2021-04-11 00:21:33 38101 394 27.849503322262 -71.101898258206
OMA0485 OMA7478 2021-04-11 00:21:18 38101 394 27.861074658795 -71.073797172424
OMA0485 OMA7478 2021-04-11 00:21:03 38101 394 27.872592247191 -71.045811419455
OMA0485 OMA7478 2021-04-11 00:20:48 38102 394 27.884163052126 -71.017678690686
OMA0485 OMA7478 2021-04-11 00:20:33 38101 394 27.8957370915 -70.989520804777
OMA0485 OMA7478 2021-04-11 00:20:18 38101 396 27.907323661265 -70.961316693362
OMA0485 OMA7478 2021-04-11 00:20:04 38101 396 27.918834607753 -70.933281678321
OMA0485 OMA7478 2021-04-11 00:19:48 38102 396 27.930470623222 -70.90492291965
OMA0485 OMA7478 2021-04-11 00:19:33 38102 398 27.942030878607 -70.876730600149
OMA0485 OMA7478 2021-04-11 00:19:18 38101 398 27.953696635447 -70.848256928882
OMA0485 OMA7478 2021-04-11 00:19:03 38102 398 27.965272468829 -70.819988270011
OMA0485 OMA7478 2021-04-11 00:18:48 38100 398 27.976927132916 -70.791506207749
OMA0485 OMA7478 2021-04-11 00:18:33 38101 398 27.988508332756 -70.763189150585
OMA0485 OMA7478 2021-04-11 00:18:18 38101 398 28.000177969562 -70.734636398533
OMA0485 OMA7478 2021-04-11 00:18:03 38102 398 28.011754296977 -70.706289112446
OMA0485 OMA7478 2021-04-11 00:17:48 38101 398 28.023407478624 -70.677723473748
OMA0485 OMA7478 2021-04-11 00:17:33 38101 398 28.034958344765 -70.649347098249
OMA0485 OMA7478 2021-04-11 00:17:18 38102 398 28.046557907416 -70.620806512472
OMA0485 OMA7478 2021-04-11 00:17:03 38101 398 28.058072921126 -70.592455037558
OMA0485 OMA7478 2021-04-11 00:16:48 38101 398 28.069664671997 -70.563895348595
OMA0485 OMA7478 2021-04-11 00:16:33 38101 398 28.081185227081 -70.535494088005
OMA0485 OMA7478 2021-04-11 00:16:18 38102 398 28.092793648839 -70.506853664072
OMA0485 OMA7478 2021-04-11 00:16:03 38102 398 28.104316229955 -70.478404805601
OMA0485 OMA7478 2021-04-11 00:15:48 38101 398 28.115897099244 -70.449794957437
OMA0485 OMA7478 2021-04-11 00:15:33 38101 398 28.127454986647 -70.42122683746
OMA0485 OMA7478 2021-04-11 00:15:18 38101 398 28.138941694254 -70.392818133031
OMA0485 OMA7478 2021-04-11 00:15:03 38102 398 28.150503422851 -70.3642041494
OMA0485 OMA7478 2021-04-11 00:14:48 38101 398 28.161992892401 -70.335746006141
OMA0485 OMA7478 2021-04-11 00:14:33 38101 398 28.173544145778 -70.307120336484
OMA0485 OMA7478 2021-04-11 00:14:18 38100 398 28.185007082418 -70.278695330314
OMA0485 OMA7478 2021-04-11 00:14:03 38099 398 28.196566866854 -70.250011870853
OMA0485 OMA7478 2021-04-11 00:13:48 38097 398 28.208009996948 -70.22159789704
OMA0485 OMA7478 2021-04-11 00:13:33 38095 398 28.21952286032 -70.192990903681
OMA0485 OMA7478 2021-04-11 00:13:18 38092 398 28.231012125919 -70.164421356301
OMA0485 OMA7478 2021-04-11 00:13:03 38089 398 28.242527384937 -70.13577479587
OMA0485 OMA7478 2021-04-11 00:12:48 38086 398 28.25396543591 -70.107300410901
OMA0485 OMA7478 2021-04-11 00:12:33 38082 398 28.265481712582 -70.07861256251
OMA0485 OMA7478 2021-04-11 00:12:18 38079 398 28.276924389377 -70.050091226661
OMA0485 OMA7478 2021-04-11 00:12:03 38077 398 28.288468357385 -70.021296788299
OMA0485 OMA7478 2021-04-11 00:11:48 38076 398 28.299883769747 -69.992806203308
OMA0485 OMA7478 2021-04-11 00:11:33 38075 398 28.311379258298 -69.964093758899
OMA0485 OMA7478 2021-04-11 00:11:18 38074 398 28.322869253061 -69.935377225715
OMA0485 OMA7478 2021-04-11 00:11:03 38074 398 28.334325087971 -69.906728704273
OMA0485 OMA7478 2021-04-11 00:10:48 38075 398 28.345708977987 -69.878239218182
OMA0485 OMA7478 2021-04-11 00:10:33 38074 398 28.357159326926 -69.849565470397
OMA0485 OMA7478 2021-04-11 00:10:18 38074 398 28.368627569226 -69.820832025157
OMA0485 OMA7478 2021-04-11 00:10:04 38074 398 28.379997760784 -69.792323896119
OMA0485 OMA7478 2021-04-11 00:09:48 38074 398 28.391465037892 -69.763554912551
OMA0485 OMA7478 2021-04-11 00:09:33 38074 398 28.402851707004 -69.734968916688
OMA0485 OMA7478 2021-04-11 00:09:18 38074 398 28.414329860691 -69.706130710754
OMA0485 OMA7478 2021-04-11 00:09:03 38074 398 28.42571237729 -69.677505654746
OMA0485 OMA7478 2021-04-11 00:08:48 38075 398 28.437139714658 -69.648700951682
OMA0485 OMA7478 2021-04-11 00:08:33 38075 398 28.448439006326 -69.620163994443
OMA0485 OMA7478 2021-04-11 00:08:18 38074 398 28.459833735857 -69.591370798388
OMA0485 OMA7478 2021-04-11 00:08:03 38074 398 28.471109604409 -69.562864950526
OMA0485 OMA7478 2021-04-11 00:07:48 38075 398 28.482492687606 -69.534069833481
OMA0485 OMA7478 2021-04-11 00:07:33 38074 398 28.493803784238 -69.505432237673
OMA0485 OMA7478 2021-04-11 00:07:18 38074 398 28.505164873346 -69.476649607067
OMA0485 OMA7478 2021-04-11 00:07:03 38074 398 28.516453362804 -69.448029940506
OMA0485 OMA7478 2021-04-11 00:06:48 38074 398 28.527799174154 -69.419250191386
OMA0485 OMA7478 2021-04-11 00:06:33 38074 398 28.539075635662 -69.390628070226
OMA0485 OMA7478 2021-04-11 00:06:18 38074 398 28.5504024274 -69.361855498141
OMA0485 OMA7478 2021-04-11 00:06:03 38074 398 28.561673580465 -69.333204615481
OMA0485 OMA7478 2021-04-11 00:05:49 38075 398 28.572991794133 -69.304418169574
OMA0485 OMA7478 2021-04-11 00:05:33 38074 398 28.584240639316 -69.275785963212
OMA0485 OMA7478 2021-04-11 00:05:18 38074 398 28.595586657206 -69.24688719271
OMA0485 OMA7478 2021-04-11 00:05:03 38075 398 28.606816595192 -69.218266125426
OMA0485 OMA7478 2021-04-11 00:04:48 38074 398 28.618123611808 -69.189427826111
OMA0485 OMA7478 2021-04-11 00:04:33 38074 396 28.629332333736 -69.160824194486
OMA0485 OMA7478 2021-04-11 00:04:18 38074 398 28.640631911565 -69.131980118858
OMA0485 OMA7478 2021-04-11 00:04:03 38073 398 28.651859450927 -69.103307965228
OMA0485 OMA7478 2021-04-11 00:03:48 38074 400 28.663216483386 -69.074286291341
OMA0485 OMA7478 2021-04-11 00:03:33 38072 402 28.674508755292 -69.045391836398
OMA0485 OMA7478 2021-04-11 00:03:18 38074 400 28.685897678525 -69.016209317893
OMA0485 OMA7478 2021-04-11 00:03:03 38077 398 28.697111099553 -68.98742776451
OMA0485 OMA7478 2021-04-11 00:02:48 38074 390 28.708262755083 -68.958794622666
OMA0485 OMA7478 2021-04-11 00:02:33 38072 392 28.719296613778 -68.930482848226
OMA0485 OMA7478 2021-04-11 00:02:18 38075 392 28.730396471647 -68.901954782239
OMA0485 OMA7478 2021-04-11 00:02:03 38079 386 28.741319971815 -68.873838055056
OMA0485 OMA7478 2021-04-11 00:01:48 38078 380 28.752136401059 -68.84600952984
OMA0485 OMA7478 2021-04-11 00:01:33 38068 380 28.76279799636 -68.818653048069
OMA0485 OMA7478 2021-04-11 00:01:18 38227 390 28.773722711887 -68.790629942503
OMA0485 OMA7478 2021-04-11 00:01:03 38744 396 28.784757169938 -68.76223914064
OMA0485 OMA7478 2021-04-11 00:00:48 39182 402 28.795997005749 -68.733293305866
OMA0485 OMA7478 2021-04-11 00:00:33 39844 404 28.807300376934 -68.704139897374
OMA0485 OMA7478 2021-04-11 00:00:18 40074 404 28.818672027368 -68.674782063454
OMA0485 OMA7478 2021-04-11 00:00:06 40075 404 28.829937971287 -68.64563707823
OMA0485 OMA7478 2021-04-10 23:59:48 40075 402 28.841257584527 -68.616286528067
OMA0485 OMA7478 2021-04-10 23:59:33 40074 402 28.852475488211 -68.587179410115
OMA0485 OMA7478 2021-04-10 23:59:18 40074 402 28.863755652989 -68.557885902704
OMA0485 OMA7478 2021-04-10 23:59:03 40073 402 28.874936996295 -68.528831505274
OMA0485 OMA7478 2021-04-10 23:58:48 40074 402 28.886203623233 -68.499530100456
OMA0485 OMA7478 2021-04-10 23:58:33 40075 402 28.897400486996 -68.470396302078
OMA0485 OMA7478 2021-04-10 23:58:18 40074 402 28.908666438361 -68.441067069575
OMA0485 OMA7478 2021-04-10 23:58:03 40075 402 28.919846339408 -68.41193724658
OMA0485 OMA7478 2021-04-10 23:57:48 40074 402 28.931087399546 -68.382624635983
OMA0485 OMA7478 2021-04-10 23:57:33 40074 402 28.941034369073 -68.356688620116
OMA0485 OMA7478 2021-04-10 23:57:18 40074 402 28.95226899077 -68.32737107364
OMA0485 OMA7478 2021-04-10 23:57:03 40074 404 28.963446041225 -68.298180952881
OMA0485 OMA7478 2021-04-10 23:56:48 40075 404 28.974716314924 -68.26873165846
OMA0485 OMA7478 2021-04-10 23:56:33 40074 404 28.985976021393 -68.239278415336
OMA0485 OMA7478 2021-04-10 23:56:18 40075 404 28.996301785907 -68.212251943759
OMA0485 OMA7478 2021-04-10 23:56:03 40074 404 29.007494311088 -68.182935397799
OMA0485 OMA7478 2021-04-10 23:55:48 40072 406 29.018773542388 -68.153373498638
OMA0485 OMA7478 2021-04-10 23:55:33 40075 406 29.029987467169 -68.123971802098
OMA0485 OMA7478 2021-04-10 23:55:18 40075 406 29.041294673459 -68.09428372453
OMA0485 OMA7478 2021-04-10 23:55:03 40074 406 29.052517150627 -68.064797684491
OMA0485 OMA7478 2021-04-10 23:54:48 40075 406 29.062573497877 -68.038366486579
OMA0485 OMA7478 2021-04-10 23:54:33 40074 406 29.07386457175 -68.00867371409
OMA0485 OMA7478 2021-04-10 23:54:18 40074 408 29.085087645257 -67.979139983622
OMA0485 OMA7478 2021-04-10 23:54:03 40074 408 29.096402014849 -67.949346076475
OMA0485 OMA7478 2021-04-10 23:53:48 40074 408 29.107662499407 -67.919672319626
OMA0485 OMA7478 2021-04-10 23:53:33 40075 410 29.119005766134 -67.889752142359
OMA0485 OMA7478 2021-04-10 23:53:18 40075 410 29.130356773846 -67.859776736608
OMA0485 OMA7478 2021-04-10 23:53:03 40074 410 29.141610683809 -67.830035398239
OMA0485 OMA7478 2021-04-10 23:52:48 40075 410 29.152869566552 -67.800275730416
OMA0485 OMA7478 2021-04-10 23:52:33 40075 410 29.164188377132 -67.770325657731
OMA0485 OMA7478 2021-04-10 23:52:18 40075 408 29.175498688402 -67.740394808292
OMA0485 OMA7478 2021-04-10 23:52:03 40074 408 29.186710929026 -67.710706537291
OMA0485 OMA7478 2021-04-10 23:51:48 40074 408 29.197991139722 -67.680803275414
OMA0485 OMA7478 2021-04-10 23:51:33 40074 410 29.209207852663 -67.651002172889
OMA0485 OMA7478 2021-04-10 23:51:18 40074 410 29.220458835089 -67.621048824105
OMA0485 OMA7478 2021-04-10 23:51:04 40074 410 29.231638640159 -67.591269145963
OMA0485 OMA7478 2021-04-10 23:50:48 40075 410 29.242889480478 -67.56126727323
OMA0485 OMA7478 2021-04-10 23:50:33 40075 408 29.254065319853 -67.531426603632
OMA0485 OMA7478 2021-04-10 23:50:18 40074 408 29.265267129705 -67.501518112392
OMA0485 OMA7478 2021-04-10 23:50:03 40073 408 29.276390763076 -67.471800546282
OMA0485 OMA7478 2021-04-10 23:49:48 40075 408 29.287582306469 -67.441873031897
OMA0485 OMA7478 2021-04-10 23:49:33 40074 410 29.298718543974 -67.412069848299
OMA0485 OMA7478 2021-04-10 23:49:18 40075 408 29.309917961631 -67.382063893461
OMA0485 OMA7478 2021-04-10 23:49:03 40075 408 29.321042777934 -67.352233335745
OMA0485 OMA7478 2021-04-10 23:48:48 40074 408 29.332214171404 -67.322265507236
OMA0485 OMA7478 2021-04-10 23:48:33 40074 408 29.34330246238 -67.292508880982
OMA0485 OMA7478 2021-04-10 23:48:18 40076 408 29.354449553227 -67.262572748819
OMA0485 OMA7478 2021-04-10 23:48:03 40074 408 29.365519870119 -67.23280947914
OMA0485 OMA7478 2021-04-10 23:47:48 40074 406 29.376640978797 -67.202888047892
OMA0485 OMA7478 2021-04-10 23:47:33 40074 406 29.387674900072 -67.173198096024
OMA0485 OMA7478 2021-04-10 23:47:18 40074 408 29.398788369204 -67.143265805842
OMA0485 OMA7478 2021-04-10 23:47:03 40074 408 29.40982095414 -67.113531831271
OMA0485 OMA7478 2021-04-10 23:46:48 40075 408 29.420921854966 -67.083575241891
OMA0485 OMA7478 2021-04-10 23:46:33 40074 406 29.431935818673 -67.053836644936
OMA0485 OMA7478 2021-04-10 23:46:18 40075 406 29.442999168874 -67.023946883354
OMA0485 OMA7478 2021-04-10 23:46:03 40074 406 29.453976970825 -66.994270016151
OMA0485 OMA7478 2021-04-10 23:45:48 40074 406 29.465036483397 -66.964351074937
OMA0485 OMA7478 2021-04-10 23:45:33 40077 406 29.47599975359 -66.934656927572
OMA0485 OMA7478 2021-04-10 23:45:18 40102 406 29.487037882259 -66.904710436734
OMA0485 OMA7478 2021-04-10 23:45:03 40102 406 29.497983122026 -66.875029029272
OMA0485 OMA7478 2021-04-10 23:44:48 40101 404 29.508971132681 -66.845209824078
OMA0485 OMA7478 2021-04-10 23:44:33 40102 404 29.519893081843 -66.815555223775
OMA0485 OMA7478 2021-04-10 23:44:18 40100 406 29.530890492271 -66.785668397041
OMA0485 OMA7478 2021-04-10 23:44:03 40101 406 29.541820704573 -66.755945494846
OMA0485 OMA7478 2021-04-10 23:43:48 40101 406 29.552799130683 -66.726068860034
OMA0485 OMA7478 2021-04-10 23:43:33 40102 406 29.56374097012 -66.696266877056
OMA0485 OMA7478 2021-04-10 23:43:18 40102 406 29.574721758322 -66.666315483689
OMA0485 OMA7478 2021-04-10 23:43:03 40102 406 29.585595879277 -66.636579820504
OMA0485 OMA7478 2021-04-10 23:42:48 40101 406 29.596532585801 -66.606640860216
OMA0485 OMA7478 2021-04-10 23:42:33 40101 406 29.607387028899 -66.576906378716
OMA0485 OMA7478 2021-04-10 23:42:18 40101 406 29.618315102053 -66.546948955573
OMA0485 OMA7478 2021-04-10 23:42:03 40102 406 29.629153120278 -66.517210418649
OMA0485 OMA7478 2021-04-10 23:41:48 40101 406 29.640057170283 -66.487263027346
OMA0485 OMA7478 2021-04-10 23:41:33 40101 404 29.650868909114 -66.457551224209
OMA0485 OMA7478 2021-04-10 23:41:18 40101 404 29.66175757411 -66.427609782641
OMA0485 OMA7478 2021-04-10 23:41:03 40102 404 29.672547023934 -66.397918736876
OMA0485 OMA7478 2021-04-10 23:40:48 40101 404 29.683418351724 -66.367977668834
OMA0485 OMA7478 2021-04-10 23:40:33 40101 404 29.694201001975 -66.338262077076
OMA0485 OMA7478 2021-04-10 23:40:18 40101 404 29.705053571795 -66.308333335392
OMA0485 OMA7478 2021-04-10 23:40:04 40102 404 29.715818614209 -66.278624120256
OMA0485 OMA7478 2021-04-10 23:39:48 40101 406 29.72667733249 -66.248625822699
OMA0485 OMA7478 2021-04-10 23:39:33 40101 404 29.737450501164 -66.218844663794
OMA0485 OMA7478 2021-04-10 23:39:18 40102 404 29.7482866376 -66.188869218022
OMA0485 OMA7478 2021-04-10 23:39:03 40101 404 29.75904467493 -66.159085230991
OMA0485 OMA7478 2021-04-10 23:38:48 40102 404 29.769911301239 -66.128983146576
OMA0485 OMA7478 2021-04-10 23:38:33 40102 404 29.780656917367 -66.09918822724
OMA0485 OMA7478 2021-04-10 23:38:18 40101 404 29.791458315305 -66.069214869213
OMA0485 OMA7478 2021-04-10 23:38:04 40101 404 29.802184438734 -66.039433430162
OMA0485 OMA7478 2021-04-10 23:37:48 40101 406 29.812999670012 -66.009384950893
OMA0485 OMA7478 2021-04-10 23:37:33 40102 406 29.823727005176 -65.979555252787
OMA0485 OMA7478 2021-04-10 23:37:18 40102 406 29.834543407048 -65.949451210696
OMA0485 OMA7478 2021-04-10 23:37:03 40102 406 29.845258248185 -65.91960435791
OMA0485 OMA7478 2021-04-10 23:36:48 40101 404 29.856037065441 -65.889556534812
OMA0485 OMA7478 2021-04-10 23:36:33 40102 404 29.866743490582 -65.859693213533
OMA0485 OMA7478 2021-04-10 23:36:18 40101 404 29.877507370171 -65.829646277559
OMA0485 OMA7478 2021-04-10 23:36:03 40102 404 29.888195044336 -65.799792201048
OMA0485 OMA7478 2021-04-10 23:35:48 40101 406 29.898952810932 -65.769719158277
OMA0485 OMA7478 2021-04-10 23:35:33 40101 406 29.909650363974 -65.739790576675
OMA0485 OMA7478 2021-04-10 23:35:18 40102 406 29.920405652652 -65.709675952459
OMA0485 OMA7478 2021-04-10 23:35:03 40101 406 29.931083121764 -65.679743582236
OMA0485 OMA7478 2021-04-10 23:34:48 40102 404 29.941795294434 -65.649649761007
OMA0485 OMA7478 2021-04-10 23:34:33 40102 404 29.95241664819 -65.619751621771
OMA0485 OMA7478 2021-04-10 23:34:18 40101 404 29.96308512392 -65.589699109588
OMA0485 OMA7478 2021-04-10 23:34:03 40101 404 29.973682748737 -65.559825142819
OMA0485 OMA7478 2021-04-10 23:33:48 40102 404 29.984351590805 -65.529723858817
OMA0485 OMA7478 2021-04-10 23:33:33 40102 404 29.994982737879 -65.499705390858
OMA0485 OMA7478 2021-04-10 23:33:18 40101 404 30.005636705973 -65.469601118648
OMA0485 OMA7478 2021-04-10 23:33:03 40101 404 30.016206199656 -65.439714585398
OMA0485 OMA7478 2021-04-10 23:32:48 40101 404 30.026858888607 -65.409572106817
OMA0485 OMA7478 2021-04-10 23:32:33 40102 404 30.037429248227 -65.379638509295
OMA0485 OMA7478 2021-04-10 23:32:18 40101 406 30.048082846053 -65.349443923841
OMA0485 OMA7478 2021-04-10 23:32:03 40102 404 30.058645078139 -65.319482685397
OMA0485 OMA7478 2021-04-10 23:31:48 40101 404 30.069267241512 -65.289325959468
OMA0485 OMA7478 2021-04-10 23:31:33 40101 404 30.079822595342 -65.259336733257
OMA0485 OMA7478 2021-04-10 23:31:18 40101 404 30.0904209556 -65.22920575394
OMA0485 OMA7478 2021-04-10 23:31:03 40102 404 30.100950274595 -65.199247810528
OMA0485 OMA7478 2021-04-10 23:30:48 40101 404 30.111542209316 -65.169086855752
OMA0485 OMA7478 2021-04-10 23:30:33 40102 404 30.122063309449 -65.139107061071
OMA0485 OMA7478 2021-04-10 23:30:18 40101 404 30.131614868846 -65.111868473435
OMA0485 OMA7478 2021-04-10 23:30:05 40101 404 30.142123400807 -65.081875538644
OMA0485 OMA7478 2021-04-10 23:29:48 40101 404 30.152715591125 -65.051620918896
OMA0485 OMA7478 2021-04-10 23:29:33 40101 404 30.163218814118 -65.021594925389
OMA0485 OMA7478 2021-04-10 23:29:18 40102 404 30.173774014532 -64.991400084804
OMA0485 OMA7478 2021-04-10 23:29:03 40101 404 30.18424320081 -64.961425025899
OMA0485 OMA7478 2021-04-10 23:28:48 40101 404 30.194771381579 -64.931257754532
OMA0485 OMA7478 2021-04-10 23:28:33 40102 404 30.205214162772 -64.901309516125
OMA0485 OMA7478 2021-04-10 23:28:18 40101 402 30.215710274384 -64.871182872377
OMA0485 OMA7478 2021-04-10 23:28:03 40101 402 30.226102070737 -64.841335012405
OMA0485 OMA7478 2021-04-10 23:27:48 40101 402 30.236564791724 -64.811266385245
OMA0485 OMA7478 2021-04-10 23:27:33 40101 402 30.24695317627 -64.781396087034
OMA0485 OMA7478 2021-04-10 23:27:18 40101 402 30.257407978668 -64.751310224319
OMA0485 OMA7478 2021-04-10 23:27:03 40100 402 30.267862946184 -64.721199388723
OMA0485 OMA7478 2021-04-10 23:26:48 40102 402 30.278240788453 -64.691280251992
OMA0485 OMA7478 2021-04-10 23:26:33 40102 402 30.288619092518 -64.66130161791
OMA0485 OMA7478 2021-04-10 23:26:18 40101 402 30.29903384906 -64.631137120231
OMA0485 OMA7478 2021-04-10 23:26:03 40102 402 30.309425480118 -64.601013958279
OMA0485 OMA7478 2021-04-10 23:25:48 40101 402 30.319731245245 -64.571115285435
OMA0485 OMA7478 2021-04-10 23:25:33 40102 402 30.330088847908 -64.541046764996
OMA0485 OMA7478 2021-04-10 23:25:18 40101 402 30.340390462595 -64.511115862197
OMA0485 OMA7478 2021-04-10 23:25:03 40101 402 30.350671737725 -64.481224179624
OMA0485 OMA7478 2021-04-10 23:24:48 40102 402 30.361047223615 -64.451033142667
OMA0485 OMA7478 2021-04-10 23:24:33 40102 402 30.371399463844 -64.420878844658
OMA0485 OMA7478 2021-04-10 23:24:18 40102 402 30.38167692125 -64.39091675244
OMA0485 OMA7478 2021-04-10 23:24:03 40101 402 30.391993747748 -64.360816028726
OMA0485 OMA7478 2021-04-10 23:23:48 40101 400 30.401072643076 -64.334313320601
OMA0485 OMA7478 2021-04-10 23:23:33 40101 402 30.411375960822 -64.304219213634
OMA0485 OMA7478 2021-04-10 23:23:18 40101 402 30.421621488392 -64.274270354908
OMA0485 OMA7478 2021-04-10 23:23:03 40102 402 30.431925797046 -64.244121926592
OMA0485 OMA7478 2021-04-10 23:22:48 40101 402 30.442171834098 -64.214117946104
OMA0485 OMA7478 2021-04-10 23:22:33 40101 402 30.452457003081 -64.183977001648
OMA0485 OMA7478 2021-04-10 23:22:18 40101 402 30.462672551825 -64.154019445103
OMA0485 OMA7478 2021-04-10 23:22:03 40102 402 30.47294934803 -64.123859704286
OMA0485 OMA7478 2021-04-10 23:21:48 40101 402 30.483166840315 -64.093848273289
OMA0485 OMA7478 2021-04-10 23:21:33 40101 402 30.493437706183 -64.063656549312
OMA0485 OMA7478 2021-04-10 23:21:18 40101 402 30.503631169759 -64.033669060663
OMA0485 OMA7478 2021-04-10 23:21:03 40101 402 30.51390909872 -64.003405967169
OMA0485 OMA7478 2021-04-10 23:20:48 40102 402 30.524088275254 -63.973410382054
OMA0485 OMA7478 2021-04-10 23:20:33 40101 402 30.534343118691 -63.943169177557
OMA0485 OMA7478 2021-04-10 23:20:18 40101 402 30.544511256104 -63.913161695264
OMA0485 OMA7478 2021-04-10 23:20:04 40101 402 30.554736297663 -63.882964121602
OMA0485 OMA7478 2021-04-10 23:19:48 40101 402 30.564911058241 -63.852893053183
OMA0485 OMA7478 2021-04-10 23:19:33 40102 402 30.57514406015 -63.822622441854
OMA0485 OMA7478 2021-04-10 23:19:18 40101 402 30.585300295081 -63.792552494012
OMA0485 OMA7478 2021-04-10 23:19:03 40101 402 30.595508032445 -63.76230792278
OMA0485 OMA7478 2021-04-10 23:18:48 40102 402 30.605650558749 -63.732229530583
OMA0485 OMA7478 2021-04-10 23:18:33 40101 402 30.615851422988 -63.701947620094
OMA0485 OMA7478 2021-04-10 23:18:18 40101 400 30.625955369998 -63.671916265489
OMA0485 OMA7478 2021-04-10 23:18:03 40101 400 30.636086124673 -63.641729142808
OMA0485 OMA7478 2021-04-10 23:17:48 40102 400 30.646166974476 -63.611643706979
OMA0485 OMA7478 2021-04-10 23:17:33 40101 400 30.656297773783 -63.581379032045
OMA0485 OMA7478 2021-04-10 23:17:18 40101 402 30.666360993016 -63.551293916381
OMA0485 OMA7478 2021-04-10 23:17:03 40101 400 30.676474587557 -63.521031749407
OMA0485 OMA7478 2021-04-10 23:16:48 40102 400 30.686522127713 -63.490941511101
OMA0485 OMA7478 2021-04-10 23:16:33 40101 400 30.696631157112 -63.460641671365
OMA0485 OMA7478 2021-04-10 23:16:18 40101 400 30.706657224474 -63.43057461835
OMA0485 OMA7478 2021-04-10 23:16:04 40101 400 30.716724418912 -63.400358928678
OMA0485 OMA7478 2021-04-10 23:15:48 40102 400 30.726736459645 -63.370284725309
OMA0485 OMA7478 2021-04-10 23:15:33 40100 400 30.736815591019 -63.339985179057
OMA0485 OMA7478 2021-04-10 23:15:18 40102 402 30.746832714401 -63.309851398295
OMA0485 OMA7478 2021-04-10 23:15:03 40102 402 30.756902334859 -63.279526905845
OMA0485 OMA7478 2021-04-10 23:14:48 40101 402 30.766909171422 -63.249365590883
OMA0485 OMA7478 2021-04-10 23:14:33 40101 400 30.776959722945 -63.219050716727
OMA0485 OMA7478 2021-04-10 23:14:18 40101 402 30.786944331552 -63.188913587572
OMA0485 OMA7478 2021-04-10 23:14:03 40101 402 30.796989608379 -63.158569805173
OMA0485 OMA7478 2021-04-10 23:13:48 40101 402 30.807038402271 -63.128188376693
OMA0485 OMA7478 2021-04-10 23:13:33 40101 402 30.81700030052 -63.098040995584
OMA0485 OMA7478 2021-04-10 23:13:18 40101 402 30.827035429816 -63.067646720478
OMA0485 OMA7478 2021-04-10 23:13:03 40102 400 30.836985237591 -63.037482063793
OMA0485 OMA7478 2021-04-10 23:12:48 40102 400 30.846985478041 -63.007134305177
OMA0485 OMA7478 2021-04-10 23:12:33 40101 398 30.856876246322 -62.97708725331
OMA0485 OMA7478 2021-04-10 23:12:18 40101 398 30.866813596231 -62.94689349495
OMA0485 OMA7478 2021-04-10 23:12:04 40101 398 30.876669605182 -62.916933613872
OMA0485 OMA7478 2021-04-10 23:11:48 40101 398 30.8865954098 -62.886740949409
OMA0485 OMA7478 2021-04-10 23:11:33 40101 400 30.896471473745 -62.85667992617
OMA0485 OMA7478 2021-04-10 23:11:18 40101 400 30.90643715995 -62.82631726737
OMA0485 OMA7478 2021-04-10 23:11:03 40101 400 30.916336916345 -62.796131246333
OMA0485 OMA7478 2021-04-10 23:10:48 40101 402 30.926317905975 -62.765673791978
OMA0485 OMA7478 2021-04-10 23:10:33 40101 402 30.936246467921 -62.735344657134
OMA0485 OMA7478 2021-04-10 23:10:18 40102 402 30.94622816716 -62.704823770064
OMA0485 OMA7478 2021-04-10 23:10:04 40100 402 30.956137996078 -62.674478787047
OMA0485 OMA7478 2021-04-10 23:09:48 40102 402 30.966096371107 -62.643911708413
OMA0485 OMA7478 2021-04-10 23:09:33 40102 404 30.975990822477 -62.613489832406
OMA0485 OMA7478 2021-04-10 23:09:18 40101 404 30.985944732786 -62.582861663342
OMA0485 OMA7478 2021-04-10 23:09:03 40101 404 30.995860292119 -62.552330931196
OMA0485 OMA7478 2021-04-10 23:08:48 40102 406 31.005859560579 -62.521517333168
OMA0485 OMA7478 2021-04-10 23:08:33 40102 406 31.015818241923 -62.490794501951
OMA0485 OMA7478 2021-04-10 23:08:18 40102 408 31.025830560068 -62.459875622961
OMA0485 OMA7478 2021-04-10 23:08:03 40102 408 31.035783420244 -62.429111437083
OMA0485 OMA7478 2021-04-10 23:07:48 40101 408 31.045800968159 -62.398121508117
OMA0485 OMA7478 2021-04-10 23:07:33 40102 408 31.055731650721 -62.367375785094
OMA0485 OMA7478 2021-04-10 23:07:18 40101 408 31.065721652419 -62.336421421136
OMA0485 OMA7478 2021-04-10 23:07:03 40101 408 31.07565026222 -62.305629354213
OMA0485 OMA7478 2021-04-10 23:06:48 40101 408 31.085645613584 -62.274604740692
OMA0485 OMA7478 2021-04-10 23:06:33 40102 408 31.095580287483 -62.243736261027
OMA0485 OMA7478 2021-04-10 23:06:18 40102 408 31.105551597421 -62.212723920503
OMA0485 OMA7478 2021-04-10 23:06:03 40101 406 31.115452149597 -62.181907414309
OMA0485 OMA7478 2021-04-10 23:05:48 40101 406 31.125394964995 -62.150939336612
OMA0485 OMA7478 2021-04-10 23:05:33 40101 408 31.13526731577 -62.12016486543
OMA0485 OMA7478 2021-04-10 23:05:18 40101 408 31.145218322827 -62.089116399608
OMA0485 OMA7478 2021-04-10 23:05:03 40102 408 31.155086973888 -62.058298125835
OMA0485 OMA7478 2021-04-10 23:04:48 40101 408 31.165017702123 -62.027258032665
OMA0485 OMA7478 2021-04-10 23:04:33 40101 408 31.174874040463 -61.996423181593
OMA0485 OMA7478 2021-04-10 23:04:18 40102 408 31.184789291955 -61.965380202351
OMA0485 OMA7478 2021-04-10 23:04:03 40102 408 31.194638341901 -61.934514687548
OMA0485 OMA7478 2021-04-10 23:03:48 40101 406 31.20454372613 -61.903444763994
OMA0485 OMA7478 2021-04-10 23:03:33 40101 406 31.21330038726 -61.875959509145
OMA0485 OMA7478 2021-04-10 23:03:18 40101 406 31.22318349378 -61.844916926357
OMA0485 OMA7478 2021-04-10 23:03:03 40101 408 31.232997524357 -61.814064014721
OMA0485 OMA7478 2021-04-10 23:02:48 40101 408 31.242893807529 -61.78292424848
OMA0485 OMA7478 2021-04-10 23:02:33 40101 408 31.252696571687 -61.752051219802
OMA0485 OMA7478 2021-04-10 23:02:18 40102 408 31.262609149434 -61.720798195151
OMA0485 OMA7478 2021-04-10 23:02:04 40101 408 31.272399732806 -61.689892869817
OMA0485 OMA7478 2021-04-10 23:01:48 40102 406 31.282242923349 -61.658763882468
OMA0485 OMA7478 2021-04-10 23:01:33 40101 406 31.292037727826 -61.627705056895
OMA0485 OMA7478 2021-04-10 23:01:18 40101 406 31.301776782147 -61.596797063518
OMA0485 OMA7478 2021-04-10 23:01:03 40101 406 31.311554784334 -61.565740940414
OMA0485 OMA7478 2021-04-10 23:00:48 40102 406 31.321271902839 -61.534849862428
OMA0485 OMA7478 2021-04-10 23:00:33 40102 406 31.33104311789 -61.50375782747
OMA0485 OMA7478 2021-04-10 23:00:18 40101 406 31.340748984343 -61.472847005968
OMA0485 OMA7478 2021-04-10 23:00:05 40102 406 31.350493285841 -61.441792563731
OMA0485 OMA7478 2021-04-10 22:59:48 40101 406 31.360189195539 -61.410861171621
OMA0485 OMA7478 2021-04-10 22:59:33 40102 406 31.36993780794 -61.379731623983
OMA0485 OMA7478 2021-04-10 22:59:18 40101 406 31.379606020271 -61.348832862034
OMA0485 OMA7478 2021-04-10 22:59:03 40101 406 31.389340899458 -61.317698058352
OMA0485 OMA7478 2021-04-10 22:58:48 40101 406 31.399088080182 -61.286498474595
OMA0485 OMA7478 2021-04-10 22:58:33 40102 408 31.408746960013 -61.255550674022
OMA0485 OMA7478 2021-04-10 22:58:18 40101 408 31.417413306408 -61.227754205339
OMA0485 OMA7478 2021-04-10 22:58:03 40102 406 31.427127509871 -61.19657263087
OMA0485 OMA7478 2021-04-10 22:57:48 40101 406 31.436760788125 -61.165619000624
OMA0485 OMA7478 2021-04-10 22:57:33 40101 406 31.446438918329 -61.134496990206
OMA0485 OMA7478 2021-04-10 22:57:18 40101 406 31.456060531774 -61.103529306046
OMA0485 OMA7478 2021-04-10 22:57:03 40101 406 31.465723023844 -61.072399138088
OMA0485 OMA7478 2021-04-10 22:56:48 40101 404 31.475302379549 -61.041510077809
OMA0485 OMA7478 2021-04-10 22:56:33 40101 404 31.484924271553 -61.0104602788
OMA0485 OMA7478 2021-04-10 22:56:18 40101 404 31.494477901016 -60.979604931741
OMA0485 OMA7478 2021-04-10 22:56:03 40101 404 31.50411616004 -60.948452192143
OMA0485 OMA7478 2021-04-10 22:55:48 40101 404 31.513649898564 -60.917609982693
OMA0485 OMA7478 2021-04-10 22:55:33 40102 404 31.523237977621 -60.886566099234
OMA0485 OMA7478 2021-04-10 22:55:18 40101 404 31.53275926452 -60.855710292772
OMA0485 OMA7478 2021-04-10 22:55:03 40101 404 31.542346863763 -60.8246148694
OMA0485 OMA7478 2021-04-10 22:54:48 40101 404 31.551846050751 -60.793781367774
OMA0485 OMA7478 2021-04-10 22:54:33 40101 404 31.561431876469 -60.762637212603
OMA0485 OMA7478 2021-04-10 22:54:18 40102 406 31.570941342717 -60.731712090393
OMA0485 OMA7478 2021-04-10 22:54:03 40102 406 31.58050985126 -60.700557729958
OMA0485 OMA7478 2021-04-10 22:53:48 40101 404 31.589994952504 -60.669625137229
OMA0485 OMA7478 2021-04-10 22:53:33 40101 404 31.599502384486 -60.638531226894
OMA0485 OMA7478 2021-04-10 22:53:18 40101 404 31.608935174523 -60.607639135052
OMA0485 OMA7478 2021-04-10 22:53:03 40101 404 31.618419755409 -60.576548914363
OMA0485 OMA7478 2021-04-10 22:52:48 40101 404 31.627838358601 -60.545648871753
OMA0485 OMA7478 2021-04-10 22:52:33 40101 404 31.63731644193 -60.514525940862
OMA0485 OMA7478 2021-04-10 22:52:18 40102 404 31.646718141106 -60.483624670953
OMA0485 OMA7478 2021-04-10 22:52:03 40101 404 31.656193266138 -60.452451527498
OMA0485 OMA7478 2021-04-10 22:51:48 40101 404 31.665581079286 -60.42153905181
OMA0485 OMA7478 2021-04-10 22:51:33 40101 404 31.675029525776 -60.390400672951
OMA0485 OMA7478 2021-04-10 22:51:18 40101 404 31.684409185421 -60.359460209496
OMA0485 OMA7478 2021-04-10 22:51:03 40101 404 31.693842832105 -60.32831700148
OMA0485 OMA7478 2021-04-10 22:50:48 40101 404 31.703207218578 -60.297373443095
OMA0485 OMA7478 2021-04-10 22:50:33 40101 404 31.712641419597 -60.266171884986
OMA0485 OMA7478 2021-04-10 22:50:18 40101 404 31.721996045314 -60.235203033557
OMA0485 OMA7478 2021-04-10 22:50:05 40101 404 31.7314003685 -60.204040188747
OMA0485 OMA7478 2021-04-10 22:49:48 40101 404 31.740727425245 -60.17310648878
OMA0485 OMA7478 2021-04-10 22:49:33 40101 404 31.75011360276 -60.141951701459
OMA0485 OMA7478 2021-04-10 22:49:18 40101 404 31.759432874274 -60.110992835179
OMA0485 OMA7478 2021-04-10 22:49:03 40101 404 31.768815706441 -60.079794865588
OMA0485 OMA7478 2021-04-10 22:48:48 40101 404 31.778135991939 -60.048775257982
OMA0485 OMA7478 2021-04-10 22:48:33 40102 404 31.787505550977 -60.017563279499
OMA0485 OMA7478 2021-04-10 22:48:18 40102 404 31.796808185965 -59.986542868146
OMA0485 OMA7478 2021-04-10 22:48:03 40101 404 31.806174452355 -59.955281784339
OMA0485 OMA7478 2021-04-10 22:47:48 40101 404 31.815449223332 -59.924298552159
OMA0485 OMA7478 2021-04-10 22:47:33 40101 404 31.824788243252 -59.893076456792
OMA0485 OMA7478 2021-04-10 22:47:18 40101 404 31.834043589346 -59.862108299054
OMA0485 OMA7478 2021-04-10 22:47:03 40101 404 31.843372658178 -59.830865452986
OMA0485 OMA7478 2021-04-10 22:46:48 40101 404 31.852697942311 -59.799607572497
OMA0485 OMA7478 2021-04-10 22:46:33 40101 404 31.861961920719 -59.7685243821
OMA0485 OMA7478 2021-04-10 22:46:18 40101 404 31.871286931918 -59.737204282857
OMA0485 OMA7478 2021-04-10 22:46:03 40102 404 31.880551098697 -59.706055471951
OMA0485 OMA7478 2021-04-10 22:45:48 40102 404 31.889837801196 -59.674787132735
OMA0485 OMA7478 2021-04-10 22:45:33 40101 404 31.899030788304 -59.643743354922
OMA0485 OMA7478 2021-04-10 22:45:18 40102 404 31.908029206915 -59.613301308513
OMA0485 OMA7478 2021-04-10 22:45:03 40102 404 31.917208250661 -59.582220319251
OMA0485 OMA7478 2021-04-10 22:44:48 40102 404 31.926428549923 -59.550971563469
OMA0485 OMA7478 2021-04-10 22:44:33 40102 404 31.93558746065 -59.51990204679
OMA0485 OMA7478 2021-04-10 22:44:18 40102 404 31.944801215829 -59.488617592597
OMA0485 OMA7478 2021-04-10 22:44:03 40102 404 31.953945211285 -59.457541192369
OMA0485 OMA7478 2021-04-10 22:43:48 40102 404 31.96315021206 -59.426228830449
OMA0485 OMA7478 2021-04-10 22:43:33 40101 404 31.972283063028 -59.395131939653
OMA0485 OMA7478 2021-04-10 22:43:18 40101 404 31.981465647905 -59.36384062859
OMA0485 OMA7478 2021-04-10 22:43:03 40101 404 31.990582493613 -59.332744965094
OMA0485 OMA7478 2021-04-10 22:42:48 40101 404 31.9997503112 -59.301448104502
OMA0485 OMA7478 2021-04-10 22:42:33 40101 404 32.008870722522 -59.270281337669
OMA0485 OMA7478 2021-04-10 22:42:18 40102 404 32.018028740961 -59.238957956734
OMA0485 OMA7478 2021-04-10 22:42:03 40102 404 32.027136813217 -59.207771993334
OMA0485 OMA7478 2021-04-10 22:41:48 40102 404 32.036291910906 -59.17639052911
OMA0485 OMA7478 2021-04-10 22:41:33 40102 402 32.045357595325 -59.145283806577
OMA0485 OMA7478 2021-04-10 22:41:18 40102 402 32.054471153259 -59.113985892108
OMA0485 OMA7478 2021-04-10 22:41:03 40101 402 32.063513355074 -59.082917549369
OMA0485 OMA7478 2021-04-10 22:40:48 40101 402 32.07260813113 -59.051661223015
OMA0485 OMA7478 2021-04-10 22:40:33 40101 404 32.081716268856 -59.020340138263
OMA0485 OMA7478 2021-04-10 22:40:18 40101 406 32.09089674125 -58.988742516728
OMA0485 OMA7478 2021-04-10 22:40:04 40101 408 32.100047341777 -58.957220951083
OMA0485 OMA7478 2021-04-10 22:39:48 40101 412 32.109291337718 -58.925349113961
OMA0485 OMA7478 2021-04-10 22:39:33 40101 414 32.11854203724 -58.893423302336
OMA0485 OMA7478 2021-04-10 22:39:18 40102 415 32.127889325346 -58.861127940125
OMA0485 OMA7478 2021-04-10 22:39:03 40102 417 32.137215400921 -58.828854669307
OMA0485 OMA7478 2021-04-10 22:38:48 40101 419 32.146631020385 -58.796228216343
OMA0485 OMA7478 2021-04-10 22:38:33 40102 419 32.155981709405 -58.763784817786
OMA0485 OMA7478 2021-04-10 22:38:18 40101 419 32.165387609857 -58.731111087106
OMA0485 OMA7478 2021-04-10 22:38:03 40101 419 32.174718939953 -58.698657843472
OMA0485 OMA7478 2021-04-10 22:37:48 40102 419 32.184110556212 -58.665945452855
OMA0485 OMA7478 2021-04-10 22:37:33 40101 419 32.193399976741 -58.633503193809
OMA0485 OMA7478 2021-04-10 22:37:18 40102 419 32.20274720395 -58.60081508238
OMA0485 OMA7478 2021-04-10 22:37:03 40101 417 32.212006915423 -58.568398951218
OMA0485 OMA7478 2021-04-10 22:36:48 40102 417 32.221313124561 -58.535792161729
OMA0485 OMA7478 2021-04-10 22:36:33 40101 417 32.230555392555 -58.503381900261
OMA0485 OMA7478 2021-04-10 22:36:18 40102 417 32.239879570627 -58.470649712768
OMA0485 OMA7478 2021-04-10 22:36:03 40101 417 32.249103060795 -58.438232914596
OMA0485 OMA7478 2021-04-10 22:35:48 40102 417 32.257765997594 -58.407758771634
OMA0485 OMA7478 2021-04-10 22:35:33 40101 419 32.266974974246 -58.375332742033
OMA0485 OMA7478 2021-04-10 22:35:18 40101 419 32.276262663925 -58.34259681928
OMA0485 OMA7478 2021-04-10 22:35:03 40102 419 32.285481185435 -58.310071378412
OMA0485 OMA7478 2021-04-10 22:34:48 40102 419 32.294751640745 -58.277323636229
OMA0485 OMA7478 2021-04-10 22:34:33 40102 419 32.303942800702 -58.244821647456
OMA0485 OMA7478 2021-04-10 22:34:18 40101 419 32.313188015921 -58.212095222934
OMA0485 OMA7478 2021-04-10 22:34:03 40102 419 32.322434245546 -58.179334740849
OMA0485 OMA7478 2021-04-10 22:33:48 40101 419 32.331603815698 -58.146812715074
OMA0485 OMA7478 2021-04-10 22:33:33 40101 419 32.340816707425 -58.114104059717
OMA0485 OMA7478 2021-04-10 22:33:18 40102 419 32.349963778956 -58.081594093495
OMA0485 OMA7478 2021-04-10 22:33:03 40101 419 32.359178721869 -58.048807394556
OMA0485 OMA7478 2021-04-10 22:32:48 40102 417 32.36831857791 -58.016250145616
OMA0485 OMA7478 2021-04-10 22:32:33 40101 417 32.377499082603 -57.983517891421
OMA0485 OMA7478 2021-04-10 22:32:18 40101 417 32.386619034043 -57.950974716407
OMA0485 OMA7478 2021-04-10 22:32:04 40101 419 32.395783746849 -57.918239367283
OMA0485 OMA7478 2021-04-10 22:31:48 40101 419 32.404905089504 -57.885618944096
OMA0485 OMA7478 2021-04-10 22:31:33 40102 419 32.414073452651 -57.852794829193
OMA0485 OMA7478 2021-04-10 22:31:18 40102 419 32.423172243689 -57.820178901658
OMA0485 OMA7478 2021-04-10 22:31:03 40101 419 32.43230745966 -57.787401570883
OMA0485 OMA7478 2021-04-10 22:30:48 40101 417 32.441385246307 -57.754802638779
OMA0485 OMA7478 2021-04-10 22:30:33 40101 419 32.450515021465 -57.721985927695
OMA0485 OMA7478 2021-04-10 22:30:18 40101 419 32.459587640331 -57.689327698344
OMA0485 OMA7478 2021-04-10 22:30:05 40102 419 32.468688452225 -57.656501195543
OMA0485 OMA7478 2021-04-10 22:29:48 40102 417 32.477712883542 -57.623869211985
OMA0485 OMA7478 2021-04-10 22:29:33 40101 417 32.486780791355 -57.591039854378
OMA0485 OMA7478 2021-04-10 22:29:18 40101 417 32.495769164596 -57.558467429278
OMA0485 OMA7478 2021-04-10 22:29:03 40101 417 32.504810648906 -57.525672489422
OMA0485 OMA7478 2021-04-10 22:28:48 40101 417 32.51377921236 -57.493106894511
OMA0485 OMA7478 2021-04-10 22:28:33 40102 417 32.522826330687 -57.460221401287
OMA0485 OMA7478 2021-04-10 22:28:18 40101 417 32.53179758594 -57.427576832315
OMA0485 OMA7478 2021-04-10 22:28:03 40101 417 32.540832702054 -57.394663564767
OMA0485 OMA7478 2021-04-10 22:27:48 40101 417 32.549774997829 -57.362054720885
OMA0485 OMA7478 2021-04-10 22:27:33 40101 417 32.558787318461 -57.329154926953
OMA0485 OMA7478 2021-04-10 22:27:18 40101 417 32.567733946431 -57.296463667233
OMA0485 OMA7478 2021-04-10 22:27:03 40102 419 32.57672010215 -57.263595036039
OMA0485 OMA7478 2021-04-10 22:26:48 40101 419 32.58564751888 -57.230901855329
OMA0485 OMA7478 2021-04-10 22:26:33 40101 419 32.594625782842 -57.197986946935
OMA0485 OMA7478 2021-04-10 22:26:18 40101 419 32.603548505876 -57.165236830195
OMA0485 OMA7478 2021-04-10 22:26:03 40101 417 32.612505183916 -57.132318373305
OMA0485 OMA7478 2021-04-10 22:25:48 40101 417 32.621394236671 -57.099606182791
OMA0485 OMA7478 2021-04-10 22:25:33 40102 415 32.630293063984 -57.066811423027
OMA0485 OMA7478 2021-04-10 22:25:18 40101 414 32.639099966167 -57.034307273139
OMA0485 OMA7478 2021-04-10 22:25:03 40102 412 32.647910166894 -57.001759326705
OMA0485 OMA7478 2021-04-10 22:24:48 40102 410 32.656661262133 -56.969392915143
OMA0485 OMA7478 2021-04-10 22:24:33 40101 408 32.665318089279 -56.937349696302
OMA0485 OMA7478 2021-04-10 22:24:18 40101 408 32.673999919891 -56.905202537189
OMA0485 OMA7478 2021-04-10 22:24:03 40101 408 32.682613356073 -56.873293214068
OMA0485 OMA7478 2021-04-10 22:23:48 40101 408 32.6912804421 -56.841151677855
OMA0485 OMA7478 2021-04-10 22:23:33 40101 408 32.699883520588 -56.809217208432
OMA0485 OMA7478 2021-04-10 22:23:18 40101 408 32.708541722775 -56.777045483317
OMA0485 OMA7478 2021-04-10 22:23:03 40101 408 32.717142457413 -56.745047100932
OMA0485 OMA7478 2021-04-10 22:22:48 40102 408 32.725781468015 -56.712864530223
OMA0485 OMA7478 2021-04-10 22:22:33 40101 408 32.734344316134 -56.680921416342
OMA0485 OMA7478 2021-04-10 22:22:18 40101 408 32.74293392247 -56.648799509177
OMA0485 OMA7478 2021-04-10 22:22:03 40101 408 32.751449041563 -56.616892173748
OMA0485 OMA7478 2021-04-10 22:21:48 40101 408 32.759144256174 -56.588020483878
OMA0485 OMA7478 2021-04-10 22:21:33 40101 408 32.767658326725 -56.556039670554
OMA0485 OMA7478 2021-04-10 22:21:18 40102 408 32.776218552235 -56.523842799137
OMA0485 OMA7478 2021-04-10 22:21:03 40100 408 32.78471313147 -56.491861719009
OMA0485 OMA7478 2021-04-10 22:20:48 40102 406 32.793236550032 -56.459745796006
OMA0485 OMA7478 2021-04-10 22:20:33 40101 406 32.801705315195 -56.427796705709
OMA0485 OMA7478 2021-04-10 22:20:18 40101 406 32.810227784875 -56.395618083703
OMA0485 OMA7478 2021-04-10 22:20:04 40101 406 32.818675741105 -56.363689270531
OMA0485 OMA7478 2021-04-10 22:19:48 40102 406 32.827173073106 -56.331540157077
OMA0485 OMA7478 2021-04-10 22:19:33 40100 406 32.835667085671 -56.299370953262
OMA0485 OMA7478 2021-04-10 22:19:18 40102 406 32.844099310159 -56.267410203619
OMA0485 OMA7478 2021-04-10 22:19:03 40101 408 32.852591349636 -56.235181742577
OMA0485 OMA7478 2021-04-10 22:18:48 40102 408 32.861001028875 -56.203231171516
OMA0485 OMA7478 2021-04-10 22:18:33 40102 408 32.869472857096 -56.171004418021
OMA0485 OMA7478 2021-04-10 22:18:18 40101 406 32.877879361912 -56.138997444539
OMA0485 OMA7478 2021-04-10 22:18:03 40100 406 32.886340987992 -56.106753995768
OMA0485 OMA7478 2021-04-10 22:17:48 40102 408 32.894735745612 -56.074738217745
OMA0485 OMA7478 2021-04-10 22:17:33 40102 408 32.903192440524 -56.042428721578
OMA0485 OMA7478 2021-04-10 22:17:18 40101 408 32.911570131944 -56.010378550818
OMA0485 OMA7478 2021-04-10 22:17:03 40101 406 32.919987545973 -55.978152312588
OMA0485 OMA7478 2021-04-10 22:16:48 40101 406 32.928327710797 -55.946204472937
OMA0485 OMA7478 2021-04-10 22:16:33 40101 406 32.936727821558 -55.913994884961
OMA0485 OMA7478 2021-04-10 22:16:18 40101 406 32.945077651667 -55.881941487537
OMA0485 OMA7478 2021-04-10 22:16:03 40101 408 32.953482198471 -55.849645444975
OMA0485 OMA7478 2021-04-10 22:15:48 40101 408 32.961840069785 -55.817498586017
OMA0485 OMA7478 2021-04-10 22:15:33 40102 408 32.970256454502 -55.785086723724
OMA0485 OMA7478 2021-04-10 22:15:18 40101 408 32.978597924656 -55.752925830861
OMA0485 OMA7478 2021-04-10 22:15:03 40101 408 32.987001371839 -55.720484219892
OMA0485 OMA7478 2021-04-10 22:14:48 40101 408 32.995335164433 -55.688269045703
OMA0485 OMA7478 2021-04-10 22:14:33 40102 408 33.003693234094 -55.655876820203
OMA0485 OMA7478 2021-04-10 22:14:18 40102 408 33.011973915455 -55.623705767692
OMA0485 OMA7478 2021-04-10 22:14:03 40101 408 33.020310717975 -55.59128211265
OMA0485 OMA7478 2021-04-10 22:13:48 40101 408 33.028593396269 -55.559039510982
OMA0485 OMA7478 2021-04-10 22:13:33 40103 410 33.036934068814 -55.526537949095
OMA0485 OMA7478 2021-04-10 22:13:18 40102 410 33.045218092262 -55.494203353317
OMA0485 OMA7478 2021-04-10 22:13:03 40101 410 33.053552873783 -55.461639679396
OMA0485 OMA7478 2021-04-10 22:12:48 40102 410 33.061810028745 -55.429352254612
OMA0485 OMA7478 2021-04-10 22:12:33 40102 410 33.070105552499 -55.396870996529
OMA0485 OMA7478 2021-04-10 22:12:18 40101 410 33.07842548654 -55.364251960724
OMA0485 OMA7478 2021-04-10 22:12:03 40102 410 33.086680527787 -55.331858961492
OMA0485 OMA7478 2021-04-10 22:11:48 40102 410 33.094985496951 -55.299234376159
OMA0485 OMA7478 2021-04-10 22:11:33 40101 410 33.103212563559 -55.266882758268
OMA0485 OMA7478 2021-04-10 22:11:18 40101 410 33.111501412368 -55.234273354097
OMA0485 OMA7478 2021-04-10 22:11:03 40102 412 33.119749966363 -55.201798139131
OMA0485 OMA7478 2021-04-10 22:10:48 40101 412 33.12809169837 -55.168924598738
OMA0485 OMA7478 2021-04-10 22:10:33 40101 414 33.136406441001 -55.136129071913
OMA0485 OMA7478 2021-04-10 22:10:18 40100 415 33.144779262403 -55.103069942474
OMA0485 OMA7478 2021-04-10 22:10:03 40101 417 33.153118989687 -55.070110824613
OMA0485 OMA7478 2021-04-10 22:09:48 40102 419 33.161565221134 -55.036677162018
OMA0485 OMA7478 2021-04-10 22:09:33 40102 421 33.169964167843 -55.003376099266
OMA0485 OMA7478 2021-04-10 22:09:18 40101 421 33.178428079856 -54.969756739443
OMA0485 OMA7478 2021-04-10 22:09:03 40101 421 33.18681605906 -54.936398258954
OMA0485 OMA7478 2021-04-10 22:08:48 40101 421 33.195268102492 -54.90274629711
OMA0485 OMA7478 2021-04-10 22:08:33 40101 421 33.203651331418 -54.869332277979
OMA0485 OMA7478 2021-04-10 22:08:18 40101 421 33.212085352714 -54.835672171934
OMA0485 OMA7478 2021-04-10 22:08:03 40101 421 33.220454404581 -54.80223299316
OMA0485 OMA7478 2021-04-10 22:07:48 40101 421 33.228888238757 -54.768490391237
OMA0485 OMA7478 2021-04-10 22:07:33 40101 421 33.237245104797 -54.735019876303
OMA0485 OMA7478 2021-04-10 22:07:18 40103 421 33.245659109757 -54.701268016271
OMA0485 OMA7478 2021-04-10 22:07:03 40100 421 33.253977004187 -54.667832452695
OMA0485 OMA7478 2021-04-10 22:06:48 40101 421 33.262324225523 -54.634205315911
OMA0485 OMA7478 2021-04-10 22:06:33 40101 421 33.270610466884 -54.600780131021
OMA0485 OMA7478 2021-04-10 22:06:18 40101 421 33.278936566344 -54.567154149242
OMA0485 OMA7478 2021-04-10 22:06:03 40102 421 33.287214727346 -54.533679338759
OMA0485 OMA7478 2021-04-10 22:05:48 40102 421 33.295542600529 -54.49995389235
OMA0485 OMA7478 2021-04-10 22:05:33 40101 421 33.303792382279 -54.466500639651
OMA0485 OMA7478 2021-04-10 22:05:18 40101 421 33.312087507638 -54.432830475086
OMA0485 OMA7478 2021-04-10 22:05:03 40101 421 33.320324734656 -54.399358919615
OMA0485 OMA7478 2021-04-10 22:04:48 40102 421 33.328598403647 -54.365701775097
OMA0485 OMA7478 2021-04-10 22:04:33 40101 421 33.336821378848 -54.332204286252
OMA0485 OMA7478 2021-04-10 22:04:18 40101 421 33.345097543117 -54.298451865932
OMA0485 OMA7478 2021-04-10 22:04:03 40102 421 33.353301245968 -54.264961420719
OMA0485 OMA7478 2021-04-10 22:03:48 40101 421 33.361558690223 -54.231205718706
OMA0485 OMA7478 2021-04-10 22:03:33 40102 421 33.369759116305 -54.197643396424
OMA0485 OMA7478 2021-04-10 22:03:18 40101 421 33.377995324561 -54.163890976104
OMA0485 OMA7478 2021-04-10 22:03:03 40102 421 33.386164354759 -54.130364912522
OMA0485 OMA7478 2021-04-10 22:02:48 40101 421 33.394373870769 -54.096635103863
OMA0485 OMA7478 2021-04-10 22:02:33 40101 421 33.402523261057 -54.063122280442
OMA0485 OMA7478 2021-04-10 22:02:18 40101 421 33.410711010971 -54.029413442598
OMA0485 OMA7478 2021-04-10 22:02:03 40101 421 33.418844018899 -53.995896651298
OMA0485 OMA7478 2021-04-10 22:01:48 40102 421 33.427044139529 -53.962058746058
OMA0485 OMA7478 2021-04-10 22:01:33 40102 421 33.43517486105 -53.92844914606
OMA0485 OMA7478 2021-04-10 22:01:18 40102 421 33.443352075286 -53.894596053821
OMA0485 OMA7478 2021-04-10 22:01:03 40101 421 33.451456579526 -53.861002608822
OMA0485 OMA7478 2021-04-10 22:00:48 40100 421 33.459599936086 -53.827222947786
OMA0485 OMA7478 2021-04-10 22:00:33 40101 421 33.467683437213 -53.793665841527
OMA0485 OMA7478 2021-04-10 22:00:18 40101 421 33.475826170037 -53.759825415821
OMA0485 OMA7478 2021-04-10 22:00:05 40102 421 33.483914723901 -53.726158132741
OMA0485 OMA7478 2021-04-10 21:59:48 40102 421 33.492036197741 -53.692284449883
OMA0485 OMA7478 2021-04-10 21:59:33 40102 421 33.500096669757 -53.65858381627
OMA0485 OMA7478 2021-04-10 21:59:18 40100 421 33.508164141623 -53.624775439349
OMA0485 OMA7478 2021-04-10 21:59:03 40101 419 33.516161622843 -53.591231153036
OMA0485 OMA7478 2021-04-10 21:58:48 40102 421 33.524212231376 -53.557423851078
OMA0485 OMA7478 2021-04-10 21:58:33 40101 421 33.532244816473 -53.523640508144
OMA0485 OMA7478 2021-04-10 21:58:18 40101 421 33.540229291076 -53.490022210327
OMA0485 OMA7478 2021-04-10 21:58:03 40101 421 33.54824381147 -53.456240521579
OMA0485 OMA7478 2021-04-10 21:57:48 40102 421 33.556210299732 -53.422615740419
OMA0485 OMA7478 2021-04-10 21:57:33 40101 421 33.564227251324 -53.388729544441
OMA0485 OMA7478 2021-04-10 21:57:18 40102 421 33.572165843731 -53.355138007092
OMA0485 OMA7478 2021-04-10 21:57:03 40102 421 33.580158749259 -53.321268166215
OMA0485 OMA7478 2021-04-10 21:56:48 40101 421 33.588073694171 -53.287684579633
OMA0485 OMA7478 2021-04-10 21:56:33 40101 419 33.596045836068 -53.253825704411
OMA0485 OMA7478 2021-04-10 21:56:18 40101 421 33.604004716018 -53.219983037549
OMA0485 OMA7478 2021-04-10 21:56:03 40102 419 33.611892270535 -53.186393101026
OMA0485 OMA7478 2021-04-10 21:55:48 40101 419 33.619836247426 -53.152516136475
OMA0485 OMA7478 2021-04-10 21:55:33 40102 419 33.627710131273 -53.118899559546
OMA0485 OMA7478 2021-04-10 21:55:18 40101 419 33.635618677607 -53.085092237578
OMA0485 OMA7478 2021-04-10 21:55:03 40101 419 33.643468173678 -53.051506233082
OMA0485 OMA7478 2021-04-10 21:54:48 40101 419 33.651361399669 -53.017698557599
OMA0485 OMA7478 2021-04-10 21:54:33 40101 421 33.659204282845 -52.984073017714
OMA0485 OMA7478 2021-04-10 21:54:18 40101 421 33.667121846978 -52.950086318237
OMA0485 OMA7478 2021-04-10 21:54:03 40101 423 33.674981514044 -52.916307477624
OMA0485 OMA7478 2021-04-10 21:53:48 40101 423 33.682906073896 -52.882207171224
OMA0485 OMA7478 2021-04-10 21:53:33 40101 423 33.690785093354 -52.848249111517
OMA0485 OMA7478 2021-04-10 21:53:18 40101 425 33.698722535589 -52.813990430105
OMA0485 OMA7478 2021-04-10 21:53:03 40102 425 33.706605196832 -52.779915990377
OMA0485 OMA7478 2021-04-10 21:52:48 40101 425 33.714528095142 -52.745618462265
OMA0485 OMA7478 2021-04-10 21:52:33 40102 425 33.722382617963 -52.711568875355
OMA0485 OMA7478 2021-04-10 21:52:18 40101 423 33.730271931527 -52.677313288872
OMA0485 OMA7478 2021-04-10 21:52:03 40101 423 33.738074997465 -52.643344162382
OMA0485 OMA7478 2021-04-10 21:51:48 40102 423 33.745918657373 -52.609132545242
OMA0485 OMA7478 2021-04-10 21:51:33 40101 423 33.753769933933 -52.574839339358
OMA0485 OMA7478 2021-04-10 21:51:18 40101 423 33.761561271936 -52.540765233136
OMA0485 OMA7478 2021-04-10 21:51:03 40101 425 33.769389707635 -52.506482699423
OMA0485 OMA7478 2021-04-10 21:50:48 40101 425 33.777158869668 -52.472413662482
OMA0485 OMA7478 2021-04-10 21:50:33 40101 425 33.784963480178 -52.438144282219
OMA0485 OMA7478 2021-04-10 21:50:18 40101 423 33.792706237559 -52.404102379272
OMA0485 OMA7478 2021-04-10 21:50:04 40101 423 33.800500373388 -52.369793218493
OMA0485 OMA7478 2021-04-10 21:49:48 40101 425 33.808270229248 -52.335544969127
OMA0485 OMA7478 2021-04-10 21:49:33 40101 425 33.816050013167 -52.30120774054
OMA0485 OMA7478 2021-04-10 21:49:18 40102 425 33.823775845533 -52.267061303682
OMA0485 OMA7478 2021-04-10 21:49:03 40101 423 33.831541973291 -52.232688936973
OMA0485 OMA7478 2021-04-10 21:48:48 40101 423 33.839250354479 -52.198528706334
OMA0485 OMA7478 2021-04-10 21:48:33 40101 423 33.846987127591 -52.164202696866
OMA0485 OMA7478 2021-04-10 21:48:18 40101 423 33.854657623883 -52.130127803572
OMA0485 OMA7478 2021-04-10 21:48:03 40101 423 33.862378756631 -52.095780963361
OMA0485 OMA7478 2021-04-10 21:47:48 40101 423 33.870040251954 -52.061651835429
OMA0485 OMA7478 2021-04-10 21:47:33 40101 423 33.877733915366 -52.027332511075
OMA0485 OMA7478 2021-04-10 21:47:18 40102 423 33.885432574634 -51.9929452792
OMA0485 OMA7478 2021-04-10 21:47:03 40102 423 33.893061604763 -51.958824564774
OMA0485 OMA7478 2021-04-10 21:46:48 40101 423 33.900762497168 -51.924334730818
OMA0485 OMA7478 2021-04-10 21:46:33 40101 423 33.90841501782 -51.890018533076
OMA0485 OMA7478 2021-04-10 21:46:18 40101 423 33.916023713039 -51.855856514849
OMA0485 OMA7478 2021-04-10 21:46:03 40101 423 33.923669593115 -51.821486082471
OMA0485 OMA7478 2021-04-10 21:45:48 40101 425 33.931253813976 -51.787347983246
OMA0485 OMA7478 2021-04-10 21:45:33 40101 425 33.938065896973 -51.756640733398
OMA0485 OMA7478 2021-04-10 21:45:18 40102 425 33.945648092263 -51.722414522065
OMA0485 OMA7478 2021-04-10 21:45:03 40101 425 33.95327591889 -51.687924014428
OMA0485 OMA7478 2021-04-10 21:44:48 40102 423 33.960828451989 -51.653689425441
OMA0485 OMA7478 2021-04-10 21:44:33 40102 423 33.968413014289 -51.619221535059
OMA0485 OMA7478 2021-04-10 21:44:18 40102 423 33.975930514604 -51.585013973344
OMA0485 OMA7478 2021-04-10 21:44:03 40101 423 33.983481574366 -51.550608549586
OMA0485 OMA7478 2021-04-10 21:43:48 40101 423 33.99096870223 -51.516453014703
OMA0485 OMA7478 2021-04-10 21:43:33 40101 423 33.998512998627 -51.481993269597
OMA0485 OMA7478 2021-04-10 21:43:18 40101 425 34.006015775434 -51.447679306341
OMA0485 OMA7478 2021-04-10 21:43:03 40101 425 34.013559226872 -51.413126153063
OMA0485 OMA7478 2021-04-10 21:42:48 40098 425 34.021046586934 -51.378783828514
OMA0485 OMA7478 2021-04-10 21:42:33 40060 425 34.028592946355 -51.344119551259
OMA0485 OMA7478 2021-04-10 21:42:18 40012 425 34.036059510956 -51.309757910081
OMA0485 OMA7478 2021-04-10 21:42:03 39959 425 34.043560520231 -51.275172740291
OMA0485 OMA7478 2021-04-10 21:41:48 39909 421 34.050974265057 -51.240925531462
OMA0485 OMA7478 2021-04-10 21:41:33 39847 421 34.058390089961 -51.206648213772
OMA0485 OMA7478 2021-04-10 21:41:18 39779 419 34.065742150448 -51.172649506435
OMA0485 OMA7478 2021-04-10 21:41:03 39712 421 34.073129543484 -51.13847322752
OMA0485 OMA7478 2021-04-10 21:40:48 39698 423 34.080557701356 -51.104060233192
OMA0485 OMA7478 2021-04-10 21:40:33 39698 425 34.087943564687 -51.069798069984
OMA0485 OMA7478 2021-04-10 21:40:18 39698 427 34.095395838885 -51.035182394461
OMA0485 OMA7478 2021-04-10 21:40:03 39697 429 34.102881645066 -51.000358161249
OMA0485 OMA7478 2021-04-10 21:39:48 39698 431 34.110404203912 -50.965309619283
OMA0485 OMA7478 2021-04-10 21:39:33 39698 433 34.117910546528 -50.93027541458
OMA0485 OMA7478 2021-04-10 21:39:18 39698 435 34.125474989162 -50.894906807418
OMA0485 OMA7478 2021-04-10 21:39:03 39698 435 34.132992231546 -50.859704365951
OMA0485 OMA7478 2021-04-10 21:38:48 39698 435 34.140553209798 -50.824243397822
OMA0485 OMA7478 2021-04-10 21:38:33 39698 435 34.148057740088 -50.788994805888
OMA0485 OMA7478 2021-04-10 21:38:18 39698 435 34.155585884013 -50.753579661392
OMA0485 OMA7478 2021-04-10 21:38:03 39698 435 34.163124581344 -50.718061183604
OMA0485 OMA7478 2021-04-10 21:37:48 39698 435 34.170638432997 -50.682599588485
OMA0485 OMA7478 2021-04-10 21:37:33 39698 435 34.178130041542 -50.647157008764
OMA0485 OMA7478 2021-04-10 21:37:18 39698 435 34.185566991495 -50.611897704639
OMA0485 OMA7478 2021-04-10 21:37:03 39698 435 34.1930387643 -50.576422128977
OMA0485 OMA7478 2021-04-10 21:36:48 39698 435 34.200450091809 -50.541182248201
OMA0485 OMA7478 2021-04-10 21:36:33 39698 435 34.207900163457 -50.505706939343
OMA0485 OMA7478 2021-04-10 21:36:18 39698 435 34.214513014075 -50.474174837432
OMA0485 OMA7478 2021-04-10 21:36:03 39698 435 34.221954650774 -50.438641525327
OMA0485 OMA7478 2021-04-10 21:35:48 39699 435 34.229328460466 -50.403377872292
OMA0485 OMA7478 2021-04-10 21:35:33 39698 435 34.236757188038 -50.367797442553
OMA0485 OMA7478 2021-04-10 21:35:18 39698 435 34.244122271345 -50.332470183382
OMA0485 OMA7478 2021-04-10 21:35:03 39699 435 34.251520457353 -50.296932122161
OMA0485 OMA7478 2021-04-10 21:34:48 39698 435 34.258863067312 -50.261606490495
OMA0485 OMA7478 2021-04-10 21:34:33 39698 435 34.266246748274 -50.226028275233
OMA0485 OMA7478 2021-04-10 21:34:18 39698 435 34.273617948247 -50.190458611046
OMA0485 OMA7478 2021-04-10 21:34:03 39698 435 34.280920973735 -50.155166543357
OMA0485 OMA7478 2021-04-10 21:33:48 39698 435 34.288277184491 -50.119566036598
OMA0485 OMA7478 2021-04-10 21:33:33 39698 435 34.295555431862 -50.084289150072
OMA0485 OMA7478 2021-04-10 21:33:18 39698 435 34.302890212822 -50.048686612265
OMA0485 OMA7478 2021-04-10 21:33:03 39698 435 34.310158209148 -50.013353535093
OMA0485 OMA7478 2021-04-10 21:32:48 39698 435 34.317476446785 -49.977721123547
OMA0485 OMA7478 2021-04-10 21:32:33 39698 435 34.324736353113 -49.942317531675
OMA0485 OMA7478 2021-04-10 21:32:18 39698 435 34.332034092745 -49.90667660407
OMA0485 OMA7478 2021-04-10 21:32:03 39698 435 34.339269979333 -49.871283897812
OMA0485 OMA7478 2021-04-10 21:31:48 39698 435 34.346534620561 -49.835699519371
OMA0485 OMA7478 2021-04-10 21:31:33 39698 435 34.353784773322 -49.800131669454
OMA0485 OMA7478 2021-04-10 21:31:18 39698 435 34.360984153468 -49.764759773929
OMA0485 OMA7478 2021-04-10 21:31:03 39698 435 34.368215052641 -49.72917678287
OMA0485 OMA7478 2021-04-10 21:30:48 39698 435 34.375429377866 -49.693615189512
OMA0485 OMA7478 2021-04-10 21:30:33 39698 435 34.382633633169 -49.658026408801
OMA0485 OMA7478 2021-04-10 21:30:18 39698 435 34.389776122318 -49.622648742557
OMA0485 OMA7478 2021-04-10 21:30:04 39698 435 34.396969901882 -49.586960257092
OMA0485 OMA7478 2021-04-10 21:29:48 39698 435 34.404141162366 -49.551326359779
OMA0485 OMA7478 2021-04-10 21:29:33 39698 435 34.411238242532 -49.516008785603
OMA0485 OMA7478 2021-04-10 21:29:18 39698 435 34.41837903142 -49.480416776559
OMA0485 OMA7478 2021-04-10 21:29:03 39698 435 34.425496479122 -49.4448888539
OMA0485 OMA7478 2021-04-10 21:28:48 39698 435 34.432616794491 -49.409296071125
OMA0485 OMA7478 2021-04-10 21:28:33 39698 435 34.439719661345 -49.373738319749
OMA0485 OMA7478 2021-04-10 21:28:18 39697 435 34.446872000099 -49.337878359183
OMA0485 OMA7478 2021-04-10 21:28:03 39698 437 34.453942086457 -49.302374395547
OMA0485 OMA7478 2021-04-10 21:27:48 39698 437 34.461058984033 -49.266569636784
OMA0485 OMA7478 2021-04-10 21:27:33 39699 435 34.46815056485 -49.230826349722
OMA0485 OMA7478 2021-04-10 21:27:18 39698 435 34.475215517463 -49.195151911502
OMA0485 OMA7478 2021-04-10 21:27:03 39698 433 34.482203286955 -49.159815647686
OMA0485 OMA7478 2021-04-10 21:26:48 39698 431 34.489196481356 -49.124414203589
OMA0485 OMA7478 2021-04-10 21:26:33 39697 431 34.496158739683 -49.089108228727
OMA0485 OMA7478 2021-04-10 21:26:18 39699 429 34.503113335479 -49.05379720793
OMA0485 OMA7478 2021-04-10 21:26:03 39697 429 34.510054153547 -49.018501438332
OMA0485 OMA7478 2021-04-10 21:25:48 39699 429 34.516968109348 -48.983272209717
OMA0485 OMA7478 2021-04-10 21:25:33 39698 429 34.523853965053 -48.948128008286
OMA0485 OMA7478 2021-04-10 21:25:18 39699 429 34.530740149601 -48.912958270352
OMA0485 OMA7478 2021-04-10 21:25:03 39699 427 34.537548375333 -48.878076480921
OMA0485 OMA7478 2021-04-10 21:24:48 39698 427 34.544364213065 -48.843039904996
OMA0485 OMA7478 2021-04-10 21:24:33 39698 427 34.551200967318 -48.807996352139
OMA0485 OMA7478 2021-04-10 21:24:18 39697 427 34.558046891076 -48.77288513772
OMA0485 OMA7478 2021-04-10 21:24:03 39700 427 34.564851725852 -48.73780824767
OMA0485 OMA7478 2021-04-10 21:23:48 39698 425 34.571644737093 -48.70274757932
OMA0485 OMA7478 2021-04-10 21:23:33 39699 425 34.578423287978 -48.667741952689
OMA0485 OMA7478 2021-04-10 21:23:18 39698 425 34.585165391373 -48.632774231198
OMA0485 OMA7478 2021-04-10 21:23:03 39697 425 34.591864458542 -48.598018706884
OMA0485 OMA7478 2021-04-10 21:22:48 39696 427 34.598602806295 -48.562959932844
OMA0485 OMA7478 2021-04-10 21:22:33 39698 429 34.60533605645 -48.52781770243
OMA0485 OMA7478 2021-04-10 21:22:18 39698 429 34.612090072131 -48.4925030631
OMA0485 OMA7478 2021-04-10 21:22:03 39698 429 34.618860357228 -48.457092747761
OMA0485 OMA7478 2021-04-10 21:21:48 39696 431 34.625594949516 -48.421908842521
OMA0485 OMA7478 2021-04-10 21:21:33 39699 431 34.632351738131 -48.386438202737
OMA0485 OMA7478 2021-04-10 21:21:18 39698 429 34.639084201057 -48.351015694443
OMA0485 OMA7478 2021-04-10 21:21:03 39698 429 34.645797609057 -48.315617838863
OMA0485 OMA7478 2021-04-10 21:20:48 39698 429 34.652467693143 -48.280404131587
OMA0485 OMA7478 2021-04-10 21:20:32 39699 429 34.659169532563 -48.244989280575
OMA0485 OMA7478 2021-04-10 21:20:18 39699 427 34.665834106287 -48.209679016835
OMA0485 OMA7478 2021-04-10 21:20:03 39697 427 34.672428003083 -48.174634596864
OMA0485 OMA7478 2021-04-10 21:19:47 39697 427 34.679066848319 -48.139375052615
OMA0485 OMA7478 2021-04-10 21:19:33 39697 429 34.685686690771 -48.104291092252
OMA0485 OMA7478 2021-04-10 21:19:18 39699 429 34.692393467642 -48.068847899957
OMA0485 OMA7478 2021-04-10 21:19:03 39707 429 34.699382834093 -48.033563636293
OMA0485 OMA7478 2021-04-10 21:18:48 39690 431 34.70818541144 -47.999067503046
OMA0485 OMA7478 2021-04-10 21:18:33 39698 435 34.72216824582 -47.96658167198
OMA0485 OMA7478 2021-04-10 21:18:18 39697 435 34.737506054461 -47.935135667804
OMA0485 OMA7478 2021-04-10 21:18:03 39698 435 34.752928543201 -47.903494916526
OMA0485 OMA7478 2021-04-10 21:17:47 39698 435 34.768260568077 -47.872036045714
OMA0485 OMA7478 2021-04-10 21:17:32 39699 435 34.783695411031 -47.840414737796
OMA0485 OMA7478 2021-04-10 21:17:18 39698 433 34.799175230002 -47.808802781368
OMA0485 OMA7478 2021-04-10 21:17:03 39698 433 34.814573613869 -47.777444795919
OMA0485 OMA7478 2021-04-10 21:16:48 39698 433 34.830072388041 -47.746001966714
OMA0485 OMA7478 2021-04-10 21:16:33 39698 433 34.845503593813 -47.714819911997
OMA0485 OMA7478 2021-04-10 21:16:17 39698 431 34.861122486112 -47.683469370387
OMA0485 OMA7478 2021-04-10 21:16:03 39698 431 34.876700272625 -47.652376188171
OMA0485 OMA7478 2021-04-10 21:15:47 39697 433 34.892466353479 -47.621036551109
OMA0485 OMA7478 2021-04-10 21:15:33 39700 435 34.908296435615 -47.589736889072
OMA0485 OMA7478 2021-04-10 21:15:17 39698 437 34.92435161866 -47.558287656565
OMA0485 OMA7478 2021-04-10 21:15:03 39697 437 34.938762198886 -47.530466962054
OMA0485 OMA7478 2021-04-10 21:14:48 39699 439 34.955283889613 -47.499228931802
OMA0485 OMA7478 2021-04-10 21:14:33 39698 439 34.97031049044 -47.471630965492
OMA0485 OMA7478 2021-04-10 21:14:17 39698 439 34.9875120072 -47.441090735113
OMA0485 OMA7478 2021-04-10 21:14:03 39698 441 35.005384028307 -47.410482442967
OMA0485 OMA7478 2021-04-10 21:13:48 39696 443 35.023769860248 -47.380283615326
OMA0485 OMA7478 2021-04-10 21:13:33 39696 445 35.042821923273 -47.350452470641
OMA0485 OMA7478 2021-04-10 21:13:17 39700 445 35.06227373934 -47.321281159583
OMA0485 OMA7478 2021-04-10 21:13:03 39698 443 35.081404168661 -47.291439956377
OMA0485 OMA7478 2021-04-10 21:12:48 39701 441 35.094732242181 -47.263009987648
OMA0485 OMA7478 2021-04-10 21:12:33 39701 439 35.104182676166 -47.227443725216
OMA0485 OMA7478 2021-04-10 21:12:17 39700 439 35.106648147809 -47.190591332828
OMA0485 OMA7478 2021-04-10 21:12:04 39689 441 35.100423863053 -47.154089107696
OMA0485 OMA7478 2021-04-10 21:11:47 39711 443 35.08582858026 -47.121183884297
OMA0485 OMA7478 2021-04-10 21:11:33 39690 443 35.069911593637 -47.089298400137
OMA0485 OMA7478 2021-04-10 21:11:17 39690 445 35.061177246368 -47.05325629897
OMA0485 OMA7478 2021-04-10 21:11:03 39696 445 35.051781433835 -47.017236607693
OMA0485 OMA7478 2021-04-10 21:10:48 39697 443 35.040112487466 -46.982328531371
OMA0485 OMA7478 2021-04-10 21:10:33 39698 439 35.028477443855 -46.947540672049
OMA0485 OMA7478 2021-04-10 21:10:17 39696 433 35.017055005854 -46.913452538593
OMA0485 OMA7478 2021-04-10 21:10:04 39698 427 35.005510391945 -46.879536380495
OMA0485 OMA7478 2021-04-10 21:09:48 39697 423 34.993175440012 -46.846923921416
OMA0485 OMA7478 2021-04-10 21:09:33 39695 423 34.976760876427 -46.817176393187
OMA0485 OMA7478 2021-04-10 21:09:18 39868 421 34.954961567767 -46.793269810618
OMA0485 OMA7478 2021-04-10 21:09:03 40350 410 34.929245615585 -46.777129886846
OMA0485 OMA7478 2021-04-10 21:08:47 40875 400 34.901953632117 -46.769657686574
OMA0485 OMA7478 2021-04-10 21:08:33 41392 390 34.874470759332 -46.769952451926
OMA0485 OMA7478 2021-04-10 21:08:18 41740 384 34.848229401132 -46.77501861134
OMA0485 OMA7478 2021-04-10 21:08:04 42108 379 34.822959810071 -46.785234666688
OMA0485 OMA7478 2021-04-10 21:07:48 42522 361 34.798521960087 -46.793929444141
OMA0485 OMA7478 2021-04-10 21:07:32 42628 353 34.773826283673 -46.797781243946
OMA0485 OMA7478 2021-04-10 21:07:18 42649 349 34.749563876507 -46.796151483437
OMA0485 OMA7478 2021-04-10 21:07:03 42668 346 34.725948773126 -46.789464101249
OMA0485 OMA7478 2021-04-10 21:06:48 42727 342 34.703807558043 -46.778828629598
OMA0485 OMA7478 2021-04-10 21:06:33 42729 340 34.68297793389 -46.764968014657
OMA0485 OMA7478 2021-04-10 21:06:17 42754 338 34.663737151375 -46.748295629615
OMA0485 OMA7478 2021-04-10 21:06:03 42753 338 34.646099359133 -46.729619491186
OMA0485 OMA7478 2021-04-10 21:05:49 42732 338 34.629649977642 -46.709166596438
OMA0485 OMA7478 2021-04-10 21:05:33 42702 340 34.614303614777 -46.687620898103
OMA0485 OMA7478 2021-04-10 21:05:18 42624 342 34.599381583422 -46.665214702655
OMA0485 OMA7478 2021-04-10 21:05:03 42507 347 34.584549759645 -46.64254508361
OMA0485 OMA7478 2021-04-10 21:04:48 42338 351 34.569916586629 -46.618948380853
OMA0485 OMA7478 2021-04-10 21:04:32 42067 359 34.556406117174 -46.594062960138
OMA0485 OMA7478 2021-04-10 21:04:18 41722 367 34.544648296761 -46.566957087612
OMA0485 OMA7478 2021-04-10 21:04:03 41306 377 34.536094890183 -46.53758215154
OMA0485 OMA7478 2021-04-10 21:03:48 40676 390 34.531959223275 -46.505743918415
OMA0485 OMA7478 2021-04-10 21:03:33 40009 408 34.533300258014 -46.475186826007
OMA0485 OMA7478 2021-04-10 21:03:18 39702 423 34.539179844063 -46.440715875122
OMA0485 OMA7478 2021-04-10 21:03:03 39697 423 34.544742217887 -46.405793918308
OMA0485 OMA7478 2021-04-10 21:02:48 39697 423 34.550335958775 -46.370519753185
OMA0485 OMA7478 2021-04-10 21:02:33 39698 425 34.555861210445 -46.335491581594
OMA0485 OMA7478 2021-04-10 21:02:18 39698 423 34.5614202428 -46.300157972481
OMA0485 OMA7478 2021-04-10 21:02:03 39699 423 34.566927754141 -46.265221848361
OMA0485 OMA7478 2021-04-10 21:01:48 39699 421 34.572509398387 -46.230042345391
OMA0485 OMA7478 2021-04-10 21:01:33 39697 421 34.577509229026 -46.198979432119
OMA0485 OMA7478 2021-04-10 21:01:18 39698 423 34.583170514635 -46.163977033819
OMA0485 OMA7478 2021-04-10 21:01:03 39697 423 34.588692776856 -46.129032732149
OMA0485 OMA7478 2021-04-10 21:00:48 39698 423 34.594213089095 -46.093890114868
OMA0485 OMA7478 2021-04-10 21:00:33 39700 423 34.59971687895 -46.058872922273
OMA0485 OMA7478 2021-04-10 21:00:18 39698 423 34.605246322253 -46.023717676813
OMA0485 OMA7478 2021-04-10 21:00:07 39698 423 34.610723814441 -45.988852445921
OMA0485 OMA7478 2021-04-10 20:59:48 39697 423 34.616241417501 -45.953681639103
OMA0485 OMA7478 2021-04-10 20:59:33 39698 423 34.621701613117 -45.918701492279
OMA0485 OMA7478 2021-04-10 20:59:18 39699 423 34.627141449903 -45.883439540121
OMA0485 OMA7478 2021-04-10 20:59:03 39700 423 34.632550224688 -45.848383700928
OMA0485 OMA7478 2021-04-10 20:58:48 39698 423 34.638016528658 -45.813160615481
OMA0485 OMA7478 2021-04-10 20:58:33 39699 421 34.643452319741 -45.778270274973
OMA0485 OMA7478 2021-04-10 20:58:18 39696 423 34.648358423155 -45.746726900581
OMA0485 OMA7478 2021-04-10 20:58:03 39699 423 34.653782720651 -45.711761561394
OMA0485 OMA7478 2021-04-10 20:57:48 39698 423 34.659242025565 -45.676574774668
OMA0485 OMA7478 2021-04-10 20:57:33 39698 421 34.664685756067 -45.641681598288
OMA0485 OMA7478 2021-04-10 20:57:18 39697 423 34.670139369222 -45.606528268816
OMA0485 OMA7478 2021-04-10 20:57:03 39698 423 34.6755611351 -45.571262508028
OMA0485 OMA7478 2021-04-10 20:56:48 39696 425 34.680920994726 -45.536085806503
OMA0485 OMA7478 2021-04-10 20:56:33 39698 425 34.686238605884 -45.500864922191
OMA0485 OMA7478 2021-04-10 20:56:18 39699 425 34.691587780183 -45.465265442629
OMA0485 OMA7478 2021-04-10 20:56:03 39699 423 34.696876916995 -45.430126734031
OMA0485 OMA7478 2021-04-10 20:55:47 39699 423 34.702211225947 -45.394782372706
OMA0485 OMA7478 2021-04-10 20:55:33 39707 423 34.707528002339 -45.359742141562
OMA0485 OMA7478 2021-04-10 20:55:18 39722 423 34.712883596695 -45.324452795276
OMA0485 OMA7478 2021-04-10 20:55:03 39737 423 34.718174958784 -45.289399117197
OMA0485 OMA7478 2021-04-10 20:54:48 39752 423 34.723107959661 -45.256691662459
OMA0485 OMA7478 2021-04-10 20:54:33 39766 423 34.728391830788 -45.221648029561
OMA0485 OMA7478 2021-04-10 20:54:18 39781 423 34.733659646076 -45.186308003805
OMA0485 OMA7478 2021-04-10 20:54:04 39800 425 34.738843170538 -45.151159076604
OMA0485 OMA7478 2021-04-10 20:53:48 39804 425 34.744035241722 -45.115627658809
OMA0485 OMA7478 2021-04-10 20:53:33 39804 423 34.749175427981 -45.080479785485
OMA0485 OMA7478 2021-04-10 20:53:18 39804 423 34.754345594248 -45.045043233281
OMA0485 OMA7478 2021-04-10 20:53:03 39805 421 34.759450728379 -45.010049160943
OMA0485 OMA7478 2021-04-10 20:52:47 39804 421 34.764639902778 -44.974768272352
OMA0485 OMA7478 2021-04-10 20:52:33 39803 419 34.769806503848 -44.939911484148
OMA0485 OMA7478 2021-04-10 20:52:18 39803 421 34.77495867927 -44.904797581676
OMA0485 OMA7478 2021-04-10 20:52:03 39803 421 34.780039616618 -44.869885043054
OMA0485 OMA7478 2021-04-10 20:51:48 39805 421 34.78511719222 -44.834674257284
OMA0485 OMA7478 2021-04-10 20:51:33 39805 421 34.790147559603 -44.799734437925
OMA0485 OMA7478 2021-04-10 20:51:17 39806 419 34.795219225672 -44.764671915284
OMA0485 OMA7478 2021-04-10 20:51:03 39806 417 34.800311517995 -44.729894886547
OMA0485 OMA7478 2021-04-10 20:50:47 39804 417 34.805472471146 -44.695032480446
OMA0485 OMA7478 2021-04-10 20:50:33 39804 415 34.810586270415 -44.660500644828
OMA0485 OMA7478 2021-04-10 20:50:17 39803 417 34.815673249029 -44.625564753085
OMA0485 OMA7478 2021-04-10 20:50:04 39803 419 34.820687551556 -44.590816165683
OMA0485 OMA7478 2021-04-10 20:49:48 39803 419 34.825732666728 -44.555721106263
OMA0485 OMA7478 2021-04-10 20:49:33 39805 419 34.830713034293 -44.52086617068
OMA0485 OMA7478 2021-04-10 20:49:18 39804 419 34.835738970335 -44.485804835319
OMA0485 OMA7478 2021-04-10 20:49:02 39805 419 34.84076799038 -44.451033889719
OMA0485 OMA7478 2021-04-10 20:48:48 39805 417 34.845900093471 -44.416088133965
OMA0485 OMA7478 2021-04-10 20:48:33 39805 417 34.851068807866 -44.381482233484
OMA0485 OMA7478 2021-04-10 20:48:18 39805 417 34.856331040028 -44.34658842452
OMA0485 OMA7478 2021-04-10 20:48:03 39804 419 34.861563688588 -44.311835114682
OMA0485 OMA7478 2021-04-10 20:47:47 39787 423 34.866825179317 -44.276557614506
OMA0485 OMA7478 2021-04-10 20:47:33 39804 425 34.872009624394 -44.241330860501
OMA0485 OMA7478 2021-04-10 20:47:18 39803 429 34.877089972671 -44.205591775607
OMA0485 OMA7478 2021-04-10 20:47:03 39800 435 34.88191642021 -44.169599826971
OMA0485 OMA7478 2021-04-10 20:46:48 39817 435 34.886753243762 -44.133032248135
OMA0485 OMA7478 2021-04-10 20:46:33 39805 431 34.891583977517 -44.096985637976
OMA0485 OMA7478 2021-04-10 20:46:17 39809 427 34.896536278782 -44.060941248962
OMA0485 OMA7478 2021-04-10 20:46:03 39804 423 34.901529130572 -44.025537898881
OMA0485 OMA7478 2021-04-10 20:45:48 39805 423 34.906543221889 -43.990125676725
OMA0485 OMA7478 2021-04-10 20:45:33 39803 425 34.911524351841 -43.954688755165
OMA0485 OMA7478 2021-04-10 20:45:18 39805 425 34.916471424802 -43.91933594615
OMA0485 OMA7478 2021-04-10 20:45:03 39805 425 34.921475276326 -43.883682265301
OMA0485 OMA7478 2021-04-10 20:44:47 39805 425 34.926487487418 -43.848283209102
OMA0485 OMA7478 2021-04-10 20:44:33 39803 425 34.931537584722 -43.812707875325
OMA0485 OMA7478 2021-04-10 20:44:17 39803 427 34.936538123771 -43.777269612239
OMA0485 OMA7478 2021-04-10 20:44:03 39803 429 34.941568066162 -43.74141573481
OMA0485 OMA7478 2021-04-10 20:43:48 39801 429 34.945983415895 -43.709539482078
OMA0485 OMA7478 2021-04-10 20:43:33 39806 431 34.950958390973 -43.67335223272
OMA0485 OMA7478 2021-04-10 20:43:17 39806 431 34.955892017248 -43.637395601223
OMA0485 OMA7478 2021-04-10 20:43:03 39805 431 34.960887365545 -43.601212033765
OMA0485 OMA7478 2021-04-10 20:42:48 39804 431 34.965855462352 -43.565325953061
OMA0485 OMA7478 2021-04-10 20:42:33 39805 431 34.970870750264 -43.529091319267
OMA0485 OMA7478 2021-04-10 20:42:17 39804 433 34.975832527537 -43.493104813438
OMA0485 OMA7478 2021-04-10 20:42:04 39804 433 34.980266193233 -43.460749887175
OMA0485 OMA7478 2021-04-10 20:41:47 39804 435 34.985226139996 -43.424301996731
OMA0485 OMA7478 2021-04-10 20:41:33 39804 435 34.990132349593 -43.387971740288
OMA0485 OMA7478 2021-04-10 20:41:18 39804 437 34.995016819274 -43.351365634916
OMA0485 OMA7478 2021-04-10 20:41:02 39805 437 34.99985023076 -43.314867905437
OMA0485 OMA7478 2021-04-10 20:40:48 39805 437 35.004181441582 -43.282028702753
OMA0485 OMA7478 2021-04-10 20:40:33 39805 437 35.009012848302 -43.245555946152
OMA0485 OMA7478 2021-04-10 20:40:18 39805 435 35.013884520456 -43.208945545232
OMA0485 OMA7478 2021-04-10 20:40:05 39802 435 35.018684369082 -43.172610913198
OMA0485 OMA7478 2021-04-10 20:39:48 39804 437 35.023485514265 -43.135929795808
OMA0485 OMA7478 2021-04-10 20:39:32 39804 437 35.02835410552 -43.098567600501
OMA0485 OMA7478 2021-04-10 20:39:17 39805 437 35.033020335922 -43.062650937358
OMA0485 OMA7478 2021-04-10 20:39:03 39804 437 35.037755776511 -43.026257308233
OMA0485 OMA7478 2021-04-10 20:38:48 39804 435 35.042527054203 -42.989643749016
OMA0485 OMA7478 2021-04-10 20:38:33 39804 435 35.047253720835 -42.953351138655
OMA0485 OMA7478 2021-04-10 20:38:17 39804 435 35.052010973983 -42.916768048486
OMA0485 OMA7478 2021-04-10 20:38:03 39804 435 35.056721296722 -42.880460443725
OMA0485 OMA7478 2021-04-10 20:37:48 39804 435 35.061445732428 -42.843984592195
OMA0485 OMA7478 2021-04-10 20:37:33 39804 435 35.06616889579 -42.80745027051
OMA0485 OMA7478 2021-04-10 20:37:17 39804 435 35.070845798331 -42.771161315368
OMA0485 OMA7478 2021-04-10 20:37:03 39804 435 35.075547166514 -42.734592028984
OMA0485 OMA7478 2021-04-10 20:36:47 39803 435 35.080219901909 -42.698198700013
OMA0485 OMA7478 2021-04-10 20:36:33 39805 435 35.084907723371 -42.661602733203
OMA0485 OMA7478 2021-04-10 20:36:18 39804 435 35.089572091432 -42.62502698241
OMA0485 OMA7478 2021-04-10 20:36:03 39804 435 35.094191059457 -42.588686960931
OMA0485 OMA7478 2021-04-10 20:35:47 39804 435 35.098832146528 -42.552054682061
OMA0485 OMA7478 2021-04-10 20:35:33 39804 435 35.103435793746 -42.515615302673
OMA0485 OMA7478 2021-04-10 20:35:18 39804 435 35.108056294819 -42.47895906478
OMA0485 OMA7478 2021-04-10 20:35:03 39804 435 35.112634165422 -42.442587987285
OMA0485 OMA7478 2021-04-10 20:34:47 39804 435 35.117231777797 -42.405988098452
OMA0485 OMA7478 2021-04-10 20:34:33 39805 435 35.121792337468 -42.369602480124
OMA0485 OMA7478 2021-04-10 20:34:18 39804 435 35.126369963929 -42.333004965849
OMA0485 OMA7478 2021-04-10 20:34:04 39805 435 35.130915190607 -42.296587090886
OMA0485 OMA7478 2021-04-10 20:33:48 39804 435 35.135477224345 -42.259946727846
OMA0485 OMA7478 2021-04-10 20:33:33 39804 435 35.139993488777 -42.223566485625
OMA0485 OMA7478 2021-04-10 20:33:18 39805 435 35.144531442788 -42.186876003404
OMA0485 OMA7478 2021-04-10 20:33:03 39804 435 35.149022872244 -42.150437624533
OMA0485 OMA7478 2021-04-10 20:32:47 39804 435 35.153535767208 -42.113748169509
OMA0485 OMA7478 2021-04-10 20:32:33 39804 435 35.158007176089 -42.077283397026
OMA0485 OMA7478 2021-04-10 20:32:18 39804 435 35.162487900174 -42.04059448228
OMA0485 OMA7478 2021-04-10 20:32:03 39804 435 35.166924808383 -42.004148999328
OMA0485 OMA7478 2021-04-10 20:31:48 39804 435 35.17135832714 -41.96764875897
OMA0485 OMA7478 2021-04-10 20:31:33 39804 435 35.175801669624 -41.931012594763
OMA0485 OMA7478 2021-04-10 20:31:18 39804 435 35.180222509351 -41.894545794568
OMA0485 OMA7478 2021-04-10 20:31:03 39804 435 35.184662794454 -41.857892991779
OMA0485 OMA7478 2021-04-10 20:30:48 39804 435 35.189068742617 -41.821441152633
OMA0485 OMA7478 2021-04-10 20:30:33 39804 435 35.193484209249 -41.784810301165
OMA0485 OMA7478 2021-04-10 20:30:18 39804 435 35.197874172799 -41.748279567998
OMA0485 OMA7478 2021-04-10 20:30:06 39804 435 35.201942626413 -41.714362022519
OMA0485 OMA7478 2021-04-10 20:29:48 39804 435 35.20630872411 -41.677918534346
OMA0485 OMA7478 2021-04-10 20:29:33 39804 435 35.210686893139 -41.641232353268
OMA0485 OMA7478 2021-04-10 20:29:18 39804 435 35.214581069988 -41.608480742424
OMA0485 OMA7478 2021-04-10 20:29:03 39804 435 35.218934636845 -41.571746330881
OMA0485 OMA7478 2021-04-10 20:28:48 39804 435 35.223251354917 -41.535194520177
OMA0485 OMA7478 2021-04-10 20:28:33 39804 435 35.227571352217 -41.498496287292
OMA0485 OMA7478 2021-04-10 20:28:18 39804 435 35.231858142978 -41.461960164679
OMA0485 OMA7478 2021-04-10 20:28:03 39805 435 35.236151911542 -41.425218922947
OMA0485 OMA7478 2021-04-10 20:27:48 39804 435 35.240407878686 -41.388685548417
OMA0485 OMA7478 2021-04-10 20:27:33 39804 435 35.244682650028 -41.351929739173
OMA0485 OMA7478 2021-04-10 20:27:18 39804 435 35.248923359921 -41.315426139999
OMA0485 OMA7478 2021-04-10 20:27:03 39804 435 35.253187878256 -41.278664674504
OMA0485 OMA7478 2021-04-10 20:26:48 39804 435 35.257419839455 -41.242109422025
OMA0485 OMA7478 2021-04-10 20:26:33 39804 435 35.261657477846 -41.205389324531
OMA0485 OMA7478 2021-04-10 20:26:18 39804 435 35.265866536205 -41.16875388403
OMA0485 OMA7478 2021-04-10 20:26:05 39805 435 35.270080056513 -41.131925050458
OMA0485 OMA7478 2021-04-10 20:25:48 39804 435 35.274247228972 -41.095381303913
OMA0485 OMA7478 2021-04-10 20:25:34 39804 435 35.278433452669 -41.058602822976
OMA0485 OMA7478 2021-04-10 20:25:18 39804 435 35.282590292474 -41.022000247757
OMA0485 OMA7478 2021-04-10 20:25:03 39804 435 35.286755195153 -40.985231723622
OMA0485 OMA7478 2021-04-10 20:24:48 39804 435 35.290879027624 -40.948705459426
OMA0485 OMA7478 2021-04-10 20:24:33 39804 435 35.295017426237 -40.911934302266
OMA0485 OMA7478 2021-04-10 20:24:18 39805 435 35.299135181466 -40.875296713991
OMA0485 OMA7478 2021-04-10 20:24:04 39804 435 35.303266469967 -40.838517919559
OMA0485 OMA7478 2021-04-10 20:23:48 39804 435 35.307369179908 -40.801992789281
OMA0485 OMA7478 2021-04-10 20:23:33 39804 435 35.311495305664 -40.765187487845
OMA0485 OMA7478 2021-04-10 20:23:18 39804 435 35.31560380151 -40.728399448645
OMA0485 OMA7478 2021-04-10 20:23:03 39804 435 35.319664610063 -40.691872904305
OMA0485 OMA7478 2021-04-10 20:22:48 39805 435 35.323739914512 -40.655051327809
OMA0485 OMA7478 2021-04-10 20:22:33 39804 435 35.327781865175 -40.618371816837
OMA0485 OMA7478 2021-04-10 20:22:18 39804 435 35.331830251089 -40.581529669733
OMA0485 OMA7478 2021-04-10 20:22:04 39805 435 35.335835088118 -40.54497860608
OMA0485 OMA7478 2021-04-10 20:21:48 39804 435 35.339861152012 -40.508130322477
OMA0485 OMA7478 2021-04-10 20:21:33 39804 435 35.343846912174 -40.471573175688
OMA0485 OMA7478 2021-04-10 20:21:17 39804 435 35.347854467145 -40.434728654025
OMA0485 OMA7478 2021-04-10 20:21:03 39804 435 35.351817582366 -40.398170546741
OMA0485 OMA7478 2021-04-10 20:20:48 39804 435 35.355800887807 -40.361268315315
OMA0485 OMA7478 2021-04-10 20:20:34 39804 435 35.359743878094 -40.324628539245
OMA0485 OMA7478 2021-04-10 20:20:21 39804 435 35.363697631672 -40.287773772299
OMA0485 OMA7478 2021-04-10 20:20:07 39804 435 35.367610286107 -40.251190158526
OMA0485 OMA7478 2021-04-10 20:19:50 39804 435 35.371552930056 -40.214252562196
OMA0485 OMA7478 2021-04-10 20:19:33 39804 435 35.375450057094 -40.177689799177
OMA0485 OMA7478 2021-04-10 20:19:17 39804 435 35.379377813926 -40.140770705722
OMA0485 OMA7478 2021-04-10 20:19:03 39804 435 35.383262660269 -40.104141108235
OMA0485 OMA7478 2021-04-10 20:18:48 39804 435 35.387149241701 -40.067331097704
OMA0485 OMA7478 2021-04-10 20:18:32 39804 435 35.390997905064 -40.030701236747
OMA0485 OMA7478 2021-04-10 20:18:18 39804 435 35.394727038236 -39.995050801322
OMA0485 OMA7478 2021-04-10 20:18:03 39804 435 35.398552265844 -39.958381299504
OMA0485 OMA7478 2021-04-10 20:17:48 39804 435 35.402391298203 -39.921506725676
OMA0485 OMA7478 2021-04-10 20:17:33 39804 435 35.406210639252 -39.88477773693
OMA0485 OMA7478 2021-04-10 20:17:17 39804 435 35.410037675725 -39.84792338353
OMA0485 OMA7478 2021-04-10 20:17:03 39804 435 35.413843984684 -39.811231847433
OMA0485 OMA7478 2021-04-10 20:16:48 39804 435 35.417655624533 -39.774423104222
OMA0485 OMA7478 2021-04-10 20:16:33 39804 435 35.421436505185 -39.737808007546
OMA0485 OMA7478 2021-04-10 20:16:18 39804 435 35.425234484458 -39.700921650975
OMA0485 OMA7478 2021-04-10 20:16:05 39804 435 35.429017651368 -39.664009947999
OMA0485 OMA7478 2021-04-10 20:15:47 39804 435 35.432750137088 -39.627363440714
OMA0485 OMA7478 2021-04-10 20:15:32 39804 435 35.436495913994 -39.590423002919
OMA0485 OMA7478 2021-04-10 20:15:17 39804 435 35.440198108339 -39.553764150344
OMA0485 OMA7478 2021-04-10 20:15:03 39804 435 35.443916711758 -39.516782624691
OMA0485 OMA7478 2021-04-10 20:14:48 39804 435 35.447603413046 -39.480006591683
OMA0485 OMA7478 2021-04-10 20:14:33 39804 435 35.451271965281 -39.443350700635
OMA0485 OMA7478 2021-04-10 20:14:18 39804 435 35.454972602855 -39.40636776092
OMA0485 OMA7478 2021-04-10 20:14:03 39804 435 35.458657542342 -39.369506910837
OMA0485 OMA7478 2021-04-10 20:13:47 39804 435 35.462317845036 -39.332794537326
OMA0485 OMA7478 2021-04-10 20:13:32 39804 435 35.465954792368 -39.296125492828
OMA0485 OMA7478 2021-04-10 20:13:18 39804 435 35.469595370512 -39.259119981472
OMA0485 OMA7478 2021-04-10 20:13:02 39804 435 35.473176681297 -39.222369668395
OMA0485 OMA7478 2021-04-10 20:12:47 39804 437 35.476753715893 -39.185302645316
OMA0485 OMA7478 2021-04-10 20:12:32 39805 435 35.480279259218 -39.14844789171
OMA0485 OMA7478 2021-04-10 20:12:18 39804 435 35.483802138175 -39.111440526064
OMA0485 OMA7478 2021-04-10 20:12:04 39804 435 35.487288073802 -39.074739124879
OMA0485 OMA7478 2021-04-10 20:11:47 39805 433 35.490792666613 -39.037834799041
OMA0485 OMA7478 2021-04-10 20:11:32 39804 433 35.494269069985 -39.001336780454
OMA0485 OMA7478 2021-04-10 20:11:18 39804 431 35.497790548935 -38.964508692891
OMA0485 OMA7478 2021-04-10 20:11:03 39804 431 35.501285917417 -38.928028162281
OMA0485 OMA7478 2021-04-10 20:10:47 39804 431 35.504792074439 -38.89140518821
OMA0485 OMA7478 2021-04-10 20:10:33 39804 431 35.508265935556 -38.855020577068
OMA0485 OMA7478 2021-04-10 20:10:17 39804 431 35.511753651917 -38.818411736952
OMA0485 OMA7478 2021-04-10 20:10:05 39804 431 35.515049496899 -38.783732331896
OMA0485 OMA7478 2021-04-10 20:09:48 39804 431 35.518517686738 -38.747114967384
OMA0485 OMA7478 2021-04-10 20:09:33 39804 431 35.521960646453 -38.710650241592
OMA0485 OMA7478 2021-04-10 20:09:17 39804 431 35.525414733475 -38.673963241166
OMA0485 OMA7478 2021-04-10 20:09:03 39804 431 35.528855790704 -38.637199340006
OMA0485 OMA7478 2021-04-10 20:08:47 39804 431 35.532250244927 -38.600814068524
OMA0485 OMA7478 2021-04-10 20:08:32 39805 431 35.535662855175 -38.56416028523
OMA0485 OMA7478 2021-04-10 20:08:18 39804 431 35.539043897805 -38.527754469819
OMA0485 OMA7478 2021-04-10 20:08:03 39805 431 35.542434067889 -38.491110131396
OMA0485 OMA7478 2021-04-10 20:07:47 39804 431 35.545778685426 -38.454711679783
OMA0485 OMA7478 2021-04-10 20:07:33 39804 431 35.54911831802 -38.418001467387
OMA0485 OMA7478 2021-04-10 20:07:18 39805 433 35.552406183513 -38.381480072369
OMA0485 OMA7478 2021-04-10 20:07:03 39805 433 35.55571527709 -38.344489101846
OMA0485 OMA7478 2021-04-10 20:06:48 39808 431 35.558988705614 -38.307933209036
OMA0485 OMA7478 2021-04-10 20:06:33 39805 431 35.562311354099 -38.271186124291
OMA0485 OMA7478 2021-04-10 20:06:18 39809 429 35.565648855782 -38.234842607676
OMA0485 OMA7478 2021-04-10 20:06:03 39806 427 35.569008376992 -38.198335966934
OMA0485 OMA7478 2021-04-10 20:05:47 39782 431 35.572280501705 -38.161994237907
OMA0485 OMA7478 2021-04-10 20:05:32 39803 431 35.574853175709 -38.132939146787
OMA0485 OMA7478 2021-04-10 20:05:17 39803 433 35.578054493216 -38.096224645512
OMA0485 OMA7478 2021-04-10 20:05:03 39804 433 35.581234729135 -38.05937702225
OMA0485 OMA7478 2021-04-10 20:04:48 39806 431 35.584421851753 -38.022651888825
OMA0485 OMA7478 2021-04-10 20:04:32 39804 429 35.587660435934 -37.985736258824
OMA0485 OMA7478 2021-04-10 20:04:17 39804 429 35.590853665601 -37.94925813779
OMA0485 OMA7478 2021-04-10 20:04:03 39804 429 35.594047827218 -37.912619435607
OMA0485 OMA7478 2021-04-10 20:03:48 39804 429 35.597216668606 -37.876166762697
OMA0485 OMA7478 2021-04-10 20:03:33 39804 429 35.600392599939 -37.839589925753
OMA0485 OMA7478 2021-04-10 20:03:18 39804 429 35.60354701823 -37.803214819513
OMA0485 OMA7478 2021-04-10 20:03:03 39804 429 35.606711268154 -37.766642104695
OMA0485 OMA7478 2021-04-10 20:02:48 39804 429 35.609847012097 -37.730307632744
OMA0485 OMA7478 2021-04-10 20:02:33 39804 429 35.612995361501 -37.693730022068
OMA0485 OMA7478 2021-04-10 20:02:18 39804 429 35.616105850615 -37.657366548494
OMA0485 OMA7478 2021-04-10 20:02:03 39804 429 35.619207477217 -37.620756726796
OMA0485 OMA7478 2021-04-10 20:01:48 39804 429 35.622270143701 -37.584365638981
OMA0485 OMA7478 2021-04-10 20:01:33 39804 431 35.625339291771 -37.547694833575
OMA0485 OMA7478 2021-04-10 20:01:18 39805 429 35.628382612489 -37.511231761969
OMA0485 OMA7478 2021-04-10 20:01:03 39804 429 35.63143858407 -37.474620080388
OMA0485 OMA7478 2021-04-10 20:00:48 39805 429 35.634478496232 -37.438255833082
OMA0485 OMA7478 2021-04-10 20:00:33 39804 429 35.637538518455 -37.401651301855
OMA0485 OMA7478 2021-04-10 20:00:18 39804 429 35.640471119293 -37.366308888201
OMA0485 OMA7478 2021-04-10 20:00:06 39803 429 35.643131694982 -37.3336287809
OMA0485 OMA7478 2021-04-10 19:59:48 39803 431 35.646012688329 -37.297089403275
OMA0485 OMA7478 2021-04-10 19:59:33 39804 433 35.648797139247 -37.260228953397
OMA0485 OMA7478 2021-04-10 19:59:18 39804 433 35.651468309952 -37.223565511789
OMA0485 OMA7478 2021-04-10 19:59:03 39804 429 35.654096688203 -37.186753366824
OMA0485 OMA7478 2021-04-10 19:58:48 39804 425 35.656656194869 -37.150449710766
OMA0485 OMA7478 2021-04-10 19:58:33 39805 421 35.65894379444 -37.118033579604
OMA0485 OMA7478 2021-04-10 19:58:17 39805 417 35.661506521414 -37.082423114376
OMA0485 OMA7478 2021-04-10 19:58:03 39805 412 35.664155814362 -37.046974429249
OMA0485 OMA7478 2021-04-10 19:57:47 39804 408 35.666555778615 -37.016046457235
OMA0485 OMA7478 2021-04-10 19:57:32 39803 404 35.669291501781 -36.981479048271
OMA0485 OMA7478 2021-04-10 19:57:18 39804 404 35.672002546036 -36.947228394332
OMA0485 OMA7478 2021-04-10 19:57:03 39804 404 35.674717241313 -36.912817784567
OMA0485 OMA7478 2021-04-10 19:56:47 39804 404 35.677415118286 -36.878538452505
OMA0485 OMA7478 2021-04-10 19:56:32 39804 404 35.680119740989 -36.844126385321
OMA0485 OMA7478 2021-04-10 19:56:17 39804 404 35.682801283693 -36.809954135151
OMA0485 OMA7478 2021-04-10 19:56:03 39804 404 35.685497155012 -36.775527673877
OMA0485 OMA7478 2021-04-10 19:55:48 39804 404 35.688168693961 -36.741316430263
OMA0485 OMA7478 2021-04-10 19:55:32 39804 404 35.690850438984 -36.706880324015
OMA0485 OMA7478 2021-04-10 19:55:18 39805 404 35.693510459458 -36.672612517897
OMA0485 OMA7478 2021-04-10 19:55:03 39804 404 35.696158606792 -36.638150817374
OMA0485 OMA7478 2021-04-10 19:54:48 39804 404 35.698777965142 -36.603902487968
OMA0485 OMA7478 2021-04-10 19:54:33 39804 404 35.701408121705 -36.56946205949
OMA0485 OMA7478 2021-04-10 19:54:18 39804 404 35.704016977502 -36.53521410361
OMA0485 OMA7478 2021-04-10 19:54:03 39804 404 35.706503555691 -36.502410039048
OMA0485 OMA7478 2021-04-10 19:53:47 39804 404 35.709082920276 -36.468154025678
OMA0485 OMA7478 2021-04-10 19:53:32 39804 404 35.711676315198 -36.433531529971
OMA0485 OMA7478 2021-04-10 19:53:17 39804 404 35.714235431653 -36.399231894105
OMA0485 OMA7478 2021-04-10 19:53:02 39804 404 35.716803407821 -36.364686905036
OMA0485 OMA7478 2021-04-10 19:52:47 39804 404 35.719341718884 -36.330415763865
OMA0485 OMA7478 2021-04-10 19:52:32 39804 404 35.721888762885 -36.295877151419
OMA0485 OMA7478 2021-04-10 19:52:17 39804 404 35.724406427901 -36.261593176962
OMA0485 OMA7478 2021-04-10 19:52:03 39804 404 35.726935083128 -36.227025322769
OMA0485 OMA7478 2021-04-10 19:51:47 39804 404 35.729434218826 -36.192738373445
OMA0485 OMA7478 2021-04-10 19:51:32 39804 404 35.731942106202 -36.158202042175
OMA0485 OMA7478 2021-04-10 19:51:18 39804 404 35.734423135242 -36.123911344251
OMA0485 OMA7478 2021-04-10 19:51:03 39804 404 35.736911103635 -36.089374572754
OMA0485 OMA7478 2021-04-10 19:50:47 39804 404 35.739373499055 -36.055034145851
OMA0485 OMA7478 2021-04-10 19:50:33 39804 404 35.741836046399 -36.02051965918
OMA0485 OMA7478 2021-04-10 19:50:18 39804 404 35.744274935186 -35.986176635104
OMA0485 OMA7478 2021-04-10 19:50:06 39804 404 35.746719034558 -35.951643981564
OMA0485 OMA7478 2021-04-10 19:49:47 39804 404 35.748918406574 -35.920484205003
OMA0485 OMA7478 2021-04-10 19:49:32 39804 404 35.751314177772 -35.886475559207
OMA0485 OMA7478 2021-04-10 19:49:17 39804 404 35.75372618589 -35.852170440513
OMA0485 OMA7478 2021-04-10 19:49:03 39804 404 35.755931565099 -35.820744299915
OMA0485 OMA7478 2021-04-10 19:48:48 39804 404 35.758332270149 -35.786451587619
OMA0485 OMA7478 2021-04-10 19:48:32 39804 404 35.760746931507 -35.751852584027
OMA0485 OMA7478 2021-04-10 19:48:17 39804 404 35.763139712855 -35.71745217619
OMA0485 OMA7478 2021-04-10 19:48:03 39804 404 35.765535389819 -35.682884908966
OMA0485 OMA7478 2021-04-10 19:47:48 39804 404 35.767897324319 -35.648474915109
OMA0485 OMA7478 2021-04-10 19:47:33 39804 404 35.770251488556 -35.613855140805
OMA0485 OMA7478 2021-04-10 19:47:17 39804 404 35.772578468269 -35.579507773656
OMA0485 OMA7478 2021-04-10 19:47:03 39804 404 35.774914365391 -35.544918254956
OMA0485 OMA7478 2021-04-10 19:46:47 39804 404 35.77722683818 -35.510532041105
OMA0485 OMA7478 2021-04-10 19:46:32 39804 404 35.779539621353 -35.47595532901
OMA0485 OMA7478 2021-04-10 19:46:17 39804 404 35.781829153412 -35.441505562384
OMA0485 OMA7478 2021-04-10 19:46:03 39804 404 35.784111834659 -35.406904090853
OMA0485 OMA7478 2021-04-10 19:45:47 39804 404 35.786365743131 -35.372520198199
OMA0485 OMA7478 2021-04-10 19:45:33 39804 404 35.788632397341 -35.337821396473
OMA0485 OMA7478 2021-04-10 19:45:17 39804 404 35.7908778217 -35.303466372041
OMA0485 OMA7478 2021-04-10 19:45:03 39804 404 35.793148648219 -35.268890460358
OMA0485 OMA7478 2021-04-10 19:44:48 39804 404 35.795410734093 -35.23458132626
OMA0485 OMA7478 2021-04-10 19:44:32 39804 404 35.797667378824 -35.200095367635
OMA0485 OMA7478 2021-04-10 19:44:17 39803 404 35.799855696433 -35.165741904008
OMA0485 OMA7478 2021-04-10 19:44:04 39803 406 35.801963259355 -35.131036352133
OMA0485 OMA7478 2021-04-10 19:43:47 39804 408 35.803962133444 -35.096141629365
OMA0485 OMA7478 2021-04-10 19:43:32 39805 408 35.805869026478 -35.061328281898
OMA0485 OMA7478 2021-04-10 19:43:17 39804 404 35.807735477766 -35.02652557325
OMA0485 OMA7478 2021-04-10 19:43:02 39804 400 35.809551007068 -34.992237530863
OMA0485 OMA7478 2021-04-10 19:42:47 39805 396 35.811356843511 -34.958146925298
OMA0485 OMA7478 2021-04-10 19:42:32 39805 390 35.813171312396 -34.924637773771
OMA0485 OMA7478 2021-04-10 19:42:17 39805 384 35.815047874294 -34.891440319661
OMA0485 OMA7478 2021-04-10 19:42:04 39804 380 35.816979709145 -34.85890284592
OMA0485 OMA7478 2021-04-10 19:41:47 39803 377 35.818971578012 -34.826505951346
OMA0485 OMA7478 2021-04-10 19:41:32 39804 375 35.820948449391 -34.794523056949
OMA0485 OMA7478 2021-04-10 19:41:17 39805 375 35.822935746462 -34.762332522133
OMA0485 OMA7478 2021-04-10 19:41:03 39804 375 35.824912614382 -34.730378762761
OMA0485 OMA7478 2021-04-10 19:40:48 39804 375 35.826905316406 -34.698195471681
OMA0485 OMA7478 2021-04-10 19:40:32 39805 377 35.828871433234 -34.666187070796
OMA0485 OMA7478 2021-04-10 19:40:18 39804 377 35.830799397913 -34.633970474798
OMA0485 OMA7478 2021-04-10 19:40:04 39804 377 35.832692332298 -34.60196500876
OMA0485 OMA7478 2021-04-10 19:39:48 39804 377 35.83458946537 -34.569694606087
OMA0485 OMA7478 2021-04-10 19:39:32 39804 377 35.836470085085 -34.537630176307
OMA0485 OMA7478 2021-04-10 19:39:17 39805 377 35.838360983889 -34.50538890866
OMA0485 OMA7478 2021-04-10 19:39:03 39804 375 35.840239995492 -34.473392353885
OMA0485 OMA7478 2021-04-10 19:38:47 39804 375 35.842131989989 -34.4412225631
OMA0485 OMA7478 2021-04-10 19:38:32 39804 375 35.843999583226 -34.409255009949
OMA0485 OMA7478 2021-04-10 19:38:17 39804 377 35.845862860562 -34.377020572491
OMA0485 OMA7478 2021-04-10 19:38:03 39804 377 35.84770167243 -34.344970550141
OMA0485 OMA7478 2021-04-10 19:37:47 39804 377 35.849547635128 -34.31267645525
OMA0485 OMA7478 2021-04-10 19:37:32 39804 377 35.851370988226 -34.280671976388
OMA0485 OMA7478 2021-04-10 19:37:17 39804 377 35.853209998664 -34.248253363946
OMA0485 OMA7478 2021-04-10 19:37:03 39805 377 35.855015915499 -34.216213053271
OMA0485 OMA7478 2021-04-10 19:36:47 39804 377 35.856835026421 -34.183936100554
OMA0485 OMA7478 2021-04-10 19:36:32 39804 377 35.858634721147 -34.151899298355
OMA0485 OMA7478 2021-04-10 19:36:17 39804 377 35.860431559527 -34.119610539549
OMA0485 OMA7478 2021-04-10 19:36:03 39804 377 35.862197509796 -34.087530881916
OMA0485 OMA7478 2021-04-10 19:35:47 39804 377 35.863964109211 -34.055195875926
OMA0485 OMA7478 2021-04-10 19:35:32 39804 377 35.865710387041 -34.023114192247
OMA0485 OMA7478 2021-04-10 19:35:18 39804 377 35.867462538008 -33.990782000208
OMA0485 OMA7478 2021-04-10 19:35:03 39805 377 35.869194566736 -33.958722685566
OMA0485 OMA7478 2021-04-10 19:34:47 39804 377 35.870935428985 -33.926426622993
OMA0485 OMA7478 2021-04-10 19:34:32 39804 377 35.872660606113 -33.894391001403
OMA0485 OMA7478 2021-04-10 19:34:18 39804 377 35.874388185561 -33.862186179219
OMA0485 OMA7478 2021-04-10 19:34:03 39804 377 35.876101655146 -33.830124911069
OMA0485 OMA7478 2021-04-10 19:33:47 39804 377 35.877821632664 -33.79788161571
OMA0485 OMA7478 2021-04-10 19:33:33 39804 377 35.879529168631 -33.765824242903
OMA0485 OMA7478 2021-04-10 19:33:17 39804 377 35.881244013661 -33.733546156267
OMA0485 OMA7478 2021-04-10 19:33:02 39804 377 35.88295064342 -33.701437623742
OMA0485 OMA7478 2021-04-10 19:32:47 39805 377 35.88466929267 -33.669120050076
OMA0485 OMA7478 2021-04-10 19:32:32 39803 377 35.886339632682 -33.637031840289
OMA0485 OMA7478 2021-04-10 19:32:17 39804 377 35.887992406378 -33.604745269278
OMA0485 OMA7478 2021-04-10 19:32:03 39804 377 35.889615613551 -33.572627105119
OMA0485 OMA7478 2021-04-10 19:31:47 39804 377 35.891242616477 -33.54027623428
OMA0485 OMA7478 2021-04-10 19:31:32 39804 377 35.89285636155 -33.508087793878
OMA0485 OMA7478 2021-04-10 19:31:17 39804 377 35.894474192262 -33.475762749692
OMA0485 OMA7478 2021-04-10 19:31:03 39804 377 35.896080769583 -33.443646239719
OMA0485 OMA7478 2021-04-10 19:30:48 39804 377 35.897691658508 -33.41136729931
OMA0485 OMA7478 2021-04-10 19:30:32 39804 377 35.899285867736 -33.379298280496
OMA0485 OMA7478 2021-04-10 19:30:17 39804 377 35.900884990385 -33.347001304119
OMA0485 OMA7478 2021-04-10 19:30:06 39804 377 35.902461610767 -33.314936207328
OMA0485 OMA7478 2021-04-10 19:29:48 39804 377 35.904031726606 -33.282592700287
OMA0485 OMA7478 2021-04-10 19:29:32 39804 377 35.905571238902 -33.250466692083
OMA0485 OMA7478 2021-04-10 19:29:17 39804 377 35.90710420548 -33.218073426047
OMA0485 OMA7478 2021-04-10 19:29:03 39804 377 35.908605346147 -33.185909078069
OMA0485 OMA7478 2021-04-10 19:28:47 39804 377 35.910100833191 -33.153513704279
OMA0485 OMA7478 2021-04-10 19:28:33 39803 377 35.911570940956 -33.121394673006
OMA0485 OMA7478 2021-04-10 19:28:17 39804 377 35.913025269334 -33.089090959821
OMA0485 OMA7478 2021-04-10 19:28:03 39804 375 35.914443210419 -33.057025476164
OMA0485 OMA7478 2021-04-10 19:27:47 39805 375 35.915864695804 -33.024756030652
OMA0485 OMA7478 2021-04-10 19:27:32 39805 373 35.91719352126 -32.994838887866
OMA0485 OMA7478 2021-04-10 19:27:17 39805 371 35.918635932434 -32.962862580616
OMA0485 OMA7478 2021-04-10 19:27:02 39804 371 35.920082555391 -32.931225871422
OMA0485 OMA7478 2021-04-10 19:26:47 39804 369 35.921537040368 -32.899364986615
OMA0485 OMA7478 2021-04-10 19:26:32 39804 369 35.922972002654 -32.867728784349
OMA0485 OMA7478 2021-04-10 19:26:18 39804 371 35.924406025528 -32.835916711382
OMA0485 OMA7478 2021-04-10 19:26:03 39804 371 35.925823025287 -32.804327820183
OMA0485 OMA7478 2021-04-10 19:25:47 39804 371 35.927244447942 -32.772563345097
OMA0485 OMA7478 2021-04-10 19:25:32 39804 371 35.928658273947 -32.740916303908
OMA0485 OMA7478 2021-04-10 19:25:17 39804 371 35.930081907537 -32.709091917924
OMA0485 OMA7478 2021-04-10 19:25:03 39805 371 35.931486723195 -32.677471957368
OMA0485 OMA7478 2021-04-10 19:24:48 39804 371 35.932873986583 -32.645655754529
OMA0485 OMA7478 2021-04-10 19:24:32 39803 371 35.934235263058 -32.614046439463
OMA0485 OMA7478 2021-04-10 19:24:18 39804 369 35.935603950364 -32.582183873789
OMA0485 OMA7478 2021-04-10 19:24:03 39804 369 35.936956161971 -32.550609936968
OMA0485 OMA7478 2021-04-10 19:23:48 39804 371 35.93830666943 -32.518828106265
OMA0485 OMA7478 2021-04-10 19:23:33 39804 371 35.93963769536 -32.487250487546
OMA0485 OMA7478 2021-04-10 19:23:18 39804 371 35.940969014872 -32.455358253238
OMA0485 OMA7478 2021-04-10 19:23:03 39804 371 35.942274173204 -32.423736264969
OMA0485 OMA7478 2021-04-10 19:22:47 39804 371 35.943576997053 -32.391866922467
OMA0485 OMA7478 2021-04-10 19:22:33 39804 371 35.944869319623 -32.36013180919
OMA0485 OMA7478 2021-04-10 19:22:18 39804 371 35.946167624084 -32.328289627362
OMA0485 OMA7478 2021-04-10 19:22:03 39804 371 35.947447338405 -32.296695466778
OMA0485 OMA7478 2021-04-10 19:21:47 39804 371 35.948558637721 -32.269053157599
OMA0485 OMA7478 2021-04-10 19:21:33 39804 371 35.949673477743 -32.241174673284
OMA0485 OMA7478 2021-04-10 19:21:17 39804 371 35.950933435345 -32.209500991689
OMA0485 OMA7478 2021-04-10 19:21:02 39804 371 35.95189722938 -32.185105383583
OMA0485 OMA7478 2021-04-10 19:20:47 39804 371 35.953138016781 -32.153382876808
OMA0485 OMA7478 2021-04-10 19:20:32 39805 371 35.95437285944 -32.121479743546
OMA0485 OMA7478 2021-04-10 19:20:18 39804 371 35.955591769477 -32.089740488133
OMA0485 OMA7478 2021-04-10 19:20:04 39804 371 35.956814468648 -32.057820052614
OMA0485 OMA7478 2021-04-10 19:19:47 39804 371 35.958017025251 -32.026188814575
OMA0485 OMA7478 2021-04-10 19:19:32 39804 371 35.959217145883 -31.994297824242
OMA0485 OMA7478 2021-04-10 19:19:17 39805 371 35.960398230014 -31.962644518155
OMA0485 OMA7478 2021-04-10 19:19:03 39804 371 35.961588191531 -31.930747411335
OMA0485 OMA7478 2021-04-10 19:18:47 39804 371 35.962763475095 -31.89910126394
OMA0485 OMA7478 2021-04-10 19:18:32 39804 371 35.963941498872 -31.867252365314
OMA0485 OMA7478 2021-04-10 19:18:17 39804 371 35.965109502703 -31.835596773049
OMA0485 OMA7478 2021-04-10 19:18:02 39804 371 35.966281427768 -31.803764863185
OMA0485 OMA7478 2021-04-10 19:17:47 39804 371 35.96744116917 -31.772089767527
OMA0485 OMA7478 2021-04-10 19:17:32 39804 371 35.968599256737 -31.740181898489
OMA0485 OMA7478 2021-04-10 19:17:17 39804 371 35.969746451102 -31.708453348598
OMA0485 OMA7478 2021-04-10 19:17:02 39805 371 35.970904590286 -31.676516317854
OMA0485 OMA7478 2021-04-10 19:16:47 39804 371 35.972032426504 -31.644827113844
OMA0485 OMA7478 2021-04-10 19:16:32 39804 371 35.97314607936 -31.612944271046
OMA0485 OMA7478 2021-04-10 19:16:17 39804 371 35.974241966 -31.581296109279
OMA0485 OMA7478 2021-04-10 19:16:03 39804 371 35.975333386915 -31.549387920076
OMA0485 OMA7478 2021-04-10 19:15:47 39804 371 35.976402056253 -31.517698243566
OMA0485 OMA7478 2021-04-10 19:15:32 39804 371 35.977473833636 -31.485549396916
OMA0485 OMA7478 2021-04-10 19:15:18 39804 371 35.978522322877 -31.453841951242
OMA0485 OMA7478 2021-04-10 19:15:03 39804 371 35.979570261225 -31.421894541812
OMA0485 OMA7478 2021-04-10 19:14:48 39804 371 35.980598272336 -31.390169887262
OMA0485 OMA7478 2021-04-10 19:14:33 39804 371 35.981625142769 -31.358234564066
OMA0485 OMA7478 2021-04-10 19:14:18 39804 371 35.982643091808 -31.326507161432
OMA0485 OMA7478 2021-04-10 19:14:03 39804 371 35.983666351687 -31.294613539742
OMA0485 OMA7478 2021-04-10 19:13:47 39804 371 35.98467542485 -31.262988083018
OMA0485 OMA7478 2021-04-10 19:13:33 39804 371 35.985682014479 -31.231113804637
OMA0485 OMA7478 2021-04-10 19:13:17 39810 371 35.986669148582 -31.19944998146
OMA0485 OMA7478 2021-04-10 19:13:03 39820 371 35.987655199627 -31.167537189883
OMA0485 OMA7478 2021-04-10 19:12:47 39831 371 35.988623539864 -31.135891576097
OMA0485 OMA7478 2021-04-10 19:12:33 39842 371 35.989592339145 -31.10398065882
OMA0485 OMA7478 2021-04-10 19:12:17 39853 371 35.99054483072 -31.072271265474
OMA0485 OMA7478 2021-04-10 19:12:04 39864 371 35.991489619739 -31.040410100523
OMA0485 OMA7478 2021-04-10 19:11:47 39874 371 35.992420618578 -31.008728953411
OMA0485 OMA7478 2021-04-10 19:11:32 39884 371 35.993351734529 -30.976817971101
OMA0485 OMA7478 2021-04-10 19:11:18 39885 371 35.994269969953 -30.945128344616
OMA0485 OMA7478 2021-04-10 19:11:03 39885 371 35.995188207098 -30.91325965912
OMA0485 OMA7478 2021-04-10 19:10:47 39885 371 35.996096000771 -30.881607755423
OMA0485 OMA7478 2021-04-10 19:10:32 39885 371 35.997006859425 -30.849741988098
OMA0485 OMA7478 2021-04-10 19:10:18 39885 371 35.997909655111 -30.81803372867
OMA0485 OMA7478 2021-04-10 19:10:05 39885 371 35.998812076975 -30.786164959797
OMA0485 OMA7478 2021-04-10 19:09:47 39885 371 35.999703852628 -30.754494800019
OMA0485 OMA7478 2021-04-10 19:09:32 39885 371 36.000600370098 -30.722555688202
OMA0485 OMA7478 2021-04-10 19:09:17 39885 371 36.001490213381 -30.690855419562
OMA0485 OMA7478 2021-04-10 19:09:03 39886 371 36.002371962608 -30.65892601942
OMA0485 OMA7478 2021-04-10 19:08:47 39885 371 36.003209768174 -30.627227690705
OMA0485 OMA7478 2021-04-10 19:08:32 39885 371 36.004044953922 -30.595349223497
OMA0485 OMA7478 2021-04-10 19:08:17 39885 371 36.004870742958 -30.563648394568
OMA0485 OMA7478 2021-04-10 19:08:03 39885 371 36.005695726352 -30.531737323879
OMA0485 OMA7478 2021-04-10 19:07:47 39885 371 36.006504900267 -30.500076355507
OMA0485 OMA7478 2021-04-10 19:07:32 39885 371 36.007308884675 -30.46813476241
OMA0485 OMA7478 2021-04-10 19:07:17 39885 371 36.008096533819 -30.436416377761
OMA0485 OMA7478 2021-04-10 19:07:02 39885 371 36.008881895388 -30.404418062077
OMA0485 OMA7478 2021-04-10 19:06:47 39885 371 36.009651821603 -30.372696502457
OMA0485 OMA7478 2021-04-10 19:06:33 39885 371 36.01041859736 -30.34075424235
OMA0485 OMA7478 2021-04-10 19:06:17 39885 371 36.011172310725 -30.309010991543
OMA0485 OMA7478 2021-04-10 19:06:03 39885 371 36.011921297616 -30.277083298948
OMA0485 OMA7478 2021-04-10 19:05:47 39885 371 36.012657126736 -30.245348852682
OMA0485 OMA7478 2021-04-10 19:05:32 39885 371 36.013390382215 -30.213384994769
OMA0485 OMA7478 2021-04-10 19:05:17 39885 371 36.01411020715 -30.181663982098
OMA0485 OMA7478 2021-04-10 19:05:03 39885 371 36.014827513423 -30.149692226779
OMA0485 OMA7478 2021-04-10 19:04:47 39885 371 36.015530984734 -30.117966558373
OMA0485 OMA7478 2021-04-10 19:04:32 39885 371 36.016230184565 -30.086026619463
OMA0485 OMA7478 2021-04-10 19:04:17 39885 371 36.016915601212 -30.054310592696
OMA0485 OMA7478 2021-04-10 19:04:02 39885 371 36.01759652305 -30.022363646838
OMA0485 OMA7478 2021-04-10 19:03:47 39885 371 36.018264145728 -29.990606478854
OMA0485 OMA7478 2021-04-10 19:03:32 39885 371 36.018927139748 -29.958678456089
OMA0485 OMA7478 2021-04-10 19:03:17 39885 371 36.019579951838 -29.926912593621
OMA0485 OMA7478 2021-04-10 19:03:03 39885 371 36.020230959904 -29.894992244813
OMA0485 OMA7478 2021-04-10 19:02:47 39885 371 36.020878110206 -29.86307338344
OMA0485 OMA7478 2021-04-10 19:02:32 39885 371 36.021517715279 -29.831344753507
OMA0485 OMA7478 2021-04-10 19:02:17 39885 371 36.022158192897 -29.799374118765
OMA0485 OMA7478 2021-04-10 19:02:03 39885 371 36.022788866714 -29.767663538141
OMA0485 OMA7478 2021-04-10 19:01:47 39885 371 36.023423325512 -29.735637394772
OMA0485 OMA7478 2021-04-10 19:01:33 39885 371 36.024052669951 -29.703886806849
OMA0485 OMA7478 2021-04-10 19:01:17 39886 371 36.024682808507 -29.671874323858
OMA0485 OMA7478 2021-04-10 19:01:03 39885 371 36.025272577002 -29.64004752889
OMA0485 OMA7478 2021-04-10 19:00:48 39885 371 36.025844880204 -29.608085658669
OMA0485 OMA7478 2021-04-10 19:00:33 39885 371 36.026406251187 -29.576302440583
OMA0485 OMA7478 2021-04-10 19:00:17 39885 371 36.02696180252 -29.544344999313
OMA0485 OMA7478 2021-04-10 19:00:05 39885 371 36.027505473031 -29.512574587832
OMA0485 OMA7478 2021-04-10 18:59:47 39885 371 36.028044292171 -29.480590519496
OMA0485 OMA7478 2021-04-10 18:59:32 39885 371 36.028570438228 -29.448818613912
OMA0485 OMA7478 2021-04-10 18:59:17 39885 371 36.029090964444 -29.416852127977
OMA0485 OMA7478 2021-04-10 18:59:02 39885 371 36.02959954859 -29.38511013115
OMA0485 OMA7478 2021-04-10 18:58:47 39885 371 36.030103790246 -29.353130972013
OMA0485 OMA7478 2021-04-10 18:58:32 39885 371 36.030597051708 -29.321368137773
OMA0485 OMA7478 2021-04-10 18:58:17 39885 371 36.031088061954 -29.289295196936
OMA0485 OMA7478 2021-04-10 18:58:03 39885 371 36.03156847809 -29.257462113134
OMA0485 OMA7478 2021-04-10 18:57:47 39885 371 36.03204365244 -29.225404726986
OMA0485 OMA7478 2021-04-10 18:57:32 39885 371 36.032504084054 -29.193640972271
OMA0485 OMA7478 2021-04-10 18:57:17 39885 371 36.032955209763 -29.161631637572
OMA0485 OMA7478 2021-04-10 18:57:02 39885 371 36.033389324354 -29.129834518984
OMA0485 OMA7478 2021-04-10 18:56:47 39885 371 36.033812929648 -29.097852971949
OMA0485 OMA7478 2021-04-10 18:56:32 39885 371 36.034223967303 -29.066058901599
OMA0485 OMA7478 2021-04-10 18:56:17 39885 371 36.034629197311 -29.034190196092
OMA0485 OMA7478 2021-04-10 18:56:03 39885 371 36.035029735823 -29.002181549247
OMA0485 OMA7478 2021-04-10 18:55:47 39885 371 36.035422166323 -28.970440482067
OMA0485 OMA7478 2021-04-10 18:55:32 39885 371 36.035813464697 -28.938468760098
OMA0485 OMA7478 2021-04-10 18:55:17 39885 369 36.036197175983 -28.906827982139
OMA0485 OMA7478 2021-04-10 18:55:03 39885 369 36.036579689026 -28.874977109162
OMA0485 OMA7478 2021-04-10 18:54:47 39885 369 36.036955867182 -28.843348704251
OMA0485 OMA7478 2021-04-10 18:54:32 39885 369 36.037329594452 -28.811499065244
OMA0485 OMA7478 2021-04-10 18:54:17 39885 369 36.037696276023 -28.779756734912
OMA0485 OMA7478 2021-04-10 18:54:03 39885 371 36.038060418493 -28.747864794089
OMA0485 OMA7478 2021-04-10 18:53:47 39885 371 36.038423525154 -28.716027708222
OMA0485 OMA7478 2021-04-10 18:53:32 39886 371 36.038790115811 -28.684042119102
OMA0485 OMA7478 2021-04-10 18:53:17 39885 369 36.039132012803 -28.652391315973
OMA0485 OMA7478 2021-04-10 18:53:03 39885 369 36.039443431494 -28.620553795473
OMA0485 OMA7478 2021-04-10 18:52:47 39885 369 36.039746274746 -28.588877299093
OMA0485 OMA7478 2021-04-10 18:52:32 39885 369 36.040043302307 -28.556985331589
OMA0485 OMA7478 2021-04-10 18:52:17 39885 369 36.040328641096 -28.525305580198
OMA0485 OMA7478 2021-04-10 18:52:03 39885 371 36.04060574701 -28.493361158975
OMA0485 OMA7478 2021-04-10 18:51:47 39885 371 36.040872527873 -28.461645975977
OMA0485 OMA7478 2021-04-10 18:51:32 39885 371 36.041131537213 -28.429717429609
OMA0485 OMA7478 2021-04-10 18:51:17 39885 371 36.041380004908 -28.398008062944
OMA0485 OMA7478 2021-04-10 18:51:02 39885 371 36.041621547915 -28.366119056967
OMA0485 OMA7478 2021-04-10 18:50:47 39885 371 36.041853366612 -28.334436584172
OMA0485 OMA7478 2021-04-10 18:50:32 39885 371 36.042079021766 -28.302504622709
OMA0485 OMA7478 2021-04-10 18:50:17 39885 371 36.042294318557 -28.27082569841
OMA0485 OMA7478 2021-04-10 18:50:04 39885 371 36.042502817383 -28.238936265547
OMA0485 OMA7478 2021-04-10 18:49:47 39885 371 36.04270189588 -28.207227979439
OMA0485 OMA7478 2021-04-10 18:49:32 39885 371 36.042893382593 -28.175362198774
OMA0485 OMA7478 2021-04-10 18:49:17 39885 371 36.043074821024 -28.143648643281
OMA0485 OMA7478 2021-04-10 18:49:02 39885 371 36.043248445802 -28.111767121165
OMA0485 OMA7478 2021-04-10 18:48:47 39885 371 36.043411664393 -28.080091038331
OMA0485 OMA7478 2021-04-10 18:48:32 39885 371 36.043567508075 -28.04818422984
OMA0485 OMA7478 2021-04-10 18:48:17 39885 371 36.043713589293 -28.016487904901
OMA0485 OMA7478 2021-04-10 18:48:03 39885 371 36.043852017116 -27.984571779939
OMA0485 OMA7478 2021-04-10 18:47:47 39885 371 36.043982592804 -27.952863020253
OMA0485 OMA7478 2021-04-10 18:47:32 39885 369 36.044108956361 -27.920979793924
OMA0485 OMA7478 2021-04-10 18:47:17 39885 369 36.044229449743 -27.889351749199
OMA0485 OMA7478 2021-04-10 18:47:03 39886 369 36.044345932033 -27.857463383553
OMA0485 OMA7478 2021-04-10 18:46:47 39892 369 36.044458412153 -27.825774240651
OMA0485 OMA7478 2021-04-10 18:46:32 39899 371 36.04456711407 -27.793911208069
OMA0485 OMA7478 2021-04-10 18:46:17 39906 371 36.044670087737 -27.762220651105
OMA0485 OMA7478 2021-04-10 18:46:03 39913 371 36.044770451793 -27.730287729146
OMA0485 OMA7478 2021-04-10 18:45:47 39921 371 36.04486987223 -27.698523507524
OMA0485 OMA7478 2021-04-10 18:45:32 39929 371 36.044962033427 -27.666566920028
OMA0485 OMA7478 2021-04-10 18:45:17 39935 371 36.045014781335 -27.634848207467
OMA0485 OMA7478 2021-04-10 18:45:03 39939 371 36.04505467916 -27.602908108474
OMA0485 OMA7478 2021-04-10 18:44:47 39939 371 36.04508574556 -27.571229957908
OMA0485 OMA7478 2021-04-10 18:44:32 39939 371 36.045108820908 -27.539366111573
OMA0485 OMA7478 2021-04-10 18:44:17 39939 371 36.045122811997 -27.507486790592
OMA0485 OMA7478 2021-04-10 18:44:03 39939 371 36.045127967829 -27.475729399159
OMA0485 OMA7478 2021-04-10 18:43:47 39939 371 36.045125843484 -27.443776813726
OMA0485 OMA7478 2021-04-10 18:43:32 39939 371 36.04511696127 -27.412050798475
OMA0485 OMA7478 2021-04-10 18:43:17 39939 371 36.045098929613 -27.380171477493
OMA0485 OMA7478 2021-04-10 18:43:02 39939 371 36.045071859058 -27.348463818375
OMA0485 OMA7478 2021-04-10 18:42:47 39939 371 36.045035169647 -27.316584604115
OMA0485 OMA7478 2021-04-10 18:42:32 39939 371 36.044989007483 -27.284876224626
OMA0485 OMA7478 2021-04-10 18:42:17 39939 371 36.044931947011 -27.252952800899
OMA0485 OMA7478 2021-04-10 18:42:03 39939 371 36.044866224117 -27.221286016195
OMA0485 OMA7478 2021-04-10 18:41:47 39939 371 36.04479249503 -27.189254189896
OMA0485 OMA7478 2021-04-10 18:41:32 39939 371 36.044714810277 -27.157587498573
OMA0485 OMA7478 2021-04-10 18:41:17 39939 369 36.044633033421 -27.125712886686
OMA0485 OMA7478 2021-04-10 18:41:02 39939 369 36.044546361213 -27.093932550087
OMA0485 OMA7478 2021-04-10 18:40:47 39939 369 36.044453431279 -27.062069997753
OMA0485 OMA7478 2021-04-10 18:40:32 39939 371 36.04435224141 -27.030428079206
OMA0485 OMA7478 2021-04-10 18:40:17 39939 371 36.044237851663 -26.998524809623
OMA0485 OMA7478 2021-04-10 18:40:03 39940 371 36.044110582808 -26.966815886103
OMA0485 OMA7478 2021-04-10 18:39:47 39939 371 36.043974131185 -26.934843210309
OMA0485 OMA7478 2021-04-10 18:39:32 39940 371 36.043824634721 -26.903128227414
OMA0485 OMA7478 2021-04-10 18:39:17 39940 371 36.043679826502 -26.874681116511
OMA0485 OMA7478 2021-04-10 18:39:03 39939 371 36.043521486599 -26.843587494068
OMA0485 OMA7478 2021-04-10 18:38:48 39940 371 36.043369396964 -26.811705998631
OMA0485 OMA7478 2021-04-10 18:38:32 39939 371 36.043217076584 -26.780012133294
OMA0485 OMA7478 2021-04-10 18:38:17 39939 371 36.043068176495 -26.748135680458
OMA0485 OMA7478 2021-04-10 18:38:03 39940 371 36.042915403001 -26.716250463102
OMA0485 OMA7478 2021-04-10 18:37:47 39938 371 36.042754180318 -26.684491417483
OMA0485 OMA7478 2021-04-10 18:37:32 39940 371 36.042558525993 -26.652462712794
OMA0485 OMA7478 2021-04-10 18:37:17 39939 371 36.042334293591 -26.620659823488
OMA0485 OMA7478 2021-04-10 18:37:02 39939 371 36.042103654066 -26.588656438523
OMA0485 OMA7478 2021-04-10 18:36:47 39940 371 36.041864104492 -26.556884586299
OMA0485 OMA7478 2021-04-10 18:36:32 39938 371 36.041616625374 -26.524928692493
OMA0485 OMA7478 2021-04-10 18:36:17 39939 371 36.041365072993 -26.493125357366
OMA0485 OMA7478 2021-04-10 18:36:03 39939 371 36.04110819626 -26.461176453833
OMA0485 OMA7478 2021-04-10 18:35:47 39939 371 36.040851026443 -26.429434350284
OMA0485 OMA7478 2021-04-10 18:35:32 39939 371 36.040572143422 -26.397441263964
OMA0485 OMA7478 2021-04-10 18:35:17 39939 371 36.040311801375 -26.368855027977
OMA0485 OMA7478 2021-04-10 18:35:03 39939 373 36.040005977464 -26.33683771583
OMA0485 OMA7478 2021-04-10 18:34:47 39939 371 36.039686924598 -26.305009941432
OMA0485 OMA7478 2021-04-10 18:34:33 39939 371 36.039365828689 -26.272998925866
OMA0485 OMA7478 2021-04-10 18:34:17 39940 371 36.039035996933 -26.241184971929
OMA0485 OMA7478 2021-04-10 18:34:03 39939 371 36.038704232515 -26.209237535818
OMA0485 OMA7478 2021-04-10 18:33:47 39939 371 36.038368943092 -26.177471233123
OMA0485 OMA7478 2021-04-10 18:33:33 39939 371 36.038021678239 -26.145501892383
OMA0485 OMA7478 2021-04-10 18:33:17 39939 371 36.037677671261 -26.113795954152
OMA0485 OMA7478 2021-04-10 18:33:03 39941 371 36.037331346527 -26.081893261117
OMA0485 OMA7478 2021-04-10 18:32:47 39939 369 36.037008434857 -26.050255648124
OMA0485 OMA7478 2021-04-10 18:32:32 39940 369 36.036671910383 -26.018442983185
OMA0485 OMA7478 2021-04-10 18:32:18 39938 371 36.036322702953 -25.986558704647
OMA0485 OMA7478 2021-04-10 18:32:03 39937 373 36.035927477028 -25.954794606422
OMA0485 OMA7478 2021-04-10 18:31:47 39939 377 36.03548308743 -25.922538777932
OMA0485 OMA7478 2021-04-10 18:31:32 39940 375 36.035053402487 -25.890219870244
OMA0485 OMA7478 2021-04-10 18:31:17 39775 373 36.034634200444 -25.858293785145
OMA0485 OMA7478 2021-04-10 18:31:02 39566 373 36.034210309238 -25.826167683559
OMA0485 OMA7478 2021-04-10 18:30:47 39298 373 36.03378157329 -25.794296206623
OMA0485 OMA7478 2021-04-10 18:30:32 38993 375 36.033343888153 -25.762108806757
OMA0485 OMA7478 2021-04-10 18:30:17 38725 373 36.032922660712 -25.730198403079
OMA0485 OMA7478 2021-04-10 18:30:05 38389 375 36.032500743648 -25.698043286529
OMA0485 OMA7478 2021-04-10 18:29:47 38130 373 36.032076667039 -25.665933019776
OMA0485 OMA7478 2021-04-10 18:29:32 37836 373 36.031596388084 -25.633780723605
OMA0485 OMA7478 2021-04-10 18:29:17 37528 375 36.031104840187 -25.601824562995
OMA0485 OMA7478 2021-04-10 18:29:03 37239 373 36.030610977731 -25.56962283574
OMA0485 OMA7478 2021-04-10 18:28:47 36909 375 36.030126330702 -25.537610646235
OMA0485 OMA7478 2021-04-10 18:28:32 36592 375 36.029642509501 -25.505449206424
OMA0485 OMA7478 2021-04-10 18:28:17 36247 375 36.029163037169 -25.473452598288
OMA0485 OMA7478 2021-04-10 18:28:02 35857 375 36.02866790204 -25.441204153606
OMA0485 OMA7478 2021-04-10 18:27:47 35456 377 36.028167950898 -25.409046449055
OMA0485 OMA7478 2021-04-10 18:27:32 35089 377 36.027664365544 -25.376589950408
OMA0485 OMA7478 2021-04-10 18:27:17 34692 377 36.027159177034 -25.344384567935
OMA0485 OMA7478 2021-04-10 18:27:02 34253 379 36.026650474529 -25.311850269164
OMA0485 OMA7478 2021-04-10 18:26:47 33756 380 36.026111689672 -25.279332832423
OMA0485 OMA7478 2021-04-10 18:26:32 33241 384 36.025539256971 -25.246451661429
OMA0485 OMA7478 2021-04-10 18:26:17 32746 386 36.024918223552 -25.21333627631
OMA0485 OMA7478 2021-04-10 18:26:02 32233 388 36.024273545183 -25.180237886624
OMA0485 OMA7478 2021-04-10 18:25:47 31940 386 36.023620945665 -25.146871825559
OMA0485 OMA7478 2021-04-10 18:25:32 31939 386 36.022988060559 -25.113786309178
OMA0485 OMA7478 2021-04-10 18:25:17 31939 386 36.022338895073 -25.080525228921
OMA0485 OMA7478 2021-04-10 18:25:03 31940 386 36.021672144742 -25.047461617171
OMA0485 OMA7478 2021-04-10 18:24:47 31939 386 36.020986161768 -25.014121509491
OMA0485 OMA7478 2021-04-10 18:24:32 31939 386 36.020345991417 -24.983539415855
OMA0485 OMA7478 2021-04-10 18:24:17 31940 388 36.01964371491 -24.950203205185
OMA0485 OMA7478 2021-04-10 18:24:03 31940 386 36.018942244097 -24.917083958075
OMA0485 OMA7478 2021-04-10 18:23:47 31940 386 36.018247407147 -24.883787199418
OMA0485 OMA7478 2021-04-10 18:23:32 31939 386 36.017560849759 -24.850781831038
OMA0485 OMA7478 2021-04-10 18:23:17 31938 386 36.016842933135 -24.817511072457
OMA0485 OMA7478 2021-04-10 18:23:02 31939 386 36.016104286899 -24.784427477067
OMA0485 OMA7478 2021-04-10 18:22:47 31940 386 36.015373703176 -24.751145392644
OMA0485 OMA7478 2021-04-10 18:22:32 31940 388 36.014664712258 -24.717800996085
OMA0485 OMA7478 2021-04-10 18:22:17 31940 388 36.0139473411 -24.684657689901
OMA0485 OMA7478 2021-04-10 18:22:03 31938 386 36.013190462712 -24.651381141667
OMA0485 OMA7478 2021-04-10 18:21:47 31939 388 36.012401222433 -24.618317335406
OMA0485 OMA7478 2021-04-10 18:21:32 31939 388 36.01161273505 -24.584923580059
OMA0485 OMA7478 2021-04-10 18:21:17 31939 388 36.010820050542 -24.551532759558
OMA0485 OMA7478 2021-04-10 18:21:02 31939 386 36.010021949872 -24.518405915197
OMA0485 OMA7478 2021-04-10 18:20:47 31938 388 36.009174246114 -24.484911734724
OMA0485 OMA7478 2021-04-10 18:20:32 31940 388 36.008314708089 -24.451721337587
OMA0485 OMA7478 2021-04-10 18:20:17 31939 388 36.00746179285 -24.418351701345
OMA0485 OMA7478 2021-04-10 18:20:04 31940 388 36.0066141247 -24.385210743038
OMA0485 OMA7478 2021-04-10 18:19:47 31939 388 36.005738799209 -24.351798658238
OMA0485 OMA7478 2021-04-10 18:19:32 31940 386 36.004889999522 -24.318698574344
OMA0485 OMA7478 2021-04-10 18:19:17 31938 386 36.004005035181 -24.28537949751
OMA0485 OMA7478 2021-04-10 18:19:03 31938 388 36.003093721201 -24.25226084404
OMA0485 OMA7478 2021-04-10 18:18:47 31940 388 36.002188629088 -24.218860418585
OMA0485 OMA7478 2021-04-10 18:18:32 31940 386 36.001308753493 -24.185695581297
OMA0485 OMA7478 2021-04-10 18:18:18 31940 384 36.000401958158 -24.152493458112
OMA0485 OMA7478 2021-04-10 18:18:03 31938 386 35.999472303832 -24.119542024214
OMA0485 OMA7478 2021-04-10 18:17:47 31938 386 35.998562577024 -24.086350773304
OMA0485 OMA7478 2021-04-10 18:17:32 31941 386 35.997622132656 -24.053070669903
OMA0485 OMA7478 2021-04-10 18:17:17 31940 386 35.996710260433 -24.019988021668
OMA0485 OMA7478 2021-04-10 18:17:03 31939 386 35.995779159525 -23.986736541362
OMA0485 OMA7478 2021-04-10 18:16:47 31940 386 35.994785154201 -23.953762917687
OMA0485 OMA7478 2021-04-10 18:16:32 31939 386 35.993767279602 -23.920602639416
OMA0485 OMA7478 2021-04-10 18:16:18 31941 386 35.992764132176 -23.887600339285
OMA0485 OMA7478 2021-04-10 18:16:03 31939 384 35.991765770558 -23.854459754504
OMA0485 OMA7478 2021-04-10 18:15:47 31939 384 35.990795765795 -23.821532679836
OMA0485 OMA7478 2021-04-10 18:15:32 31939 386 35.989811330923 -23.788357277098
OMA0485 OMA7478 2021-04-10 18:15:17 31939 386 35.988816186764 -23.755323947632
OMA0485 OMA7478 2021-04-10 18:15:03 31939 386 35.987837454327 -23.722058871981
OMA0485 OMA7478 2021-04-10 18:14:47 31939 388 35.986859021643 -23.688948462762
OMA0485 OMA7478 2021-04-10 18:14:32 31941 388 35.985822347117 -23.655505401986
OMA0485 OMA7478 2021-04-10 18:14:17 31939 386 35.984759550461 -23.622438820962
OMA0485 OMA7478 2021-04-10 18:14:03 31939 386 35.983677284423 -23.589162085965
OMA0485 OMA7478 2021-04-10 18:13:47 31939 386 35.982594456547 -23.555889833279
OMA0485 OMA7478 2021-04-10 18:13:32 31938 386 35.981520832503 -23.522856103606
OMA0485 OMA7478 2021-04-10 18:13:17 31939 386 35.980416060963 -23.489610744791
OMA0485 OMA7478 2021-04-10 18:13:02 31939 386 35.979301584838 -23.456593076734
OMA0485 OMA7478 2021-04-10 18:12:47 31938 386 35.978216482061 -23.423381121813
OMA0485 OMA7478 2021-04-10 18:12:32 31939 386 35.977091531232 -23.390052386664
OMA0485 OMA7478 2021-04-10 18:12:17 31940 386 35.975930241359 -23.356983465509
OMA0485 OMA7478 2021-04-10 18:12:03 31939 386 35.974791780454 -23.323696938795
OMA0485 OMA7478 2021-04-10 18:11:47 31939 386 35.973677148267 -23.290748293002
OMA0485 OMA7478 2021-04-10 18:11:32 31939 386 35.972531226725 -23.257606560963
OMA0485 OMA7478 2021-04-10 18:11:17 31938 386 35.971385749392 -23.224628486659
OMA0485 OMA7478 2021-04-10 18:11:03 31940 386 35.970202537177 -23.191379886172
OMA0485 OMA7478 2021-04-10 18:10:47 31938 388 35.969010963592 -23.158025951361
OMA0485 OMA7478 2021-04-10 18:10:32 31939 386 35.967821740382 -23.124949679747
OMA0485 OMA7478 2021-04-10 18:10:17 31939 386 35.966597752684 -23.091676026339
OMA0485 OMA7478 2021-04-10 18:10:03 31939 386 35.965391570784 -23.05860808569
OMA0485 OMA7478 2021-04-10 18:09:47 31940 386 35.964168378858 -23.025345953223
OMA0485 OMA7478 2021-04-10 18:09:32 31940 386 35.962972123977 -22.992291439498
OMA0485 OMA7478 2021-04-10 18:09:17 31939 386 35.96177132542 -22.959029417089
OMA0485 OMA7478 2021-04-10 18:09:03 31939 388 35.960527873528 -22.925883589604
OMA0485 OMA7478 2021-04-10 18:08:47 31938 388 35.959274996746 -22.892523665037
OMA0485 OMA7478 2021-04-10 18:08:32 31939 392 35.958014315512 -22.859213019218
OMA0485 OMA7478 2021-04-10 18:08:17 31939 392 35.956721564451 -22.825509263995
OMA0485 OMA7478 2021-04-10 18:08:03 31939 392 35.955417248951 -22.791977464121
OMA0485 OMA7478 2021-04-10 18:07:47 31942 392 35.954109776059 -22.758235956096
OMA0485 OMA7478 2021-04-10 18:07:32 31939 390 35.952845323891 -22.724781956345
OMA0485 OMA7478 2021-04-10 18:07:17 31939 390 35.951571759819 -22.691232974276
OMA0485 OMA7478 2021-04-10 18:07:02 31938 392 35.95027563774 -22.657840472909
OMA0485 OMA7478 2021-04-10 18:06:47 31937 392 35.948925477191 -22.624112964361
OMA0485 OMA7478 2021-04-10 18:06:32 31939 394 35.947548370963 -22.590296377615
OMA0485 OMA7478 2021-04-10 18:06:17 31939 394 35.946172704806 -22.55655428262
OMA0485 OMA7478 2021-04-10 18:06:03 31940 394 35.944799335866 -22.522625958248
OMA0485 OMA7478 2021-04-10 18:05:47 31939 392 35.943421858715 -22.488947202585
OMA0485 OMA7478 2021-04-10 18:05:32 31939 392 35.942018599223 -22.455179387659
OMA0485 OMA7478 2021-04-10 18:05:17 31938 392 35.940607973465 -22.421638783244
OMA0485 OMA7478 2021-04-10 18:05:03 31939 394 35.939175257671 -22.387802613065
OMA0485 OMA7478 2021-04-10 18:04:47 31940 394 35.937726972047 -22.354129833818
OMA0485 OMA7478 2021-04-10 18:04:32 31939 394 35.936270637998 -22.320301481004
OMA0485 OMA7478 2021-04-10 18:04:17 31938 394 35.934797760527 -22.286491671086
OMA0485 OMA7478 2021-04-10 18:04:03 31939 394 35.933314781766 -22.252960084656
OMA0485 OMA7478 2021-04-10 18:03:47 31938 394 35.931833520865 -22.219076143173
OMA0485 OMA7478 2021-04-10 18:03:32 31940 394 35.930350934436 -22.185399735388
OMA0485 OMA7478 2021-04-10 18:03:17 31941 394 35.928825258345 -22.151458457669
OMA0485 OMA7478 2021-04-10 18:03:03 31941 392 35.927316349987 -22.117884596103
OMA0485 OMA7478 2021-04-10 18:02:47 31940 390 35.925822871162 -22.084261789294
OMA0485 OMA7478 2021-04-10 18:02:32 31939 390 35.924314202525 -22.050759724756
OMA0485 OMA7478 2021-04-10 18:02:17 31939 390 35.922821064476 -22.017416972378
OMA0485 OMA7478 2021-04-10 18:02:02 31938 390 35.921286233052 -21.983850598007
OMA0485 OMA7478 2021-04-10 18:01:47 31937 392 35.919749554252 -21.950221504623
OMA0485 OMA7478 2021-04-10 18:01:33 31940 394 35.918196816068 -21.916617237376
OMA0485 OMA7478 2021-04-10 18:01:17 31941 394 35.916610065296 -21.88276437859
OMA0485 OMA7478 2021-04-10 18:01:03 31940 392 35.915050353307 -21.849315941708
OMA0485 OMA7478 2021-04-10 18:00:47 31939 390 35.913503656952 -21.815741880039
OMA0485 OMA7478 2021-04-10 18:00:32 31939 392 35.911938294332 -21.782363986205
OMA0485 OMA7478 2021-04-10 18:00:17 31939 392 35.910363098463 -21.748715419445
OMA0485 OMA7478 2021-04-10 18:00:05 31940 392 35.90880695866 -21.715342875036
OMA0485 OMA7478 2021-04-10 17:59:47 31938 392 35.907233308969 -21.681691013243
OMA0485 OMA7478 2021-04-10 17:59:32 31938 392 35.905628494408 -21.648241994986
OMA0485 OMA7478 2021-04-10 17:59:17 31939 392 35.903987985339 -21.614577006423
OMA0485 OMA7478 2021-04-10 17:59:02 31939 392 35.902361358226 -21.581097980433
OMA0485 OMA7478 2021-04-10 17:58:47 31938 392 35.900713116085 -21.547455350067
OMA0485 OMA7478 2021-04-10 17:58:32 31938 392 35.899015954313 -21.513791482082
OMA0485 OMA7478 2021-04-10 17:58:17 31938 392 35.89731625761 -21.480332252968
OMA0485 OMA7478 2021-04-10 17:58:02 31940 392 35.895629833699 -21.446626443353
OMA0485 OMA7478 2021-04-10 17:57:47 31940 392 35.893962196558 -21.413125165887
OMA0485 OMA7478 2021-04-10 17:57:32 31940 390 35.892257671993 -21.379526985112
OMA0485 OMA7478 2021-04-10 17:57:17 31939 390 35.890552155374 -21.346222982719
OMA0485 OMA7478 2021-04-10 17:57:02 31939 390 35.888845949953 -21.312715568755
OMA0485 OMA7478 2021-04-10 17:56:47 31938 392 35.887141687014 -21.279334566651
OMA0485 OMA7478 2021-04-10 17:56:32 31940 392 35.885413287311 -21.245681344156
OMA0485 OMA7478 2021-04-10 17:56:17 31939 392 35.883694103389 -21.212217072442
OMA0485 OMA7478 2021-04-10 17:56:02 31939 392 35.88194814597 -21.178505153009
OMA0485 OMA7478 2021-04-10 17:55:47 31939 392 35.880222285018 -21.145082742883
OMA0485 OMA7478 2021-04-10 17:55:32 31939 394 35.878440677459 -21.111383376591
OMA0485 OMA7478 2021-04-10 17:55:17 31940 394 35.876653816471 -21.077627341073
OMA0485 OMA7478 2021-04-10 17:55:02 31940 394 35.874868870717 -21.04406805369
OMA0485 OMA7478 2021-04-10 17:54:47 31939 394 35.873059127636 -21.010246451857
OMA0485 OMA7478 2021-04-10 17:54:32 31939 396 35.871234804487 -20.976576511574
OMA0485 OMA7478 2021-04-10 17:54:17 31939 396 35.869385098802 -20.942600731061
OMA0485 OMA7478 2021-04-10 17:54:03 31939 396 35.867541822716 -20.908844215296
OMA0485 OMA7478 2021-04-10 17:53:47 31939 398 35.865680023078 -20.874742734956
OMA0485 OMA7478 2021-04-10 17:53:32 31940 398 35.86380508958 -20.84066708127
OMA0485 OMA7478 2021-04-10 17:53:17 31939 396 35.861928828622 -20.806830150699
OMA0485 OMA7478 2021-04-10 17:53:02 31939 396 35.860053180363 -20.772812753723
OMA0485 OMA7478 2021-04-10 17:52:47 31939 398 35.858189267633 -20.739002383517
OMA0485 OMA7478 2021-04-10 17:52:32 31940 398 35.856296456295 -20.704903838024
OMA0485 OMA7478 2021-04-10 17:52:17 31940 398 35.854385550747 -20.670789230915
OMA0485 OMA7478 2021-04-10 17:52:02 31951 396 35.852464797383 -20.636931415164
OMA0485 OMA7478 2021-04-10 17:51:47 31969 396 35.850530342481 -20.602894821622
OMA0485 OMA7478 2021-04-10 17:51:33 31985 396 35.848602121365 -20.569163238714
OMA0485 OMA7478 2021-04-10 17:51:17 32005 396 35.846648308044 -20.535251829733
OMA0485 OMA7478 2021-04-10 17:51:02 32024 398 35.844684638879 -20.501388018632
OMA0485 OMA7478 2021-04-10 17:50:47 32045 398 35.842703599921 -20.467306068365
OMA0485 OMA7478 2021-04-10 17:50:32 32066 398 35.840714131338 -20.433419578902
OMA0485 OMA7478 2021-04-10 17:50:17 32073 396 35.838699896521 -20.399392216787
OMA0485 OMA7478 2021-04-10 17:50:04 32074 398 35.836691518438 -20.365583207282
OMA0485 OMA7478 2021-04-10 17:49:47 32074 396 35.834667663961 -20.331547494194
OMA0485 OMA7478 2021-04-10 17:49:32 32075 396 35.832656491457 -20.297796594658
OMA0485 OMA7478 2021-04-10 17:49:17 32074 396 35.830613266795 -20.26383030404
OMA0485 OMA7478 2021-04-10 17:49:02 32074 396 35.828575238636 -20.230095919687
OMA0485 OMA7478 2021-04-10 17:48:47 32074 396 35.826512478774 -20.196132710658
OMA0485 OMA7478 2021-04-10 17:48:32 32074 396 35.824469307706 -20.162422939
OMA0485 OMA7478 2021-04-10 17:48:17 32074 396 35.82239765709 -20.128467520655
OMA0485 OMA7478 2021-04-10 17:48:02 32075 396 35.820325360365 -20.094777659264
OMA0485 OMA7478 2021-04-10 17:47:47 32076 396 35.818226811383 -20.060840056774
OMA0485 OMA7478 2021-04-10 17:47:32 32074 394 35.816141982442 -20.027170724305
OMA0485 OMA7478 2021-04-10 17:47:17 32073 394 35.814047844554 -19.993371173428
OMA0485 OMA7478 2021-04-10 17:47:03 32074 396 35.81193891982 -19.959486759618
OMA0485 OMA7478 2021-04-10 17:46:47 32073 396 35.809816128361 -19.925736593794
OMA0485 OMA7478 2021-04-10 17:46:32 32075 398 35.807663203662 -19.891698926365
OMA0485 OMA7478 2021-04-10 17:46:17 32075 398 35.805516348676 -19.857811509757
OMA0485 OMA7478 2021-04-10 17:46:02 32074 398 35.803356794285 -19.823777437515
OMA0485 OMA7478 2021-04-10 17:45:47 32074 398 35.801190646308 -19.789730825472
OMA0485 OMA7478 2021-04-10 17:45:32 32075 398 35.799031195537 -19.755849765476
OMA0485 OMA7478 2021-04-10 17:45:17 32075 396 35.796862779257 -19.721776833193
OMA0485 OMA7478 2021-04-10 17:45:03 32074 396 35.794716253418 -19.68802801473
OMA0485 OMA7478 2021-04-10 17:44:47 32075 396 35.792529216716 -19.654051985756
OMA0485 OMA7478 2021-04-10 17:44:32 32072 396 35.790328450073 -19.620314472048
OMA0485 OMA7478 2021-04-10 17:44:17 32074 396 35.788097966944 -19.586369819255
OMA0485 OMA7478 2021-04-10 17:44:03 32074 398 35.78585542746 -19.552407450659
OMA0485 OMA7478 2021-04-10 17:43:47 32075 398 35.78361473331 -19.518635473586
OMA0485 OMA7478 2021-04-10 17:43:32 32074 398 35.781346949569 -19.48460426949
OMA0485 OMA7478 2021-04-10 17:43:17 32075 398 35.779083850629 -19.450731280323
OMA0485 OMA7478 2021-04-10 17:43:02 32074 396 35.77680191834 -19.41677411441
OMA0485 OMA7478 2021-04-10 17:42:47 32075 396 35.774532121408 -19.383011262043
OMA0485 OMA7478 2021-04-10 17:42:32 32074 396 35.772237620715 -19.349123331837
OMA0485 OMA7478 2021-04-10 17:42:17 32074 396 35.76995277927 -19.315291057
OMA0485 OMA7478 2021-04-10 17:42:02 32074 396 35.767673015289 -19.281646665727
OMA0485 OMA7478 2021-04-10 17:41:47 32073 396 35.765369742395 -19.247771782249
OMA0485 OMA7478 2021-04-10 17:41:32 32074 396 35.763071759325 -19.214104072282
OMA0485 OMA7478 2021-04-10 17:41:17 32074 398 35.760727564232 -19.180093558857
OMA0485 OMA7478 2021-04-10 17:41:02 32074 400 35.758375132705 -19.146152014334
OMA0485 OMA7478 2021-04-10 17:40:47 32075 402 35.755989580625 -19.111759890769
OMA0485 OMA7478 2021-04-10 17:40:32 32074 404 35.753609831091 -19.077448101968
OMA0485 OMA7478 2021-04-10 17:40:17 32075 406 35.751191142899 -19.042810508475
OMA0485 OMA7478 2021-04-10 17:40:06 32075 408 35.748766402757 -19.008279514958
OMA0485 OMA7478 2021-04-10 17:39:47 32074 410 35.746294503171 -18.973351571724
OMA0485 OMA7478 2021-04-10 17:39:32 32074 410 35.743826703066 -18.938611900586
OMA0485 OMA7478 2021-04-10 17:39:17 32074 410 35.741323473963 -18.903562091169
OMA0485 OMA7478 2021-04-10 17:39:03 32074 410 35.738827892856 -18.86871546654
OMA0485 OMA7478 2021-04-10 17:38:47 32075 412 35.736305748583 -18.833562830759
OMA0485 OMA7478 2021-04-10 17:38:32 32074 410 35.733800275597 -18.798711283591
OMA0485 OMA7478 2021-04-10 17:38:17 32075 410 35.731261801224 -18.7636418107
OMA0485 OMA7478 2021-04-10 17:38:03 32074 410 35.728750376672 -18.728795092689
OMA0485 OMA7478 2021-04-10 17:37:47 32074 410 35.726213917751 -18.693719349897
OMA0485 OMA7478 2021-04-10 17:37:32 32074 410 35.723655845653 -18.658638564505
OMA0485 OMA7478 2021-04-10 17:37:17 32076 410 35.721089576433 -18.62387139978
OMA0485 OMA7478 2021-04-10 17:37:02 32073 410 35.718490060007 -18.588882368374
OMA0485 OMA7478 2021-04-10 17:36:47 32074 410 35.715893426367 -18.553962279191
OMA0485 OMA7478 2021-04-10 17:36:32 32074 410 35.713298989625 -18.519259101874
OMA0485 OMA7478 2021-04-10 17:36:17 32074 410 35.710680776836 -18.484280315752
OMA0485 OMA7478 2021-04-10 17:36:02 32074 410 35.708058419085 -18.449476126341
OMA0485 OMA7478 2021-04-10 17:35:47 32075 410 35.705407867216 -18.414447607904
OMA0485 OMA7478 2021-04-10 17:35:32 32076 410 35.702760152972 -18.379661934709
OMA0485 OMA7478 2021-04-10 17:35:17 32075 408 35.700115250814 -18.344782533176
OMA0485 OMA7478 2021-04-10 17:35:03 32070 406 35.697500553006 -18.310331059002
OMA0485 OMA7478 2021-04-10 17:34:47 32073 412 35.694833048688 -18.275465638012
OMA0485 OMA7478 2021-04-10 17:34:32 32075 415 35.692106628045 -18.240055829601
OMA0485 OMA7478 2021-04-10 17:34:17 32075 415 35.689390500617 -18.204844590264
OMA0485 OMA7478 2021-04-10 17:34:02 32075 415 35.686634797166 -18.169417439576
OMA0485 OMA7478 2021-04-10 17:33:47 32075 414 35.683870382034 -18.134021905193
OMA0485 OMA7478 2021-04-10 17:33:32 32075 414 35.681128668383 -18.099002818287
OMA0485 OMA7478 2021-04-10 17:33:17 32074 412 35.678363013607 -18.063815264498
OMA0485 OMA7478 2021-04-10 17:33:03 32074 414 35.675602385586 -18.02878290408
OMA0485 OMA7478 2021-04-10 17:32:47 32074 414 35.672816197485 -17.993557082639
OMA0485 OMA7478 2021-04-10 17:32:32 32074 414 35.670027720001 -17.958499150283
OMA0485 OMA7478 2021-04-10 17:32:17 32074 414 35.667211596849 -17.923216053887
OMA0485 OMA7478 2021-04-10 17:32:03 32073 414 35.664409242662 -17.888147401419
OMA0485 OMA7478 2021-04-10 17:31:47 32075 415 35.661578232966 -17.8528040206
OMA0485 OMA7478 2021-04-10 17:31:32 32074 415 35.658758825896 -17.81767459679
OMA0485 OMA7478 2021-04-10 17:31:17 32074 415 35.655905412251 -17.782243017151
OMA0485 OMA7478 2021-04-10 17:31:02 32075 415 35.653067980171 -17.747032418144
OMA0485 OMA7478 2021-04-10 17:30:47 32073 415 35.650217847773 -17.711681440074
OMA0485 OMA7478 2021-04-10 17:30:32 32075 415 35.647364081471 -17.676500843206
OMA0485 OMA7478 2021-04-10 17:30:17 32074 415 35.644463391384 -17.641127659274
OMA0485 OMA7478 2021-04-10 17:30:05 32075 415 35.641565454753 -17.605998662352
OMA0485 OMA7478 2021-04-10 17:29:47 32075 414 35.638646294645 -17.570651686345
OMA0485 OMA7478 2021-04-10 17:29:32 32074 414 35.635736472901 -17.53562455529
OMA0485 OMA7478 2021-04-10 17:29:17 32074 412 35.632805657733 -17.500465249403
OMA0485 OMA7478 2021-04-10 17:29:03 32074 414 35.629881917703 -17.465494093883
OMA0485 OMA7478 2021-04-10 17:28:47 32075 414 35.626925714782 -17.43026181703
OMA0485 OMA7478 2021-04-10 17:28:33 32074 412 35.623963656092 -17.395080633193
OMA0485 OMA7478 2021-04-10 17:28:17 32074 412 35.621012059261 -17.360160944216
OMA0485 OMA7478 2021-04-10 17:28:02 32074 414 35.618032202231 -17.325017779987
OMA0485 OMA7478 2021-04-10 17:27:47 32072 414 35.61505382585 -17.289989821839
OMA0485 OMA7478 2021-04-10 17:27:32 32075 415 35.612046211476 -17.254621074604
OMA0485 OMA7478 2021-04-10 17:27:17 32075 415 35.609010792042 -17.219227287789
OMA0485 OMA7478 2021-04-10 17:27:02 32075 415 35.605980890646 -17.184053160925
OMA0485 OMA7478 2021-04-10 17:26:47 32074 415 35.602934007056 -17.148730223983
OMA0485 OMA7478 2021-04-10 17:26:32 32074 415 35.599887920723 -17.113573852942
OMA0485 OMA7478 2021-04-10 17:26:17 32074 415 35.596813302782 -17.078232393114
OMA0485 OMA7478 2021-04-10 17:26:03 32076 415 35.593748873258 -17.043066643904
OMA0485 OMA7478 2021-04-10 17:25:47 32074 415 35.590647550025 -17.007647695779
OMA0485 OMA7478 2021-04-10 17:25:32 32075 415 35.587551020775 -16.972325966126
OMA0485 OMA7478 2021-04-10 17:25:17 32074 415 35.584458622304 -16.937126347782
OMA0485 OMA7478 2021-04-10 17:25:02 32074 417 35.581332419419 -16.901657962495
OMA0485 OMA7478 2021-04-10 17:24:47 32074 417 35.578208095352 -16.8663029957
OMA0485 OMA7478 2021-04-10 17:24:32 32075 419 35.575048670078 -16.830640070083
OMA0485 OMA7478 2021-04-10 17:24:17 32074 419 35.571896485775 -16.795148392784
OMA0485 OMA7478 2021-04-10 17:24:03 32074 419 35.568720697873 -16.759436014997
OMA0485 OMA7478 2021-04-10 17:23:47 32075 419 35.565559784019 -16.723917217044
OMA0485 OMA7478 2021-04-10 17:23:32 32074 419 35.562379315016 -16.688207467278
OMA0485 OMA7478 2021-04-10 17:23:17 32074 419 35.559185572035 -16.652490433757
OMA0485 OMA7478 2021-04-10 17:23:03 32074 419 35.556002316912 -16.617058659609
OMA0485 OMA7478 2021-04-10 17:22:47 32074 419 35.552802636914 -16.581417985467
OMA0485 OMA7478 2021-04-10 17:22:32 32075 419 35.549628654661 -16.54598152331
OMA0485 OMA7478 2021-04-10 17:22:17 32074 419 35.546443025207 -16.510254351227
OMA0485 OMA7478 2021-04-10 17:22:03 32075 419 35.543307380206 -16.474796277924
OMA0485 OMA7478 2021-04-10 17:21:47 32074 419 35.540192650018 -16.439087595376
OMA0485 OMA7478 2021-04-10 17:21:32 32075 419 35.537160138882 -16.403623785782
OMA0485 OMA7478 2021-04-10 17:21:17 32074 419 35.534215223413 -16.367884660867
OMA0485 OMA7478 2021-04-10 17:21:02 32074 419 35.531463685322 -16.332384325769
OMA0485 OMA7478 2021-04-10 17:20:47 32075 419 35.528967069974 -16.296600911347
OMA0485 OMA7478 2021-04-10 17:20:32 32074 419 35.526909276941 -16.260981821671
OMA0485 OMA7478 2021-04-10 17:20:17 32074 421 35.525554714843 -16.225037791081
OMA0485 OMA7478 2021-04-10 17:20:06 32074 421 35.525462144245 -16.189206525314
OMA0485 OMA7478 2021-04-10 17:19:47 32075 421 35.526223235138 -16.153038432503
OMA0485 OMA7478 2021-04-10 17:19:32 32075 421 35.52697408822 -16.116921592791
OMA0485 OMA7478 2021-04-10 17:19:17 32074 421 35.527710341115 -16.081064540391
OMA0485 OMA7478 2021-04-10 17:19:02 32074 421 35.528443934075 -16.044969338505
OMA0485 OMA7478 2021-04-10 17:18:47 32074 421 35.529160958379 -16.009193496321
OMA0485 OMA7478 2021-04-10 17:18:32 32074 421 35.5298720022 -15.973166366208
OMA0485 OMA7478 2021-04-10 17:18:17 32075 421 35.530572081476 -15.937138780861
OMA0485 OMA7478 2021-04-10 17:18:03 32074 421 35.53126372668 -15.901055705228
OMA0485 OMA7478 2021-04-10 17:17:47 32074 421 35.531943005967 -15.865179189458
OMA0485 OMA7478 2021-04-10 17:17:32 32074 421 35.532617919245 -15.82908640215
OMA0485 OMA7478 2021-04-10 17:17:17 32074 421 35.533280130064 -15.793202069015
OMA0485 OMA7478 2021-04-10 17:17:02 32074 421 35.533938837446 -15.757096675206
OMA0485 OMA7478 2021-04-10 17:16:47 32075 421 35.53458686727 -15.721212222008
OMA0485 OMA7478 2021-04-10 17:16:32 32074 421 35.535230871513 -15.685162456889
OMA0485 OMA7478 2021-04-10 17:16:18 32074 421 35.535855430391 -15.649114658374
OMA0485 OMA7478 2021-04-10 17:16:04 32074 421 35.536457015912 -15.613061771644
OMA0485 OMA7478 2021-04-10 17:15:47 32074 421 35.537045077794 -15.577215498137
OMA0485 OMA7478 2021-04-10 17:15:33 32074 421 35.537625551373 -15.541160423613
OMA0485 OMA7478 2021-04-10 17:15:17 32074 421 35.538191915092 -15.505318899221
OMA0485 OMA7478 2021-04-10 17:15:03 32075 421 35.538750779183 -15.469219108302
OMA0485 OMA7478 2021-04-10 17:14:47 32074 421 35.539295805994 -15.4333819595
OMA0485 OMA7478 2021-04-10 17:14:32 32074 421 35.539834131063 -15.397304286655
OMA0485 OMA7478 2021-04-10 17:14:17 32074 421 35.540358440511 -15.361428504596
OMA0485 OMA7478 2021-04-10 17:14:04 32074 421 35.540874429071 -15.325366653243
OMA0485 OMA7478 2021-04-10 17:13:47 32074 421 35.541376919397 -15.289520539818
OMA0485 OMA7478 2021-04-10 17:13:32 32074 421 35.54187260417 -15.253458821867
OMA0485 OMA7478 2021-04-10 17:13:17 32074 421 35.542354221479 -15.217607198935
OMA0485 OMA7478 2021-04-10 17:13:02 32074 421 35.542828652672 -15.181473804018
OMA0485 OMA7478 2021-04-10 17:12:47 32075 421 35.543289022172 -15.14562619649
OMA0485 OMA7478 2021-04-10 17:12:32 32074 421 35.543742298407 -15.109546649344
OMA0485 OMA7478 2021-04-10 17:12:17 32074 421 35.544186836482 -15.073476280265
OMA0485 OMA7478 2021-04-10 17:12:04 32074 421 35.544618972798 -15.037645404699
OMA0485 OMA7478 2021-04-10 17:11:47 32074 421 35.545044291568 -15.001529837935
OMA0485 OMA7478 2021-04-10 17:11:32 32074 423 35.545455825621 -14.965632339051
OMA0485 OMA7478 2021-04-10 17:11:17 32075 423 35.545858714908 -14.929446580463
OMA0485 OMA7478 2021-04-10 17:11:02 32074 423 35.546249000435 -14.893431506567
OMA0485 OMA7478 2021-04-10 17:10:47 32074 423 35.546633074067 -14.85717292709
OMA0485 OMA7478 2021-04-10 17:10:32 32074 423 35.547005849542 -14.821166877849
OMA0485 OMA7478 2021-04-10 17:10:17 32074 423 35.54737369133 -14.784959965017
OMA0485 OMA7478 2021-04-10 17:10:04 32074 423 35.547733184566 -14.748923259966
OMA0485 OMA7478 2021-04-10 17:09:47 32074 423 35.548087570361 -14.712682116148
OMA0485 OMA7478 2021-04-10 17:09:32 32074 423 35.548432552457 -14.676499509185
OMA0485 OMA7478 2021-04-10 17:09:17 32074 423 35.548752191622 -14.640295069887
OMA0485 OMA7478 2021-04-10 17:09:03 32074 423 35.549052557692 -14.604316461464
OMA0485 OMA7478 2021-04-10 17:08:47 32074 423 35.549344173187 -14.568085669651
OMA0485 OMA7478 2021-04-10 17:08:32 32074 423 35.549622731088 -14.532107488115
OMA0485 OMA7478 2021-04-10 17:08:17 32074 423 35.549891959084 -14.495849802432
OMA0485 OMA7478 2021-04-10 17:08:02 32074 423 35.550148666033 -14.45984552744
OMA0485 OMA7478 2021-04-10 17:07:47 32074 423 35.550397042845 -14.423590349717
OMA0485 OMA7478 2021-04-10 17:07:32 32074 423 35.550633934143 -14.387454140015
OMA0485 OMA7478 2021-04-10 17:07:17 32074 423 35.550860114742 -14.351266223647
OMA0485 OMA7478 2021-04-10 17:07:02 32074 423 35.551074080685 -14.315266804492
OMA0485 OMA7478 2021-04-10 17:06:47 32074 423 35.551278809994 -14.279016215803
OMA0485 OMA7478 2021-04-10 17:06:32 32074 423 35.55147117076 -14.243045904993
OMA0485 OMA7478 2021-04-10 17:06:17 32074 423 35.551654562436 -14.206760605069
OMA0485 OMA7478 2021-04-10 17:06:03 32074 423 35.551826428208 -14.170769656949
OMA0485 OMA7478 2021-04-10 17:05:47 32074 423 35.551987767761 -14.134509409945
OMA0485 OMA7478 2021-04-10 17:05:32 32074 423 35.552138483518 -14.098249523127
OMA0485 OMA7478 2021-04-10 17:05:17 32074 423 35.552277854793 -14.062265585289
OMA0485 OMA7478 2021-04-10 17:05:03 32074 423 35.552408452215 -14.025945667511
OMA0485 OMA7478 2021-04-10 17:04:47 32074 423 35.552527016359 -13.989953625494
OMA0485 OMA7478 2021-04-10 17:04:32 32074 423 35.552636406693 -13.953650996633
OMA0485 OMA7478 2021-04-10 17:04:17 32074 423 35.552735249461 -13.917601785132
OMA0485 OMA7478 2021-04-10 17:04:04 32074 423 35.552825210109 -13.881351543288
OMA0485 OMA7478 2021-04-10 17:03:47 32074 423 35.552905788678 -13.845373748618
OMA0485 OMA7478 2021-04-10 17:03:32 32074 423 35.5529788921 -13.809054257728
OMA0485 OMA7478 2021-04-10 17:03:17 32074 423 35.553043628074 -13.773085160877
OMA0485 OMA7478 2021-04-10 17:03:02 32074 423 35.553100943948 -13.736817309952
OMA0485 OMA7478 2021-04-10 17:02:47 32074 423 35.553152005694 -13.700811514175
OMA0485 OMA7478 2021-04-10 17:02:32 32075 423 35.553191197839 -13.664581922981
OMA0485 OMA7478 2021-04-10 17:02:17 32074 423 35.55320246922 -13.628349655998
OMA0485 OMA7478 2021-04-10 17:02:03 32074 423 35.553200514109 -13.592338017207
OMA0485 OMA7478 2021-04-10 17:01:47 32074 423 35.553188199618 -13.55611448247
OMA0485 OMA7478 2021-04-10 17:01:32 32074 423 35.553165265873 -13.520161007009
OMA0485 OMA7478 2021-04-10 17:01:18 32074 423 35.553131371442 -13.483936351694
OMA0485 OMA7478 2021-04-10 17:01:03 32075 423 35.553086746042 -13.447938319921
OMA0485 OMA7478 2021-04-10 17:00:47 32074 423 35.553031334946 -13.411745681118
OMA0485 OMA7478 2021-04-10 17:00:32 32074 423 35.552966098539 -13.375814217009
OMA0485 OMA7478 2021-04-10 17:00:17 32074 423 35.552889329011 -13.339622058454
OMA0485 OMA7478 2021-04-10 17:00:06 32074 423 35.552801729121 -13.303445801432
OMA0485 OMA7478 2021-04-10 16:59:47 32074 423 35.552702204831 -13.26719694697
OMA0485 OMA7478 2021-04-10 16:59:32 32074 423 35.552591258845 -13.231159134681
OMA0485 OMA7478 2021-04-10 16:59:17 32075 423 35.552468332978 -13.194905584464
OMA0485 OMA7478 2021-04-10 16:59:03 32074 421 35.552335817848 -13.158929310579
OMA0485 OMA7478 2021-04-10 16:58:47 32074 421 35.552192291936 -13.122807441607
OMA0485 OMA7478 2021-04-10 16:58:32 32074 419 35.552040262469 -13.08703623348
OMA0485 OMA7478 2021-04-10 16:58:17 32074 419 35.551877553013 -13.051149889307
OMA0485 OMA7478 2021-04-10 16:58:03 32074 419 35.551706121047 -13.015368654342
OMA0485 OMA7478 2021-04-10 16:57:47 32074 417 35.551525983773 -12.979818725333
OMA0485 OMA7478 2021-04-10 16:57:32 32074 417 35.551334207716 -12.943974506219
OMA0485 OMA7478 2021-04-10 16:57:17 32074 417 35.551134131234 -12.908422331053
OMA0485 OMA7478 2021-04-10 16:57:02 32074 417 35.550923018773 -12.87265705932
OMA0485 OMA7478 2021-04-10 16:56:48 32074 417 35.550702082102 -12.836873764959
OMA0485 OMA7478 2021-04-10 16:56:32 32074 417 35.550474130105 -12.801327739631
OMA0485 OMA7478 2021-04-10 16:56:17 32075 417 35.55023574924 -12.765549834717
OMA0485 OMA7478 2021-04-10 16:56:04 32069 417 35.549990577684 -12.729991603093
OMA0485 OMA7478 2021-04-10 16:55:47 32049 417 35.549734051634 -12.694168061309
OMA0485 OMA7478 2021-04-10 16:55:32 32030 417 35.549456821206 -12.658642993456
OMA0485 OMA7478 2021-04-10 16:55:17 32010 417 35.549139373505 -12.622863359908
OMA0485 OMA7478 2021-04-10 16:55:03 31989 417 35.548798822506 -12.587277540723
OMA0485 OMA7478 2021-04-10 16:54:47 31968 417 35.548428940582 -12.551541564099
OMA0485 OMA7478 2021-04-10 16:54:32 31949 417 35.548028643268 -12.516018390556
OMA0485 OMA7478 2021-04-10 16:54:17 31939 417 35.547582334655 -12.480264431324
OMA0485 OMA7478 2021-04-10 16:54:03 31939 417 35.547071575519 -12.444760334286
OMA0485 OMA7478 2021-04-10 16:53:47 31939 417 35.546377163492 -12.408973611491
OMA0485 OMA7478 2021-04-10 16:53:32 31940 417 35.545010340292 -12.373267330181
OMA0485 OMA7478 2021-04-10 16:53:17 31936 417 35.541866858234 -12.337992071161
OMA0485 OMA7478 2021-04-10 16:53:02 31940 417 35.536028199316 -12.302956455731
OMA0485 OMA7478 2021-04-10 16:52:47 31948 417 35.530043975454 -12.268204053027
OMA0485 OMA7478 2021-04-10 16:52:32 31931 417 35.525374958092 -12.232950671956
OMA0485 OMA7478 2021-04-10 16:52:17 31939 419 35.516485465658 -12.199068624784
OMA0485 OMA7478 2021-04-10 16:52:02 31939 419 35.506493699876 -12.165393857845
OMA0485 OMA7478 2021-04-10 16:51:47 31939 419 35.49656861027 -12.131984734572
OMA0485 OMA7478 2021-04-10 16:51:32 31939 417 35.486561469383 -12.098338388957
OMA0485 OMA7478 2021-04-10 16:51:17 31939 417 35.476565748947 -12.064770043569
OMA0485 OMA7478 2021-04-10 16:51:02 31939 417 35.46664485105 -12.031491184143
OMA0485 OMA7478 2021-04-10 16:50:47 31942 417 35.456610576888 -11.997867546906
OMA0485 OMA7478 2021-04-10 16:50:32 31948 417 35.446578766801 -11.964290210214
OMA0485 OMA7478 2021-04-10 16:50:17 31955 417 35.436593998619 -11.930907373831
OMA0485 OMA7478 2021-04-10 16:50:04 31964 417 35.426550461517 -11.897362954116
OMA0485 OMA7478 2021-04-10 16:49:47 31974 417 35.41656183026 -11.864036199989
OMA0485 OMA7478 2021-04-10 16:49:32 31986 417 35.406489847051 -11.830465446692
OMA0485 OMA7478 2021-04-10 16:49:17 31999 419 35.39641906593 -11.796928217352
OMA0485 OMA7478 2021-04-10 16:49:02 32010 417 35.386421929007 -11.76365811244
OMA0485 OMA7478 2021-04-10 16:48:47 32016 417 35.376340572158 -11.730124524978
OMA0485 OMA7478 2021-04-10 16:48:32 32019 417 35.366268707529 -11.696640189582
OMA0485 OMA7478 2021-04-10 16:48:17 31994 419 35.35623382099 -11.663329703846
OMA0485 OMA7478 2021-04-10 16:48:02 31994 419 35.346063097622 -11.629681009277
OMA0485 OMA7478 2021-04-10 16:47:47 31993 419 35.335994336878 -11.596414519564
OMA0485 OMA7478 2021-04-10 16:47:32 31993 419 35.32583440396 -11.562883306659
OMA0485 OMA7478 2021-04-10 16:47:17 31993 419 35.315729040107 -11.529573434572
OMA0485 OMA7478 2021-04-10 16:47:02 31993 419 35.305560590972 -11.49609430186
OMA0485 OMA7478 2021-04-10 16:46:47 31993 419 35.295447296509 -11.462836083079
OMA0485 OMA7478 2021-04-10 16:46:32 31993 419 35.285247166849 -11.429330803549
OMA0485 OMA7478 2021-04-10 16:46:17 31993 419 35.27504187248 -11.395846334752
OMA0485 OMA7478 2021-04-10 16:46:03 31993 419 35.264894982578 -11.362592651643
OMA0485 OMA7478 2021-04-10 16:45:47 31993 419 35.254674893936 -11.329139959233
OMA0485 OMA7478 2021-04-10 16:45:32 31993 419 35.24451024456 -11.295905059145
OMA0485 OMA7478 2021-04-10 16:45:17 31993 419 35.234279025643 -11.262490973312
OMA0485 OMA7478 2021-04-10 16:45:02 31993 417 35.224106594671 -11.229308793746
OMA0485 OMA7478 2021-04-10 16:44:47 31993 419 35.213848816651 -11.195889545252
OMA0485 OMA7478 2021-04-10 16:44:32 31993 419 35.203653565444 -11.162715303113
OMA0485 OMA7478 2021-04-10 16:44:17 31993 419 35.193370379417 -11.129304605694
OMA0485 OMA7478 2021-04-10 16:44:02 31993 419 35.183131944585 -11.096088602018
OMA0485 OMA7478 2021-04-10 16:43:47 31994 419 35.172811976564 -11.062654572566
OMA0485 OMA7478 2021-04-10 16:43:32 31993 417 35.162544702614 -11.029431024999
OMA0485 OMA7478 2021-04-10 16:43:17 31993 417 35.152255692473 -10.996170968187
OMA0485 OMA7478 2021-04-10 16:43:02 31993 415 35.141988065248 -10.963010543591
OMA0485 OMA7478 2021-04-10 16:42:47 31994 414 35.131831438031 -10.930234927033
OMA0485 OMA7478 2021-04-10 16:42:32 31993 412 35.12165261071 -10.897413426812
OMA0485 OMA7478 2021-04-10 16:42:17 31993 410 35.111573709954 -10.864935437082
OMA0485 OMA7478 2021-04-10 16:42:03 31993 408 35.101467829367 -10.83238665084
OMA0485 OMA7478 2021-04-10 16:41:47 31993 408 35.091393457614 -10.799957859816
OMA0485 OMA7478 2021-04-10 16:41:32 31994 408 35.081370038601 -10.767712470043
OMA0485 OMA7478 2021-04-10 16:41:17 31994 408 35.071288647997 -10.735290842713
OMA0485 OMA7478 2021-04-10 16:41:02 31994 408 35.061221901046 -10.702920148318
OMA0485 OMA7478 2021-04-10 16:40:47 31993 406 35.051212814813 -10.670754759804
OMA0485 OMA7478 2021-04-10 16:40:32 31994 408 35.041092946503 -10.638341262258
OMA0485 OMA7478 2021-04-10 16:40:17 31997 410 35.031009979564 -10.606107144966
OMA0485 OMA7478 2021-04-10 16:40:04 32001 410 35.020830188288 -10.573600727241
OMA0485 OMA7478 2021-04-10 16:39:47 32005 412 35.01061607586 -10.541020511456
OMA0485 OMA7478 2021-04-10 16:39:32 32008 414 35.000333062281 -10.508255667121
OMA0485 OMA7478 2021-04-10 16:39:17 32012 415 34.990066450926 -10.475581536236
OMA0485 OMA7478 2021-04-10 16:39:02 32015 415 34.979686985212 -10.442587293593
OMA0485 OMA7478 2021-04-10 16:38:47 32019 417 34.969334652183 -10.409717034893
OMA0485 OMA7478 2021-04-10 16:38:32 32022 419 34.958830712387 -10.376401960123
OMA0485 OMA7478 2021-04-10 16:38:17 32026 421 34.948379130049 -10.343289336429
OMA0485 OMA7478 2021-04-10 16:38:03 32029 421 34.937799941141 -10.309812418193
OMA0485 OMA7478 2021-04-10 16:37:47 32033 423 34.927263189468 -10.27651284475
OMA0485 OMA7478 2021-04-10 16:37:32 32036 425 34.91659581551 -10.242845268186
OMA0485 OMA7478 2021-04-10 16:37:17 32040 427 34.905931780458 -10.209235628168
OMA0485 OMA7478 2021-04-10 16:37:02 32044 429 34.895132489598 -10.175245245124
OMA0485 OMA7478 2021-04-10 16:36:47 32047 431 34.884365520931 -10.141396575166
OMA0485 OMA7478 2021-04-10 16:36:32 32048 431 34.873480711143 -10.107217414765
OMA0485 OMA7478 2021-04-10 16:36:17 32047 431 34.862663456041 -10.073287429536
OMA0485 OMA7478 2021-04-10 16:36:02 32047 431 34.851764408676 -10.039138074507
OMA0485 OMA7478 2021-04-10 16:35:47 32047 431 34.840860873997 -10.005012672664
OMA0485 OMA7478 2021-04-10 16:35:32 32047 431 34.830046261092 -9.9712013978239
OMA0485 OMA7478 2021-04-10 16:35:17 32047 431 34.81913129459 -9.9371119070011
OMA0485 OMA7478 2021-04-10 16:35:02 32047 431 34.808298004859 -9.9033162377096
OMA0485 OMA7478 2021-04-10 16:34:47 32047 431 34.797356774886 -9.8692197265995
OMA0485 OMA7478 2021-04-10 16:34:32 32048 431 34.78647922404 -9.8353563290455
OMA0485 OMA7478 2021-04-10 16:34:17 32047 431 34.775526819145 -9.8012887195074
OMA0485 OMA7478 2021-04-10 16:34:03 32048 431 34.764659749368 -9.7675164756303
OMA0485 OMA7478 2021-04-10 16:33:47 32047 431 34.753716655329 -9.7335365513138
OMA0485 OMA7478 2021-04-10 16:33:32 32047 431 34.742832619855 -9.6997662551078
OMA0485 OMA7478 2021-04-10 16:33:17 32048 431 34.73187043675 -9.665792760774
OMA0485 OMA7478 2021-04-10 16:33:02 32047 431 34.720943234194 -9.6320106373928
OMA0485 OMA7478 2021-04-10 16:32:47 32047 431 34.709939425744 -9.5980355689139
OMA0485 OMA7478 2021-04-10 16:32:32 32047 431 34.698933350175 -9.5640932639986
OMA0485 OMA7478 2021-04-10 16:32:17 32047 431 34.687900484114 -9.5301086972879
OMA0485 OMA7478 2021-04-10 16:32:02 32047 431 34.676942062022 -9.4963929091931
OMA0485 OMA7478 2021-04-10 16:31:47 32048 431 34.6658739381 -9.4623779267962
OMA0485 OMA7478 2021-04-10 16:31:32 32047 431 34.654881803212 -9.4286342576558
OMA0485 OMA7478 2021-04-10 16:31:17 32047 431 34.643798302885 -9.3946486770889
OMA0485 OMA7478 2021-04-10 16:31:02 32047 431 34.632795300011 -9.3609504980756
OMA0485 OMA7478 2021-04-10 16:30:47 32047 431 34.621705402604 -9.3270287904495
OMA0485 OMA7478 2021-04-10 16:30:32 32047 431 34.610599278982 -9.2930981982415
OMA0485 OMA7478 2021-04-10 16:30:17 32047 431 34.599564409615 -9.2594264328504
OMA0485 OMA7478 2021-04-10 16:30:05 32047 431 34.588442029061 -9.2255376488706
OMA0485 OMA7478 2021-04-10 16:29:47 32046 431 34.577370189497 -9.1918533570193
OMA0485 OMA7478 2021-04-10 16:29:32 32048 431 34.566209675366 -9.1579549147251
OMA0485 OMA7478 2021-04-10 16:29:17 32047 431 34.555113101853 -9.1243085624402
OMA0485 OMA7478 2021-04-10 16:29:03 32048 431 34.543926087343 -9.0904594055637
OMA0485 OMA7478 2021-04-10 16:28:47 32047 429 34.532811102534 -9.0569083290817
OMA0485 OMA7478 2021-04-10 16:28:32 32048 429 34.521615589432 -9.0232041269621
OMA0485 OMA7478 2021-04-10 16:28:17 32048 427 34.510499926876 -8.989855490717
OMA0485 OMA7478 2021-04-10 16:28:02 32047 427 34.499301115111 -8.9564253307613
OMA0485 OMA7478 2021-04-10 16:27:47 32047 425 34.488086788876 -8.9233204277156
OMA0485 OMA7478 2021-04-10 16:27:32 32047 425 34.476420423331 -8.8902731910766
OMA0485 OMA7478 2021-04-10 16:27:17 32048 427 34.463634872207 -8.8579980192779
OMA0485 OMA7478 2021-04-10 16:27:02 32048 427 34.449377066668 -8.8262913473358
OMA0485 OMA7478 2021-04-10 16:26:47 32047 429 34.433581856874 -8.7956351638241
OMA0485 OMA7478 2021-04-10 16:26:32 32048 429 34.416323331945 -8.766274234975
OMA0485 OMA7478 2021-04-10 16:26:17 32048 429 34.39812492747 -8.7374325872659
OMA0485 OMA7478 2021-04-10 16:26:03 32045 431 34.379051460788 -8.7096682684962
OMA0485 OMA7478 2021-04-10 16:25:47 32046 435 34.358129931442 -8.6832772979973
OMA0485 OMA7478 2021-04-10 16:25:32 32047 435 34.336934204074 -8.6574443486176
OMA0485 OMA7478 2021-04-10 16:25:17 32047 437 34.315482435191 -8.631331887344
OMA0485 OMA7478 2021-04-10 16:25:03 32050 435 34.294187424038 -8.6054140942082
OMA0485 OMA7478 2021-04-10 16:24:47 32048 431 34.272914012972 -8.5795190861565
OMA0485 OMA7478 2021-04-10 16:24:32 32034 425 34.252012897241 -8.5540945073839
OMA0485 OMA7478 2021-04-10 16:24:17 31690 427 34.231099541018 -8.5286898855703
OMA0485 OMA7478 2021-04-10 16:24:02 31268 427 34.210252997796 -8.5033776847539
OMA0485 OMA7478 2021-04-10 16:23:47 30787 429 34.189226316696 -8.4778745054451
OMA0485 OMA7478 2021-04-10 16:23:32 30299 431 34.168083218783 -8.452335841169
OMA0485 OMA7478 2021-04-10 16:23:17 29829 433 34.146759050788 -8.4267054229064
OMA0485 OMA7478 2021-04-10 16:23:02 29322 435 34.12549300511 -8.4011994154723
OMA0485 OMA7478 2021-04-10 16:22:47 28885 435 34.103974037291 -8.3754475212281
OMA0485 OMA7478 2021-04-10 16:22:32 28481 433 34.082572288047 -8.3499190221945
OMA0485 OMA7478 2021-04-10 16:22:17 28100 431 34.061112497437 -8.3244131214821
OMA0485 OMA7478 2021-04-10 16:22:02 27717 429 34.03982971988 -8.2992314679923
OMA0485 OMA7478 2021-04-10 16:21:47 27331 427 34.018434109189 -8.2741540816091
OMA0485 OMA7478 2021-04-10 16:21:32 26911 425 33.996872111934 -8.2496129717974
OMA0485 OMA7478 2021-04-10 16:21:17 26514 425 33.97445909774 -8.2263996134078
OMA0485 OMA7478 2021-04-10 16:21:02 26081 425 33.950863966729 -8.2053684604373
OMA0485 OMA7478 2021-04-10 16:20:47 25638 423 33.926715106041 -8.1849343487096
OMA0485 OMA7478 2021-04-10 16:20:32 25197 419 33.902718659399 -8.1646432440677
OMA0485 OMA7478 2021-04-10 16:20:17 24725 417 33.878994050569 -8.1445959184822
OMA0485 OMA7478 2021-04-10 16:20:04 24252 415 33.855253675988 -8.1245475657003
OMA0485 OMA7478 2021-04-10 16:19:47 23773 412 33.831841247202 -8.1047899695356
OMA0485 OMA7478 2021-04-10 16:19:32 23264 410 33.808422722366 -8.0850403574886
OMA0485 OMA7478 2021-04-10 16:19:17 22777 406 33.785311460475 -8.0655611782441
OMA0485 OMA7478 2021-04-10 16:19:02 22241 404 33.762156898984 -8.0460610515297
OMA0485 OMA7478 2021-04-10 16:18:47 21710 400 33.739350782274 -8.0268679748355
OMA0485 OMA7478 2021-04-10 16:18:32 21155 398 33.716516730399 -8.0076646019981
OMA0485 OMA7478 2021-04-10 16:18:17 20577 396 33.694030928638 -7.9887703269035
OMA0485 OMA7478 2021-04-10 16:18:03 19997 392 33.671584442101 -7.9699255598416
OMA0485 OMA7478 2021-04-10 16:17:47 19391 388 33.649414283624 -7.9513362695355
OMA0485 OMA7478 2021-04-10 16:17:32 18782 386 33.627285732864 -7.9328173054985
OMA0485 OMA7478 2021-04-10 16:17:17 18141 382 33.605453263105 -7.9145353636999
OMA0485 OMA7478 2021-04-10 16:17:02 17497 379 33.583804298787 -7.896131899229
OMA0485 OMA7478 2021-04-10 16:16:47 16828 377 33.562623425303 -7.8778436141591
OMA0485 OMA7478 2021-04-10 16:16:32 16142 373 33.541479806286 -7.859591547768
OMA0485 OMA7478 2021-04-10 16:16:17 15436 369 33.520651484889 -7.8416165175849
OMA0485 OMA7478 2021-04-10 16:16:02 14714 365 33.499908363097 -7.8237201279588
OMA0485 OMA7478 2021-04-10 16:15:47 13979 363 33.479484997018 -7.8061077781526
OMA0485 OMA7478 2021-04-10 16:15:32 13242 359 33.459084358194 -7.7885239630625
OMA0485 OMA7478 2021-04-10 16:15:17 12486 355 33.43900182804 -7.7712281765161
OMA0485 OMA7478 2021-04-10 16:15:02 11755 351 33.41895839624 -7.7539756522812
OMA0485 OMA7478 2021-04-10 16:14:47 11130 346 33.399231539283 -7.7369948681896
OMA0485 OMA7478 2021-04-10 16:14:32 10702 332 33.380170706937 -7.7205580979933
OMA0485 OMA7478 2021-04-10 16:14:17 10562 305 33.362190684266 -7.7050253673666
OMA0485 OMA7478 2021-04-10 16:14:03 10315 281 33.345607810623 -7.6907854101229
OMA0485 OMA7478 2021-04-10 16:13:47 9564 277 33.329837355196 -7.6775299339346
OMA0485 OMA7478 2021-04-10 16:13:32 8777 274 33.313917174558 -7.6648339996497
OMA0485 OMA7478 2021-04-10 16:13:17 7978 272 33.297916939957 -7.6529214560461
OMA0485 OMA7478 2021-04-10 16:13:02 7201 266 33.282530964149 -7.6404369374604
OMA0485 OMA7478 2021-04-10 16:12:47 6342 266 33.27055991543 -7.6240750859015
OMA0485 OMA7478 2021-04-10 16:12:32 5565 262 33.266466400607 -7.6029802867738
OMA0485 OMA7478 2021-04-10 16:12:17 4712 264 33.270124823048 -7.5817359705362
OMA0485 OMA7478 2021-04-10 16:12:03 3974 262 33.282370144739 -7.5661007337111
OMA0485 OMA7478 2021-04-10 16:11:47 3322 256 33.29768025344 -7.5614448658943
OMA0485 OMA7478 2021-04-10 16:11:32 2014 272 33.315485777164 -7.5648386961794
OMA0485 OMA7478 2021-04-10 16:11:17 1189 260 33.332912106689 -7.5725187102926
OMA0485 OMA7478 2021-04-10 16:11:02 1816 178 33.34710029697 -7.5801507796794
OMA0485 OMA7478 2021-04-10 16:10:47 992 178 33.357992351305 -7.5846334114873
OMA0485 OMA7478 2021-04-10 16:10:32 648 161 33.369861316126 -7.588630646297
OMA0485 OMA7478 2021-04-10 16:10:17 646 101 33.378784689533 -7.5914736858586
OMA0485 OMA7478 2021-04-10 16:10:04 643 27 33.383182775698 -7.5931351293741
OMA0485 OMA7478 2021-04-10 16:09:47 642 5 33.383868410976 -7.5930021808092
OMA0485 OMA7478 2021-04-10 16:09:32 641 3 33.384087415936 -7.5925794561326
OMA0485 OMA7478 2021-04-10 16:09:17 641 3 33.384189156342 -7.5922160153635
OMA0485 OMA7478 2021-04-10 16:09:02 640 1 33.384254666634 -7.591945449159
OMA0485 OMA7478 2021-04-10 16:08:47 640 0 33.38429149043 -7.5917866739412
OMA0485 OMA7478 2021-04-10 16:08:32 640 0 33.384302034694 -7.5917411838141
OMA0485 OMA7478 2021-04-10 16:08:17 640 0 33.384302040435 -7.5917411838141
OMA0485 OMA7478 2021-04-10 16:08:03 640 0 33.384302040429 -7.5917411838141
OMA0485 OMA7478 2021-04-10 16:07:47 640 0 33.384302040423 -7.5917411838141
OMA0485 OMA7478 2021-04-10 16:07:32 640 0 33.384302040418 -7.5917411838141
OMA0485 OMA7478 2021-04-10 16:07:17 640 0 33.384302040412 -7.5917411838141
OMA0485 OMA7478 2021-04-10 16:07:02 640 0 33.384302040406 -7.5917411838141
OMA0485 OMA7478 2021-04-10 16:06:47 640 0 33.384302040401 -7.5917411838141
OMA0485 OMA7478 2021-04-10 16:06:32 640 0 33.384302040395 -7.5917411838141
OMA0485 OMA7478 2021-04-10 16:06:17 640 0 33.38430204039 -7.5917411838141
OMA0485 OMA7478 2021-04-10 16:06:02 640 0 33.384302040384 -7.5917411838141
OMA0485 OMA7478 2021-04-10 16:05:47 640 0 33.384302040378 -7.5917411838141
OMA0485 OMA7478 2021-04-10 16:05:32 640 0 33.384302040373 -7.5917411838141
OMA0485 OMA7478 2021-04-10 16:05:17 640 0 33.384302040354 -7.5917411838141
OMA0485 OMA7478 2021-04-10 16:05:02 640 0 33.384302048043 -7.5917411838141
OMA0485 OMA7478 2021-04-10 16:04:47 640 0 33.384302047846 -7.5917411838141
OMA0485 OMA7478 2021-04-10 16:04:32 640 0 33.384302060219 -7.5917411304532
OMA0485 OMA7478 2021-04-10 16:04:17 640 0 33.384302060167 -7.5917411304532
OMA0485 OMA7478 2021-04-10 16:04:02 640 0 33.384302060197 -7.5917411304532
OMA0485 OMA7478 2021-04-10 16:03:47 640 0 33.384302060201 -7.5917411304532
OMA0485 OMA7478 2021-04-10 16:03:32 640 0 33.384302060195 -7.5917411304532
OMA0485 OMA7478 2021-04-10 16:03:17 640 0 33.384302060158 -7.5917411304532
OMA0485 OMA7478 2021-04-10 16:03:02 640 0 33.384302060138 -7.5917411304532
OMA0485 OMA7478 2021-04-10 16:02:47 640 0 33.384302060133 -7.5917411304532
OMA0485 OMA7478 2021-04-10 16:02:32 640 0 33.384302060127 -7.5917411304532
OMA0485 OMA7478 2021-04-10 16:02:17 640 0 33.384302060121 -7.5917411304532
OMA0485 OMA7478 2021-04-10 16:02:03 640 0 33.384302060117 -7.5917411304532
OMA0485 OMA7478 2021-04-10 16:01:47 640 3 33.384318621207 -7.5916704273232
OMA0485 OMA7478 2021-04-10 16:01:32 640 3 33.384416945942 -7.5912617632313
OMA0485 OMA7478 2021-04-10 16:01:17 640 5 33.384515053449 -7.5907820224834
OMA0485 OMA7478 2021-04-10 16:01:02 640 7 33.384415060801 -7.5901847010961
OMA0485 OMA7478 2021-04-10 16:00:47 640 9 33.383828477805 -7.5898283306401
OMA0485 OMA7478 2021-04-10 16:00:32 640 9 33.383146680499 -7.5896047486665
OMA0485 OMA7478 2021-04-10 16:00:17 641 9 33.382470871581 -7.5893849819938
OMA0485 OMA7478 2021-04-10 16:00:07 643 11 33.381703210464 -7.5891350130785
OMA0485 OMA7478 2021-04-10 15:59:47 644 11 33.380894847447 -7.5888697562788
OMA0485 OMA7478 2021-04-10 15:59:32 646 9 33.380129293379 -7.588625897181
OMA0485 OMA7478 2021-04-10 15:59:17 646 11 33.379337041613 -7.5883216335979
OMA0485 OMA7478 2021-04-10 15:59:02 646 17 33.379059178557 -7.5872605263577
OMA0485 OMA7478 2021-04-10 15:58:47 647 15 33.378665946487 -7.5859003848979
OMA0485 OMA7478 2021-04-10 15:58:32 646 9 33.377878789157 -7.5853729395476
OMA0485 OMA7478 2021-04-10 15:58:17 646 0 33.377538916468 -7.5854474046178
OMA0485 OMA7478 2021-04-10 15:58:03 646 0 33.377528137971 -7.5854955627875
OMA0485 OMA7478 2021-04-10 15:57:47 646 0 33.377528390505 -7.5854962564786
OMA0485 OMA7478 2021-04-10 15:57:32 646 0 33.377528586426 -7.5854967367263
OMA0485 OMA7478 2021-04-10 15:57:17 646 0 33.377528586417 -7.5854967367263
OMA0485 OMA7478 2021-04-10 15:57:02 646 0 33.377528586408 -7.5854967367263
OMA0485 OMA7478 2021-04-10 15:56:47 646 0 33.377528586398 -7.5854967367263
OMA0485 OMA7478 2021-04-10 15:56:32 646 0 33.377528586388 -7.5854967367263
OMA0485 OMA7478 2021-04-10 15:56:17 646 0 33.377528586379 -7.5854967367263
OMA0485 OMA7478 2021-04-10 15:56:02 646 0 33.37752858637 -7.5854967367263
OMA0485 OMA7478 2021-04-10 15:55:47 646 0 33.377528586361 -7.5854967367263
OMA0485 OMA7478 2021-04-10 15:55:32 646 0 33.377528586346 -7.5854967367263
OMA0485 OMA7478 2021-04-10 15:55:17 646 0 33.377528586336 -7.5854967367263
OMA0485 OMA7478 2021-04-10 15:55:02 646 0 33.377528586327 -7.5854967367263
OMA0485 OMA7478 2021-04-10 15:54:47 646 0 33.377528586317 -7.5854967367263
OMA0485 OMA7478 2021-04-10 15:54:32 646 0 33.377528586308 -7.5854967367263
OMA0485 OMA7478 2021-04-10 15:54:17 646 0 33.377528586299 -7.5854967367263
OMA0485 OMA7478 2021-04-10 15:54:03 646 0 33.37752858629 -7.5854967367263
OMA0485 OMA7478 2021-04-10 15:53:47 646 0 33.37752858628 -7.5854967367263
OMA0485 OMA7478 2021-04-10 15:53:32 646 0 33.377528586271 -7.5854967367263
OMA0485 OMA7478 2021-04-10 15:53:17 646 0 33.377528586263 -7.5854967367263
OMA0485 OMA7478 2021-04-10 15:53:02 646 0 33.377528586252 -7.5854967367263
OMA0485 OMA7478 2021-04-10 15:52:47 646 0 33.377528586242 -7.5854967367263
OMA0485 OMA7478 2021-04-10 15:52:32 646 0 33.377528586233 -7.5854967367263
OMA0485 OMA7478 2021-04-10 15:52:17 646 0 33.377528586224 -7.5854967367263
OMA0485 OMA7478 2021-04-10 15:52:03 646 0 33.377528586213 -7.5854967367263
OMA0485 OMA7478 2021-04-10 15:51:47 646 0 33.377528586204 -7.5854967367263
OMA0485 OMA7478 2021-04-10 15:51:32 646 0 33.377528586194 -7.5854967367263
OMA0485 OMA7478 2021-04-10 15:51:17 646 0 33.377528586186 -7.5854967367263
OMA0485 OMA7478 2021-04-10 15:51:02 646 0 33.377528586176 -7.5854967367263
OMA0485 OMA7478 2021-04-10 15:50:47 646 0 33.377528586166 -7.5854967367263
OMA0485 OMA7478 2021-04-10 15:50:32 646 0 33.377528586156 -7.5854967367263
OMA0485 OMA7478 2021-04-10 15:50:17 646 0 33.377528586148 -7.5854967367263
OMA0485 OMA7478 2021-04-10 15:50:04 646 0 33.377528586137 -7.5854967367263
OMA0485 OMA7478 2021-04-10 15:49:47 646 0 33.377528586129 -7.5854967367263
OMA0485 OMA7478 2021-04-10 15:49:32 646 0 33.377528586119 -7.5854967367263
OMA0485 OMA7478 2021-04-10 15:49:17 646 0 33.377528586111 -7.5854967367263
OMA0485 OMA7478 2021-04-10 15:49:02 646 0 33.3775285861 -7.5854967367263
OMA0485 OMA7478 2021-04-10 15:48:47 646 0 33.377528586091 -7.5854967367263
OMA0485 OMA7478 2021-04-10 15:48:32 646 0 33.377528586081 -7.5854967367263
OMA0485 OMA7478 2021-04-10 13:28:16 24146 493 34.912783057594 -39.056816508394
OMA0485 OMA7478 2021-04-10 13:28:01 31829 289 34.918705952916 -39.038242089091
OMA0485 OMA7478 2021-04-10 13:27:46 33150 229 34.922846188037 -39.02481987858
OMA0485 OMA7478 2021-04-10 13:27:31 33150 229 34.922846188037 -39.02481987858
OMA0485 OMA7478 2021-04-10 13:27:16 33150 229 34.922846188037 -39.02481987858
OMA0485 OMA7478 2021-04-10 13:27:01 33150 229 34.922846188037 -39.02481987858
OMA0485 OMA7478 2021-04-10 13:26:46 33150 229 34.922846188037 -39.02481987858
OMA0485 OMA7478 2021-04-10 13:26:31 34530 246 34.922246455571 -39.024747487913
OMA0485 OMA7478 2021-04-10 13:26:16 45914 839 34.919551608564 -39.01862067149
OMA0485 OMA7478 2021-04-10 13:26:01 64899 781 34.936543784887 -39.000743646955
OMA0485 OMA7478 2021-04-10 13:25:46 80420 596 34.94741192234 -38.984058065003
OMA0485 OMA7478 2021-04-10 13:25:31 13216 590 34.949373086112 -38.98088883555
OMA0485 OMA7478 2021-04-10 13:25:16 25951 553 34.961245245962 -38.962148145497
OMA0485 OMA7478 2021-04-10 13:25:01 35655 489 34.976557287829 -38.938678855116
OMA0485 OMA7478 2021-04-10 13:24:46 40028 394 34.993806650841 -38.912604788053
OMA0485 OMA7478 2021-04-10 13:24:31 40000 398 34.99946175122 -38.904121359598
OMA0485 OMA7478 2021-04-10 13:24:16 40000 398 34.99946175122 -38.904121359598
OMA0485 OMA7478 2021-04-10 13:24:01 19602 577 34.99946175122 -38.904121372938
OMA0485 OMA7478 2021-04-10 13:23:46 20905 573 35.000687642642 -38.902179758265
OMA0485 OMA7478 2021-04-10 13:23:31 31909 452 35.013532576313 -38.881772520397
OMA0485 OMA7478 2021-04-10 13:23:16 37194 281 35.025654021036 -38.862455544805
OMA0485 OMA7478 2021-04-10 13:23:01 36913 270 35.036738788273 -38.84474879965
OMA0485 OMA7478 2021-04-10 13:22:46 37000 246 35.047753284078 -38.827382896943
OMA0485 OMA7478 2021-04-10 13:22:31 36654 464 35.061125080957 -38.806542482341
OMA0485 OMA7478 2021-04-10 13:22:16 36557 559 35.08255688257 -38.773214801069
OMA0485 OMA7478 2021-04-10 13:22:01 17837 577 35.097885067538 -38.748706241378
OMA0485 OMA7478 2021-04-10 13:21:46 28401 552 35.112845112422 -38.721789666478
OMA0485 OMA7478 2021-04-10 13:21:31 35895 472 35.127010721855 -38.690270878099
OMA0485 OMA7478 2021-04-10 13:21:16 38045 396 35.138726054522 -38.658681813476
OMA0485 OMA7478 2021-04-10 13:21:01 37753 600 35.141059344497 -38.652022592479
OMA0485 OMA7478 2021-04-10 13:20:46 16746 588 35.146752632867 -38.634249765502
OMA0485 OMA7478 2021-04-10 13:20:31 27374 565 35.156526090016 -38.603086280362
OMA0485 OMA7478 2021-04-10 13:20:16 36534 526 35.166738845304 -38.570315833137
OMA0485 OMA7478 2021-04-10 13:20:01 41749 423 35.177226987803 -38.536209070073
OMA0485 OMA7478 2021-04-10 13:19:46 40991 423 35.186826260506 -38.504144640293
OMA0485 OMA7478 2021-04-10 13:19:31 40000 445 35.188905880683 -38.496999515369
OMA0485 OMA7478 2021-04-10 13:19:16 23243 445 35.188905880683 -38.496999515369
OMA0485 OMA7478 2021-04-10 13:19:01 23243 567 35.188905880683 -38.496999515369
OMA0485 OMA7478 2021-04-10 13:18:46 30757 538 35.20354889983 -38.47215891777
OMA0485 OMA7478 2021-04-10 13:18:31 36689 468 35.222322418522 -38.441574664688
OMA0485 OMA7478 2021-04-10 13:18:16 32796 406 35.240323990986 -38.412636167031
OMA0485 OMA7478 2021-04-10 13:18:01 34657 320 35.255687178039 -38.388374668089
OMA0485 OMA7478 2021-04-10 13:17:46 35000 585 35.260947662922 -38.380274624022
OMA0485 OMA7478 2021-04-10 13:17:31 16231 583 35.264424982924 -38.374675443048
OMA0485 OMA7478 2021-04-10 13:17:16 17199 585 35.266340747755 -38.371587103645
OMA0485 OMA7478 2021-04-10 13:17:01 21863 555 35.285947871409 -38.339885447623
OMA0485 OMA7478 2021-04-10 13:16:46 26473 511 35.306569781119 -38.306024091122
OMA0485 OMA7478 2021-04-10 13:16:31 26368 534 35.327874403574 -38.271110752086
OMA0485 OMA7478 2021-04-10 13:16:16 13831 565 35.348908791548 -38.235358953969
OMA0485 OMA7478 2021-04-10 13:16:01 16010 588 35.37072485233 -38.19625918922
OMA0485 OMA7478 2021-04-10 13:15:46 26231 421 35.379974097519 -38.172496267406
OMA0485 OMA7478 2021-04-10 13:15:31 29990 299 35.385780734208 -38.148172643091
OMA0485 OMA7478 2021-04-10 13:15:16 30000 511 35.3861148991 -38.146755832405
OMA0485 OMA7478 2021-04-10 13:15:01 39168 511 35.3861148991 -38.146755819065
OMA0485 OMA7478 2021-04-10 13:14:46 39168 511 35.3861148991 -38.146755819065
OMA0485 OMA7478 2021-04-10 13:14:31 39168 511 35.3861148991 -38.146755819065
OMA0485 OMA7478 2021-04-10 13:14:16 42000 484 35.401369465833 -38.114401066224
OMA0485 OMA7478 2021-04-10 13:14:01 41117 583 35.401369465833 -38.114401066224
OMA0485 OMA7478 2021-04-10 13:13:46 31099 552 35.413225074045 -38.087736141107
OMA0485 OMA7478 2021-04-10 13:13:31 37823 542 35.428335076126 -38.05230315074
OMA0485 OMA7478 2021-04-10 13:13:16 42065 614 35.444703582751 -38.012174935592
OMA0485 OMA7478 2021-04-10 13:13:01 31986 544 35.455260533702 -37.981530803296
OMA0485 OMA7478 2021-04-10 13:12:46 38240 522 35.46721782573 -37.945219484953
OMA0485 OMA7478 2021-04-10 13:12:31 23771 588 35.479219146707 -37.905043395115
OMA0485 OMA7478 2021-04-10 13:12:16 34365 515 35.484472525512 -37.876998471631
OMA0485 OMA7478 2021-04-10 13:12:01 38896 423 35.487851090251 -37.853893675896
OMA0485 OMA7478 2021-04-10 13:11:46 40000 398 35.490645996702 -37.834315739053
OMA0485 OMA7478 2021-04-10 13:11:31 40000 569 35.490645996702 -37.834315739053
OMA0485 OMA7478 2021-04-10 13:11:16 25443 569 35.490645996702 -37.834315792414
OMA0485 OMA7478 2021-04-10 13:11:01 26184 573 35.496265939073 -37.844197515338
OMA0485 OMA7478 2021-04-10 13:10:46 26578 616 35.505337203447 -37.860424057114
OMA0485 OMA7478 2021-04-10 13:10:31 35084 600 35.521998976632 -37.895535504987
OMA0485 OMA7478 2021-04-10 13:10:16 39664 600 35.541962961351 -37.936716803236
OMA0485 OMA7478 2021-04-10 13:10:01 31700 629 35.550024686927 -37.953330641418
OMA0485 OMA7478 2021-04-10 13:09:46 36517 616 35.559029299617 -37.974672239492
OMA0485 OMA7478 2021-04-10 13:09:31 16693 590 35.575681125394 -38.013504522128
OMA0485 OMA7478 2021-04-10 13:09:16 19493 608 35.593354871482 -38.056986122535
OMA0485 OMA7478 2021-04-10 13:09:01 30970 565 35.599150711101 -38.080685898449
OMA0485 OMA7478 2021-04-10 13:08:46 40034 404 35.58449524211 -38.060171685411
OMA0485 OMA7478 2021-04-10 13:08:31 39858 421 35.583263345804 -38.026613566964
OMA0485 OMA7478 2021-04-10 13:08:16 39858 421 35.586413406809 -37.990716598979
OMA0485 OMA7478 2021-04-10 13:08:01 39858 421 35.589534059548 -37.955083678837
OMA0485 OMA7478 2021-04-10 13:07:46 39858 421 35.592670384892 -37.919225582566
OMA0485 OMA7478 2021-04-10 13:07:31 39858 421 35.595779761838 -37.883628637644
OMA0485 OMA7478 2021-04-10 13:07:16 39858 421 35.598907786948 -37.847770984935
OMA0485 OMA7478 2021-04-10 13:07:01 39858 421 35.602004842336 -37.812161140026
OMA0485 OMA7478 2021-04-10 13:06:46 39858 421 35.605119148818 -37.776214468074
OMA0485 OMA7478 2021-04-10 13:06:31 39858 421 35.608193797572 -37.740587174167
OMA0485 OMA7478 2021-04-10 13:06:16 39858 421 35.61129118823 -37.704591543633
OMA0485 OMA7478 2021-04-10 13:06:01 39859 421 35.614346961062 -37.668925256282
OMA0485 OMA7478 2021-04-10 13:05:46 39858 421 35.617392248881 -37.632995892181
OMA0485 OMA7478 2021-04-10 13:05:31 39858 421 35.620393548286 -37.59736338225
OMA0485 OMA7478 2021-04-10 13:05:16 39858 421 35.623411134601 -37.561427889397
OMA0485 OMA7478 2021-04-10 13:05:01 39858 421 35.626412625031 -37.525644314892
OMA0485 OMA7478 2021-04-10 13:04:46 39858 421 35.629421507567 -37.489780485664
OMA0485 OMA7478 2021-04-10 13:04:31 39858 421 35.632417665049 -37.454100484574
OMA0485 OMA7478 2021-04-10 13:04:16 39858 421 35.635439862221 -37.418098850944
OMA0485 OMA7478 2021-04-10 13:04:01 39858 421 35.63841342165 -37.382502653074
OMA0485 OMA7478 2021-04-10 13:03:46 39857 421 35.641374738133 -37.346519055411
OMA0485 OMA7478 2021-04-10 13:03:31 39857 423 35.644240170022 -37.310666645406
OMA0485 OMA7478 2021-04-10 13:03:16 39857 423 35.647008978634 -37.274557489657
OMA0485 OMA7478 2021-04-10 13:03:01 39859 425 35.649665043721 -37.238568715992
OMA0485 OMA7478 2021-04-10 13:02:46 39858 421 35.652290224903 -37.202292807578
OMA0485 OMA7478 2021-04-10 13:02:31 39858 419 35.654870502034 -37.166433193857
OMA0485 OMA7478 2021-04-10 13:02:16 39859 415 35.657421121525 -37.131076412794
OMA0485 OMA7478 2021-04-10 13:02:01 39859 410 35.659994031699 -37.095823965538
OMA0485 OMA7478 2021-04-10 13:01:46 39859 406 35.662582790243 -37.061172815053
OMA0485 OMA7478 2021-04-10 13:01:31 39858 402 35.665241739213 -37.026692429302
OMA0485 OMA7478 2021-04-10 13:01:16 39857 398 35.667920052299 -36.992756468492
OMA0485 OMA7478 2021-04-10 13:01:01 39858 398 35.670615926365 -36.958751420385
OMA0485 OMA7478 2021-04-10 13:00:46 39858 398 35.673285126562 -36.925001494685
OMA0485 OMA7478 2021-04-10 13:00:31 39858 398 35.675963126887 -36.891064565876
OMA0485 OMA7478 2021-04-10 13:00:16 39858 398 35.678621071756 -36.857310851555
OMA0485 OMA7478 2021-04-10 13:00:01 39858 398 35.681288933418 -36.82334980364
OMA0485 OMA7478 2021-04-10 12:59:46 39858 398 35.683934884975 -36.789605254045
OMA0485 OMA7478 2021-04-10 12:59:31 39858 398 35.686572420468 -36.755904246907
OMA0485 OMA7478 2021-04-10 12:59:16 39858 398 35.689229025083 -36.721900096763
OMA0485 OMA7478 2021-04-10 12:59:01 39858 398 35.691881882248 -36.687912728608
OMA0485 OMA7478 2021-04-10 12:58:46 39859 398 35.694498669531 -36.654141978834
OMA0485 OMA7478 2021-04-10 12:58:31 39858 398 35.697098606311 -36.620157110892
OMA0485 OMA7478 2021-04-10 12:58:16 39858 398 35.699672739301 -36.586363789478
OMA0485 OMA7478 2021-04-10 12:58:01 39858 398 35.702251919373 -36.55235809187
OMA0485 OMA7478 2021-04-10 12:57:46 39858 398 35.704805060231 -36.518571013676
OMA0485 OMA7478 2021-04-10 12:57:31 39858 398 35.707366294633 -36.48455987326
OMA0485 OMA7478 2021-04-10 12:57:16 39858 398 35.709899811213 -36.450795740233
OMA0485 OMA7478 2021-04-10 12:57:01 39858 398 35.712429723169 -36.416963225272
OMA0485 OMA7478 2021-04-10 12:56:46 39858 398 35.714961359013 -36.382994026487
OMA0485 OMA7478 2021-04-10 12:56:31 39858 398 35.717473980339 -36.349144462734
OMA0485 OMA7478 2021-04-10 12:56:16 39858 398 35.719988360098 -36.3151371643
OMA0485 OMA7478 2021-04-10 12:56:01 39858 398 35.72247810112 -36.281321458008
OMA0485 OMA7478 2021-04-10 12:55:46 39858 398 35.724969546698 -36.247343614765
OMA0485 OMA7478 2021-04-10 12:55:31 39858 398 35.727439537136 -36.213523279419
OMA0485 OMA7478 2021-04-10 12:55:16 39858 398 35.72991239093 -36.179528827611
OMA0485 OMA7478 2021-04-10 12:55:01 39858 398 35.732365156864 -36.145681611735
OMA0485 OMA7478 2021-04-10 12:54:46 39858 398 35.734820159024 -36.111667222978
OMA0485 OMA7478 2021-04-10 12:54:31 39858 398 35.737247868668 -36.077873081141
OMA0485 OMA7478 2021-04-10 12:54:16 39858 398 35.739682729093 -36.043819625569
OMA0485 OMA7478 2021-04-10 12:54:01 39858 398 35.742091109496 -36.010011486513
OMA0485 OMA7478 2021-04-10 12:53:46 39858 398 35.744513541532 -35.975892705585
OMA0485 OMA7478 2021-04-10 12:53:31 39858 398 35.746904226068 -35.94212329817
OMA0485 OMA7478 2021-04-10 12:53:16 39858 398 35.749308152711 -35.908076892901
OMA0485 OMA7478 2021-04-10 12:53:01 39858 398 35.751691118252 -35.874261766909
OMA0485 OMA7478 2021-04-10 12:52:46 39858 398 35.754084605175 -35.840229215451
OMA0485 OMA7478 2021-04-10 12:52:31 39858 398 35.756454205114 -35.806447179857
OMA0485 OMA7478 2021-04-10 12:52:16 39858 398 35.758836227374 -35.772385520054
OMA0485 OMA7478 2021-04-10 12:52:01 39858 398 35.761196566012 -35.738554365796
OMA0485 OMA7478 2021-04-10 12:51:46 39858 398 35.763575085835 -35.704402646213
OMA0485 OMA7478 2021-04-10 12:51:31 39859 398 35.765926371459 -35.670522533372
OMA0485 OMA7478 2021-04-10 12:51:16 39858 398 35.768252922304 -35.636487506229
OMA0485 OMA7478 2021-04-10 12:51:01 39858 398 35.770553540701 -35.602590077791
OMA0485 OMA7478 2021-04-10 12:50:46 39858 398 35.772857079038 -35.568522001345
OMA0485 OMA7478 2021-04-10 12:50:31 39858 398 35.775136681934 -35.534666141011
OMA0485 OMA7478 2021-04-10 12:50:16 39858 398 35.777419359331 -35.500625812209
OMA0485 OMA7478 2021-04-10 12:50:01 39858 398 35.779684118369 -35.466733132887
OMA0485 OMA7478 2021-04-10 12:49:46 39858 398 35.78195106832 -35.432678209892
OMA0485 OMA7478 2021-04-10 12:49:31 39858 398 35.784196780758 -35.398811890831
OMA0485 OMA7478 2021-04-10 12:49:16 39858 398 35.786448769071 -35.364712945133
OMA0485 OMA7478 2021-04-10 12:49:01 39858 398 35.788676098701 -35.330860579935
OMA0485 OMA7478 2021-04-10 12:48:46 39858 398 35.790923170613 -35.296672308168
OMA0485 OMA7478 2021-04-10 12:48:31 39858 398 35.793149292011 -35.262781870002
OMA0485 OMA7478 2021-04-10 12:48:16 39858 398 35.795381624802 -35.228675560505
OMA0485 OMA7478 2021-04-10 12:48:01 39858 398 35.797573641753 -35.194835348242
OMA0485 OMA7478 2021-04-10 12:47:46 39857 400 35.799743024024 -35.160669047806
OMA0485 OMA7478 2021-04-10 12:47:31 39858 400 35.801843337975 -35.12663344144
OMA0485 OMA7478 2021-04-10 12:47:16 39858 400 35.80390021525 -35.092317530513
OMA0485 OMA7478 2021-04-10 12:47:01 39858 400 35.805901545676 -35.058259659331
OMA0485 OMA7478 2021-04-10 12:46:46 39858 398 35.807893666934 -35.024004548093
OMA0485 OMA7478 2021-04-10 12:46:31 39858 396 35.809846319924 -34.99021480936
OMA0485 OMA7478 2021-04-10 12:46:16 39859 394 35.811805801899 -34.956324782239
OMA0485 OMA7478 2021-04-10 12:46:01 39859 390 35.813760307557 -34.922901111464
OMA0485 OMA7478 2021-04-10 12:45:46 39858 388 35.815755944926 -34.889507442827
OMA0485 OMA7478 2021-04-10 12:45:31 39858 386 35.817768807531 -34.856542161788
OMA0485 OMA7478 2021-04-10 12:45:16 39857 384 35.819798064645 -34.823589860777
OMA0485 OMA7478 2021-04-10 12:45:01 39858 384 35.821822192777 -34.790649886122
OMA0485 OMA7478 2021-04-10 12:44:46 39858 384 35.823827429317 -34.757898075175
OMA0485 OMA7478 2021-04-10 12:44:31 39858 384 35.825842123343 -34.725016557335
OMA0485 OMA7478 2021-04-10 12:44:16 39858 384 35.8278718476 -34.692002651219
OMA0485 OMA7478 2021-04-10 12:44:01 39859 384 35.829874650728 -34.659287966085
OMA0485 OMA7478 2021-04-10 12:43:46 39857 384 35.831850987503 -34.626344408507
OMA0485 OMA7478 2021-04-10 12:43:31 39859 384 35.83379566821 -34.593631751086
OMA0485 OMA7478 2021-04-10 12:43:16 39858 384 35.835741999152 -34.560674007267
OMA0485 OMA7478 2021-04-10 12:43:01 39858 384 35.837670402198 -34.527910603675
OMA0485 OMA7478 2021-04-10 12:42:46 39858 384 35.839546644626 -34.49584211847
OMA0485 OMA7478 2021-04-10 12:42:31 39858 384 35.841455114097 -34.463113666236
OMA0485 OMA7478 2021-04-10 12:42:16 39858 384 35.843374454677 -34.43014794497
OMA0485 OMA7478 2021-04-10 12:42:01 39858 384 35.845279995389 -34.397352338103
OMA0485 OMA7478 2021-04-10 12:41:46 39858 384 35.847186243065 -34.364388591188
OMA0485 OMA7478 2021-04-10 12:41:31 39858 384 35.84907095797 -34.331560887768
OMA0485 OMA7478 2021-04-10 12:41:16 39858 384 35.850954009095 -34.298573101789
OMA0485 OMA7478 2021-04-10 12:41:01 39858 384 35.852810153842 -34.265814794159
OMA0485 OMA7478 2021-04-10 12:40:46 39858 384 35.854671172573 -34.232741070526
OMA0485 OMA7478 2021-04-10 12:40:31 39858 384 35.856500938345 -34.199991367333
OMA0485 OMA7478 2021-04-10 12:40:16 39859 384 35.858334803834 -34.16699141508
OMA0485 OMA7478 2021-04-10 12:40:01 39858 384 35.860152802435 -34.134201731267
OMA0485 OMA7478 2021-04-10 12:39:46 39858 384 35.861980336977 -34.101209916544
OMA0485 OMA7478 2021-04-10 12:39:31 39859 384 35.863785677437 -34.068481010743
OMA0485 OMA7478 2021-04-10 12:39:16 39857 384 35.865596104766 -34.035511484181
OMA0485 OMA7478 2021-04-10 12:39:01 39858 384 35.867381819969 -34.002785891339
OMA0485 OMA7478 2021-04-10 12:38:46 39858 384 35.86917074696 -33.969803080009
OMA0485 OMA7478 2021-04-10 12:38:31 39858 384 35.870947487176 -33.936936316445
OMA0485 OMA7478 2021-04-10 12:38:16 39858 384 35.872725565216 -33.903960549998
OMA0485 OMA7478 2021-04-10 12:38:01 39858 384 35.874482325663 -33.871255830003
OMA0485 OMA7478 2021-04-10 12:37:46 39858 384 35.87624855933 -33.838244965456
OMA0485 OMA7478 2021-04-10 12:37:31 39858 384 35.87799323562 -33.805497450058
OMA0485 OMA7478 2021-04-10 12:37:16 39858 384 35.879741930718 -33.772513052493
OMA0485 OMA7478 2021-04-10 12:37:01 39858 384 35.881478975318 -33.739715337872
OMA0485 OMA7478 2021-04-10 12:36:46 39858 384 35.883231925353 -33.706673283906
OMA0485 OMA7478 2021-04-10 12:36:31 39859 384 35.884974525873 -33.673850943252
OMA0485 OMA7478 2021-04-10 12:36:16 39857 384 35.886700081744 -33.640749597632
OMA0485 OMA7478 2021-04-10 12:36:01 39858 384 35.888383293395 -33.60796687741
OMA0485 OMA7478 2021-04-10 12:35:46 39858 384 35.890053759417 -33.574957747091
OMA0485 OMA7478 2021-04-10 12:35:31 39857 384 35.891692682232 -33.542141196089
OMA0485 OMA7478 2021-04-10 12:35:16 39859 384 35.893329379435 -33.509079078442
OMA0485 OMA7478 2021-04-10 12:35:01 39858 384 35.894964203714 -33.476137983209
OMA0485 OMA7478 2021-04-10 12:34:46 39859 384 35.896610703832 -33.44336598852
OMA0485 OMA7478 2021-04-10 12:34:31 39858 382 35.898287169269 -33.410445944144
OMA0485 OMA7478 2021-04-10 12:34:16 39857 382 35.89995399136 -33.377812474228
OMA0485 OMA7478 2021-04-10 12:34:01 39857 384 35.901590373776 -33.34493357107
OMA0485 OMA7478 2021-04-10 12:33:46 39853 386 35.903149233279 -33.312126038052
OMA0485 OMA7478 2021-04-10 12:33:31 39964 386 35.904730251538 -33.278839324576
OMA0485 OMA7478 2021-04-10 12:33:16 40000 384 35.90632039559 -33.245803887355
OMA0485 OMA7478 2021-04-10 12:33:01 40000 384 35.907917771861 -33.212744451091
OMA0485 OMA7478 2021-04-10 12:32:46 40000 384 35.909504296562 -33.179992800227
OMA0485 OMA7478 2021-04-10 12:32:31 40000 384 35.911099994196 -33.147004854165
OMA0485 OMA7478 2021-04-10 12:32:16 40000 384 35.912683393158 -33.114174616105
OMA0485 OMA7478 2021-04-10 12:32:01 40000 384 35.914275103276 -33.08110139273
OMA0485 OMA7478 2021-04-10 12:31:46 40000 386 35.915847207953 -33.048236833636
OMA0485 OMA7478 2021-04-10 12:31:31 40000 386 35.917419303595 -33.015062077899
OMA0485 OMA7478 2021-04-10 12:31:16 40000 386 35.918960643293 -32.982082554515
OMA0485 OMA7478 2021-04-10 12:31:01 40000 388 35.920498026482 -32.948769729238
OMA0485 OMA7478 2021-04-10 12:30:46 40000 388 35.922012623237 -32.915679340345
OMA0485 OMA7478 2021-04-10 12:30:31 40000 388 35.923530463279 -32.88229013401
OMA0485 OMA7478 2021-04-10 12:30:16 40000 388 35.925029081192 -32.849160461523
OMA0485 OMA7478 2021-04-10 12:30:01 40000 388 35.926530474308 -32.815766452712
OMA0485 OMA7478 2021-04-10 12:29:46 40000 388 35.928009841599 -32.782575188461
OMA0485 OMA7478 2021-04-10 12:29:31 40000 390 35.929488785463 -32.749139638225
OMA0485 OMA7478 2021-04-10 12:29:16 40000 390 35.930958518881 -32.715878164432
OMA0485 OMA7478 2021-04-10 12:29:01 40001 388 35.93244178222 -32.682440066215
OMA0485 OMA7478 2021-04-10 12:28:46 40000 388 35.93390585813 -32.649223994762
OMA0485 OMA7478 2021-04-10 12:28:31 40000 388 35.935365220827 -32.615892671612
OMA0485 OMA7478 2021-04-10 12:28:16 40000 388 35.936823843326 -32.582797576958
OMA0485 OMA7478 2021-04-10 12:28:01 40000 388 35.938288797575 -32.549462358466
OMA0485 OMA7478 2021-04-10 12:27:46 40000 388 35.939723561458 -32.516312302134
OMA0485 OMA7478 2021-04-10 12:27:31 39999 390 35.941135057032 -32.482827139645
OMA0485 OMA7478 2021-04-10 12:27:16 39998 392 35.942500333232 -32.449447951811
OMA0485 OMA7478 2021-04-10 12:27:01 40003 392 35.943869183345 -32.415758950864
OMA0485 OMA7478 2021-04-10 12:26:46 39970 390 35.945234789302 -32.382369384343
OMA0485 OMA7478 2021-04-10 12:26:31 39822 390 35.946604679408 -32.348797617191
OMA0485 OMA7478 2021-04-10 12:26:16 39686 390 35.947970460809 -32.315466320721
OMA0485 OMA7478 2021-04-10 12:26:01 39531 390 35.949359153486 -32.281920140097
OMA0485 OMA7478 2021-04-10 12:25:46 39363 390 35.95076191014 -32.248641190625
OMA0485 OMA7478 2021-04-10 12:25:31 39183 390 35.952223092469 -32.2150899007
OMA0485 OMA7478 2021-04-10 12:25:16 39009 390 35.953755739819 -32.181777880838
OMA0485 OMA7478 2021-04-10 12:25:01 38784 390 35.955396588004 -32.148227124521
OMA0485 OMA7478 2021-04-10 12:24:46 38513 392 35.957124379669 -32.114825244984
OMA0485 OMA7478 2021-04-10 12:24:31 38238 394 35.958881833367 -32.081059951358
OMA0485 OMA7478 2021-04-10 12:24:16 37573 406 35.960399888913 -32.047151036996
OMA0485 OMA7478 2021-04-10 12:24:01 36940 419 35.961749984549 -32.011565728909
OMA0485 OMA7478 2021-04-10 12:23:46 36889 419 35.963085392601 -31.975665978656
OMA0485 OMA7478 2021-04-10 12:23:31 36840 419 35.964417343111 -31.939507062244
OMA0485 OMA7478 2021-04-10 12:23:16 36787 419 35.965724608756 -31.903625790687
OMA0485 OMA7478 2021-04-10 12:23:01 36731 419 35.967026598032 -31.867499586146
OMA0485 OMA7478 2021-04-10 12:22:46 36678 419 35.968306801691 -31.831623804087
OMA0485 OMA7478 2021-04-10 12:22:31 36622 419 35.969585112515 -31.795499680619
OMA0485 OMA7478 2021-04-10 12:22:16 36565 419 35.970849054851 -31.759648711356
OMA0485 OMA7478 2021-04-10 12:22:01 36509 419 35.972122153056 -31.723601160712
OMA0485 OMA7478 2021-04-10 12:21:46 36450 417 35.973387978949 -31.687829912564
OMA0485 OMA7478 2021-04-10 12:21:31 36378 417 35.974628900115 -31.651909921038
OMA0485 OMA7478 2021-04-10 12:21:16 36316 417 35.975820104946 -31.616275535731
OMA0485 OMA7478 2021-04-10 12:21:01 36253 417 35.977003835202 -31.580408184687
OMA0485 OMA7478 2021-04-10 12:20:46 36177 415 35.978163987846 -31.544798086315
OMA0485 OMA7478 2021-04-10 12:20:31 36118 415 35.979319531493 -31.509048075786
OMA0485 OMA7478 2021-04-10 12:20:16 36035 415 35.980456181306 -31.4735396832
OMA0485 OMA7478 2021-04-10 12:20:01 35959 414 35.981587687013 -31.437876730902
OMA0485 OMA7478 2021-04-10 12:19:46 35834 414 35.982688997882 -31.402535064301
OMA0485 OMA7478 2021-04-10 12:19:31 35732 414 35.983783636327 -31.366948418023
OMA0485 OMA7478 2021-04-10 12:19:16 35621 412 35.98486459897 -31.33167235859
OMA0485 OMA7478 2021-04-10 12:19:01 35513 412 35.985948536773 -31.296297581579
OMA0485 OMA7478 2021-04-10 12:18:46 35341 412 35.987016708195 -31.261165383005
OMA0485 OMA7478 2021-04-10 12:18:31 35247 408 35.988113393742 -31.225901196361
OMA0485 OMA7478 2021-04-10 12:18:16 35055 408 35.989193197366 -31.191013590597
OMA0485 OMA7478 2021-04-10 12:18:01 34827 408 35.990262558982 -31.155905030881
OMA0485 OMA7478 2021-04-10 12:17:46 34590 408 35.991311749755 -31.120957434178
OMA0485 OMA7478 2021-04-10 12:17:31 34327 408 35.992345532928 -31.085833533216
OMA0485 OMA7478 2021-04-10 12:17:16 34063 408 35.993348161302 -31.050919360417
OMA0485 OMA7478 2021-04-10 12:17:01 33765 408 35.994309523231 -31.015820977616
OMA0485 OMA7478 2021-04-10 12:16:46 33414 410 35.995195024925 -30.980920121685
OMA0485 OMA7478 2021-04-10 12:16:31 33121 408 35.996025499607 -30.945720956908
OMA0485 OMA7478 2021-04-10 12:16:16 32844 408 35.996772989566 -30.910848682384
OMA0485 OMA7478 2021-04-10 12:16:01 32557 406 35.997426588254 -30.875852920841
OMA0485 OMA7478 2021-04-10 12:15:46 32301 404 35.997982214577 -30.841269191794
OMA0485 OMA7478 2021-04-10 12:15:31 32194 398 35.998499064246 -30.806724923097
OMA0485 OMA7478 2021-04-10 12:15:16 32144 390 35.998996473761 -30.773079638029
OMA0485 OMA7478 2021-04-10 12:15:01 32094 380 35.999495280584 -30.739883557961
OMA0485 OMA7478 2021-04-10 12:14:46 32044 373 36.000009538735 -30.707662567438
OMA0485 OMA7478 2021-04-10 12:14:31 31993 363 36.00057284342 -30.675940607612
OMA0485 OMA7478 2021-04-10 12:14:16 31939 355 36.001184576636 -30.645237939051
OMA0485 OMA7478 2021-04-10 12:14:01 31886 346 36.001867549622 -30.615035055984
OMA0485 OMA7478 2021-04-10 12:13:46 31646 342 36.002544666356 -30.585641657056
OMA0485 OMA7478 2021-04-10 12:13:31 31306 342 36.003180087172 -30.556183851579
OMA0485 OMA7478 2021-04-10 12:13:16 30978 340</